<?xml version="1.0" encoding="UTF-8" standalone="no" ?>
<gpx xmlns="http://www.topografix.com/GPX/1/1" xmlns:xsi="http://www.w3.org/2001/XMLSchema-instance" xsi:schemaLocation="http://www.topografix.com/GPX/1/1 http://www.topografix.com/GPX/1/1/gpx.xsd" version="1.1" creator="VisuGPX - https://www.visugpx.com">
  <metadata>
    <name>SO-SE-Bouaye St Lumine de Coutais St Philbert St Colomban Monbert le Bignon Les Sorinières Rezé Les Couets</name>
    <desc><![CDATA[SO-SE-Bouaye St Lumine de Coutais St Philbert St Colomban Monbert le Bignon Les Sorinières Rezé Les Couets]]></desc>
  </metadata>
  <trk>
    <name><![CDATA[2021-09-05 08:57 +02:00]]></name>
    <trkseg>
      <trkpt lat="47.16784" lon="-1.62666">
        <ele>83</ele>
        <time>2021-09-05T06:57:24.000Z</time>
      </trkpt>
      <trkpt lat="47.16777" lon="-1.62656">
        <ele>79</ele>
        <time>2021-09-05T06:58:14.000Z</time>
      </trkpt>
      <trkpt lat="47.16778" lon="-1.62673">
        <ele>77</ele>
        <time>2021-09-05T06:59:04.000Z</time>
      </trkpt>
      <trkpt lat="47.16769" lon="-1.62679">
        <ele>76</ele>
        <time>2021-09-05T06:59:06.000Z</time>
      </trkpt>
      <trkpt lat="47.16757" lon="-1.62675">
        <ele>75</ele>
        <time>2021-09-05T06:59:08.000Z</time>
      </trkpt>
      <trkpt lat="47.16745" lon="-1.62677">
        <ele>75</ele>
        <time>2021-09-05T06:59:10.000Z</time>
      </trkpt>
      <trkpt lat="47.16734" lon="-1.62685">
        <ele>75</ele>
        <time>2021-09-05T06:59:12.000Z</time>
      </trkpt>
      <trkpt lat="47.16724" lon="-1.62692">
        <ele>75</ele>
        <time>2021-09-05T06:59:14.000Z</time>
      </trkpt>
      <trkpt lat="47.16714" lon="-1.62697">
        <ele>75</ele>
        <time>2021-09-05T06:59:17.000Z</time>
      </trkpt>
      <trkpt lat="47.16705" lon="-1.62689">
        <ele>74</ele>
        <time>2021-09-05T06:59:19.000Z</time>
      </trkpt>
      <trkpt lat="47.167" lon="-1.62671">
        <ele>73</ele>
        <time>2021-09-05T06:59:21.000Z</time>
      </trkpt>
      <trkpt lat="47.16697" lon="-1.62652">
        <ele>73</ele>
        <time>2021-09-05T06:59:23.000Z</time>
      </trkpt>
      <trkpt lat="47.16695" lon="-1.62633">
        <ele>72</ele>
        <time>2021-09-05T06:59:25.000Z</time>
      </trkpt>
      <trkpt lat="47.16695" lon="-1.62613">
        <ele>72</ele>
        <time>2021-09-05T06:59:27.000Z</time>
      </trkpt>
      <trkpt lat="47.16696" lon="-1.62594">
        <ele>71</ele>
        <time>2021-09-05T06:59:29.000Z</time>
      </trkpt>
      <trkpt lat="47.16698" lon="-1.62574">
        <ele>70</ele>
        <time>2021-09-05T06:59:31.000Z</time>
      </trkpt>
      <trkpt lat="47.16699" lon="-1.62554">
        <ele>70</ele>
        <time>2021-09-05T06:59:33.000Z</time>
      </trkpt>
      <trkpt lat="47.16702" lon="-1.62534">
        <ele>70</ele>
        <time>2021-09-05T06:59:35.000Z</time>
      </trkpt>
      <trkpt lat="47.16704" lon="-1.62515">
        <ele>69</ele>
        <time>2021-09-05T06:59:37.000Z</time>
      </trkpt>
      <trkpt lat="47.16708" lon="-1.62495">
        <ele>69</ele>
        <time>2021-09-05T06:59:39.000Z</time>
      </trkpt>
      <trkpt lat="47.16711" lon="-1.62477">
        <ele>68</ele>
        <time>2021-09-05T06:59:41.000Z</time>
      </trkpt>
      <trkpt lat="47.16714" lon="-1.62458">
        <ele>68</ele>
        <time>2021-09-05T06:59:43.000Z</time>
      </trkpt>
      <trkpt lat="47.16717" lon="-1.6244">
        <ele>69</ele>
        <time>2021-09-05T06:59:45.000Z</time>
      </trkpt>
      <trkpt lat="47.1672" lon="-1.62424">
        <ele>68</ele>
        <time>2021-09-05T06:59:47.000Z</time>
      </trkpt>
      <trkpt lat="47.16725" lon="-1.62412">
        <ele>68</ele>
        <time>2021-09-05T06:59:49.000Z</time>
      </trkpt>
      <trkpt lat="47.16716" lon="-1.62401">
        <ele>69</ele>
        <time>2021-09-05T06:59:51.000Z</time>
      </trkpt>
      <trkpt lat="47.16708" lon="-1.62387">
        <ele>69</ele>
        <time>2021-09-05T06:59:53.000Z</time>
      </trkpt>
      <trkpt lat="47.16698" lon="-1.62375">
        <ele>70</ele>
        <time>2021-09-05T06:59:55.000Z</time>
      </trkpt>
      <trkpt lat="47.16687" lon="-1.62365">
        <ele>70</ele>
        <time>2021-09-05T06:59:57.000Z</time>
      </trkpt>
      <trkpt lat="47.16674" lon="-1.62362">
        <ele>71</ele>
        <time>2021-09-05T06:59:59.000Z</time>
      </trkpt>
      <trkpt lat="47.16662" lon="-1.62363">
        <ele>71</ele>
        <time>2021-09-05T07:00:01.000Z</time>
      </trkpt>
      <trkpt lat="47.16651" lon="-1.62369">
        <ele>70</ele>
        <time>2021-09-05T07:00:03.000Z</time>
      </trkpt>
      <trkpt lat="47.1664" lon="-1.62379">
        <ele>71</ele>
        <time>2021-09-05T07:00:05.000Z</time>
      </trkpt>
      <trkpt lat="47.1663" lon="-1.62389">
        <ele>71</ele>
        <time>2021-09-05T07:00:07.000Z</time>
      </trkpt>
      <trkpt lat="47.16621" lon="-1.62403">
        <ele>73</ele>
        <time>2021-09-05T07:00:09.000Z</time>
      </trkpt>
      <trkpt lat="47.16612" lon="-1.62417">
        <ele>73</ele>
        <time>2021-09-05T07:00:11.000Z</time>
      </trkpt>
      <trkpt lat="47.16605" lon="-1.62432">
        <ele>73</ele>
        <time>2021-09-05T07:00:13.000Z</time>
      </trkpt>
      <trkpt lat="47.16597" lon="-1.62448">
        <ele>73</ele>
        <time>2021-09-05T07:00:15.000Z</time>
      </trkpt>
      <trkpt lat="47.16591" lon="-1.62463">
        <ele>74</ele>
        <time>2021-09-05T07:00:17.000Z</time>
      </trkpt>
      <trkpt lat="47.16584" lon="-1.62478">
        <ele>74</ele>
        <time>2021-09-05T07:00:19.000Z</time>
      </trkpt>
      <trkpt lat="47.16578" lon="-1.62495">
        <ele>74</ele>
        <time>2021-09-05T07:00:21.000Z</time>
      </trkpt>
      <trkpt lat="47.16572" lon="-1.6251">
        <ele>75</ele>
        <time>2021-09-05T07:00:23.000Z</time>
      </trkpt>
      <trkpt lat="47.16565" lon="-1.62524">
        <ele>75</ele>
        <time>2021-09-05T07:00:25.000Z</time>
      </trkpt>
      <trkpt lat="47.16558" lon="-1.62537">
        <ele>75</ele>
        <time>2021-09-05T07:00:27.000Z</time>
      </trkpt>
      <trkpt lat="47.16549" lon="-1.62549">
        <ele>76</ele>
        <time>2021-09-05T07:00:29.000Z</time>
      </trkpt>
      <trkpt lat="47.16539" lon="-1.6256">
        <ele>75</ele>
        <time>2021-09-05T07:00:31.000Z</time>
      </trkpt>
      <trkpt lat="47.16528" lon="-1.62565">
        <ele>75</ele>
        <time>2021-09-05T07:00:33.000Z</time>
      </trkpt>
      <trkpt lat="47.16516" lon="-1.62563">
        <ele>75</ele>
        <time>2021-09-05T07:00:35.000Z</time>
      </trkpt>
      <trkpt lat="47.16504" lon="-1.6256">
        <ele>75</ele>
        <time>2021-09-05T07:00:37.000Z</time>
      </trkpt>
      <trkpt lat="47.16492" lon="-1.62557">
        <ele>75</ele>
        <time>2021-09-05T07:00:39.000Z</time>
      </trkpt>
      <trkpt lat="47.16481" lon="-1.62553">
        <ele>75</ele>
        <time>2021-09-05T07:00:41.000Z</time>
      </trkpt>
      <trkpt lat="47.16469" lon="-1.62549">
        <ele>75</ele>
        <time>2021-09-05T07:00:43.000Z</time>
      </trkpt>
      <trkpt lat="47.16458" lon="-1.62546">
        <ele>76</ele>
        <time>2021-09-05T07:00:45.000Z</time>
      </trkpt>
      <trkpt lat="47.16446" lon="-1.62543">
        <ele>76</ele>
        <time>2021-09-05T07:00:47.000Z</time>
      </trkpt>
      <trkpt lat="47.16435" lon="-1.62543">
        <ele>76</ele>
        <time>2021-09-05T07:00:49.000Z</time>
      </trkpt>
      <trkpt lat="47.16425" lon="-1.6255">
        <ele>75</ele>
        <time>2021-09-05T07:00:51.000Z</time>
      </trkpt>
      <trkpt lat="47.16415" lon="-1.6256">
        <ele>76</ele>
        <time>2021-09-05T07:00:53.000Z</time>
      </trkpt>
      <trkpt lat="47.16404" lon="-1.6257">
        <ele>75</ele>
        <time>2021-09-05T07:00:55.000Z</time>
      </trkpt>
      <trkpt lat="47.16393" lon="-1.62578">
        <ele>75</ele>
        <time>2021-09-05T07:00:57.000Z</time>
      </trkpt>
      <trkpt lat="47.1638" lon="-1.62584">
        <ele>74</ele>
        <time>2021-09-05T07:00:59.000Z</time>
      </trkpt>
      <trkpt lat="47.16367" lon="-1.62585">
        <ele>74</ele>
        <time>2021-09-05T07:01:01.000Z</time>
      </trkpt>
      <trkpt lat="47.16354" lon="-1.62583">
        <ele>74</ele>
        <time>2021-09-05T07:01:03.000Z</time>
      </trkpt>
      <trkpt lat="47.16342" lon="-1.6258">
        <ele>73</ele>
        <time>2021-09-05T07:01:05.000Z</time>
      </trkpt>
      <trkpt lat="47.1633" lon="-1.62575">
        <ele>73</ele>
        <time>2021-09-05T07:01:07.000Z</time>
      </trkpt>
      <trkpt lat="47.16319" lon="-1.62571">
        <ele>73</ele>
        <time>2021-09-05T07:01:09.000Z</time>
      </trkpt>
      <trkpt lat="47.16307" lon="-1.62572">
        <ele>73</ele>
        <time>2021-09-05T07:01:11.000Z</time>
      </trkpt>
      <trkpt lat="47.16297" lon="-1.6258">
        <ele>73</ele>
        <time>2021-09-05T07:01:13.000Z</time>
      </trkpt>
      <trkpt lat="47.16289" lon="-1.62593">
        <ele>73</ele>
        <time>2021-09-05T07:01:15.000Z</time>
      </trkpt>
      <trkpt lat="47.16284" lon="-1.6261">
        <ele>74</ele>
        <time>2021-09-05T07:01:17.000Z</time>
      </trkpt>
      <trkpt lat="47.16281" lon="-1.62627">
        <ele>74</ele>
        <time>2021-09-05T07:01:19.000Z</time>
      </trkpt>
      <trkpt lat="47.16278" lon="-1.62646">
        <ele>73</ele>
        <time>2021-09-05T07:01:21.000Z</time>
      </trkpt>
      <trkpt lat="47.16277" lon="-1.62665">
        <ele>74</ele>
        <time>2021-09-05T07:01:23.000Z</time>
      </trkpt>
      <trkpt lat="47.16277" lon="-1.6268">
        <ele>73</ele>
        <time>2021-09-05T07:01:25.000Z</time>
      </trkpt>
      <trkpt lat="47.16278" lon="-1.62694">
        <ele>74</ele>
        <time>2021-09-05T07:01:29.000Z</time>
      </trkpt>
      <trkpt lat="47.1628" lon="-1.62712">
        <ele>75</ele>
        <time>2021-09-05T07:01:34.000Z</time>
      </trkpt>
      <trkpt lat="47.1628" lon="-1.62729">
        <ele>75</ele>
        <time>2021-09-05T07:01:37.000Z</time>
      </trkpt>
      <trkpt lat="47.16272" lon="-1.62734">
        <ele>75</ele>
        <time>2021-09-05T07:01:39.000Z</time>
      </trkpt>
      <trkpt lat="47.16261" lon="-1.62738">
        <ele>75</ele>
        <time>2021-09-05T07:01:41.000Z</time>
      </trkpt>
      <trkpt lat="47.16248" lon="-1.62745">
        <ele>74</ele>
        <time>2021-09-05T07:01:43.000Z</time>
      </trkpt>
      <trkpt lat="47.16236" lon="-1.62752">
        <ele>74</ele>
        <time>2021-09-05T07:01:45.000Z</time>
      </trkpt>
      <trkpt lat="47.16222" lon="-1.62757">
        <ele>74</ele>
        <time>2021-09-05T07:01:47.000Z</time>
      </trkpt>
      <trkpt lat="47.16208" lon="-1.62765">
        <ele>73</ele>
        <time>2021-09-05T07:01:49.000Z</time>
      </trkpt>
      <trkpt lat="47.16195" lon="-1.62775">
        <ele>73</ele>
        <time>2021-09-05T07:01:51.000Z</time>
      </trkpt>
      <trkpt lat="47.16182" lon="-1.62787">
        <ele>72</ele>
        <time>2021-09-05T07:01:53.000Z</time>
      </trkpt>
      <trkpt lat="47.16169" lon="-1.62799">
        <ele>71</ele>
        <time>2021-09-05T07:01:55.000Z</time>
      </trkpt>
      <trkpt lat="47.16156" lon="-1.6281">
        <ele>71</ele>
        <time>2021-09-05T07:01:57.000Z</time>
      </trkpt>
      <trkpt lat="47.16143" lon="-1.62822">
        <ele>70</ele>
        <time>2021-09-05T07:01:59.000Z</time>
      </trkpt>
      <trkpt lat="47.1613" lon="-1.62833">
        <ele>70</ele>
        <time>2021-09-05T07:02:01.000Z</time>
      </trkpt>
      <trkpt lat="47.16117" lon="-1.62844">
        <ele>69</ele>
        <time>2021-09-05T07:02:03.000Z</time>
      </trkpt>
      <trkpt lat="47.16104" lon="-1.62856">
        <ele>68</ele>
        <time>2021-09-05T07:02:05.000Z</time>
      </trkpt>
      <trkpt lat="47.16091" lon="-1.62867">
        <ele>68</ele>
        <time>2021-09-05T07:02:07.000Z</time>
      </trkpt>
      <trkpt lat="47.16077" lon="-1.62879">
        <ele>67</ele>
        <time>2021-09-05T07:02:09.000Z</time>
      </trkpt>
      <trkpt lat="47.16064" lon="-1.62892">
        <ele>67</ele>
        <time>2021-09-05T07:02:11.000Z</time>
      </trkpt>
      <trkpt lat="47.1605" lon="-1.62904">
        <ele>67</ele>
        <time>2021-09-05T07:02:13.000Z</time>
      </trkpt>
      <trkpt lat="47.16037" lon="-1.62916">
        <ele>66</ele>
        <time>2021-09-05T07:02:15.000Z</time>
      </trkpt>
      <trkpt lat="47.16023" lon="-1.62928">
        <ele>66</ele>
        <time>2021-09-05T07:02:17.000Z</time>
      </trkpt>
      <trkpt lat="47.16009" lon="-1.6294">
        <ele>65</ele>
        <time>2021-09-05T07:02:19.000Z</time>
      </trkpt>
      <trkpt lat="47.15995" lon="-1.62953">
        <ele>64</ele>
        <time>2021-09-05T07:02:21.000Z</time>
      </trkpt>
      <trkpt lat="47.15981" lon="-1.62965">
        <ele>63</ele>
        <time>2021-09-05T07:02:23.000Z</time>
      </trkpt>
      <trkpt lat="47.15967" lon="-1.62977">
        <ele>63</ele>
        <time>2021-09-05T07:02:25.000Z</time>
      </trkpt>
      <trkpt lat="47.15953" lon="-1.6299">
        <ele>62</ele>
        <time>2021-09-05T07:02:27.000Z</time>
      </trkpt>
      <trkpt lat="47.15938" lon="-1.63002">
        <ele>62</ele>
        <time>2021-09-05T07:02:29.000Z</time>
      </trkpt>
      <trkpt lat="47.15924" lon="-1.63015">
        <ele>61</ele>
        <time>2021-09-05T07:02:31.000Z</time>
      </trkpt>
      <trkpt lat="47.1591" lon="-1.63027">
        <ele>61</ele>
        <time>2021-09-05T07:02:33.000Z</time>
      </trkpt>
      <trkpt lat="47.15896" lon="-1.6304">
        <ele>61</ele>
        <time>2021-09-05T07:02:35.000Z</time>
      </trkpt>
      <trkpt lat="47.15882" lon="-1.63052">
        <ele>60</ele>
        <time>2021-09-05T07:02:37.000Z</time>
      </trkpt>
      <trkpt lat="47.15869" lon="-1.63063">
        <ele>60</ele>
        <time>2021-09-05T07:02:39.000Z</time>
      </trkpt>
      <trkpt lat="47.15857" lon="-1.63075">
        <ele>60</ele>
        <time>2021-09-05T07:02:41.000Z</time>
      </trkpt>
      <trkpt lat="47.15844" lon="-1.63086">
        <ele>60</ele>
        <time>2021-09-05T07:02:43.000Z</time>
      </trkpt>
      <trkpt lat="47.15832" lon="-1.63097">
        <ele>61</ele>
        <time>2021-09-05T07:02:45.000Z</time>
      </trkpt>
      <trkpt lat="47.15821" lon="-1.63108">
        <ele>61</ele>
        <time>2021-09-05T07:02:47.000Z</time>
      </trkpt>
      <trkpt lat="47.15809" lon="-1.63118">
        <ele>62</ele>
        <time>2021-09-05T07:02:49.000Z</time>
      </trkpt>
      <trkpt lat="47.15797" lon="-1.63128">
        <ele>62</ele>
        <time>2021-09-05T07:02:51.000Z</time>
      </trkpt>
      <trkpt lat="47.15786" lon="-1.63138">
        <ele>63</ele>
        <time>2021-09-05T07:02:53.000Z</time>
      </trkpt>
      <trkpt lat="47.15774" lon="-1.63149">
        <ele>64</ele>
        <time>2021-09-05T07:02:55.000Z</time>
      </trkpt>
      <trkpt lat="47.15763" lon="-1.63158">
        <ele>64</ele>
        <time>2021-09-05T07:02:57.000Z</time>
      </trkpt>
      <trkpt lat="47.15751" lon="-1.63169">
        <ele>64</ele>
        <time>2021-09-05T07:02:59.000Z</time>
      </trkpt>
      <trkpt lat="47.15739" lon="-1.63179">
        <ele>64</ele>
        <time>2021-09-05T07:03:01.000Z</time>
      </trkpt>
      <trkpt lat="47.15727" lon="-1.6319">
        <ele>65</ele>
        <time>2021-09-05T07:03:03.000Z</time>
      </trkpt>
      <trkpt lat="47.15716" lon="-1.632">
        <ele>65</ele>
        <time>2021-09-05T07:03:05.000Z</time>
      </trkpt>
      <trkpt lat="47.15704" lon="-1.63211">
        <ele>65</ele>
        <time>2021-09-05T07:03:07.000Z</time>
      </trkpt>
      <trkpt lat="47.15692" lon="-1.63221">
        <ele>65</ele>
        <time>2021-09-05T07:03:09.000Z</time>
      </trkpt>
      <trkpt lat="47.1568" lon="-1.63232">
        <ele>65</ele>
        <time>2021-09-05T07:03:11.000Z</time>
      </trkpt>
      <trkpt lat="47.15668" lon="-1.63243">
        <ele>65</ele>
        <time>2021-09-05T07:03:13.000Z</time>
      </trkpt>
      <trkpt lat="47.15656" lon="-1.63253">
        <ele>65</ele>
        <time>2021-09-05T07:03:15.000Z</time>
      </trkpt>
      <trkpt lat="47.15643" lon="-1.63264">
        <ele>65</ele>
        <time>2021-09-05T07:03:17.000Z</time>
      </trkpt>
      <trkpt lat="47.15631" lon="-1.63274">
        <ele>65</ele>
        <time>2021-09-05T07:03:19.000Z</time>
      </trkpt>
      <trkpt lat="47.15619" lon="-1.63285">
        <ele>65</ele>
        <time>2021-09-05T07:03:21.000Z</time>
      </trkpt>
      <trkpt lat="47.15607" lon="-1.63296">
        <ele>65</ele>
        <time>2021-09-05T07:03:23.000Z</time>
      </trkpt>
      <trkpt lat="47.15596" lon="-1.63306">
        <ele>65</ele>
        <time>2021-09-05T07:03:25.000Z</time>
      </trkpt>
      <trkpt lat="47.15584" lon="-1.63316">
        <ele>65</ele>
        <time>2021-09-05T07:03:27.000Z</time>
      </trkpt>
      <trkpt lat="47.15573" lon="-1.63327">
        <ele>66</ele>
        <time>2021-09-05T07:03:29.000Z</time>
      </trkpt>
      <trkpt lat="47.15563" lon="-1.63336">
        <ele>66</ele>
        <time>2021-09-05T07:03:31.000Z</time>
      </trkpt>
      <trkpt lat="47.15553" lon="-1.63345">
        <ele>66</ele>
        <time>2021-09-05T07:03:33.000Z</time>
      </trkpt>
      <trkpt lat="47.15542" lon="-1.63355">
        <ele>66</ele>
        <time>2021-09-05T07:03:35.000Z</time>
      </trkpt>
      <trkpt lat="47.15532" lon="-1.63364">
        <ele>67</ele>
        <time>2021-09-05T07:03:37.000Z</time>
      </trkpt>
      <trkpt lat="47.15522" lon="-1.63373">
        <ele>67</ele>
        <time>2021-09-05T07:03:39.000Z</time>
      </trkpt>
      <trkpt lat="47.15512" lon="-1.63382">
        <ele>68</ele>
        <time>2021-09-05T07:03:41.000Z</time>
      </trkpt>
      <trkpt lat="47.15502" lon="-1.63392">
        <ele>68</ele>
        <time>2021-09-05T07:03:43.000Z</time>
      </trkpt>
      <trkpt lat="47.15492" lon="-1.63401">
        <ele>68</ele>
        <time>2021-09-05T07:03:45.000Z</time>
      </trkpt>
      <trkpt lat="47.15482" lon="-1.63411">
        <ele>69</ele>
        <time>2021-09-05T07:03:47.000Z</time>
      </trkpt>
      <trkpt lat="47.15472" lon="-1.6342">
        <ele>69</ele>
        <time>2021-09-05T07:03:49.000Z</time>
      </trkpt>
      <trkpt lat="47.15462" lon="-1.63429">
        <ele>70</ele>
        <time>2021-09-05T07:03:51.000Z</time>
      </trkpt>
      <trkpt lat="47.15451" lon="-1.63438">
        <ele>70</ele>
        <time>2021-09-05T07:03:53.000Z</time>
      </trkpt>
      <trkpt lat="47.15441" lon="-1.63447">
        <ele>70</ele>
        <time>2021-09-05T07:03:55.000Z</time>
      </trkpt>
      <trkpt lat="47.15432" lon="-1.63456">
        <ele>71</ele>
        <time>2021-09-05T07:03:57.000Z</time>
      </trkpt>
      <trkpt lat="47.15422" lon="-1.63465">
        <ele>71</ele>
        <time>2021-09-05T07:03:59.000Z</time>
      </trkpt>
      <trkpt lat="47.15412" lon="-1.63475">
        <ele>72</ele>
        <time>2021-09-05T07:04:01.000Z</time>
      </trkpt>
      <trkpt lat="47.15403" lon="-1.63486">
        <ele>72</ele>
        <time>2021-09-05T07:04:03.000Z</time>
      </trkpt>
      <trkpt lat="47.15395" lon="-1.63497">
        <ele>72</ele>
        <time>2021-09-05T07:04:05.000Z</time>
      </trkpt>
      <trkpt lat="47.15387" lon="-1.63506">
        <ele>72</ele>
        <time>2021-09-05T07:04:07.000Z</time>
      </trkpt>
      <trkpt lat="47.15376" lon="-1.63511">
        <ele>72</ele>
        <time>2021-09-05T07:04:09.000Z</time>
      </trkpt>
      <trkpt lat="47.15365" lon="-1.63516">
        <ele>72</ele>
        <time>2021-09-05T07:04:11.000Z</time>
      </trkpt>
      <trkpt lat="47.15355" lon="-1.63527">
        <ele>71</ele>
        <time>2021-09-05T07:04:13.000Z</time>
      </trkpt>
      <trkpt lat="47.15345" lon="-1.63537">
        <ele>71</ele>
        <time>2021-09-05T07:04:15.000Z</time>
      </trkpt>
      <trkpt lat="47.15335" lon="-1.63547">
        <ele>71</ele>
        <time>2021-09-05T07:04:17.000Z</time>
      </trkpt>
      <trkpt lat="47.15324" lon="-1.63556">
        <ele>71</ele>
        <time>2021-09-05T07:04:19.000Z</time>
      </trkpt>
      <trkpt lat="47.15312" lon="-1.63563">
        <ele>71</ele>
        <time>2021-09-05T07:04:21.000Z</time>
      </trkpt>
      <trkpt lat="47.15301" lon="-1.63571">
        <ele>71</ele>
        <time>2021-09-05T07:04:23.000Z</time>
      </trkpt>
      <trkpt lat="47.1529" lon="-1.6358">
        <ele>71</ele>
        <time>2021-09-05T07:04:25.000Z</time>
      </trkpt>
      <trkpt lat="47.1528" lon="-1.63589">
        <ele>70</ele>
        <time>2021-09-05T07:04:27.000Z</time>
      </trkpt>
      <trkpt lat="47.15269" lon="-1.63599">
        <ele>70</ele>
        <time>2021-09-05T07:04:29.000Z</time>
      </trkpt>
      <trkpt lat="47.15258" lon="-1.63609">
        <ele>70</ele>
        <time>2021-09-05T07:04:31.000Z</time>
      </trkpt>
      <trkpt lat="47.15247" lon="-1.63619">
        <ele>70</ele>
        <time>2021-09-05T07:04:33.000Z</time>
      </trkpt>
      <trkpt lat="47.15236" lon="-1.63628">
        <ele>70</ele>
        <time>2021-09-05T07:04:35.000Z</time>
      </trkpt>
      <trkpt lat="47.15224" lon="-1.63638">
        <ele>70</ele>
        <time>2021-09-05T07:04:37.000Z</time>
      </trkpt>
      <trkpt lat="47.15213" lon="-1.63647">
        <ele>71</ele>
        <time>2021-09-05T07:04:39.000Z</time>
      </trkpt>
      <trkpt lat="47.15201" lon="-1.63657">
        <ele>70</ele>
        <time>2021-09-05T07:04:41.000Z</time>
      </trkpt>
      <trkpt lat="47.1519" lon="-1.63667">
        <ele>71</ele>
        <time>2021-09-05T07:04:43.000Z</time>
      </trkpt>
      <trkpt lat="47.15178" lon="-1.63678">
        <ele>70</ele>
        <time>2021-09-05T07:04:45.000Z</time>
      </trkpt>
      <trkpt lat="47.15167" lon="-1.63689">
        <ele>70</ele>
        <time>2021-09-05T07:04:47.000Z</time>
      </trkpt>
      <trkpt lat="47.15155" lon="-1.63699">
        <ele>70</ele>
        <time>2021-09-05T07:04:49.000Z</time>
      </trkpt>
      <trkpt lat="47.15143" lon="-1.63709">
        <ele>71</ele>
        <time>2021-09-05T07:04:51.000Z</time>
      </trkpt>
      <trkpt lat="47.15132" lon="-1.6372">
        <ele>71</ele>
        <time>2021-09-05T07:04:53.000Z</time>
      </trkpt>
      <trkpt lat="47.15121" lon="-1.63731">
        <ele>71</ele>
        <time>2021-09-05T07:04:55.000Z</time>
      </trkpt>
      <trkpt lat="47.1511" lon="-1.63743">
        <ele>71</ele>
        <time>2021-09-05T07:04:57.000Z</time>
      </trkpt>
      <trkpt lat="47.151" lon="-1.63755">
        <ele>71</ele>
        <time>2021-09-05T07:04:59.000Z</time>
      </trkpt>
      <trkpt lat="47.15088" lon="-1.63768">
        <ele>71</ele>
        <time>2021-09-05T07:05:01.000Z</time>
      </trkpt>
      <trkpt lat="47.15078" lon="-1.6378">
        <ele>71</ele>
        <time>2021-09-05T07:05:03.000Z</time>
      </trkpt>
      <trkpt lat="47.15068" lon="-1.63793">
        <ele>71</ele>
        <time>2021-09-05T07:05:05.000Z</time>
      </trkpt>
      <trkpt lat="47.15058" lon="-1.63806">
        <ele>71</ele>
        <time>2021-09-05T07:05:07.000Z</time>
      </trkpt>
      <trkpt lat="47.15047" lon="-1.63819">
        <ele>71</ele>
        <time>2021-09-05T07:05:09.000Z</time>
      </trkpt>
      <trkpt lat="47.15037" lon="-1.63833">
        <ele>71</ele>
        <time>2021-09-05T07:05:11.000Z</time>
      </trkpt>
      <trkpt lat="47.15027" lon="-1.63846">
        <ele>71</ele>
        <time>2021-09-05T07:05:13.000Z</time>
      </trkpt>
      <trkpt lat="47.15017" lon="-1.6386">
        <ele>71</ele>
        <time>2021-09-05T07:05:15.000Z</time>
      </trkpt>
      <trkpt lat="47.15008" lon="-1.63874">
        <ele>71</ele>
        <time>2021-09-05T07:05:17.000Z</time>
      </trkpt>
      <trkpt lat="47.14999" lon="-1.63888">
        <ele>71</ele>
        <time>2021-09-05T07:05:19.000Z</time>
      </trkpt>
      <trkpt lat="47.1499" lon="-1.63902">
        <ele>71</ele>
        <time>2021-09-05T07:05:21.000Z</time>
      </trkpt>
      <trkpt lat="47.14981" lon="-1.63916">
        <ele>71</ele>
        <time>2021-09-05T07:05:23.000Z</time>
      </trkpt>
      <trkpt lat="47.14972" lon="-1.6393">
        <ele>71</ele>
        <time>2021-09-05T07:05:25.000Z</time>
      </trkpt>
      <trkpt lat="47.14963" lon="-1.63945">
        <ele>72</ele>
        <time>2021-09-05T07:05:27.000Z</time>
      </trkpt>
      <trkpt lat="47.14955" lon="-1.6396">
        <ele>72</ele>
        <time>2021-09-05T07:05:29.000Z</time>
      </trkpt>
      <trkpt lat="47.14947" lon="-1.63975">
        <ele>72</ele>
        <time>2021-09-05T07:05:31.000Z</time>
      </trkpt>
      <trkpt lat="47.14939" lon="-1.63991">
        <ele>71</ele>
        <time>2021-09-05T07:05:33.000Z</time>
      </trkpt>
      <trkpt lat="47.1493" lon="-1.64006">
        <ele>71</ele>
        <time>2021-09-05T07:05:35.000Z</time>
      </trkpt>
      <trkpt lat="47.14923" lon="-1.64021">
        <ele>71</ele>
        <time>2021-09-05T07:05:37.000Z</time>
      </trkpt>
      <trkpt lat="47.14915" lon="-1.64036">
        <ele>71</ele>
        <time>2021-09-05T07:05:39.000Z</time>
      </trkpt>
      <trkpt lat="47.14907" lon="-1.64052">
        <ele>71</ele>
        <time>2021-09-05T07:05:41.000Z</time>
      </trkpt>
      <trkpt lat="47.149" lon="-1.64068">
        <ele>71</ele>
        <time>2021-09-05T07:05:43.000Z</time>
      </trkpt>
      <trkpt lat="47.14894" lon="-1.64084">
        <ele>72</ele>
        <time>2021-09-05T07:05:45.000Z</time>
      </trkpt>
      <trkpt lat="47.14888" lon="-1.64101">
        <ele>72</ele>
        <time>2021-09-05T07:05:47.000Z</time>
      </trkpt>
      <trkpt lat="47.14882" lon="-1.64118">
        <ele>72</ele>
        <time>2021-09-05T07:05:49.000Z</time>
      </trkpt>
      <trkpt lat="47.14875" lon="-1.64135">
        <ele>72</ele>
        <time>2021-09-05T07:05:51.000Z</time>
      </trkpt>
      <trkpt lat="47.14868" lon="-1.64151">
        <ele>72</ele>
        <time>2021-09-05T07:05:53.000Z</time>
      </trkpt>
      <trkpt lat="47.1486" lon="-1.64165">
        <ele>72</ele>
        <time>2021-09-05T07:05:55.000Z</time>
      </trkpt>
      <trkpt lat="47.14853" lon="-1.64182">
        <ele>72</ele>
        <time>2021-09-05T07:05:57.000Z</time>
      </trkpt>
      <trkpt lat="47.14847" lon="-1.642">
        <ele>72</ele>
        <time>2021-09-05T07:05:59.000Z</time>
      </trkpt>
      <trkpt lat="47.14838" lon="-1.64226">
        <ele>72</ele>
        <time>2021-09-05T07:06:02.000Z</time>
      </trkpt>
      <trkpt lat="47.14833" lon="-1.64244">
        <ele>72</ele>
        <time>2021-09-05T07:06:04.000Z</time>
      </trkpt>
      <trkpt lat="47.14827" lon="-1.64262">
        <ele>72</ele>
        <time>2021-09-05T07:06:06.000Z</time>
      </trkpt>
      <trkpt lat="47.14821" lon="-1.6428">
        <ele>72</ele>
        <time>2021-09-05T07:06:08.000Z</time>
      </trkpt>
      <trkpt lat="47.14816" lon="-1.64298">
        <ele>72</ele>
        <time>2021-09-05T07:06:10.000Z</time>
      </trkpt>
      <trkpt lat="47.14811" lon="-1.64316">
        <ele>72</ele>
        <time>2021-09-05T07:06:12.000Z</time>
      </trkpt>
      <trkpt lat="47.14807" lon="-1.64335">
        <ele>72</ele>
        <time>2021-09-05T07:06:14.000Z</time>
      </trkpt>
      <trkpt lat="47.14802" lon="-1.64353">
        <ele>72</ele>
        <time>2021-09-05T07:06:16.000Z</time>
      </trkpt>
      <trkpt lat="47.14797" lon="-1.64371">
        <ele>72</ele>
        <time>2021-09-05T07:06:18.000Z</time>
      </trkpt>
      <trkpt lat="47.14793" lon="-1.6439">
        <ele>72</ele>
        <time>2021-09-05T07:06:20.000Z</time>
      </trkpt>
      <trkpt lat="47.14789" lon="-1.64409">
        <ele>72</ele>
        <time>2021-09-05T07:06:22.000Z</time>
      </trkpt>
      <trkpt lat="47.14785" lon="-1.64428">
        <ele>72</ele>
        <time>2021-09-05T07:06:24.000Z</time>
      </trkpt>
      <trkpt lat="47.14782" lon="-1.64447">
        <ele>72</ele>
        <time>2021-09-05T07:06:26.000Z</time>
      </trkpt>
      <trkpt lat="47.14778" lon="-1.64467">
        <ele>71</ele>
        <time>2021-09-05T07:06:28.000Z</time>
      </trkpt>
      <trkpt lat="47.14775" lon="-1.64486">
        <ele>71</ele>
        <time>2021-09-05T07:06:30.000Z</time>
      </trkpt>
      <trkpt lat="47.14772" lon="-1.64505">
        <ele>71</ele>
        <time>2021-09-05T07:06:32.000Z</time>
      </trkpt>
      <trkpt lat="47.14769" lon="-1.64524">
        <ele>71</ele>
        <time>2021-09-05T07:06:34.000Z</time>
      </trkpt>
      <trkpt lat="47.14766" lon="-1.64543">
        <ele>71</ele>
        <time>2021-09-05T07:06:36.000Z</time>
      </trkpt>
      <trkpt lat="47.14763" lon="-1.64561">
        <ele>71</ele>
        <time>2021-09-05T07:06:38.000Z</time>
      </trkpt>
      <trkpt lat="47.1476" lon="-1.6458">
        <ele>71</ele>
        <time>2021-09-05T07:06:40.000Z</time>
      </trkpt>
      <trkpt lat="47.14757" lon="-1.64599">
        <ele>71</ele>
        <time>2021-09-05T07:06:42.000Z</time>
      </trkpt>
      <trkpt lat="47.14754" lon="-1.64618">
        <ele>71</ele>
        <time>2021-09-05T07:06:44.000Z</time>
      </trkpt>
      <trkpt lat="47.14751" lon="-1.64639">
        <ele>71</ele>
        <time>2021-09-05T07:06:46.000Z</time>
      </trkpt>
      <trkpt lat="47.14748" lon="-1.64658">
        <ele>70</ele>
        <time>2021-09-05T07:06:48.000Z</time>
      </trkpt>
      <trkpt lat="47.14745" lon="-1.64678">
        <ele>70</ele>
        <time>2021-09-05T07:06:50.000Z</time>
      </trkpt>
      <trkpt lat="47.14741" lon="-1.64698">
        <ele>70</ele>
        <time>2021-09-05T07:06:52.000Z</time>
      </trkpt>
      <trkpt lat="47.14737" lon="-1.64717">
        <ele>70</ele>
        <time>2021-09-05T07:06:54.000Z</time>
      </trkpt>
      <trkpt lat="47.14733" lon="-1.64737">
        <ele>70</ele>
        <time>2021-09-05T07:06:56.000Z</time>
      </trkpt>
      <trkpt lat="47.14728" lon="-1.64758">
        <ele>69</ele>
        <time>2021-09-05T07:06:58.000Z</time>
      </trkpt>
      <trkpt lat="47.14723" lon="-1.64778">
        <ele>69</ele>
        <time>2021-09-05T07:07:00.000Z</time>
      </trkpt>
      <trkpt lat="47.14718" lon="-1.64799">
        <ele>68</ele>
        <time>2021-09-05T07:07:02.000Z</time>
      </trkpt>
      <trkpt lat="47.14713" lon="-1.6482">
        <ele>68</ele>
        <time>2021-09-05T07:07:04.000Z</time>
      </trkpt>
      <trkpt lat="47.14706" lon="-1.64841">
        <ele>68</ele>
        <time>2021-09-05T07:07:06.000Z</time>
      </trkpt>
      <trkpt lat="47.147" lon="-1.64863">
        <ele>67</ele>
        <time>2021-09-05T07:07:08.000Z</time>
      </trkpt>
      <trkpt lat="47.14694" lon="-1.64885">
        <ele>66</ele>
        <time>2021-09-05T07:07:10.000Z</time>
      </trkpt>
      <trkpt lat="47.14688" lon="-1.64906">
        <ele>66</ele>
        <time>2021-09-05T07:07:12.000Z</time>
      </trkpt>
      <trkpt lat="47.14681" lon="-1.64926">
        <ele>66</ele>
        <time>2021-09-05T07:07:14.000Z</time>
      </trkpt>
      <trkpt lat="47.14674" lon="-1.64947">
        <ele>66</ele>
        <time>2021-09-05T07:07:16.000Z</time>
      </trkpt>
      <trkpt lat="47.14667" lon="-1.64968">
        <ele>65</ele>
        <time>2021-09-05T07:07:18.000Z</time>
      </trkpt>
      <trkpt lat="47.14659" lon="-1.64988">
        <ele>65</ele>
        <time>2021-09-05T07:07:20.000Z</time>
      </trkpt>
      <trkpt lat="47.14652" lon="-1.65008">
        <ele>65</ele>
        <time>2021-09-05T07:07:22.000Z</time>
      </trkpt>
      <trkpt lat="47.14644" lon="-1.65028">
        <ele>65</ele>
        <time>2021-09-05T07:07:24.000Z</time>
      </trkpt>
      <trkpt lat="47.14636" lon="-1.65048">
        <ele>64</ele>
        <time>2021-09-05T07:07:26.000Z</time>
      </trkpt>
      <trkpt lat="47.14628" lon="-1.65069">
        <ele>64</ele>
        <time>2021-09-05T07:07:28.000Z</time>
      </trkpt>
      <trkpt lat="47.1462" lon="-1.65088">
        <ele>64</ele>
        <time>2021-09-05T07:07:30.000Z</time>
      </trkpt>
      <trkpt lat="47.14613" lon="-1.65108">
        <ele>64</ele>
        <time>2021-09-05T07:07:32.000Z</time>
      </trkpt>
      <trkpt lat="47.14605" lon="-1.65128">
        <ele>64</ele>
        <time>2021-09-05T07:07:34.000Z</time>
      </trkpt>
      <trkpt lat="47.14598" lon="-1.65147">
        <ele>64</ele>
        <time>2021-09-05T07:07:36.000Z</time>
      </trkpt>
      <trkpt lat="47.14592" lon="-1.65167">
        <ele>64</ele>
        <time>2021-09-05T07:07:38.000Z</time>
      </trkpt>
      <trkpt lat="47.14586" lon="-1.65187">
        <ele>64</ele>
        <time>2021-09-05T07:07:40.000Z</time>
      </trkpt>
      <trkpt lat="47.14581" lon="-1.65208">
        <ele>64</ele>
        <time>2021-09-05T07:07:42.000Z</time>
      </trkpt>
      <trkpt lat="47.14576" lon="-1.6523">
        <ele>63</ele>
        <time>2021-09-05T07:07:44.000Z</time>
      </trkpt>
      <trkpt lat="47.14571" lon="-1.6525">
        <ele>63</ele>
        <time>2021-09-05T07:07:46.000Z</time>
      </trkpt>
      <trkpt lat="47.14566" lon="-1.65271">
        <ele>63</ele>
        <time>2021-09-05T07:07:48.000Z</time>
      </trkpt>
      <trkpt lat="47.14561" lon="-1.65292">
        <ele>63</ele>
        <time>2021-09-05T07:07:50.000Z</time>
      </trkpt>
      <trkpt lat="47.14557" lon="-1.65314">
        <ele>62</ele>
        <time>2021-09-05T07:07:52.000Z</time>
      </trkpt>
      <trkpt lat="47.14552" lon="-1.65335">
        <ele>62</ele>
        <time>2021-09-05T07:07:54.000Z</time>
      </trkpt>
      <trkpt lat="47.14547" lon="-1.65355">
        <ele>62</ele>
        <time>2021-09-05T07:07:56.000Z</time>
      </trkpt>
      <trkpt lat="47.14543" lon="-1.65375">
        <ele>63</ele>
        <time>2021-09-05T07:07:58.000Z</time>
      </trkpt>
      <trkpt lat="47.14537" lon="-1.65395">
        <ele>63</ele>
        <time>2021-09-05T07:08:00.000Z</time>
      </trkpt>
      <trkpt lat="47.14532" lon="-1.65414">
        <ele>63</ele>
        <time>2021-09-05T07:08:02.000Z</time>
      </trkpt>
      <trkpt lat="47.14526" lon="-1.65433">
        <ele>62</ele>
        <time>2021-09-05T07:08:04.000Z</time>
      </trkpt>
      <trkpt lat="47.14519" lon="-1.65452">
        <ele>62</ele>
        <time>2021-09-05T07:08:06.000Z</time>
      </trkpt>
      <trkpt lat="47.14512" lon="-1.65471">
        <ele>62</ele>
        <time>2021-09-05T07:08:08.000Z</time>
      </trkpt>
      <trkpt lat="47.14505" lon="-1.6549">
        <ele>62</ele>
        <time>2021-09-05T07:08:10.000Z</time>
      </trkpt>
      <trkpt lat="47.14498" lon="-1.65508">
        <ele>62</ele>
        <time>2021-09-05T07:08:12.000Z</time>
      </trkpt>
      <trkpt lat="47.1449" lon="-1.65528">
        <ele>62</ele>
        <time>2021-09-05T07:08:14.000Z</time>
      </trkpt>
      <trkpt lat="47.14483" lon="-1.65547">
        <ele>62</ele>
        <time>2021-09-05T07:08:16.000Z</time>
      </trkpt>
      <trkpt lat="47.14476" lon="-1.65565">
        <ele>62</ele>
        <time>2021-09-05T07:08:18.000Z</time>
      </trkpt>
      <trkpt lat="47.14468" lon="-1.65584">
        <ele>61</ele>
        <time>2021-09-05T07:08:20.000Z</time>
      </trkpt>
      <trkpt lat="47.14461" lon="-1.65603">
        <ele>61</ele>
        <time>2021-09-05T07:08:22.000Z</time>
      </trkpt>
      <trkpt lat="47.14454" lon="-1.65621">
        <ele>61</ele>
        <time>2021-09-05T07:08:24.000Z</time>
      </trkpt>
      <trkpt lat="47.14447" lon="-1.65641">
        <ele>61</ele>
        <time>2021-09-05T07:08:26.000Z</time>
      </trkpt>
      <trkpt lat="47.1444" lon="-1.6566">
        <ele>61</ele>
        <time>2021-09-05T07:08:28.000Z</time>
      </trkpt>
      <trkpt lat="47.14434" lon="-1.6568">
        <ele>61</ele>
        <time>2021-09-05T07:08:30.000Z</time>
      </trkpt>
      <trkpt lat="47.14429" lon="-1.65699">
        <ele>61</ele>
        <time>2021-09-05T07:08:32.000Z</time>
      </trkpt>
      <trkpt lat="47.14424" lon="-1.65719">
        <ele>61</ele>
        <time>2021-09-05T07:08:34.000Z</time>
      </trkpt>
      <trkpt lat="47.1442" lon="-1.65739">
        <ele>62</ele>
        <time>2021-09-05T07:08:36.000Z</time>
      </trkpt>
      <trkpt lat="47.14416" lon="-1.65758">
        <ele>61</ele>
        <time>2021-09-05T07:08:38.000Z</time>
      </trkpt>
      <trkpt lat="47.14413" lon="-1.65779">
        <ele>61</ele>
        <time>2021-09-05T07:08:40.000Z</time>
      </trkpt>
      <trkpt lat="47.1441" lon="-1.65799">
        <ele>61</ele>
        <time>2021-09-05T07:08:42.000Z</time>
      </trkpt>
      <trkpt lat="47.14408" lon="-1.6582">
        <ele>60</ele>
        <time>2021-09-05T07:08:44.000Z</time>
      </trkpt>
      <trkpt lat="47.14406" lon="-1.65841">
        <ele>61</ele>
        <time>2021-09-05T07:08:46.000Z</time>
      </trkpt>
      <trkpt lat="47.14404" lon="-1.65861">
        <ele>61</ele>
        <time>2021-09-05T07:08:48.000Z</time>
      </trkpt>
      <trkpt lat="47.14402" lon="-1.65881">
        <ele>61</ele>
        <time>2021-09-05T07:08:50.000Z</time>
      </trkpt>
      <trkpt lat="47.14401" lon="-1.65901">
        <ele>61</ele>
        <time>2021-09-05T07:08:52.000Z</time>
      </trkpt>
      <trkpt lat="47.144" lon="-1.6592">
        <ele>62</ele>
        <time>2021-09-05T07:08:54.000Z</time>
      </trkpt>
      <trkpt lat="47.14399" lon="-1.6594">
        <ele>62</ele>
        <time>2021-09-05T07:08:56.000Z</time>
      </trkpt>
      <trkpt lat="47.14398" lon="-1.6596">
        <ele>62</ele>
        <time>2021-09-05T07:08:58.000Z</time>
      </trkpt>
      <trkpt lat="47.14397" lon="-1.6598">
        <ele>62</ele>
        <time>2021-09-05T07:09:00.000Z</time>
      </trkpt>
      <trkpt lat="47.14397" lon="-1.65999">
        <ele>63</ele>
        <time>2021-09-05T07:09:02.000Z</time>
      </trkpt>
      <trkpt lat="47.14397" lon="-1.66019">
        <ele>63</ele>
        <time>2021-09-05T07:09:04.000Z</time>
      </trkpt>
      <trkpt lat="47.14396" lon="-1.66039">
        <ele>62</ele>
        <time>2021-09-05T07:09:06.000Z</time>
      </trkpt>
      <trkpt lat="47.14396" lon="-1.66059">
        <ele>62</ele>
        <time>2021-09-05T07:09:08.000Z</time>
      </trkpt>
      <trkpt lat="47.14395" lon="-1.66078">
        <ele>62</ele>
        <time>2021-09-05T07:09:10.000Z</time>
      </trkpt>
      <trkpt lat="47.14392" lon="-1.66097">
        <ele>63</ele>
        <time>2021-09-05T07:09:12.000Z</time>
      </trkpt>
      <trkpt lat="47.14389" lon="-1.66115">
        <ele>63</ele>
        <time>2021-09-05T07:09:14.000Z</time>
      </trkpt>
      <trkpt lat="47.14385" lon="-1.66134">
        <ele>63</ele>
        <time>2021-09-05T07:09:16.000Z</time>
      </trkpt>
      <trkpt lat="47.14382" lon="-1.66154">
        <ele>62</ele>
        <time>2021-09-05T07:09:18.000Z</time>
      </trkpt>
      <trkpt lat="47.14379" lon="-1.66174">
        <ele>62</ele>
        <time>2021-09-05T07:09:20.000Z</time>
      </trkpt>
      <trkpt lat="47.14375" lon="-1.66194">
        <ele>62</ele>
        <time>2021-09-05T07:09:22.000Z</time>
      </trkpt>
      <trkpt lat="47.14372" lon="-1.66213">
        <ele>62</ele>
        <time>2021-09-05T07:09:24.000Z</time>
      </trkpt>
      <trkpt lat="47.14368" lon="-1.66233">
        <ele>62</ele>
        <time>2021-09-05T07:09:26.000Z</time>
      </trkpt>
      <trkpt lat="47.14364" lon="-1.66253">
        <ele>62</ele>
        <time>2021-09-05T07:09:28.000Z</time>
      </trkpt>
      <trkpt lat="47.14359" lon="-1.66272">
        <ele>62</ele>
        <time>2021-09-05T07:09:30.000Z</time>
      </trkpt>
      <trkpt lat="47.14354" lon="-1.66291">
        <ele>62</ele>
        <time>2021-09-05T07:09:32.000Z</time>
      </trkpt>
      <trkpt lat="47.14349" lon="-1.6631">
        <ele>62</ele>
        <time>2021-09-05T07:09:34.000Z</time>
      </trkpt>
      <trkpt lat="47.14344" lon="-1.6633">
        <ele>62</ele>
        <time>2021-09-05T07:09:36.000Z</time>
      </trkpt>
      <trkpt lat="47.1434" lon="-1.6635">
        <ele>61</ele>
        <time>2021-09-05T07:09:38.000Z</time>
      </trkpt>
      <trkpt lat="47.14335" lon="-1.6637">
        <ele>61</ele>
        <time>2021-09-05T07:09:40.000Z</time>
      </trkpt>
      <trkpt lat="47.1433" lon="-1.6639">
        <ele>61</ele>
        <time>2021-09-05T07:09:42.000Z</time>
      </trkpt>
      <trkpt lat="47.14325" lon="-1.66409">
        <ele>61</ele>
        <time>2021-09-05T07:09:44.000Z</time>
      </trkpt>
      <trkpt lat="47.1432" lon="-1.66429">
        <ele>61</ele>
        <time>2021-09-05T07:09:46.000Z</time>
      </trkpt>
      <trkpt lat="47.14315" lon="-1.66449">
        <ele>61</ele>
        <time>2021-09-05T07:09:48.000Z</time>
      </trkpt>
      <trkpt lat="47.1431" lon="-1.66469">
        <ele>61</ele>
        <time>2021-09-05T07:09:50.000Z</time>
      </trkpt>
      <trkpt lat="47.14305" lon="-1.66488">
        <ele>61</ele>
        <time>2021-09-05T07:09:52.000Z</time>
      </trkpt>
      <trkpt lat="47.143" lon="-1.66507">
        <ele>61</ele>
        <time>2021-09-05T07:09:54.000Z</time>
      </trkpt>
      <trkpt lat="47.14296" lon="-1.66526">
        <ele>61</ele>
        <time>2021-09-05T07:09:56.000Z</time>
      </trkpt>
      <trkpt lat="47.14291" lon="-1.66545">
        <ele>61</ele>
        <time>2021-09-05T07:09:58.000Z</time>
      </trkpt>
      <trkpt lat="47.14286" lon="-1.66564">
        <ele>61</ele>
        <time>2021-09-05T07:10:00.000Z</time>
      </trkpt>
      <trkpt lat="47.14281" lon="-1.66584">
        <ele>61</ele>
        <time>2021-09-05T07:10:02.000Z</time>
      </trkpt>
      <trkpt lat="47.14275" lon="-1.66604">
        <ele>60</ele>
        <time>2021-09-05T07:10:04.000Z</time>
      </trkpt>
      <trkpt lat="47.14269" lon="-1.66624">
        <ele>60</ele>
        <time>2021-09-05T07:10:06.000Z</time>
      </trkpt>
      <trkpt lat="47.14263" lon="-1.66643">
        <ele>60</ele>
        <time>2021-09-05T07:10:08.000Z</time>
      </trkpt>
      <trkpt lat="47.14256" lon="-1.66663">
        <ele>60</ele>
        <time>2021-09-05T07:10:10.000Z</time>
      </trkpt>
      <trkpt lat="47.1425" lon="-1.66683">
        <ele>59</ele>
        <time>2021-09-05T07:10:12.000Z</time>
      </trkpt>
      <trkpt lat="47.14244" lon="-1.66703">
        <ele>59</ele>
        <time>2021-09-05T07:10:14.000Z</time>
      </trkpt>
      <trkpt lat="47.14237" lon="-1.66723">
        <ele>59</ele>
        <time>2021-09-05T07:10:16.000Z</time>
      </trkpt>
      <trkpt lat="47.14231" lon="-1.66742">
        <ele>59</ele>
        <time>2021-09-05T07:10:18.000Z</time>
      </trkpt>
      <trkpt lat="47.14224" lon="-1.66761">
        <ele>59</ele>
        <time>2021-09-05T07:10:20.000Z</time>
      </trkpt>
      <trkpt lat="47.14218" lon="-1.6678">
        <ele>59</ele>
        <time>2021-09-05T07:10:22.000Z</time>
      </trkpt>
      <trkpt lat="47.14211" lon="-1.66799">
        <ele>59</ele>
        <time>2021-09-05T07:10:24.000Z</time>
      </trkpt>
      <trkpt lat="47.14205" lon="-1.66818">
        <ele>59</ele>
        <time>2021-09-05T07:10:26.000Z</time>
      </trkpt>
      <trkpt lat="47.14199" lon="-1.66837">
        <ele>59</ele>
        <time>2021-09-05T07:10:28.000Z</time>
      </trkpt>
      <trkpt lat="47.14193" lon="-1.66856">
        <ele>59</ele>
        <time>2021-09-05T07:10:30.000Z</time>
      </trkpt>
      <trkpt lat="47.14189" lon="-1.66876">
        <ele>59</ele>
        <time>2021-09-05T07:10:32.000Z</time>
      </trkpt>
      <trkpt lat="47.14185" lon="-1.66896">
        <ele>59</ele>
        <time>2021-09-05T07:10:34.000Z</time>
      </trkpt>
      <trkpt lat="47.14181" lon="-1.66913">
        <ele>59</ele>
        <time>2021-09-05T07:10:36.000Z</time>
      </trkpt>
      <trkpt lat="47.14177" lon="-1.66931">
        <ele>59</ele>
        <time>2021-09-05T07:10:38.000Z</time>
      </trkpt>
      <trkpt lat="47.14174" lon="-1.66949">
        <ele>60</ele>
        <time>2021-09-05T07:10:40.000Z</time>
      </trkpt>
      <trkpt lat="47.14172" lon="-1.66968">
        <ele>60</ele>
        <time>2021-09-05T07:10:42.000Z</time>
      </trkpt>
      <trkpt lat="47.14171" lon="-1.66987">
        <ele>60</ele>
        <time>2021-09-05T07:10:44.000Z</time>
      </trkpt>
      <trkpt lat="47.14171" lon="-1.67008">
        <ele>60</ele>
        <time>2021-09-05T07:10:46.000Z</time>
      </trkpt>
      <trkpt lat="47.14172" lon="-1.67028">
        <ele>60</ele>
        <time>2021-09-05T07:10:48.000Z</time>
      </trkpt>
      <trkpt lat="47.14173" lon="-1.67047">
        <ele>60</ele>
        <time>2021-09-05T07:10:50.000Z</time>
      </trkpt>
      <trkpt lat="47.14174" lon="-1.67066">
        <ele>60</ele>
        <time>2021-09-05T07:10:52.000Z</time>
      </trkpt>
      <trkpt lat="47.14176" lon="-1.67085">
        <ele>60</ele>
        <time>2021-09-05T07:10:54.000Z</time>
      </trkpt>
      <trkpt lat="47.14179" lon="-1.67105">
        <ele>60</ele>
        <time>2021-09-05T07:10:56.000Z</time>
      </trkpt>
      <trkpt lat="47.14181" lon="-1.67123">
        <ele>60</ele>
        <time>2021-09-05T07:10:58.000Z</time>
      </trkpt>
      <trkpt lat="47.14183" lon="-1.67141">
        <ele>60</ele>
        <time>2021-09-05T07:11:00.000Z</time>
      </trkpt>
      <trkpt lat="47.14186" lon="-1.67159">
        <ele>60</ele>
        <time>2021-09-05T07:11:02.000Z</time>
      </trkpt>
      <trkpt lat="47.14189" lon="-1.67175">
        <ele>60</ele>
        <time>2021-09-05T07:11:04.000Z</time>
      </trkpt>
      <trkpt lat="47.14193" lon="-1.67194">
        <ele>61</ele>
        <time>2021-09-05T07:11:06.000Z</time>
      </trkpt>
      <trkpt lat="47.14197" lon="-1.67212">
        <ele>61</ele>
        <time>2021-09-05T07:11:08.000Z</time>
      </trkpt>
      <trkpt lat="47.142" lon="-1.6723">
        <ele>61</ele>
        <time>2021-09-05T07:11:10.000Z</time>
      </trkpt>
      <trkpt lat="47.14193" lon="-1.67245">
        <ele>61</ele>
        <time>2021-09-05T07:11:12.000Z</time>
      </trkpt>
      <trkpt lat="47.1418" lon="-1.67249">
        <ele>61</ele>
        <time>2021-09-05T07:11:14.000Z</time>
      </trkpt>
      <trkpt lat="47.14166" lon="-1.6725">
        <ele>60</ele>
        <time>2021-09-05T07:11:16.000Z</time>
      </trkpt>
      <trkpt lat="47.14151" lon="-1.67251">
        <ele>60</ele>
        <time>2021-09-05T07:11:18.000Z</time>
      </trkpt>
      <trkpt lat="47.14136" lon="-1.67255">
        <ele>60</ele>
        <time>2021-09-05T07:11:20.000Z</time>
      </trkpt>
      <trkpt lat="47.14121" lon="-1.67257">
        <ele>60</ele>
        <time>2021-09-05T07:11:22.000Z</time>
      </trkpt>
      <trkpt lat="47.14105" lon="-1.67259">
        <ele>60</ele>
        <time>2021-09-05T07:11:24.000Z</time>
      </trkpt>
      <trkpt lat="47.1409" lon="-1.67262">
        <ele>59</ele>
        <time>2021-09-05T07:11:26.000Z</time>
      </trkpt>
      <trkpt lat="47.14075" lon="-1.67264">
        <ele>59</ele>
        <time>2021-09-05T07:11:28.000Z</time>
      </trkpt>
      <trkpt lat="47.1406" lon="-1.67266">
        <ele>58</ele>
        <time>2021-09-05T07:11:30.000Z</time>
      </trkpt>
      <trkpt lat="47.14046" lon="-1.67268">
        <ele>58</ele>
        <time>2021-09-05T07:11:32.000Z</time>
      </trkpt>
      <trkpt lat="47.1403" lon="-1.6727">
        <ele>58</ele>
        <time>2021-09-05T07:11:34.000Z</time>
      </trkpt>
      <trkpt lat="47.14014" lon="-1.67273">
        <ele>57</ele>
        <time>2021-09-05T07:11:36.000Z</time>
      </trkpt>
      <trkpt lat="47.13999" lon="-1.67275">
        <ele>57</ele>
        <time>2021-09-05T07:11:38.000Z</time>
      </trkpt>
      <trkpt lat="47.13983" lon="-1.67277">
        <ele>57</ele>
        <time>2021-09-05T07:11:40.000Z</time>
      </trkpt>
      <trkpt lat="47.13968" lon="-1.67279">
        <ele>57</ele>
        <time>2021-09-05T07:11:42.000Z</time>
      </trkpt>
      <trkpt lat="47.13952" lon="-1.67281">
        <ele>57</ele>
        <time>2021-09-05T07:11:44.000Z</time>
      </trkpt>
      <trkpt lat="47.13937" lon="-1.67283">
        <ele>57</ele>
        <time>2021-09-05T07:11:46.000Z</time>
      </trkpt>
      <trkpt lat="47.13922" lon="-1.67286">
        <ele>57</ele>
        <time>2021-09-05T07:11:48.000Z</time>
      </trkpt>
      <trkpt lat="47.13907" lon="-1.6729">
        <ele>56</ele>
        <time>2021-09-05T07:11:50.000Z</time>
      </trkpt>
      <trkpt lat="47.13891" lon="-1.67295">
        <ele>56</ele>
        <time>2021-09-05T07:11:52.000Z</time>
      </trkpt>
      <trkpt lat="47.13877" lon="-1.67299">
        <ele>56</ele>
        <time>2021-09-05T07:11:54.000Z</time>
      </trkpt>
      <trkpt lat="47.13862" lon="-1.67303">
        <ele>56</ele>
        <time>2021-09-05T07:11:56.000Z</time>
      </trkpt>
      <trkpt lat="47.13847" lon="-1.67307">
        <ele>55</ele>
        <time>2021-09-05T07:11:58.000Z</time>
      </trkpt>
      <trkpt lat="47.13832" lon="-1.67311">
        <ele>55</ele>
        <time>2021-09-05T07:12:00.000Z</time>
      </trkpt>
      <trkpt lat="47.13818" lon="-1.67315">
        <ele>55</ele>
        <time>2021-09-05T07:12:02.000Z</time>
      </trkpt>
      <trkpt lat="47.13804" lon="-1.6732">
        <ele>55</ele>
        <time>2021-09-05T07:12:04.000Z</time>
      </trkpt>
      <trkpt lat="47.13794" lon="-1.67333">
        <ele>55</ele>
        <time>2021-09-05T07:12:06.000Z</time>
      </trkpt>
      <trkpt lat="47.13791" lon="-1.67354">
        <ele>54</ele>
        <time>2021-09-05T07:12:08.000Z</time>
      </trkpt>
      <trkpt lat="47.13788" lon="-1.67374">
        <ele>53</ele>
        <time>2021-09-05T07:12:10.000Z</time>
      </trkpt>
      <trkpt lat="47.13785" lon="-1.67394">
        <ele>53</ele>
        <time>2021-09-05T07:12:12.000Z</time>
      </trkpt>
      <trkpt lat="47.13782" lon="-1.67415">
        <ele>53</ele>
        <time>2021-09-05T07:12:14.000Z</time>
      </trkpt>
      <trkpt lat="47.1378" lon="-1.67436">
        <ele>53</ele>
        <time>2021-09-05T07:12:16.000Z</time>
      </trkpt>
      <trkpt lat="47.1378" lon="-1.67456">
        <ele>53</ele>
        <time>2021-09-05T07:12:18.000Z</time>
      </trkpt>
      <trkpt lat="47.13779" lon="-1.67476">
        <ele>54</ele>
        <time>2021-09-05T07:12:20.000Z</time>
      </trkpt>
      <trkpt lat="47.13779" lon="-1.67496">
        <ele>54</ele>
        <time>2021-09-05T07:12:22.000Z</time>
      </trkpt>
      <trkpt lat="47.13779" lon="-1.67515">
        <ele>54</ele>
        <time>2021-09-05T07:12:24.000Z</time>
      </trkpt>
      <trkpt lat="47.13781" lon="-1.67535">
        <ele>54</ele>
        <time>2021-09-05T07:12:26.000Z</time>
      </trkpt>
      <trkpt lat="47.13782" lon="-1.67554">
        <ele>55</ele>
        <time>2021-09-05T07:12:28.000Z</time>
      </trkpt>
      <trkpt lat="47.13783" lon="-1.67572">
        <ele>55</ele>
        <time>2021-09-05T07:12:30.000Z</time>
      </trkpt>
      <trkpt lat="47.13784" lon="-1.67591">
        <ele>55</ele>
        <time>2021-09-05T07:12:32.000Z</time>
      </trkpt>
      <trkpt lat="47.13786" lon="-1.6761">
        <ele>55</ele>
        <time>2021-09-05T07:12:34.000Z</time>
      </trkpt>
      <trkpt lat="47.13787" lon="-1.67628">
        <ele>55</ele>
        <time>2021-09-05T07:12:36.000Z</time>
      </trkpt>
      <trkpt lat="47.13788" lon="-1.67647">
        <ele>56</ele>
        <time>2021-09-05T07:12:38.000Z</time>
      </trkpt>
      <trkpt lat="47.13789" lon="-1.67666">
        <ele>56</ele>
        <time>2021-09-05T07:12:40.000Z</time>
      </trkpt>
      <trkpt lat="47.13791" lon="-1.67686">
        <ele>56</ele>
        <time>2021-09-05T07:12:42.000Z</time>
      </trkpt>
      <trkpt lat="47.13792" lon="-1.67705">
        <ele>56</ele>
        <time>2021-09-05T07:12:44.000Z</time>
      </trkpt>
      <trkpt lat="47.13794" lon="-1.67725">
        <ele>56</ele>
        <time>2021-09-05T07:12:46.000Z</time>
      </trkpt>
      <trkpt lat="47.13795" lon="-1.67744">
        <ele>56</ele>
        <time>2021-09-05T07:12:48.000Z</time>
      </trkpt>
      <trkpt lat="47.13796" lon="-1.67763">
        <ele>55</ele>
        <time>2021-09-05T07:12:50.000Z</time>
      </trkpt>
      <trkpt lat="47.13797" lon="-1.67783">
        <ele>55</ele>
        <time>2021-09-05T07:12:52.000Z</time>
      </trkpt>
      <trkpt lat="47.13798" lon="-1.67803">
        <ele>55</ele>
        <time>2021-09-05T07:12:54.000Z</time>
      </trkpt>
      <trkpt lat="47.13799" lon="-1.67823">
        <ele>55</ele>
        <time>2021-09-05T07:12:56.000Z</time>
      </trkpt>
      <trkpt lat="47.13801" lon="-1.67843">
        <ele>55</ele>
        <time>2021-09-05T07:12:58.000Z</time>
      </trkpt>
      <trkpt lat="47.13802" lon="-1.67862">
        <ele>55</ele>
        <time>2021-09-05T07:13:00.000Z</time>
      </trkpt>
      <trkpt lat="47.13803" lon="-1.67882">
        <ele>55</ele>
        <time>2021-09-05T07:13:02.000Z</time>
      </trkpt>
      <trkpt lat="47.13805" lon="-1.67902">
        <ele>54</ele>
        <time>2021-09-05T07:13:04.000Z</time>
      </trkpt>
      <trkpt lat="47.13806" lon="-1.67923">
        <ele>54</ele>
        <time>2021-09-05T07:13:06.000Z</time>
      </trkpt>
      <trkpt lat="47.13809" lon="-1.67944">
        <ele>54</ele>
        <time>2021-09-05T07:13:08.000Z</time>
      </trkpt>
      <trkpt lat="47.13811" lon="-1.67966">
        <ele>53</ele>
        <time>2021-09-05T07:13:10.000Z</time>
      </trkpt>
      <trkpt lat="47.13814" lon="-1.67988">
        <ele>53</ele>
        <time>2021-09-05T07:13:12.000Z</time>
      </trkpt>
      <trkpt lat="47.13818" lon="-1.68008">
        <ele>53</ele>
        <time>2021-09-05T07:13:14.000Z</time>
      </trkpt>
      <trkpt lat="47.13823" lon="-1.68027">
        <ele>53</ele>
        <time>2021-09-05T07:13:16.000Z</time>
      </trkpt>
      <trkpt lat="47.13829" lon="-1.68044">
        <ele>54</ele>
        <time>2021-09-05T07:13:18.000Z</time>
      </trkpt>
      <trkpt lat="47.13836" lon="-1.68061">
        <ele>55</ele>
        <time>2021-09-05T07:13:20.000Z</time>
      </trkpt>
      <trkpt lat="47.13842" lon="-1.68076">
        <ele>55</ele>
        <time>2021-09-05T07:13:22.000Z</time>
      </trkpt>
      <trkpt lat="47.13849" lon="-1.68092">
        <ele>55</ele>
        <time>2021-09-05T07:13:24.000Z</time>
      </trkpt>
      <trkpt lat="47.13856" lon="-1.68108">
        <ele>55</ele>
        <time>2021-09-05T07:13:26.000Z</time>
      </trkpt>
      <trkpt lat="47.13863" lon="-1.68125">
        <ele>55</ele>
        <time>2021-09-05T07:13:28.000Z</time>
      </trkpt>
      <trkpt lat="47.1387" lon="-1.68141">
        <ele>56</ele>
        <time>2021-09-05T07:13:30.000Z</time>
      </trkpt>
      <trkpt lat="47.13877" lon="-1.68159">
        <ele>56</ele>
        <time>2021-09-05T07:13:32.000Z</time>
      </trkpt>
      <trkpt lat="47.13884" lon="-1.68176">
        <ele>55</ele>
        <time>2021-09-05T07:13:34.000Z</time>
      </trkpt>
      <trkpt lat="47.1389" lon="-1.68193">
        <ele>55</ele>
        <time>2021-09-05T07:13:36.000Z</time>
      </trkpt>
      <trkpt lat="47.13898" lon="-1.6821">
        <ele>55</ele>
        <time>2021-09-05T07:13:38.000Z</time>
      </trkpt>
      <trkpt lat="47.13904" lon="-1.68226">
        <ele>56</ele>
        <time>2021-09-05T07:13:40.000Z</time>
      </trkpt>
      <trkpt lat="47.13911" lon="-1.68242">
        <ele>56</ele>
        <time>2021-09-05T07:13:42.000Z</time>
      </trkpt>
      <trkpt lat="47.13918" lon="-1.68258">
        <ele>56</ele>
        <time>2021-09-05T07:13:44.000Z</time>
      </trkpt>
      <trkpt lat="47.13925" lon="-1.68274">
        <ele>56</ele>
        <time>2021-09-05T07:13:46.000Z</time>
      </trkpt>
      <trkpt lat="47.13932" lon="-1.68292">
        <ele>56</ele>
        <time>2021-09-05T07:13:48.000Z</time>
      </trkpt>
      <trkpt lat="47.13939" lon="-1.68309">
        <ele>56</ele>
        <time>2021-09-05T07:13:50.000Z</time>
      </trkpt>
      <trkpt lat="47.13947" lon="-1.68326">
        <ele>55</ele>
        <time>2021-09-05T07:13:52.000Z</time>
      </trkpt>
      <trkpt lat="47.13954" lon="-1.68343">
        <ele>55</ele>
        <time>2021-09-05T07:13:54.000Z</time>
      </trkpt>
      <trkpt lat="47.13961" lon="-1.68361">
        <ele>56</ele>
        <time>2021-09-05T07:13:56.000Z</time>
      </trkpt>
      <trkpt lat="47.13969" lon="-1.68379">
        <ele>55</ele>
        <time>2021-09-05T07:13:58.000Z</time>
      </trkpt>
      <trkpt lat="47.13977" lon="-1.68397">
        <ele>55</ele>
        <time>2021-09-05T07:14:00.000Z</time>
      </trkpt>
      <trkpt lat="47.13986" lon="-1.68412">
        <ele>56</ele>
        <time>2021-09-05T07:14:02.000Z</time>
      </trkpt>
      <trkpt lat="47.13996" lon="-1.68426">
        <ele>56</ele>
        <time>2021-09-05T07:14:04.000Z</time>
      </trkpt>
      <trkpt lat="47.14005" lon="-1.68441">
        <ele>56</ele>
        <time>2021-09-05T07:14:06.000Z</time>
      </trkpt>
      <trkpt lat="47.14014" lon="-1.68455">
        <ele>56</ele>
        <time>2021-09-05T07:14:08.000Z</time>
      </trkpt>
      <trkpt lat="47.14023" lon="-1.68469">
        <ele>57</ele>
        <time>2021-09-05T07:14:10.000Z</time>
      </trkpt>
      <trkpt lat="47.14032" lon="-1.68483">
        <ele>57</ele>
        <time>2021-09-05T07:14:12.000Z</time>
      </trkpt>
      <trkpt lat="47.14042" lon="-1.68497">
        <ele>57</ele>
        <time>2021-09-05T07:14:14.000Z</time>
      </trkpt>
      <trkpt lat="47.14051" lon="-1.68512">
        <ele>57</ele>
        <time>2021-09-05T07:14:16.000Z</time>
      </trkpt>
      <trkpt lat="47.1406" lon="-1.68527">
        <ele>57</ele>
        <time>2021-09-05T07:14:18.000Z</time>
      </trkpt>
      <trkpt lat="47.1407" lon="-1.68541">
        <ele>57</ele>
        <time>2021-09-05T07:14:20.000Z</time>
      </trkpt>
      <trkpt lat="47.14079" lon="-1.68555">
        <ele>57</ele>
        <time>2021-09-05T07:14:22.000Z</time>
      </trkpt>
      <trkpt lat="47.14088" lon="-1.6857">
        <ele>57</ele>
        <time>2021-09-05T07:14:24.000Z</time>
      </trkpt>
      <trkpt lat="47.14098" lon="-1.68584">
        <ele>57</ele>
        <time>2021-09-05T07:14:26.000Z</time>
      </trkpt>
      <trkpt lat="47.14107" lon="-1.68598">
        <ele>58</ele>
        <time>2021-09-05T07:14:28.000Z</time>
      </trkpt>
      <trkpt lat="47.14117" lon="-1.68612">
        <ele>58</ele>
        <time>2021-09-05T07:14:30.000Z</time>
      </trkpt>
      <trkpt lat="47.14126" lon="-1.68626">
        <ele>58</ele>
        <time>2021-09-05T07:14:32.000Z</time>
      </trkpt>
      <trkpt lat="47.14135" lon="-1.68641">
        <ele>58</ele>
        <time>2021-09-05T07:14:34.000Z</time>
      </trkpt>
      <trkpt lat="47.14145" lon="-1.68655">
        <ele>58</ele>
        <time>2021-09-05T07:14:36.000Z</time>
      </trkpt>
      <trkpt lat="47.14154" lon="-1.6867">
        <ele>58</ele>
        <time>2021-09-05T07:14:38.000Z</time>
      </trkpt>
      <trkpt lat="47.14162" lon="-1.68687">
        <ele>58</ele>
        <time>2021-09-05T07:14:40.000Z</time>
      </trkpt>
      <trkpt lat="47.14171" lon="-1.68702">
        <ele>58</ele>
        <time>2021-09-05T07:14:42.000Z</time>
      </trkpt>
      <trkpt lat="47.14178" lon="-1.68719">
        <ele>58</ele>
        <time>2021-09-05T07:14:44.000Z</time>
      </trkpt>
      <trkpt lat="47.14185" lon="-1.68736">
        <ele>58</ele>
        <time>2021-09-05T07:14:46.000Z</time>
      </trkpt>
      <trkpt lat="47.14192" lon="-1.68754">
        <ele>58</ele>
        <time>2021-09-05T07:14:48.000Z</time>
      </trkpt>
      <trkpt lat="47.14198" lon="-1.68771">
        <ele>59</ele>
        <time>2021-09-05T07:14:50.000Z</time>
      </trkpt>
      <trkpt lat="47.14203" lon="-1.68789">
        <ele>59</ele>
        <time>2021-09-05T07:14:52.000Z</time>
      </trkpt>
      <trkpt lat="47.14206" lon="-1.68807">
        <ele>59</ele>
        <time>2021-09-05T07:14:54.000Z</time>
      </trkpt>
      <trkpt lat="47.14208" lon="-1.68826">
        <ele>59</ele>
        <time>2021-09-05T07:14:56.000Z</time>
      </trkpt>
      <trkpt lat="47.14212" lon="-1.68845">
        <ele>59</ele>
        <time>2021-09-05T07:14:58.000Z</time>
      </trkpt>
      <trkpt lat="47.14216" lon="-1.68863">
        <ele>59</ele>
        <time>2021-09-05T07:15:00.000Z</time>
      </trkpt>
      <trkpt lat="47.1422" lon="-1.68881">
        <ele>59</ele>
        <time>2021-09-05T07:15:02.000Z</time>
      </trkpt>
      <trkpt lat="47.14223" lon="-1.689">
        <ele>59</ele>
        <time>2021-09-05T07:15:04.000Z</time>
      </trkpt>
      <trkpt lat="47.14227" lon="-1.68917">
        <ele>59</ele>
        <time>2021-09-05T07:15:06.000Z</time>
      </trkpt>
      <trkpt lat="47.14223" lon="-1.68933">
        <ele>60</ele>
        <time>2021-09-05T07:15:08.000Z</time>
      </trkpt>
      <trkpt lat="47.14212" lon="-1.68943">
        <ele>59</ele>
        <time>2021-09-05T07:15:10.000Z</time>
      </trkpt>
      <trkpt lat="47.14201" lon="-1.68951">
        <ele>59</ele>
        <time>2021-09-05T07:15:12.000Z</time>
      </trkpt>
      <trkpt lat="47.14192" lon="-1.68968">
        <ele>59</ele>
        <time>2021-09-05T07:15:14.000Z</time>
      </trkpt>
      <trkpt lat="47.14185" lon="-1.68985">
        <ele>59</ele>
        <time>2021-09-05T07:15:16.000Z</time>
      </trkpt>
      <trkpt lat="47.14178" lon="-1.69001">
        <ele>59</ele>
        <time>2021-09-05T07:15:18.000Z</time>
      </trkpt>
      <trkpt lat="47.14171" lon="-1.69016">
        <ele>59</ele>
        <time>2021-09-05T07:15:20.000Z</time>
      </trkpt>
      <trkpt lat="47.14167" lon="-1.69032">
        <ele>59</ele>
        <time>2021-09-05T07:15:22.000Z</time>
      </trkpt>
      <trkpt lat="47.14164" lon="-1.69049">
        <ele>60</ele>
        <time>2021-09-05T07:15:24.000Z</time>
      </trkpt>
      <trkpt lat="47.14161" lon="-1.69066">
        <ele>61</ele>
        <time>2021-09-05T07:15:26.000Z</time>
      </trkpt>
      <trkpt lat="47.14159" lon="-1.69084">
        <ele>61</ele>
        <time>2021-09-05T07:15:28.000Z</time>
      </trkpt>
      <trkpt lat="47.14157" lon="-1.69101">
        <ele>61</ele>
        <time>2021-09-05T07:15:30.000Z</time>
      </trkpt>
      <trkpt lat="47.14154" lon="-1.69118">
        <ele>62</ele>
        <time>2021-09-05T07:15:32.000Z</time>
      </trkpt>
      <trkpt lat="47.14152" lon="-1.69135">
        <ele>62</ele>
        <time>2021-09-05T07:15:34.000Z</time>
      </trkpt>
      <trkpt lat="47.14149" lon="-1.69153">
        <ele>62</ele>
        <time>2021-09-05T07:15:36.000Z</time>
      </trkpt>
      <trkpt lat="47.14147" lon="-1.6917">
        <ele>62</ele>
        <time>2021-09-05T07:15:38.000Z</time>
      </trkpt>
      <trkpt lat="47.14144" lon="-1.69187">
        <ele>63</ele>
        <time>2021-09-05T07:15:40.000Z</time>
      </trkpt>
      <trkpt lat="47.14141" lon="-1.69204">
        <ele>63</ele>
        <time>2021-09-05T07:15:42.000Z</time>
      </trkpt>
      <trkpt lat="47.14139" lon="-1.69222">
        <ele>63</ele>
        <time>2021-09-05T07:15:44.000Z</time>
      </trkpt>
      <trkpt lat="47.14136" lon="-1.69239">
        <ele>63</ele>
        <time>2021-09-05T07:15:46.000Z</time>
      </trkpt>
      <trkpt lat="47.14132" lon="-1.69256">
        <ele>63</ele>
        <time>2021-09-05T07:15:48.000Z</time>
      </trkpt>
      <trkpt lat="47.14129" lon="-1.69273">
        <ele>63</ele>
        <time>2021-09-05T07:15:50.000Z</time>
      </trkpt>
      <trkpt lat="47.14126" lon="-1.6929">
        <ele>63</ele>
        <time>2021-09-05T07:15:52.000Z</time>
      </trkpt>
      <trkpt lat="47.14122" lon="-1.69307">
        <ele>64</ele>
        <time>2021-09-05T07:15:54.000Z</time>
      </trkpt>
      <trkpt lat="47.1412" lon="-1.69324">
        <ele>63</ele>
        <time>2021-09-05T07:15:56.000Z</time>
      </trkpt>
      <trkpt lat="47.14119" lon="-1.69342">
        <ele>64</ele>
        <time>2021-09-05T07:15:58.000Z</time>
      </trkpt>
      <trkpt lat="47.14118" lon="-1.69359">
        <ele>64</ele>
        <time>2021-09-05T07:16:00.000Z</time>
      </trkpt>
      <trkpt lat="47.14116" lon="-1.69377">
        <ele>64</ele>
        <time>2021-09-05T07:16:02.000Z</time>
      </trkpt>
      <trkpt lat="47.14114" lon="-1.69395">
        <ele>63</ele>
        <time>2021-09-05T07:16:04.000Z</time>
      </trkpt>
      <trkpt lat="47.14112" lon="-1.69412">
        <ele>63</ele>
        <time>2021-09-05T07:16:06.000Z</time>
      </trkpt>
      <trkpt lat="47.1411" lon="-1.6943">
        <ele>64</ele>
        <time>2021-09-05T07:16:08.000Z</time>
      </trkpt>
      <trkpt lat="47.14108" lon="-1.69448">
        <ele>64</ele>
        <time>2021-09-05T07:16:10.000Z</time>
      </trkpt>
      <trkpt lat="47.14106" lon="-1.69467">
        <ele>63</ele>
        <time>2021-09-05T07:16:12.000Z</time>
      </trkpt>
      <trkpt lat="47.14104" lon="-1.69486">
        <ele>63</ele>
        <time>2021-09-05T07:16:14.000Z</time>
      </trkpt>
      <trkpt lat="47.14102" lon="-1.69505">
        <ele>62</ele>
        <time>2021-09-05T07:16:16.000Z</time>
      </trkpt>
      <trkpt lat="47.14099" lon="-1.69524">
        <ele>62</ele>
        <time>2021-09-05T07:16:18.000Z</time>
      </trkpt>
      <trkpt lat="47.14097" lon="-1.69544">
        <ele>61</ele>
        <time>2021-09-05T07:16:20.000Z</time>
      </trkpt>
      <trkpt lat="47.14096" lon="-1.69564">
        <ele>61</ele>
        <time>2021-09-05T07:16:22.000Z</time>
      </trkpt>
      <trkpt lat="47.14094" lon="-1.69585">
        <ele>60</ele>
        <time>2021-09-05T07:16:24.000Z</time>
      </trkpt>
      <trkpt lat="47.14093" lon="-1.69605">
        <ele>60</ele>
        <time>2021-09-05T07:16:26.000Z</time>
      </trkpt>
      <trkpt lat="47.14095" lon="-1.69624">
        <ele>60</ele>
        <time>2021-09-05T07:16:28.000Z</time>
      </trkpt>
      <trkpt lat="47.14098" lon="-1.69644">
        <ele>59</ele>
        <time>2021-09-05T07:16:30.000Z</time>
      </trkpt>
      <trkpt lat="47.141" lon="-1.69665">
        <ele>58</ele>
        <time>2021-09-05T07:16:32.000Z</time>
      </trkpt>
      <trkpt lat="47.14102" lon="-1.69685">
        <ele>58</ele>
        <time>2021-09-05T07:16:34.000Z</time>
      </trkpt>
      <trkpt lat="47.14104" lon="-1.69702">
        <ele>57</ele>
        <time>2021-09-05T07:16:36.000Z</time>
      </trkpt>
      <trkpt lat="47.14106" lon="-1.69718">
        <ele>57</ele>
        <time>2021-09-05T07:16:39.000Z</time>
      </trkpt>
      <trkpt lat="47.14098" lon="-1.69732">
        <ele>56</ele>
        <time>2021-09-05T07:16:46.000Z</time>
      </trkpt>
      <trkpt lat="47.14086" lon="-1.69734">
        <ele>57</ele>
        <time>2021-09-05T07:16:48.000Z</time>
      </trkpt>
      <trkpt lat="47.14074" lon="-1.69734">
        <ele>56</ele>
        <time>2021-09-05T07:16:50.000Z</time>
      </trkpt>
      <trkpt lat="47.1406" lon="-1.69734">
        <ele>56</ele>
        <time>2021-09-05T07:16:52.000Z</time>
      </trkpt>
      <trkpt lat="47.14048" lon="-1.69734">
        <ele>57</ele>
        <time>2021-09-05T07:16:54.000Z</time>
      </trkpt>
      <trkpt lat="47.14035" lon="-1.69732">
        <ele>57</ele>
        <time>2021-09-05T07:16:56.000Z</time>
      </trkpt>
      <trkpt lat="47.14022" lon="-1.6973">
        <ele>57</ele>
        <time>2021-09-05T07:16:58.000Z</time>
      </trkpt>
      <trkpt lat="47.14009" lon="-1.6973">
        <ele>57</ele>
        <time>2021-09-05T07:17:00.000Z</time>
      </trkpt>
      <trkpt lat="47.13996" lon="-1.69729">
        <ele>56</ele>
        <time>2021-09-05T07:17:02.000Z</time>
      </trkpt>
      <trkpt lat="47.13982" lon="-1.69728">
        <ele>56</ele>
        <time>2021-09-05T07:17:04.000Z</time>
      </trkpt>
      <trkpt lat="47.13969" lon="-1.69727">
        <ele>57</ele>
        <time>2021-09-05T07:17:06.000Z</time>
      </trkpt>
      <trkpt lat="47.13955" lon="-1.69727">
        <ele>56</ele>
        <time>2021-09-05T07:17:08.000Z</time>
      </trkpt>
      <trkpt lat="47.1394" lon="-1.69725">
        <ele>56</ele>
        <time>2021-09-05T07:17:10.000Z</time>
      </trkpt>
      <trkpt lat="47.13926" lon="-1.69723">
        <ele>55</ele>
        <time>2021-09-05T07:17:12.000Z</time>
      </trkpt>
      <trkpt lat="47.13911" lon="-1.69723">
        <ele>54</ele>
        <time>2021-09-05T07:17:14.000Z</time>
      </trkpt>
      <trkpt lat="47.13896" lon="-1.69723">
        <ele>54</ele>
        <time>2021-09-05T07:17:16.000Z</time>
      </trkpt>
      <trkpt lat="47.13882" lon="-1.69725">
        <ele>55</ele>
        <time>2021-09-05T07:17:18.000Z</time>
      </trkpt>
      <trkpt lat="47.13869" lon="-1.69728">
        <ele>56</ele>
        <time>2021-09-05T07:17:20.000Z</time>
      </trkpt>
      <trkpt lat="47.13856" lon="-1.6973">
        <ele>55</ele>
        <time>2021-09-05T07:17:22.000Z</time>
      </trkpt>
      <trkpt lat="47.13843" lon="-1.69731">
        <ele>55</ele>
        <time>2021-09-05T07:17:24.000Z</time>
      </trkpt>
      <trkpt lat="47.1383" lon="-1.69732">
        <ele>54</ele>
        <time>2021-09-05T07:17:26.000Z</time>
      </trkpt>
      <trkpt lat="47.13816" lon="-1.69731">
        <ele>54</ele>
        <time>2021-09-05T07:17:28.000Z</time>
      </trkpt>
      <trkpt lat="47.13803" lon="-1.69731">
        <ele>54</ele>
        <time>2021-09-05T07:17:30.000Z</time>
      </trkpt>
      <trkpt lat="47.13788" lon="-1.6973">
        <ele>54</ele>
        <time>2021-09-05T07:17:32.000Z</time>
      </trkpt>
      <trkpt lat="47.13774" lon="-1.69729">
        <ele>54</ele>
        <time>2021-09-05T07:17:34.000Z</time>
      </trkpt>
      <trkpt lat="47.1376" lon="-1.6973">
        <ele>54</ele>
        <time>2021-09-05T07:17:36.000Z</time>
      </trkpt>
      <trkpt lat="47.13746" lon="-1.69732">
        <ele>54</ele>
        <time>2021-09-05T07:17:38.000Z</time>
      </trkpt>
      <trkpt lat="47.13733" lon="-1.69736">
        <ele>54</ele>
        <time>2021-09-05T07:17:40.000Z</time>
      </trkpt>
      <trkpt lat="47.1372" lon="-1.69739">
        <ele>54</ele>
        <time>2021-09-05T07:17:42.000Z</time>
      </trkpt>
      <trkpt lat="47.13707" lon="-1.69741">
        <ele>54</ele>
        <time>2021-09-05T07:17:44.000Z</time>
      </trkpt>
      <trkpt lat="47.13694" lon="-1.69742">
        <ele>53</ele>
        <time>2021-09-05T07:17:46.000Z</time>
      </trkpt>
      <trkpt lat="47.1368" lon="-1.69742">
        <ele>54</ele>
        <time>2021-09-05T07:17:48.000Z</time>
      </trkpt>
      <trkpt lat="47.13666" lon="-1.69742">
        <ele>53</ele>
        <time>2021-09-05T07:17:50.000Z</time>
      </trkpt>
      <trkpt lat="47.13645" lon="-1.69742">
        <ele>53</ele>
        <time>2021-09-05T07:17:53.000Z</time>
      </trkpt>
      <trkpt lat="47.13624" lon="-1.69742">
        <ele>53</ele>
        <time>2021-09-05T07:17:56.000Z</time>
      </trkpt>
      <trkpt lat="47.1361" lon="-1.69742">
        <ele>53</ele>
        <time>2021-09-05T07:17:58.000Z</time>
      </trkpt>
      <trkpt lat="47.13597" lon="-1.69741">
        <ele>53</ele>
        <time>2021-09-05T07:18:00.000Z</time>
      </trkpt>
      <trkpt lat="47.13583" lon="-1.69742">
        <ele>53</ele>
        <time>2021-09-05T07:18:02.000Z</time>
      </trkpt>
      <trkpt lat="47.1357" lon="-1.69742">
        <ele>52</ele>
        <time>2021-09-05T07:18:04.000Z</time>
      </trkpt>
      <trkpt lat="47.13556" lon="-1.69742">
        <ele>52</ele>
        <time>2021-09-05T07:18:06.000Z</time>
      </trkpt>
      <trkpt lat="47.13543" lon="-1.69743">
        <ele>52</ele>
        <time>2021-09-05T07:18:08.000Z</time>
      </trkpt>
      <trkpt lat="47.13529" lon="-1.69742">
        <ele>52</ele>
        <time>2021-09-05T07:18:10.000Z</time>
      </trkpt>
      <trkpt lat="47.13515" lon="-1.69742">
        <ele>52</ele>
        <time>2021-09-05T07:18:12.000Z</time>
      </trkpt>
      <trkpt lat="47.13501" lon="-1.69743">
        <ele>52</ele>
        <time>2021-09-05T07:18:14.000Z</time>
      </trkpt>
      <trkpt lat="47.13487" lon="-1.69745">
        <ele>52</ele>
        <time>2021-09-05T07:18:16.000Z</time>
      </trkpt>
      <trkpt lat="47.13473" lon="-1.69748">
        <ele>52</ele>
        <time>2021-09-05T07:18:18.000Z</time>
      </trkpt>
      <trkpt lat="47.1346" lon="-1.69752">
        <ele>53</ele>
        <time>2021-09-05T07:18:20.000Z</time>
      </trkpt>
      <trkpt lat="47.13447" lon="-1.69757">
        <ele>54</ele>
        <time>2021-09-05T07:18:22.000Z</time>
      </trkpt>
      <trkpt lat="47.13435" lon="-1.69764">
        <ele>54</ele>
        <time>2021-09-05T07:18:24.000Z</time>
      </trkpt>
      <trkpt lat="47.13422" lon="-1.69771">
        <ele>55</ele>
        <time>2021-09-05T07:18:26.000Z</time>
      </trkpt>
      <trkpt lat="47.13409" lon="-1.69777">
        <ele>55</ele>
        <time>2021-09-05T07:18:28.000Z</time>
      </trkpt>
      <trkpt lat="47.13397" lon="-1.69784">
        <ele>55</ele>
        <time>2021-09-05T07:18:30.000Z</time>
      </trkpt>
      <trkpt lat="47.13384" lon="-1.6979">
        <ele>56</ele>
        <time>2021-09-05T07:18:32.000Z</time>
      </trkpt>
      <trkpt lat="47.13371" lon="-1.69796">
        <ele>56</ele>
        <time>2021-09-05T07:18:34.000Z</time>
      </trkpt>
      <trkpt lat="47.13358" lon="-1.69804">
        <ele>56</ele>
        <time>2021-09-05T07:18:36.000Z</time>
      </trkpt>
      <trkpt lat="47.13345" lon="-1.6981">
        <ele>56</ele>
        <time>2021-09-05T07:18:38.000Z</time>
      </trkpt>
      <trkpt lat="47.13333" lon="-1.69816">
        <ele>56</ele>
        <time>2021-09-05T07:18:40.000Z</time>
      </trkpt>
      <trkpt lat="47.1332" lon="-1.69822">
        <ele>56</ele>
        <time>2021-09-05T07:18:42.000Z</time>
      </trkpt>
      <trkpt lat="47.13308" lon="-1.69828">
        <ele>55</ele>
        <time>2021-09-05T07:18:44.000Z</time>
      </trkpt>
      <trkpt lat="47.13297" lon="-1.69834">
        <ele>54</ele>
        <time>2021-09-05T07:18:46.000Z</time>
      </trkpt>
      <trkpt lat="47.13285" lon="-1.6984">
        <ele>54</ele>
        <time>2021-09-05T07:18:48.000Z</time>
      </trkpt>
      <trkpt lat="47.13274" lon="-1.69846">
        <ele>55</ele>
        <time>2021-09-05T07:18:50.000Z</time>
      </trkpt>
      <trkpt lat="47.13263" lon="-1.69851">
        <ele>55</ele>
        <time>2021-09-05T07:18:52.000Z</time>
      </trkpt>
      <trkpt lat="47.13251" lon="-1.69857">
        <ele>55</ele>
        <time>2021-09-05T07:18:54.000Z</time>
      </trkpt>
      <trkpt lat="47.1324" lon="-1.69863">
        <ele>54</ele>
        <time>2021-09-05T07:18:56.000Z</time>
      </trkpt>
      <trkpt lat="47.13227" lon="-1.69869">
        <ele>53</ele>
        <time>2021-09-05T07:18:58.000Z</time>
      </trkpt>
      <trkpt lat="47.13214" lon="-1.69876">
        <ele>53</ele>
        <time>2021-09-05T07:19:00.000Z</time>
      </trkpt>
      <trkpt lat="47.132" lon="-1.69884">
        <ele>53</ele>
        <time>2021-09-05T07:19:02.000Z</time>
      </trkpt>
      <trkpt lat="47.13185" lon="-1.69892">
        <ele>53</ele>
        <time>2021-09-05T07:19:04.000Z</time>
      </trkpt>
      <trkpt lat="47.13171" lon="-1.699">
        <ele>53</ele>
        <time>2021-09-05T07:19:06.000Z</time>
      </trkpt>
      <trkpt lat="47.13157" lon="-1.69908">
        <ele>53</ele>
        <time>2021-09-05T07:19:08.000Z</time>
      </trkpt>
      <trkpt lat="47.13143" lon="-1.69916">
        <ele>53</ele>
        <time>2021-09-05T07:19:10.000Z</time>
      </trkpt>
      <trkpt lat="47.1313" lon="-1.69923">
        <ele>54</ele>
        <time>2021-09-05T07:19:12.000Z</time>
      </trkpt>
      <trkpt lat="47.13117" lon="-1.69931">
        <ele>54</ele>
        <time>2021-09-05T07:19:14.000Z</time>
      </trkpt>
      <trkpt lat="47.13104" lon="-1.69938">
        <ele>54</ele>
        <time>2021-09-05T07:19:16.000Z</time>
      </trkpt>
      <trkpt lat="47.13091" lon="-1.69945">
        <ele>54</ele>
        <time>2021-09-05T07:19:18.000Z</time>
      </trkpt>
      <trkpt lat="47.13077" lon="-1.69952">
        <ele>54</ele>
        <time>2021-09-05T07:19:20.000Z</time>
      </trkpt>
      <trkpt lat="47.13063" lon="-1.6996">
        <ele>54</ele>
        <time>2021-09-05T07:19:22.000Z</time>
      </trkpt>
      <trkpt lat="47.13049" lon="-1.69967">
        <ele>53</ele>
        <time>2021-09-05T07:19:24.000Z</time>
      </trkpt>
      <trkpt lat="47.13036" lon="-1.69973">
        <ele>53</ele>
        <time>2021-09-05T07:19:26.000Z</time>
      </trkpt>
      <trkpt lat="47.13022" lon="-1.69979">
        <ele>52</ele>
        <time>2021-09-05T07:19:28.000Z</time>
      </trkpt>
      <trkpt lat="47.1301" lon="-1.69986">
        <ele>52</ele>
        <time>2021-09-05T07:19:30.000Z</time>
      </trkpt>
      <trkpt lat="47.12998" lon="-1.69992">
        <ele>53</ele>
        <time>2021-09-05T07:19:32.000Z</time>
      </trkpt>
      <trkpt lat="47.12984" lon="-1.7">
        <ele>53</ele>
        <time>2021-09-05T07:19:34.000Z</time>
      </trkpt>
      <trkpt lat="47.1297" lon="-1.70007">
        <ele>52</ele>
        <time>2021-09-05T07:19:36.000Z</time>
      </trkpt>
      <trkpt lat="47.12957" lon="-1.70014">
        <ele>52</ele>
        <time>2021-09-05T07:19:38.000Z</time>
      </trkpt>
      <trkpt lat="47.12944" lon="-1.70021">
        <ele>52</ele>
        <time>2021-09-05T07:19:40.000Z</time>
      </trkpt>
      <trkpt lat="47.12931" lon="-1.70028">
        <ele>52</ele>
        <time>2021-09-05T07:19:42.000Z</time>
      </trkpt>
      <trkpt lat="47.12918" lon="-1.70034">
        <ele>53</ele>
        <time>2021-09-05T07:19:44.000Z</time>
      </trkpt>
      <trkpt lat="47.12905" lon="-1.70041">
        <ele>54</ele>
        <time>2021-09-05T07:19:46.000Z</time>
      </trkpt>
      <trkpt lat="47.12892" lon="-1.70048">
        <ele>54</ele>
        <time>2021-09-05T07:19:48.000Z</time>
      </trkpt>
      <trkpt lat="47.12879" lon="-1.70056">
        <ele>54</ele>
        <time>2021-09-05T07:19:50.000Z</time>
      </trkpt>
      <trkpt lat="47.12867" lon="-1.70062">
        <ele>54</ele>
        <time>2021-09-05T07:19:52.000Z</time>
      </trkpt>
      <trkpt lat="47.12854" lon="-1.70069">
        <ele>54</ele>
        <time>2021-09-05T07:19:54.000Z</time>
      </trkpt>
      <trkpt lat="47.12841" lon="-1.70077">
        <ele>53</ele>
        <time>2021-09-05T07:19:56.000Z</time>
      </trkpt>
      <trkpt lat="47.12827" lon="-1.70083">
        <ele>53</ele>
        <time>2021-09-05T07:19:58.000Z</time>
      </trkpt>
      <trkpt lat="47.12814" lon="-1.7009">
        <ele>53</ele>
        <time>2021-09-05T07:20:00.000Z</time>
      </trkpt>
      <trkpt lat="47.12801" lon="-1.70097">
        <ele>53</ele>
        <time>2021-09-05T07:20:02.000Z</time>
      </trkpt>
      <trkpt lat="47.12787" lon="-1.70104">
        <ele>53</ele>
        <time>2021-09-05T07:20:04.000Z</time>
      </trkpt>
      <trkpt lat="47.12774" lon="-1.7011">
        <ele>53</ele>
        <time>2021-09-05T07:20:06.000Z</time>
      </trkpt>
      <trkpt lat="47.12761" lon="-1.70117">
        <ele>53</ele>
        <time>2021-09-05T07:20:08.000Z</time>
      </trkpt>
      <trkpt lat="47.12748" lon="-1.70123">
        <ele>53</ele>
        <time>2021-09-05T07:20:10.000Z</time>
      </trkpt>
      <trkpt lat="47.12735" lon="-1.7013">
        <ele>54</ele>
        <time>2021-09-05T07:20:12.000Z</time>
      </trkpt>
      <trkpt lat="47.12722" lon="-1.70136">
        <ele>55</ele>
        <time>2021-09-05T07:20:14.000Z</time>
      </trkpt>
      <trkpt lat="47.1271" lon="-1.70142">
        <ele>55</ele>
        <time>2021-09-05T07:20:16.000Z</time>
      </trkpt>
      <trkpt lat="47.12697" lon="-1.70149">
        <ele>55</ele>
        <time>2021-09-05T07:20:18.000Z</time>
      </trkpt>
      <trkpt lat="47.12683" lon="-1.70156">
        <ele>54</ele>
        <time>2021-09-05T07:20:20.000Z</time>
      </trkpt>
      <trkpt lat="47.1267" lon="-1.70163">
        <ele>54</ele>
        <time>2021-09-05T07:20:22.000Z</time>
      </trkpt>
      <trkpt lat="47.12657" lon="-1.70171">
        <ele>54</ele>
        <time>2021-09-05T07:20:24.000Z</time>
      </trkpt>
      <trkpt lat="47.12643" lon="-1.70178">
        <ele>53</ele>
        <time>2021-09-05T07:20:26.000Z</time>
      </trkpt>
      <trkpt lat="47.1263" lon="-1.70185">
        <ele>53</ele>
        <time>2021-09-05T07:20:28.000Z</time>
      </trkpt>
      <trkpt lat="47.12617" lon="-1.70192">
        <ele>52</ele>
        <time>2021-09-05T07:20:30.000Z</time>
      </trkpt>
      <trkpt lat="47.12605" lon="-1.70198">
        <ele>53</ele>
        <time>2021-09-05T07:20:32.000Z</time>
      </trkpt>
      <trkpt lat="47.12591" lon="-1.70204">
        <ele>52</ele>
        <time>2021-09-05T07:20:34.000Z</time>
      </trkpt>
      <trkpt lat="47.12578" lon="-1.7021">
        <ele>53</ele>
        <time>2021-09-05T07:20:36.000Z</time>
      </trkpt>
      <trkpt lat="47.12565" lon="-1.70217">
        <ele>53</ele>
        <time>2021-09-05T07:20:38.000Z</time>
      </trkpt>
      <trkpt lat="47.12552" lon="-1.70225">
        <ele>52</ele>
        <time>2021-09-05T07:20:40.000Z</time>
      </trkpt>
      <trkpt lat="47.12539" lon="-1.70232">
        <ele>53</ele>
        <time>2021-09-05T07:20:42.000Z</time>
      </trkpt>
      <trkpt lat="47.12527" lon="-1.70239">
        <ele>53</ele>
        <time>2021-09-05T07:20:44.000Z</time>
      </trkpt>
      <trkpt lat="47.12514" lon="-1.70246">
        <ele>53</ele>
        <time>2021-09-05T07:20:46.000Z</time>
      </trkpt>
      <trkpt lat="47.125" lon="-1.70252">
        <ele>53</ele>
        <time>2021-09-05T07:20:48.000Z</time>
      </trkpt>
      <trkpt lat="47.12487" lon="-1.7026">
        <ele>53</ele>
        <time>2021-09-05T07:20:50.000Z</time>
      </trkpt>
      <trkpt lat="47.12473" lon="-1.70267">
        <ele>52</ele>
        <time>2021-09-05T07:20:52.000Z</time>
      </trkpt>
      <trkpt lat="47.1246" lon="-1.70275">
        <ele>51</ele>
        <time>2021-09-05T07:20:54.000Z</time>
      </trkpt>
      <trkpt lat="47.12447" lon="-1.70286">
        <ele>51</ele>
        <time>2021-09-05T07:20:56.000Z</time>
      </trkpt>
      <trkpt lat="47.12436" lon="-1.70299">
        <ele>52</ele>
        <time>2021-09-05T07:20:58.000Z</time>
      </trkpt>
      <trkpt lat="47.12427" lon="-1.70314">
        <ele>52</ele>
        <time>2021-09-05T07:21:00.000Z</time>
      </trkpt>
      <trkpt lat="47.12419" lon="-1.70331">
        <ele>52</ele>
        <time>2021-09-05T07:21:02.000Z</time>
      </trkpt>
      <trkpt lat="47.12415" lon="-1.7035">
        <ele>53</ele>
        <time>2021-09-05T07:21:04.000Z</time>
      </trkpt>
      <trkpt lat="47.1241" lon="-1.70368">
        <ele>53</ele>
        <time>2021-09-05T07:21:06.000Z</time>
      </trkpt>
      <trkpt lat="47.12406" lon="-1.70387">
        <ele>53</ele>
        <time>2021-09-05T07:21:08.000Z</time>
      </trkpt>
      <trkpt lat="47.12402" lon="-1.70406">
        <ele>53</ele>
        <time>2021-09-05T07:21:10.000Z</time>
      </trkpt>
      <trkpt lat="47.12398" lon="-1.70426">
        <ele>54</ele>
        <time>2021-09-05T07:21:12.000Z</time>
      </trkpt>
      <trkpt lat="47.12396" lon="-1.70445">
        <ele>54</ele>
        <time>2021-09-05T07:21:14.000Z</time>
      </trkpt>
      <trkpt lat="47.12392" lon="-1.70464">
        <ele>53</ele>
        <time>2021-09-05T07:21:16.000Z</time>
      </trkpt>
      <trkpt lat="47.12386" lon="-1.70485">
        <ele>52</ele>
        <time>2021-09-05T07:21:18.000Z</time>
      </trkpt>
      <trkpt lat="47.1238" lon="-1.70504">
        <ele>52</ele>
        <time>2021-09-05T07:21:20.000Z</time>
      </trkpt>
      <trkpt lat="47.12372" lon="-1.70522">
        <ele>51</ele>
        <time>2021-09-05T07:21:22.000Z</time>
      </trkpt>
      <trkpt lat="47.12364" lon="-1.70539">
        <ele>51</ele>
        <time>2021-09-05T07:21:24.000Z</time>
      </trkpt>
      <trkpt lat="47.12356" lon="-1.70556">
        <ele>51</ele>
        <time>2021-09-05T07:21:26.000Z</time>
      </trkpt>
      <trkpt lat="47.12348" lon="-1.70572">
        <ele>51</ele>
        <time>2021-09-05T07:21:28.000Z</time>
      </trkpt>
      <trkpt lat="47.12338" lon="-1.70587">
        <ele>51</ele>
        <time>2021-09-05T07:21:30.000Z</time>
      </trkpt>
      <trkpt lat="47.12329" lon="-1.70601">
        <ele>51</ele>
        <time>2021-09-05T07:21:32.000Z</time>
      </trkpt>
      <trkpt lat="47.1232" lon="-1.70614">
        <ele>51</ele>
        <time>2021-09-05T07:21:34.000Z</time>
      </trkpt>
      <trkpt lat="47.12311" lon="-1.70628">
        <ele>51</ele>
        <time>2021-09-05T07:21:36.000Z</time>
      </trkpt>
      <trkpt lat="47.12301" lon="-1.70641">
        <ele>52</ele>
        <time>2021-09-05T07:21:38.000Z</time>
      </trkpt>
      <trkpt lat="47.12292" lon="-1.70656">
        <ele>52</ele>
        <time>2021-09-05T07:21:40.000Z</time>
      </trkpt>
      <trkpt lat="47.12283" lon="-1.70669">
        <ele>52</ele>
        <time>2021-09-05T07:21:42.000Z</time>
      </trkpt>
      <trkpt lat="47.12273" lon="-1.70683">
        <ele>52</ele>
        <time>2021-09-05T07:21:44.000Z</time>
      </trkpt>
      <trkpt lat="47.12264" lon="-1.70697">
        <ele>53</ele>
        <time>2021-09-05T07:21:46.000Z</time>
      </trkpt>
      <trkpt lat="47.12254" lon="-1.7071">
        <ele>52</ele>
        <time>2021-09-05T07:21:48.000Z</time>
      </trkpt>
      <trkpt lat="47.12243" lon="-1.70723">
        <ele>52</ele>
        <time>2021-09-05T07:21:50.000Z</time>
      </trkpt>
      <trkpt lat="47.12232" lon="-1.70734">
        <ele>52</ele>
        <time>2021-09-05T07:21:52.000Z</time>
      </trkpt>
      <trkpt lat="47.12221" lon="-1.70746">
        <ele>52</ele>
        <time>2021-09-05T07:21:54.000Z</time>
      </trkpt>
      <trkpt lat="47.1221" lon="-1.70756">
        <ele>53</ele>
        <time>2021-09-05T07:21:56.000Z</time>
      </trkpt>
      <trkpt lat="47.12198" lon="-1.70765">
        <ele>53</ele>
        <time>2021-09-05T07:21:58.000Z</time>
      </trkpt>
      <trkpt lat="47.12186" lon="-1.70774">
        <ele>53</ele>
        <time>2021-09-05T07:22:00.000Z</time>
      </trkpt>
      <trkpt lat="47.12174" lon="-1.70782">
        <ele>53</ele>
        <time>2021-09-05T07:22:02.000Z</time>
      </trkpt>
      <trkpt lat="47.12162" lon="-1.70791">
        <ele>53</ele>
        <time>2021-09-05T07:22:04.000Z</time>
      </trkpt>
      <trkpt lat="47.1215" lon="-1.70799">
        <ele>53</ele>
        <time>2021-09-05T07:22:06.000Z</time>
      </trkpt>
      <trkpt lat="47.12138" lon="-1.70807">
        <ele>53</ele>
        <time>2021-09-05T07:22:08.000Z</time>
      </trkpt>
      <trkpt lat="47.12126" lon="-1.70814">
        <ele>53</ele>
        <time>2021-09-05T07:22:10.000Z</time>
      </trkpt>
      <trkpt lat="47.12114" lon="-1.70822">
        <ele>54</ele>
        <time>2021-09-05T07:22:12.000Z</time>
      </trkpt>
      <trkpt lat="47.12101" lon="-1.7083">
        <ele>55</ele>
        <time>2021-09-05T07:22:14.000Z</time>
      </trkpt>
      <trkpt lat="47.12089" lon="-1.70838">
        <ele>55</ele>
        <time>2021-09-05T07:22:16.000Z</time>
      </trkpt>
      <trkpt lat="47.12077" lon="-1.70847">
        <ele>55</ele>
        <time>2021-09-05T07:22:18.000Z</time>
      </trkpt>
      <trkpt lat="47.12064" lon="-1.70855">
        <ele>55</ele>
        <time>2021-09-05T07:22:20.000Z</time>
      </trkpt>
      <trkpt lat="47.12052" lon="-1.70863">
        <ele>55</ele>
        <time>2021-09-05T07:22:22.000Z</time>
      </trkpt>
      <trkpt lat="47.1204" lon="-1.70871">
        <ele>55</ele>
        <time>2021-09-05T07:22:24.000Z</time>
      </trkpt>
      <trkpt lat="47.12027" lon="-1.7088">
        <ele>55</ele>
        <time>2021-09-05T07:22:26.000Z</time>
      </trkpt>
      <trkpt lat="47.12014" lon="-1.70888">
        <ele>55</ele>
        <time>2021-09-05T07:22:28.000Z</time>
      </trkpt>
      <trkpt lat="47.12002" lon="-1.70895">
        <ele>55</ele>
        <time>2021-09-05T07:22:30.000Z</time>
      </trkpt>
      <trkpt lat="47.1199" lon="-1.70903">
        <ele>55</ele>
        <time>2021-09-05T07:22:32.000Z</time>
      </trkpt>
      <trkpt lat="47.11977" lon="-1.70911">
        <ele>55</ele>
        <time>2021-09-05T07:22:34.000Z</time>
      </trkpt>
      <trkpt lat="47.11965" lon="-1.70919">
        <ele>55</ele>
        <time>2021-09-05T07:22:36.000Z</time>
      </trkpt>
      <trkpt lat="47.11952" lon="-1.70928">
        <ele>54</ele>
        <time>2021-09-05T07:22:38.000Z</time>
      </trkpt>
      <trkpt lat="47.11939" lon="-1.70936">
        <ele>54</ele>
        <time>2021-09-05T07:22:40.000Z</time>
      </trkpt>
      <trkpt lat="47.11925" lon="-1.70945">
        <ele>54</ele>
        <time>2021-09-05T07:22:42.000Z</time>
      </trkpt>
      <trkpt lat="47.11912" lon="-1.70954">
        <ele>54</ele>
        <time>2021-09-05T07:22:44.000Z</time>
      </trkpt>
      <trkpt lat="47.11899" lon="-1.70962">
        <ele>53</ele>
        <time>2021-09-05T07:22:46.000Z</time>
      </trkpt>
      <trkpt lat="47.11885" lon="-1.70971">
        <ele>53</ele>
        <time>2021-09-05T07:22:48.000Z</time>
      </trkpt>
      <trkpt lat="47.11872" lon="-1.70979">
        <ele>53</ele>
        <time>2021-09-05T07:22:50.000Z</time>
      </trkpt>
      <trkpt lat="47.11859" lon="-1.70988">
        <ele>53</ele>
        <time>2021-09-05T07:22:52.000Z</time>
      </trkpt>
      <trkpt lat="47.11846" lon="-1.70996">
        <ele>53</ele>
        <time>2021-09-05T07:22:54.000Z</time>
      </trkpt>
      <trkpt lat="47.11833" lon="-1.71004">
        <ele>53</ele>
        <time>2021-09-05T07:22:56.000Z</time>
      </trkpt>
      <trkpt lat="47.1182" lon="-1.71012">
        <ele>53</ele>
        <time>2021-09-05T07:22:58.000Z</time>
      </trkpt>
      <trkpt lat="47.11807" lon="-1.71021">
        <ele>54</ele>
        <time>2021-09-05T07:23:00.000Z</time>
      </trkpt>
      <trkpt lat="47.11794" lon="-1.7103">
        <ele>54</ele>
        <time>2021-09-05T07:23:02.000Z</time>
      </trkpt>
      <trkpt lat="47.11782" lon="-1.71038">
        <ele>53</ele>
        <time>2021-09-05T07:23:04.000Z</time>
      </trkpt>
      <trkpt lat="47.11769" lon="-1.71047">
        <ele>53</ele>
        <time>2021-09-05T07:23:06.000Z</time>
      </trkpt>
      <trkpt lat="47.11756" lon="-1.71055">
        <ele>53</ele>
        <time>2021-09-05T07:23:08.000Z</time>
      </trkpt>
      <trkpt lat="47.11743" lon="-1.71064">
        <ele>54</ele>
        <time>2021-09-05T07:23:10.000Z</time>
      </trkpt>
      <trkpt lat="47.11729" lon="-1.71073">
        <ele>54</ele>
        <time>2021-09-05T07:23:12.000Z</time>
      </trkpt>
      <trkpt lat="47.11716" lon="-1.71082">
        <ele>54</ele>
        <time>2021-09-05T07:23:14.000Z</time>
      </trkpt>
      <trkpt lat="47.11703" lon="-1.7109">
        <ele>54</ele>
        <time>2021-09-05T07:23:16.000Z</time>
      </trkpt>
      <trkpt lat="47.1169" lon="-1.71098">
        <ele>55</ele>
        <time>2021-09-05T07:23:18.000Z</time>
      </trkpt>
      <trkpt lat="47.11678" lon="-1.71107">
        <ele>55</ele>
        <time>2021-09-05T07:23:20.000Z</time>
      </trkpt>
      <trkpt lat="47.11665" lon="-1.71116">
        <ele>54</ele>
        <time>2021-09-05T07:23:22.000Z</time>
      </trkpt>
      <trkpt lat="47.11653" lon="-1.71126">
        <ele>54</ele>
        <time>2021-09-05T07:23:24.000Z</time>
      </trkpt>
      <trkpt lat="47.1164" lon="-1.71136">
        <ele>54</ele>
        <time>2021-09-05T07:23:26.000Z</time>
      </trkpt>
      <trkpt lat="47.11628" lon="-1.71146">
        <ele>55</ele>
        <time>2021-09-05T07:23:28.000Z</time>
      </trkpt>
      <trkpt lat="47.11616" lon="-1.71157">
        <ele>55</ele>
        <time>2021-09-05T07:23:30.000Z</time>
      </trkpt>
      <trkpt lat="47.11605" lon="-1.7117">
        <ele>55</ele>
        <time>2021-09-05T07:23:32.000Z</time>
      </trkpt>
      <trkpt lat="47.11594" lon="-1.71183">
        <ele>55</ele>
        <time>2021-09-05T07:23:34.000Z</time>
      </trkpt>
      <trkpt lat="47.11583" lon="-1.71196">
        <ele>55</ele>
        <time>2021-09-05T07:23:36.000Z</time>
      </trkpt>
      <trkpt lat="47.11572" lon="-1.71211">
        <ele>54</ele>
        <time>2021-09-05T07:23:38.000Z</time>
      </trkpt>
      <trkpt lat="47.11562" lon="-1.71226">
        <ele>54</ele>
        <time>2021-09-05T07:23:40.000Z</time>
      </trkpt>
      <trkpt lat="47.11551" lon="-1.71242">
        <ele>54</ele>
        <time>2021-09-05T07:23:42.000Z</time>
      </trkpt>
      <trkpt lat="47.11542" lon="-1.71257">
        <ele>54</ele>
        <time>2021-09-05T07:23:44.000Z</time>
      </trkpt>
      <trkpt lat="47.11533" lon="-1.71274">
        <ele>54</ele>
        <time>2021-09-05T07:23:46.000Z</time>
      </trkpt>
      <trkpt lat="47.11524" lon="-1.7129">
        <ele>54</ele>
        <time>2021-09-05T07:23:48.000Z</time>
      </trkpt>
      <trkpt lat="47.11516" lon="-1.71307">
        <ele>53</ele>
        <time>2021-09-05T07:23:50.000Z</time>
      </trkpt>
      <trkpt lat="47.11507" lon="-1.71324">
        <ele>53</ele>
        <time>2021-09-05T07:23:52.000Z</time>
      </trkpt>
      <trkpt lat="47.11498" lon="-1.71341">
        <ele>52</ele>
        <time>2021-09-05T07:23:54.000Z</time>
      </trkpt>
      <trkpt lat="47.1149" lon="-1.71358">
        <ele>52</ele>
        <time>2021-09-05T07:23:56.000Z</time>
      </trkpt>
      <trkpt lat="47.11482" lon="-1.71374">
        <ele>52</ele>
        <time>2021-09-05T07:23:58.000Z</time>
      </trkpt>
      <trkpt lat="47.11474" lon="-1.71391">
        <ele>52</ele>
        <time>2021-09-05T07:24:00.000Z</time>
      </trkpt>
      <trkpt lat="47.11465" lon="-1.71408">
        <ele>52</ele>
        <time>2021-09-05T07:24:02.000Z</time>
      </trkpt>
      <trkpt lat="47.11456" lon="-1.71425">
        <ele>53</ele>
        <time>2021-09-05T07:24:04.000Z</time>
      </trkpt>
      <trkpt lat="47.11448" lon="-1.71442">
        <ele>53</ele>
        <time>2021-09-05T07:24:06.000Z</time>
      </trkpt>
      <trkpt lat="47.1144" lon="-1.71459">
        <ele>52</ele>
        <time>2021-09-05T07:24:08.000Z</time>
      </trkpt>
      <trkpt lat="47.11431" lon="-1.71476">
        <ele>52</ele>
        <time>2021-09-05T07:24:10.000Z</time>
      </trkpt>
      <trkpt lat="47.11423" lon="-1.71492">
        <ele>52</ele>
        <time>2021-09-05T07:24:12.000Z</time>
      </trkpt>
      <trkpt lat="47.11414" lon="-1.71508">
        <ele>52</ele>
        <time>2021-09-05T07:24:14.000Z</time>
      </trkpt>
      <trkpt lat="47.11406" lon="-1.71525">
        <ele>52</ele>
        <time>2021-09-05T07:24:16.000Z</time>
      </trkpt>
      <trkpt lat="47.11398" lon="-1.71541">
        <ele>52</ele>
        <time>2021-09-05T07:24:18.000Z</time>
      </trkpt>
      <trkpt lat="47.11389" lon="-1.71558">
        <ele>52</ele>
        <time>2021-09-05T07:24:20.000Z</time>
      </trkpt>
      <trkpt lat="47.1138" lon="-1.71574">
        <ele>52</ele>
        <time>2021-09-05T07:24:22.000Z</time>
      </trkpt>
      <trkpt lat="47.11371" lon="-1.71591">
        <ele>52</ele>
        <time>2021-09-05T07:24:24.000Z</time>
      </trkpt>
      <trkpt lat="47.11362" lon="-1.71607">
        <ele>51</ele>
        <time>2021-09-05T07:24:26.000Z</time>
      </trkpt>
      <trkpt lat="47.11352" lon="-1.71623">
        <ele>52</ele>
        <time>2021-09-05T07:24:28.000Z</time>
      </trkpt>
      <trkpt lat="47.11343" lon="-1.71637">
        <ele>52</ele>
        <time>2021-09-05T07:24:30.000Z</time>
      </trkpt>
      <trkpt lat="47.11332" lon="-1.71649">
        <ele>52</ele>
        <time>2021-09-05T07:24:32.000Z</time>
      </trkpt>
      <trkpt lat="47.11319" lon="-1.71658">
        <ele>52</ele>
        <time>2021-09-05T07:24:34.000Z</time>
      </trkpt>
      <trkpt lat="47.11307" lon="-1.71667">
        <ele>53</ele>
        <time>2021-09-05T07:24:36.000Z</time>
      </trkpt>
      <trkpt lat="47.11294" lon="-1.71675">
        <ele>53</ele>
        <time>2021-09-05T07:24:38.000Z</time>
      </trkpt>
      <trkpt lat="47.11282" lon="-1.71681">
        <ele>54</ele>
        <time>2021-09-05T07:24:40.000Z</time>
      </trkpt>
      <trkpt lat="47.11268" lon="-1.7168">
        <ele>54</ele>
        <time>2021-09-05T07:24:42.000Z</time>
      </trkpt>
      <trkpt lat="47.11254" lon="-1.71678">
        <ele>55</ele>
        <time>2021-09-05T07:24:44.000Z</time>
      </trkpt>
      <trkpt lat="47.11241" lon="-1.71683">
        <ele>55</ele>
        <time>2021-09-05T07:24:46.000Z</time>
      </trkpt>
      <trkpt lat="47.1123" lon="-1.71693">
        <ele>54</ele>
        <time>2021-09-05T07:24:48.000Z</time>
      </trkpt>
      <trkpt lat="47.11219" lon="-1.71703">
        <ele>54</ele>
        <time>2021-09-05T07:24:50.000Z</time>
      </trkpt>
      <trkpt lat="47.11208" lon="-1.71713">
        <ele>54</ele>
        <time>2021-09-05T07:24:52.000Z</time>
      </trkpt>
      <trkpt lat="47.11196" lon="-1.71722">
        <ele>54</ele>
        <time>2021-09-05T07:24:54.000Z</time>
      </trkpt>
      <trkpt lat="47.11185" lon="-1.71731">
        <ele>55</ele>
        <time>2021-09-05T07:24:56.000Z</time>
      </trkpt>
      <trkpt lat="47.11174" lon="-1.71741">
        <ele>55</ele>
        <time>2021-09-05T07:24:58.000Z</time>
      </trkpt>
      <trkpt lat="47.11163" lon="-1.7175">
        <ele>55</ele>
        <time>2021-09-05T07:25:00.000Z</time>
      </trkpt>
      <trkpt lat="47.11152" lon="-1.7176">
        <ele>56</ele>
        <time>2021-09-05T07:25:02.000Z</time>
      </trkpt>
      <trkpt lat="47.11142" lon="-1.71769">
        <ele>56</ele>
        <time>2021-09-05T07:25:04.000Z</time>
      </trkpt>
      <trkpt lat="47.11131" lon="-1.71779">
        <ele>56</ele>
        <time>2021-09-05T07:25:06.000Z</time>
      </trkpt>
      <trkpt lat="47.1112" lon="-1.71788">
        <ele>57</ele>
        <time>2021-09-05T07:25:08.000Z</time>
      </trkpt>
      <trkpt lat="47.1111" lon="-1.71798">
        <ele>57</ele>
        <time>2021-09-05T07:25:10.000Z</time>
      </trkpt>
      <trkpt lat="47.11099" lon="-1.71807">
        <ele>57</ele>
        <time>2021-09-05T07:25:12.000Z</time>
      </trkpt>
      <trkpt lat="47.11089" lon="-1.71818">
        <ele>57</ele>
        <time>2021-09-05T07:25:14.000Z</time>
      </trkpt>
      <trkpt lat="47.11078" lon="-1.71828">
        <ele>57</ele>
        <time>2021-09-05T07:25:16.000Z</time>
      </trkpt>
      <trkpt lat="47.11068" lon="-1.7184">
        <ele>57</ele>
        <time>2021-09-05T07:25:18.000Z</time>
      </trkpt>
      <trkpt lat="47.11059" lon="-1.71853">
        <ele>57</ele>
        <time>2021-09-05T07:25:20.000Z</time>
      </trkpt>
      <trkpt lat="47.11049" lon="-1.71865">
        <ele>57</ele>
        <time>2021-09-05T07:25:22.000Z</time>
      </trkpt>
      <trkpt lat="47.11041" lon="-1.71876">
        <ele>57</ele>
        <time>2021-09-05T07:25:24.000Z</time>
      </trkpt>
      <trkpt lat="47.11032" lon="-1.71889">
        <ele>58</ele>
        <time>2021-09-05T07:25:26.000Z</time>
      </trkpt>
      <trkpt lat="47.11024" lon="-1.71902">
        <ele>58</ele>
        <time>2021-09-05T07:25:28.000Z</time>
      </trkpt>
      <trkpt lat="47.11015" lon="-1.71914">
        <ele>58</ele>
        <time>2021-09-05T07:25:30.000Z</time>
      </trkpt>
      <trkpt lat="47.11006" lon="-1.71927">
        <ele>58</ele>
        <time>2021-09-05T07:25:32.000Z</time>
      </trkpt>
      <trkpt lat="47.10996" lon="-1.71941">
        <ele>58</ele>
        <time>2021-09-05T07:25:34.000Z</time>
      </trkpt>
      <trkpt lat="47.10986" lon="-1.71954">
        <ele>58</ele>
        <time>2021-09-05T07:25:36.000Z</time>
      </trkpt>
      <trkpt lat="47.10977" lon="-1.71969">
        <ele>58</ele>
        <time>2021-09-05T07:25:38.000Z</time>
      </trkpt>
      <trkpt lat="47.10967" lon="-1.71982">
        <ele>57</ele>
        <time>2021-09-05T07:25:40.000Z</time>
      </trkpt>
      <trkpt lat="47.10957" lon="-1.71996">
        <ele>57</ele>
        <time>2021-09-05T07:25:42.000Z</time>
      </trkpt>
      <trkpt lat="47.10947" lon="-1.7201">
        <ele>57</ele>
        <time>2021-09-05T07:25:44.000Z</time>
      </trkpt>
      <trkpt lat="47.10937" lon="-1.72024">
        <ele>57</ele>
        <time>2021-09-05T07:25:46.000Z</time>
      </trkpt>
      <trkpt lat="47.10928" lon="-1.72037">
        <ele>56</ele>
        <time>2021-09-05T07:25:48.000Z</time>
      </trkpt>
      <trkpt lat="47.10918" lon="-1.72052">
        <ele>56</ele>
        <time>2021-09-05T07:25:50.000Z</time>
      </trkpt>
      <trkpt lat="47.10909" lon="-1.72066">
        <ele>56</ele>
        <time>2021-09-05T07:25:52.000Z</time>
      </trkpt>
      <trkpt lat="47.109" lon="-1.72079">
        <ele>56</ele>
        <time>2021-09-05T07:25:54.000Z</time>
      </trkpt>
      <trkpt lat="47.10891" lon="-1.72093">
        <ele>55</ele>
        <time>2021-09-05T07:25:56.000Z</time>
      </trkpt>
      <trkpt lat="47.1088" lon="-1.72107">
        <ele>55</ele>
        <time>2021-09-05T07:25:58.000Z</time>
      </trkpt>
      <trkpt lat="47.10871" lon="-1.72121">
        <ele>55</ele>
        <time>2021-09-05T07:26:00.000Z</time>
      </trkpt>
      <trkpt lat="47.1086" lon="-1.72133">
        <ele>55</ele>
        <time>2021-09-05T07:26:02.000Z</time>
      </trkpt>
      <trkpt lat="47.10848" lon="-1.72141">
        <ele>54</ele>
        <time>2021-09-05T07:26:04.000Z</time>
      </trkpt>
      <trkpt lat="47.10835" lon="-1.72145">
        <ele>53</ele>
        <time>2021-09-05T07:26:06.000Z</time>
      </trkpt>
      <trkpt lat="47.10823" lon="-1.72141">
        <ele>53</ele>
        <time>2021-09-05T07:26:08.000Z</time>
      </trkpt>
      <trkpt lat="47.10811" lon="-1.72129">
        <ele>53</ele>
        <time>2021-09-05T07:26:10.000Z</time>
      </trkpt>
      <trkpt lat="47.10799" lon="-1.72118">
        <ele>53</ele>
        <time>2021-09-05T07:26:12.000Z</time>
      </trkpt>
      <trkpt lat="47.10786" lon="-1.7211">
        <ele>53</ele>
        <time>2021-09-05T07:26:14.000Z</time>
      </trkpt>
      <trkpt lat="47.10773" lon="-1.72105">
        <ele>53</ele>
        <time>2021-09-05T07:26:16.000Z</time>
      </trkpt>
      <trkpt lat="47.1076" lon="-1.72102">
        <ele>53</ele>
        <time>2021-09-05T07:26:18.000Z</time>
      </trkpt>
      <trkpt lat="47.10746" lon="-1.72101">
        <ele>53</ele>
        <time>2021-09-05T07:26:20.000Z</time>
      </trkpt>
      <trkpt lat="47.10733" lon="-1.72103">
        <ele>54</ele>
        <time>2021-09-05T07:26:22.000Z</time>
      </trkpt>
      <trkpt lat="47.1072" lon="-1.72106">
        <ele>54</ele>
        <time>2021-09-05T07:26:24.000Z</time>
      </trkpt>
      <trkpt lat="47.10707" lon="-1.7211">
        <ele>54</ele>
        <time>2021-09-05T07:26:26.000Z</time>
      </trkpt>
      <trkpt lat="47.10694" lon="-1.72115">
        <ele>54</ele>
        <time>2021-09-05T07:26:28.000Z</time>
      </trkpt>
      <trkpt lat="47.10681" lon="-1.72119">
        <ele>53</ele>
        <time>2021-09-05T07:26:30.000Z</time>
      </trkpt>
      <trkpt lat="47.10667" lon="-1.72123">
        <ele>53</ele>
        <time>2021-09-05T07:26:32.000Z</time>
      </trkpt>
      <trkpt lat="47.10653" lon="-1.72128">
        <ele>52</ele>
        <time>2021-09-05T07:26:34.000Z</time>
      </trkpt>
      <trkpt lat="47.1064" lon="-1.72133">
        <ele>52</ele>
        <time>2021-09-05T07:26:36.000Z</time>
      </trkpt>
      <trkpt lat="47.10626" lon="-1.72139">
        <ele>52</ele>
        <time>2021-09-05T07:26:38.000Z</time>
      </trkpt>
      <trkpt lat="47.10613" lon="-1.72147">
        <ele>51</ele>
        <time>2021-09-05T07:26:40.000Z</time>
      </trkpt>
      <trkpt lat="47.10601" lon="-1.72158">
        <ele>51</ele>
        <time>2021-09-05T07:26:42.000Z</time>
      </trkpt>
      <trkpt lat="47.10589" lon="-1.7217">
        <ele>51</ele>
        <time>2021-09-05T07:26:44.000Z</time>
      </trkpt>
      <trkpt lat="47.10579" lon="-1.72186">
        <ele>52</ele>
        <time>2021-09-05T07:26:46.000Z</time>
      </trkpt>
      <trkpt lat="47.1057" lon="-1.72201">
        <ele>52</ele>
        <time>2021-09-05T07:26:48.000Z</time>
      </trkpt>
      <trkpt lat="47.10561" lon="-1.72215">
        <ele>52</ele>
        <time>2021-09-05T07:26:50.000Z</time>
      </trkpt>
      <trkpt lat="47.10551" lon="-1.7223">
        <ele>53</ele>
        <time>2021-09-05T07:26:52.000Z</time>
      </trkpt>
      <trkpt lat="47.10542" lon="-1.72244">
        <ele>53</ele>
        <time>2021-09-05T07:26:54.000Z</time>
      </trkpt>
      <trkpt lat="47.10533" lon="-1.72258">
        <ele>53</ele>
        <time>2021-09-05T07:26:56.000Z</time>
      </trkpt>
      <trkpt lat="47.10523" lon="-1.7227">
        <ele>53</ele>
        <time>2021-09-05T07:26:58.000Z</time>
      </trkpt>
      <trkpt lat="47.10513" lon="-1.72281">
        <ele>53</ele>
        <time>2021-09-05T07:27:00.000Z</time>
      </trkpt>
      <trkpt lat="47.10501" lon="-1.72291">
        <ele>53</ele>
        <time>2021-09-05T07:27:02.000Z</time>
      </trkpt>
      <trkpt lat="47.1049" lon="-1.72299">
        <ele>53</ele>
        <time>2021-09-05T07:27:04.000Z</time>
      </trkpt>
      <trkpt lat="47.10478" lon="-1.72306">
        <ele>53</ele>
        <time>2021-09-05T07:27:06.000Z</time>
      </trkpt>
      <trkpt lat="47.10467" lon="-1.72312">
        <ele>54</ele>
        <time>2021-09-05T07:27:08.000Z</time>
      </trkpt>
      <trkpt lat="47.10454" lon="-1.72317">
        <ele>53</ele>
        <time>2021-09-05T07:27:10.000Z</time>
      </trkpt>
      <trkpt lat="47.10443" lon="-1.72324">
        <ele>53</ele>
        <time>2021-09-05T07:27:12.000Z</time>
      </trkpt>
      <trkpt lat="47.10431" lon="-1.7233">
        <ele>53</ele>
        <time>2021-09-05T07:27:14.000Z</time>
      </trkpt>
      <trkpt lat="47.10419" lon="-1.72337">
        <ele>53</ele>
        <time>2021-09-05T07:27:16.000Z</time>
      </trkpt>
      <trkpt lat="47.10406" lon="-1.72342">
        <ele>53</ele>
        <time>2021-09-05T07:27:18.000Z</time>
      </trkpt>
      <trkpt lat="47.10395" lon="-1.72348">
        <ele>54</ele>
        <time>2021-09-05T07:27:20.000Z</time>
      </trkpt>
      <trkpt lat="47.10384" lon="-1.72353">
        <ele>54</ele>
        <time>2021-09-05T07:27:22.000Z</time>
      </trkpt>
      <trkpt lat="47.10373" lon="-1.72359">
        <ele>54</ele>
        <time>2021-09-05T07:27:24.000Z</time>
      </trkpt>
      <trkpt lat="47.10361" lon="-1.72365">
        <ele>55</ele>
        <time>2021-09-05T07:27:26.000Z</time>
      </trkpt>
      <trkpt lat="47.10349" lon="-1.72371">
        <ele>55</ele>
        <time>2021-09-05T07:27:28.000Z</time>
      </trkpt>
      <trkpt lat="47.10337" lon="-1.72377">
        <ele>55</ele>
        <time>2021-09-05T07:27:30.000Z</time>
      </trkpt>
      <trkpt lat="47.10326" lon="-1.72383">
        <ele>55</ele>
        <time>2021-09-05T07:27:32.000Z</time>
      </trkpt>
      <trkpt lat="47.10314" lon="-1.7239">
        <ele>55</ele>
        <time>2021-09-05T07:27:34.000Z</time>
      </trkpt>
      <trkpt lat="47.10302" lon="-1.72396">
        <ele>55</ele>
        <time>2021-09-05T07:27:36.000Z</time>
      </trkpt>
      <trkpt lat="47.10291" lon="-1.72402">
        <ele>56</ele>
        <time>2021-09-05T07:27:38.000Z</time>
      </trkpt>
      <trkpt lat="47.1028" lon="-1.72409">
        <ele>56</ele>
        <time>2021-09-05T07:27:40.000Z</time>
      </trkpt>
      <trkpt lat="47.10269" lon="-1.72416">
        <ele>56</ele>
        <time>2021-09-05T07:27:42.000Z</time>
      </trkpt>
      <trkpt lat="47.10259" lon="-1.72427">
        <ele>56</ele>
        <time>2021-09-05T07:27:44.000Z</time>
      </trkpt>
      <trkpt lat="47.1025" lon="-1.72439">
        <ele>56</ele>
        <time>2021-09-05T07:27:46.000Z</time>
      </trkpt>
      <trkpt lat="47.10241" lon="-1.72452">
        <ele>57</ele>
        <time>2021-09-05T07:27:48.000Z</time>
      </trkpt>
      <trkpt lat="47.10233" lon="-1.72465">
        <ele>57</ele>
        <time>2021-09-05T07:27:50.000Z</time>
      </trkpt>
      <trkpt lat="47.10225" lon="-1.72479">
        <ele>57</ele>
        <time>2021-09-05T07:27:52.000Z</time>
      </trkpt>
      <trkpt lat="47.10218" lon="-1.72493">
        <ele>57</ele>
        <time>2021-09-05T07:27:54.000Z</time>
      </trkpt>
      <trkpt lat="47.10211" lon="-1.72507">
        <ele>57</ele>
        <time>2021-09-05T07:27:56.000Z</time>
      </trkpt>
      <trkpt lat="47.10203" lon="-1.7252">
        <ele>58</ele>
        <time>2021-09-05T07:27:58.000Z</time>
      </trkpt>
      <trkpt lat="47.10195" lon="-1.72533">
        <ele>58</ele>
        <time>2021-09-05T07:28:00.000Z</time>
      </trkpt>
      <trkpt lat="47.10187" lon="-1.72546">
        <ele>58</ele>
        <time>2021-09-05T07:28:02.000Z</time>
      </trkpt>
      <trkpt lat="47.10177" lon="-1.72557">
        <ele>59</ele>
        <time>2021-09-05T07:28:04.000Z</time>
      </trkpt>
      <trkpt lat="47.10169" lon="-1.7257">
        <ele>59</ele>
        <time>2021-09-05T07:28:06.000Z</time>
      </trkpt>
      <trkpt lat="47.1016" lon="-1.72582">
        <ele>59</ele>
        <time>2021-09-05T07:28:08.000Z</time>
      </trkpt>
      <trkpt lat="47.10151" lon="-1.72593">
        <ele>59</ele>
        <time>2021-09-05T07:28:10.000Z</time>
      </trkpt>
      <trkpt lat="47.10141" lon="-1.72604">
        <ele>59</ele>
        <time>2021-09-05T07:28:12.000Z</time>
      </trkpt>
      <trkpt lat="47.10131" lon="-1.72614">
        <ele>59</ele>
        <time>2021-09-05T07:28:14.000Z</time>
      </trkpt>
      <trkpt lat="47.10121" lon="-1.72624">
        <ele>58</ele>
        <time>2021-09-05T07:28:16.000Z</time>
      </trkpt>
      <trkpt lat="47.10111" lon="-1.72634">
        <ele>58</ele>
        <time>2021-09-05T07:28:18.000Z</time>
      </trkpt>
      <trkpt lat="47.10101" lon="-1.72644">
        <ele>59</ele>
        <time>2021-09-05T07:28:20.000Z</time>
      </trkpt>
      <trkpt lat="47.1009" lon="-1.72654">
        <ele>58</ele>
        <time>2021-09-05T07:28:22.000Z</time>
      </trkpt>
      <trkpt lat="47.10079" lon="-1.72665">
        <ele>57</ele>
        <time>2021-09-05T07:28:24.000Z</time>
      </trkpt>
      <trkpt lat="47.10068" lon="-1.72676">
        <ele>57</ele>
        <time>2021-09-05T07:28:26.000Z</time>
      </trkpt>
      <trkpt lat="47.10058" lon="-1.72686">
        <ele>58</ele>
        <time>2021-09-05T07:28:28.000Z</time>
      </trkpt>
      <trkpt lat="47.10046" lon="-1.72697">
        <ele>58</ele>
        <time>2021-09-05T07:28:30.000Z</time>
      </trkpt>
      <trkpt lat="47.10035" lon="-1.72707">
        <ele>58</ele>
        <time>2021-09-05T07:28:32.000Z</time>
      </trkpt>
      <trkpt lat="47.10024" lon="-1.72717">
        <ele>59</ele>
        <time>2021-09-05T07:28:34.000Z</time>
      </trkpt>
      <trkpt lat="47.10012" lon="-1.72726">
        <ele>59</ele>
        <time>2021-09-05T07:28:36.000Z</time>
      </trkpt>
      <trkpt lat="47.1" lon="-1.72735">
        <ele>59</ele>
        <time>2021-09-05T07:28:38.000Z</time>
      </trkpt>
      <trkpt lat="47.09989" lon="-1.72743">
        <ele>59</ele>
        <time>2021-09-05T07:28:40.000Z</time>
      </trkpt>
      <trkpt lat="47.09976" lon="-1.72751">
        <ele>59</ele>
        <time>2021-09-05T07:28:42.000Z</time>
      </trkpt>
      <trkpt lat="47.09964" lon="-1.72758">
        <ele>59</ele>
        <time>2021-09-05T07:28:44.000Z</time>
      </trkpt>
      <trkpt lat="47.09952" lon="-1.72765">
        <ele>59</ele>
        <time>2021-09-05T07:28:46.000Z</time>
      </trkpt>
      <trkpt lat="47.09939" lon="-1.72771">
        <ele>59</ele>
        <time>2021-09-05T07:28:48.000Z</time>
      </trkpt>
      <trkpt lat="47.09927" lon="-1.72778">
        <ele>59</ele>
        <time>2021-09-05T07:28:50.000Z</time>
      </trkpt>
      <trkpt lat="47.09915" lon="-1.72784">
        <ele>59</ele>
        <time>2021-09-05T07:28:52.000Z</time>
      </trkpt>
      <trkpt lat="47.09902" lon="-1.7279">
        <ele>59</ele>
        <time>2021-09-05T07:28:54.000Z</time>
      </trkpt>
      <trkpt lat="47.0989" lon="-1.72797">
        <ele>59</ele>
        <time>2021-09-05T07:28:56.000Z</time>
      </trkpt>
      <trkpt lat="47.09877" lon="-1.72803">
        <ele>59</ele>
        <time>2021-09-05T07:28:58.000Z</time>
      </trkpt>
      <trkpt lat="47.09865" lon="-1.7281">
        <ele>58</ele>
        <time>2021-09-05T07:29:00.000Z</time>
      </trkpt>
      <trkpt lat="47.09853" lon="-1.72817">
        <ele>58</ele>
        <time>2021-09-05T07:29:02.000Z</time>
      </trkpt>
      <trkpt lat="47.0984" lon="-1.72823">
        <ele>58</ele>
        <time>2021-09-05T07:29:04.000Z</time>
      </trkpt>
      <trkpt lat="47.09827" lon="-1.72829">
        <ele>57</ele>
        <time>2021-09-05T07:29:06.000Z</time>
      </trkpt>
      <trkpt lat="47.09814" lon="-1.72836">
        <ele>57</ele>
        <time>2021-09-05T07:29:08.000Z</time>
      </trkpt>
      <trkpt lat="47.09802" lon="-1.72845">
        <ele>57</ele>
        <time>2021-09-05T07:29:10.000Z</time>
      </trkpt>
      <trkpt lat="47.09791" lon="-1.72856">
        <ele>57</ele>
        <time>2021-09-05T07:29:12.000Z</time>
      </trkpt>
      <trkpt lat="47.09782" lon="-1.72868">
        <ele>57</ele>
        <time>2021-09-05T07:29:14.000Z</time>
      </trkpt>
      <trkpt lat="47.09772" lon="-1.72876">
        <ele>57</ele>
        <time>2021-09-05T07:29:16.000Z</time>
      </trkpt>
      <trkpt lat="47.0976" lon="-1.72869">
        <ele>57</ele>
        <time>2021-09-05T07:29:18.000Z</time>
      </trkpt>
      <trkpt lat="47.09753" lon="-1.72854">
        <ele>57</ele>
        <time>2021-09-05T07:29:20.000Z</time>
      </trkpt>
      <trkpt lat="47.09746" lon="-1.72838">
        <ele>57</ele>
        <time>2021-09-05T07:29:22.000Z</time>
      </trkpt>
      <trkpt lat="47.09738" lon="-1.72821">
        <ele>56</ele>
        <time>2021-09-05T07:29:24.000Z</time>
      </trkpt>
      <trkpt lat="47.09731" lon="-1.72803">
        <ele>56</ele>
        <time>2021-09-05T07:29:26.000Z</time>
      </trkpt>
      <trkpt lat="47.09723" lon="-1.72785">
        <ele>56</ele>
        <time>2021-09-05T07:29:28.000Z</time>
      </trkpt>
      <trkpt lat="47.09715" lon="-1.72768">
        <ele>56</ele>
        <time>2021-09-05T07:29:30.000Z</time>
      </trkpt>
      <trkpt lat="47.09706" lon="-1.72752">
        <ele>55</ele>
        <time>2021-09-05T07:29:32.000Z</time>
      </trkpt>
      <trkpt lat="47.09695" lon="-1.7274">
        <ele>55</ele>
        <time>2021-09-05T07:29:34.000Z</time>
      </trkpt>
      <trkpt lat="47.09681" lon="-1.72732">
        <ele>55</ele>
        <time>2021-09-05T07:29:36.000Z</time>
      </trkpt>
      <trkpt lat="47.09668" lon="-1.72729">
        <ele>55</ele>
        <time>2021-09-05T07:29:38.000Z</time>
      </trkpt>
      <trkpt lat="47.09654" lon="-1.72726">
        <ele>55</ele>
        <time>2021-09-05T07:29:40.000Z</time>
      </trkpt>
      <trkpt lat="47.0964" lon="-1.72722">
        <ele>55</ele>
        <time>2021-09-05T07:29:42.000Z</time>
      </trkpt>
      <trkpt lat="47.09626" lon="-1.72716">
        <ele>55</ele>
        <time>2021-09-05T07:29:44.000Z</time>
      </trkpt>
      <trkpt lat="47.09613" lon="-1.72709">
        <ele>54</ele>
        <time>2021-09-05T07:29:46.000Z</time>
      </trkpt>
      <trkpt lat="47.09599" lon="-1.72703">
        <ele>54</ele>
        <time>2021-09-05T07:29:48.000Z</time>
      </trkpt>
      <trkpt lat="47.09585" lon="-1.72696">
        <ele>54</ele>
        <time>2021-09-05T07:29:50.000Z</time>
      </trkpt>
      <trkpt lat="47.09571" lon="-1.7269">
        <ele>54</ele>
        <time>2021-09-05T07:29:52.000Z</time>
      </trkpt>
      <trkpt lat="47.09557" lon="-1.72684">
        <ele>54</ele>
        <time>2021-09-05T07:29:54.000Z</time>
      </trkpt>
      <trkpt lat="47.09543" lon="-1.72683">
        <ele>53</ele>
        <time>2021-09-05T07:29:56.000Z</time>
      </trkpt>
      <trkpt lat="47.0953" lon="-1.72692">
        <ele>53</ele>
        <time>2021-09-05T07:29:58.000Z</time>
      </trkpt>
      <trkpt lat="47.09521" lon="-1.72707">
        <ele>53</ele>
        <time>2021-09-05T07:30:00.000Z</time>
      </trkpt>
      <trkpt lat="47.09513" lon="-1.72723">
        <ele>53</ele>
        <time>2021-09-05T07:30:02.000Z</time>
      </trkpt>
      <trkpt lat="47.09506" lon="-1.72739">
        <ele>52</ele>
        <time>2021-09-05T07:30:04.000Z</time>
      </trkpt>
      <trkpt lat="47.09497" lon="-1.72756">
        <ele>52</ele>
        <time>2021-09-05T07:30:06.000Z</time>
      </trkpt>
      <trkpt lat="47.09489" lon="-1.72773">
        <ele>52</ele>
        <time>2021-09-05T07:30:08.000Z</time>
      </trkpt>
      <trkpt lat="47.0948" lon="-1.7279">
        <ele>52</ele>
        <time>2021-09-05T07:30:10.000Z</time>
      </trkpt>
      <trkpt lat="47.09473" lon="-1.72806">
        <ele>52</ele>
        <time>2021-09-05T07:30:12.000Z</time>
      </trkpt>
      <trkpt lat="47.09464" lon="-1.72822">
        <ele>53</ele>
        <time>2021-09-05T07:30:14.000Z</time>
      </trkpt>
      <trkpt lat="47.09457" lon="-1.72838">
        <ele>53</ele>
        <time>2021-09-05T07:30:16.000Z</time>
      </trkpt>
      <trkpt lat="47.0945" lon="-1.72855">
        <ele>53</ele>
        <time>2021-09-05T07:30:18.000Z</time>
      </trkpt>
      <trkpt lat="47.09442" lon="-1.72871">
        <ele>53</ele>
        <time>2021-09-05T07:30:20.000Z</time>
      </trkpt>
      <trkpt lat="47.09434" lon="-1.72888">
        <ele>53</ele>
        <time>2021-09-05T07:30:22.000Z</time>
      </trkpt>
      <trkpt lat="47.09426" lon="-1.72903">
        <ele>52</ele>
        <time>2021-09-05T07:30:24.000Z</time>
      </trkpt>
      <trkpt lat="47.09418" lon="-1.72919">
        <ele>52</ele>
        <time>2021-09-05T07:30:26.000Z</time>
      </trkpt>
      <trkpt lat="47.0941" lon="-1.72935">
        <ele>52</ele>
        <time>2021-09-05T07:30:28.000Z</time>
      </trkpt>
      <trkpt lat="47.09403" lon="-1.72952">
        <ele>53</ele>
        <time>2021-09-05T07:30:30.000Z</time>
      </trkpt>
      <trkpt lat="47.09397" lon="-1.7297">
        <ele>53</ele>
        <time>2021-09-05T07:30:32.000Z</time>
      </trkpt>
      <trkpt lat="47.09393" lon="-1.72988">
        <ele>53</ele>
        <time>2021-09-05T07:30:34.000Z</time>
      </trkpt>
      <trkpt lat="47.0939" lon="-1.73008">
        <ele>52</ele>
        <time>2021-09-05T07:30:36.000Z</time>
      </trkpt>
      <trkpt lat="47.09389" lon="-1.73026">
        <ele>52</ele>
        <time>2021-09-05T07:30:38.000Z</time>
      </trkpt>
      <trkpt lat="47.09388" lon="-1.73046">
        <ele>52</ele>
        <time>2021-09-05T07:30:40.000Z</time>
      </trkpt>
      <trkpt lat="47.09385" lon="-1.73065">
        <ele>52</ele>
        <time>2021-09-05T07:30:42.000Z</time>
      </trkpt>
      <trkpt lat="47.09379" lon="-1.73081">
        <ele>52</ele>
        <time>2021-09-05T07:30:44.000Z</time>
      </trkpt>
      <trkpt lat="47.0937" lon="-1.73097">
        <ele>53</ele>
        <time>2021-09-05T07:30:46.000Z</time>
      </trkpt>
      <trkpt lat="47.0936" lon="-1.7311">
        <ele>53</ele>
        <time>2021-09-05T07:30:48.000Z</time>
      </trkpt>
      <trkpt lat="47.09347" lon="-1.73122">
        <ele>53</ele>
        <time>2021-09-05T07:30:50.000Z</time>
      </trkpt>
      <trkpt lat="47.09334" lon="-1.73134">
        <ele>52</ele>
        <time>2021-09-05T07:30:52.000Z</time>
      </trkpt>
      <trkpt lat="47.0932" lon="-1.73145">
        <ele>52</ele>
        <time>2021-09-05T07:30:54.000Z</time>
      </trkpt>
      <trkpt lat="47.09307" lon="-1.73154">
        <ele>52</ele>
        <time>2021-09-05T07:30:56.000Z</time>
      </trkpt>
      <trkpt lat="47.09294" lon="-1.73164">
        <ele>52</ele>
        <time>2021-09-05T07:30:58.000Z</time>
      </trkpt>
      <trkpt lat="47.09282" lon="-1.73173">
        <ele>52</ele>
        <time>2021-09-05T07:31:00.000Z</time>
      </trkpt>
      <trkpt lat="47.0927" lon="-1.73183">
        <ele>53</ele>
        <time>2021-09-05T07:31:02.000Z</time>
      </trkpt>
      <trkpt lat="47.09259" lon="-1.73193">
        <ele>54</ele>
        <time>2021-09-05T07:31:04.000Z</time>
      </trkpt>
      <trkpt lat="47.09248" lon="-1.73202">
        <ele>54</ele>
        <time>2021-09-05T07:31:06.000Z</time>
      </trkpt>
      <trkpt lat="47.09238" lon="-1.73213">
        <ele>54</ele>
        <time>2021-09-05T07:31:08.000Z</time>
      </trkpt>
      <trkpt lat="47.09227" lon="-1.73222">
        <ele>54</ele>
        <time>2021-09-05T07:31:10.000Z</time>
      </trkpt>
      <trkpt lat="47.09215" lon="-1.73233">
        <ele>54</ele>
        <time>2021-09-05T07:31:12.000Z</time>
      </trkpt>
      <trkpt lat="47.09203" lon="-1.73243">
        <ele>54</ele>
        <time>2021-09-05T07:31:14.000Z</time>
      </trkpt>
      <trkpt lat="47.0919" lon="-1.73253">
        <ele>54</ele>
        <time>2021-09-05T07:31:16.000Z</time>
      </trkpt>
      <trkpt lat="47.09175" lon="-1.73262">
        <ele>54</ele>
        <time>2021-09-05T07:31:18.000Z</time>
      </trkpt>
      <trkpt lat="47.09154" lon="-1.73277">
        <ele>53</ele>
        <time>2021-09-05T07:31:21.000Z</time>
      </trkpt>
      <trkpt lat="47.09141" lon="-1.73287">
        <ele>52</ele>
        <time>2021-09-05T07:31:23.000Z</time>
      </trkpt>
      <trkpt lat="47.09128" lon="-1.73296">
        <ele>52</ele>
        <time>2021-09-05T07:31:25.000Z</time>
      </trkpt>
      <trkpt lat="47.09116" lon="-1.73305">
        <ele>52</ele>
        <time>2021-09-05T07:31:27.000Z</time>
      </trkpt>
      <trkpt lat="47.09105" lon="-1.73315">
        <ele>52</ele>
        <time>2021-09-05T07:31:29.000Z</time>
      </trkpt>
      <trkpt lat="47.09093" lon="-1.73327">
        <ele>52</ele>
        <time>2021-09-05T07:31:31.000Z</time>
      </trkpt>
      <trkpt lat="47.09077" lon="-1.73343">
        <ele>51</ele>
        <time>2021-09-05T07:31:34.000Z</time>
      </trkpt>
      <trkpt lat="47.09061" lon="-1.73357">
        <ele>52</ele>
        <time>2021-09-05T07:31:37.000Z</time>
      </trkpt>
      <trkpt lat="47.09051" lon="-1.73367">
        <ele>52</ele>
        <time>2021-09-05T07:31:39.000Z</time>
      </trkpt>
      <trkpt lat="47.0904" lon="-1.73375">
        <ele>53</ele>
        <time>2021-09-05T07:31:41.000Z</time>
      </trkpt>
      <trkpt lat="47.09029" lon="-1.73385">
        <ele>54</ele>
        <time>2021-09-05T07:31:43.000Z</time>
      </trkpt>
      <trkpt lat="47.09018" lon="-1.73395">
        <ele>55</ele>
        <time>2021-09-05T07:31:45.000Z</time>
      </trkpt>
      <trkpt lat="47.09006" lon="-1.73407">
        <ele>54</ele>
        <time>2021-09-05T07:31:47.000Z</time>
      </trkpt>
      <trkpt lat="47.08995" lon="-1.7342">
        <ele>54</ele>
        <time>2021-09-05T07:31:49.000Z</time>
      </trkpt>
      <trkpt lat="47.08986" lon="-1.73432">
        <ele>54</ele>
        <time>2021-09-05T07:31:51.000Z</time>
      </trkpt>
      <trkpt lat="47.08977" lon="-1.73444">
        <ele>55</ele>
        <time>2021-09-05T07:31:53.000Z</time>
      </trkpt>
      <trkpt lat="47.08967" lon="-1.73458">
        <ele>55</ele>
        <time>2021-09-05T07:31:55.000Z</time>
      </trkpt>
      <trkpt lat="47.08958" lon="-1.73474">
        <ele>54</ele>
        <time>2021-09-05T07:31:57.000Z</time>
      </trkpt>
      <trkpt lat="47.08952" lon="-1.73492">
        <ele>54</ele>
        <time>2021-09-05T07:31:59.000Z</time>
      </trkpt>
      <trkpt lat="47.08947" lon="-1.73509">
        <ele>54</ele>
        <time>2021-09-05T07:32:01.000Z</time>
      </trkpt>
      <trkpt lat="47.08943" lon="-1.73527">
        <ele>54</ele>
        <time>2021-09-05T07:32:03.000Z</time>
      </trkpt>
      <trkpt lat="47.08939" lon="-1.73545">
        <ele>54</ele>
        <time>2021-09-05T07:32:05.000Z</time>
      </trkpt>
      <trkpt lat="47.08935" lon="-1.73563">
        <ele>53</ele>
        <time>2021-09-05T07:32:07.000Z</time>
      </trkpt>
      <trkpt lat="47.0893" lon="-1.73581">
        <ele>53</ele>
        <time>2021-09-05T07:32:09.000Z</time>
      </trkpt>
      <trkpt lat="47.08926" lon="-1.73599">
        <ele>52</ele>
        <time>2021-09-05T07:32:11.000Z</time>
      </trkpt>
      <trkpt lat="47.08924" lon="-1.73617">
        <ele>53</ele>
        <time>2021-09-05T07:32:13.000Z</time>
      </trkpt>
      <trkpt lat="47.08921" lon="-1.73636">
        <ele>52</ele>
        <time>2021-09-05T07:32:15.000Z</time>
      </trkpt>
      <trkpt lat="47.08917" lon="-1.73653">
        <ele>53</ele>
        <time>2021-09-05T07:32:17.000Z</time>
      </trkpt>
      <trkpt lat="47.08911" lon="-1.73671">
        <ele>53</ele>
        <time>2021-09-05T07:32:19.000Z</time>
      </trkpt>
      <trkpt lat="47.08905" lon="-1.73686">
        <ele>53</ele>
        <time>2021-09-05T07:32:21.000Z</time>
      </trkpt>
      <trkpt lat="47.08897" lon="-1.73702">
        <ele>54</ele>
        <time>2021-09-05T07:32:23.000Z</time>
      </trkpt>
      <trkpt lat="47.0889" lon="-1.73718">
        <ele>54</ele>
        <time>2021-09-05T07:32:25.000Z</time>
      </trkpt>
      <trkpt lat="47.08883" lon="-1.73733">
        <ele>55</ele>
        <time>2021-09-05T07:32:27.000Z</time>
      </trkpt>
      <trkpt lat="47.08876" lon="-1.73747">
        <ele>55</ele>
        <time>2021-09-05T07:32:29.000Z</time>
      </trkpt>
      <trkpt lat="47.08867" lon="-1.73762">
        <ele>55</ele>
        <time>2021-09-05T07:32:31.000Z</time>
      </trkpt>
      <trkpt lat="47.08858" lon="-1.73778">
        <ele>55</ele>
        <time>2021-09-05T07:32:33.000Z</time>
      </trkpt>
      <trkpt lat="47.08849" lon="-1.73791">
        <ele>55</ele>
        <time>2021-09-05T07:32:35.000Z</time>
      </trkpt>
      <trkpt lat="47.08839" lon="-1.73803">
        <ele>55</ele>
        <time>2021-09-05T07:32:37.000Z</time>
      </trkpt>
      <trkpt lat="47.08829" lon="-1.73816">
        <ele>54</ele>
        <time>2021-09-05T07:32:39.000Z</time>
      </trkpt>
      <trkpt lat="47.08818" lon="-1.73828">
        <ele>54</ele>
        <time>2021-09-05T07:32:41.000Z</time>
      </trkpt>
      <trkpt lat="47.08808" lon="-1.73841">
        <ele>54</ele>
        <time>2021-09-05T07:32:43.000Z</time>
      </trkpt>
      <trkpt lat="47.08798" lon="-1.73853">
        <ele>54</ele>
        <time>2021-09-05T07:32:45.000Z</time>
      </trkpt>
      <trkpt lat="47.08788" lon="-1.73868">
        <ele>53</ele>
        <time>2021-09-05T07:32:47.000Z</time>
      </trkpt>
      <trkpt lat="47.08779" lon="-1.73884">
        <ele>53</ele>
        <time>2021-09-05T07:32:49.000Z</time>
      </trkpt>
      <trkpt lat="47.08771" lon="-1.739">
        <ele>53</ele>
        <time>2021-09-05T07:32:51.000Z</time>
      </trkpt>
      <trkpt lat="47.08762" lon="-1.73917">
        <ele>53</ele>
        <time>2021-09-05T07:32:53.000Z</time>
      </trkpt>
      <trkpt lat="47.08754" lon="-1.73933">
        <ele>53</ele>
        <time>2021-09-05T07:32:55.000Z</time>
      </trkpt>
      <trkpt lat="47.08746" lon="-1.73949">
        <ele>53</ele>
        <time>2021-09-05T07:32:57.000Z</time>
      </trkpt>
      <trkpt lat="47.08738" lon="-1.73966">
        <ele>53</ele>
        <time>2021-09-05T07:32:59.000Z</time>
      </trkpt>
      <trkpt lat="47.08729" lon="-1.73982">
        <ele>53</ele>
        <time>2021-09-05T07:33:01.000Z</time>
      </trkpt>
      <trkpt lat="47.08721" lon="-1.73999">
        <ele>53</ele>
        <time>2021-09-05T07:33:03.000Z</time>
      </trkpt>
      <trkpt lat="47.08713" lon="-1.74016">
        <ele>52</ele>
        <time>2021-09-05T07:33:05.000Z</time>
      </trkpt>
      <trkpt lat="47.08706" lon="-1.74033">
        <ele>52</ele>
        <time>2021-09-05T07:33:07.000Z</time>
      </trkpt>
      <trkpt lat="47.08699" lon="-1.7405">
        <ele>52</ele>
        <time>2021-09-05T07:33:09.000Z</time>
      </trkpt>
      <trkpt lat="47.08691" lon="-1.74068">
        <ele>52</ele>
        <time>2021-09-05T07:33:11.000Z</time>
      </trkpt>
      <trkpt lat="47.08685" lon="-1.74084">
        <ele>51</ele>
        <time>2021-09-05T07:33:13.000Z</time>
      </trkpt>
      <trkpt lat="47.08677" lon="-1.741">
        <ele>52</ele>
        <time>2021-09-05T07:33:15.000Z</time>
      </trkpt>
      <trkpt lat="47.08671" lon="-1.74118">
        <ele>52</ele>
        <time>2021-09-05T07:33:17.000Z</time>
      </trkpt>
      <trkpt lat="47.08664" lon="-1.74135">
        <ele>53</ele>
        <time>2021-09-05T07:33:19.000Z</time>
      </trkpt>
      <trkpt lat="47.08656" lon="-1.74151">
        <ele>53</ele>
        <time>2021-09-05T07:33:21.000Z</time>
      </trkpt>
      <trkpt lat="47.08646" lon="-1.74164">
        <ele>53</ele>
        <time>2021-09-05T07:33:23.000Z</time>
      </trkpt>
      <trkpt lat="47.08636" lon="-1.74177">
        <ele>53</ele>
        <time>2021-09-05T07:33:25.000Z</time>
      </trkpt>
      <trkpt lat="47.08626" lon="-1.74191">
        <ele>52</ele>
        <time>2021-09-05T07:33:27.000Z</time>
      </trkpt>
      <trkpt lat="47.08615" lon="-1.74204">
        <ele>52</ele>
        <time>2021-09-05T07:33:29.000Z</time>
      </trkpt>
      <trkpt lat="47.08604" lon="-1.74216">
        <ele>52</ele>
        <time>2021-09-05T07:33:31.000Z</time>
      </trkpt>
      <trkpt lat="47.08593" lon="-1.74229">
        <ele>51</ele>
        <time>2021-09-05T07:33:33.000Z</time>
      </trkpt>
      <trkpt lat="47.08583" lon="-1.74242">
        <ele>51</ele>
        <time>2021-09-05T07:33:35.000Z</time>
      </trkpt>
      <trkpt lat="47.08572" lon="-1.74254">
        <ele>52</ele>
        <time>2021-09-05T07:33:37.000Z</time>
      </trkpt>
      <trkpt lat="47.08563" lon="-1.74267">
        <ele>52</ele>
        <time>2021-09-05T07:33:39.000Z</time>
      </trkpt>
      <trkpt lat="47.08553" lon="-1.7428">
        <ele>51</ele>
        <time>2021-09-05T07:33:41.000Z</time>
      </trkpt>
      <trkpt lat="47.08545" lon="-1.74297">
        <ele>51</ele>
        <time>2021-09-05T07:33:43.000Z</time>
      </trkpt>
      <trkpt lat="47.08539" lon="-1.74316">
        <ele>51</ele>
        <time>2021-09-05T07:33:45.000Z</time>
      </trkpt>
      <trkpt lat="47.08536" lon="-1.74336">
        <ele>51</ele>
        <time>2021-09-05T07:33:47.000Z</time>
      </trkpt>
      <trkpt lat="47.08533" lon="-1.74355">
        <ele>52</ele>
        <time>2021-09-05T07:33:49.000Z</time>
      </trkpt>
      <trkpt lat="47.08528" lon="-1.74374">
        <ele>52</ele>
        <time>2021-09-05T07:33:51.000Z</time>
      </trkpt>
      <trkpt lat="47.08521" lon="-1.74391">
        <ele>53</ele>
        <time>2021-09-05T07:33:53.000Z</time>
      </trkpt>
      <trkpt lat="47.0851" lon="-1.74405">
        <ele>53</ele>
        <time>2021-09-05T07:33:55.000Z</time>
      </trkpt>
      <trkpt lat="47.085" lon="-1.74417">
        <ele>53</ele>
        <time>2021-09-05T07:33:57.000Z</time>
      </trkpt>
      <trkpt lat="47.08488" lon="-1.74429">
        <ele>53</ele>
        <time>2021-09-05T07:33:59.000Z</time>
      </trkpt>
      <trkpt lat="47.08479" lon="-1.74441">
        <ele>53</ele>
        <time>2021-09-05T07:34:01.000Z</time>
      </trkpt>
      <trkpt lat="47.08469" lon="-1.74453">
        <ele>54</ele>
        <time>2021-09-05T07:34:03.000Z</time>
      </trkpt>
      <trkpt lat="47.08459" lon="-1.74465">
        <ele>54</ele>
        <time>2021-09-05T07:34:05.000Z</time>
      </trkpt>
      <trkpt lat="47.08446" lon="-1.74477">
        <ele>54</ele>
        <time>2021-09-05T07:34:07.000Z</time>
      </trkpt>
      <trkpt lat="47.08434" lon="-1.7449">
        <ele>54</ele>
        <time>2021-09-05T07:34:09.000Z</time>
      </trkpt>
      <trkpt lat="47.08422" lon="-1.74504">
        <ele>54</ele>
        <time>2021-09-05T07:34:11.000Z</time>
      </trkpt>
      <trkpt lat="47.08411" lon="-1.74516">
        <ele>54</ele>
        <time>2021-09-05T07:34:13.000Z</time>
      </trkpt>
      <trkpt lat="47.08401" lon="-1.74528">
        <ele>53</ele>
        <time>2021-09-05T07:34:15.000Z</time>
      </trkpt>
      <trkpt lat="47.08391" lon="-1.7454">
        <ele>54</ele>
        <time>2021-09-05T07:34:17.000Z</time>
      </trkpt>
      <trkpt lat="47.08381" lon="-1.74551">
        <ele>54</ele>
        <time>2021-09-05T07:34:19.000Z</time>
      </trkpt>
      <trkpt lat="47.08372" lon="-1.74562">
        <ele>55</ele>
        <time>2021-09-05T07:34:21.000Z</time>
      </trkpt>
      <trkpt lat="47.08362" lon="-1.74569">
        <ele>56</ele>
        <time>2021-09-05T07:34:23.000Z</time>
      </trkpt>
      <trkpt lat="47.08352" lon="-1.74575">
        <ele>56</ele>
        <time>2021-09-05T07:34:25.000Z</time>
      </trkpt>
      <trkpt lat="47.08341" lon="-1.74579">
        <ele>56</ele>
        <time>2021-09-05T07:34:27.000Z</time>
      </trkpt>
      <trkpt lat="47.08329" lon="-1.74585">
        <ele>56</ele>
        <time>2021-09-05T07:34:29.000Z</time>
      </trkpt>
      <trkpt lat="47.08318" lon="-1.74594">
        <ele>57</ele>
        <time>2021-09-05T07:34:31.000Z</time>
      </trkpt>
      <trkpt lat="47.08306" lon="-1.74607">
        <ele>58</ele>
        <time>2021-09-05T07:34:33.000Z</time>
      </trkpt>
      <trkpt lat="47.08295" lon="-1.74621">
        <ele>58</ele>
        <time>2021-09-05T07:34:35.000Z</time>
      </trkpt>
      <trkpt lat="47.08284" lon="-1.74635">
        <ele>58</ele>
        <time>2021-09-05T07:34:37.000Z</time>
      </trkpt>
      <trkpt lat="47.08275" lon="-1.74649">
        <ele>57</ele>
        <time>2021-09-05T07:34:39.000Z</time>
      </trkpt>
      <trkpt lat="47.08265" lon="-1.74663">
        <ele>57</ele>
        <time>2021-09-05T07:34:41.000Z</time>
      </trkpt>
      <trkpt lat="47.08255" lon="-1.74675">
        <ele>57</ele>
        <time>2021-09-05T07:34:43.000Z</time>
      </trkpt>
      <trkpt lat="47.08247" lon="-1.74689">
        <ele>58</ele>
        <time>2021-09-05T07:34:45.000Z</time>
      </trkpt>
      <trkpt lat="47.08237" lon="-1.74704">
        <ele>58</ele>
        <time>2021-09-05T07:34:47.000Z</time>
      </trkpt>
      <trkpt lat="47.08228" lon="-1.74721">
        <ele>58</ele>
        <time>2021-09-05T07:34:49.000Z</time>
      </trkpt>
      <trkpt lat="47.0822" lon="-1.74739">
        <ele>57</ele>
        <time>2021-09-05T07:34:51.000Z</time>
      </trkpt>
      <trkpt lat="47.08213" lon="-1.74758">
        <ele>57</ele>
        <time>2021-09-05T07:34:53.000Z</time>
      </trkpt>
      <trkpt lat="47.08208" lon="-1.74776">
        <ele>56</ele>
        <time>2021-09-05T07:34:55.000Z</time>
      </trkpt>
      <trkpt lat="47.08205" lon="-1.74794">
        <ele>56</ele>
        <time>2021-09-05T07:34:57.000Z</time>
      </trkpt>
      <trkpt lat="47.08202" lon="-1.74813">
        <ele>56</ele>
        <time>2021-09-05T07:34:59.000Z</time>
      </trkpt>
      <trkpt lat="47.08195" lon="-1.74829">
        <ele>56</ele>
        <time>2021-09-05T07:35:01.000Z</time>
      </trkpt>
      <trkpt lat="47.08184" lon="-1.74841">
        <ele>56</ele>
        <time>2021-09-05T07:35:03.000Z</time>
      </trkpt>
      <trkpt lat="47.08174" lon="-1.7485">
        <ele>55</ele>
        <time>2021-09-05T07:35:05.000Z</time>
      </trkpt>
      <trkpt lat="47.08163" lon="-1.74859">
        <ele>55</ele>
        <time>2021-09-05T07:35:07.000Z</time>
      </trkpt>
      <trkpt lat="47.08151" lon="-1.74868">
        <ele>55</ele>
        <time>2021-09-05T07:35:09.000Z</time>
      </trkpt>
      <trkpt lat="47.08139" lon="-1.74875">
        <ele>55</ele>
        <time>2021-09-05T07:35:11.000Z</time>
      </trkpt>
      <trkpt lat="47.08128" lon="-1.74879">
        <ele>55</ele>
        <time>2021-09-05T07:35:13.000Z</time>
      </trkpt>
      <trkpt lat="47.08115" lon="-1.74882">
        <ele>54</ele>
        <time>2021-09-05T07:35:15.000Z</time>
      </trkpt>
      <trkpt lat="47.08101" lon="-1.74885">
        <ele>55</ele>
        <time>2021-09-05T07:35:17.000Z</time>
      </trkpt>
      <trkpt lat="47.08089" lon="-1.74891">
        <ele>55</ele>
        <time>2021-09-05T07:35:19.000Z</time>
      </trkpt>
      <trkpt lat="47.08078" lon="-1.749">
        <ele>55</ele>
        <time>2021-09-05T07:35:21.000Z</time>
      </trkpt>
      <trkpt lat="47.08067" lon="-1.74912">
        <ele>55</ele>
        <time>2021-09-05T07:35:23.000Z</time>
      </trkpt>
      <trkpt lat="47.08057" lon="-1.74924">
        <ele>56</ele>
        <time>2021-09-05T07:35:25.000Z</time>
      </trkpt>
      <trkpt lat="47.08047" lon="-1.74934">
        <ele>56</ele>
        <time>2021-09-05T07:35:27.000Z</time>
      </trkpt>
      <trkpt lat="47.08035" lon="-1.74943">
        <ele>56</ele>
        <time>2021-09-05T07:35:29.000Z</time>
      </trkpt>
      <trkpt lat="47.08023" lon="-1.7495">
        <ele>56</ele>
        <time>2021-09-05T07:35:31.000Z</time>
      </trkpt>
      <trkpt lat="47.08012" lon="-1.74957">
        <ele>56</ele>
        <time>2021-09-05T07:35:33.000Z</time>
      </trkpt>
      <trkpt lat="47.08" lon="-1.74963">
        <ele>56</ele>
        <time>2021-09-05T07:35:35.000Z</time>
      </trkpt>
      <trkpt lat="47.07987" lon="-1.7497">
        <ele>56</ele>
        <time>2021-09-05T07:35:37.000Z</time>
      </trkpt>
      <trkpt lat="47.07976" lon="-1.74977">
        <ele>57</ele>
        <time>2021-09-05T07:35:39.000Z</time>
      </trkpt>
      <trkpt lat="47.07964" lon="-1.74985">
        <ele>57</ele>
        <time>2021-09-05T07:35:41.000Z</time>
      </trkpt>
      <trkpt lat="47.07953" lon="-1.74992">
        <ele>58</ele>
        <time>2021-09-05T07:35:43.000Z</time>
      </trkpt>
      <trkpt lat="47.07941" lon="-1.74998">
        <ele>58</ele>
        <time>2021-09-05T07:35:45.000Z</time>
      </trkpt>
      <trkpt lat="47.07928" lon="-1.75005">
        <ele>59</ele>
        <time>2021-09-05T07:35:47.000Z</time>
      </trkpt>
      <trkpt lat="47.07916" lon="-1.75012">
        <ele>59</ele>
        <time>2021-09-05T07:35:49.000Z</time>
      </trkpt>
      <trkpt lat="47.07905" lon="-1.75018">
        <ele>59</ele>
        <time>2021-09-05T07:35:51.000Z</time>
      </trkpt>
      <trkpt lat="47.07892" lon="-1.75026">
        <ele>59</ele>
        <time>2021-09-05T07:35:53.000Z</time>
      </trkpt>
      <trkpt lat="47.0788" lon="-1.75033">
        <ele>58</ele>
        <time>2021-09-05T07:35:55.000Z</time>
      </trkpt>
      <trkpt lat="47.07869" lon="-1.75041">
        <ele>58</ele>
        <time>2021-09-05T07:35:57.000Z</time>
      </trkpt>
      <trkpt lat="47.07857" lon="-1.75049">
        <ele>58</ele>
        <time>2021-09-05T07:35:59.000Z</time>
      </trkpt>
      <trkpt lat="47.07845" lon="-1.75054">
        <ele>57</ele>
        <time>2021-09-05T07:36:01.000Z</time>
      </trkpt>
      <trkpt lat="47.07831" lon="-1.75056">
        <ele>57</ele>
        <time>2021-09-05T07:36:03.000Z</time>
      </trkpt>
      <trkpt lat="47.07817" lon="-1.75057">
        <ele>57</ele>
        <time>2021-09-05T07:36:05.000Z</time>
      </trkpt>
      <trkpt lat="47.07803" lon="-1.75057">
        <ele>58</ele>
        <time>2021-09-05T07:36:07.000Z</time>
      </trkpt>
      <trkpt lat="47.0779" lon="-1.75057">
        <ele>59</ele>
        <time>2021-09-05T07:36:09.000Z</time>
      </trkpt>
      <trkpt lat="47.07779" lon="-1.75058">
        <ele>58</ele>
        <time>2021-09-05T07:36:11.000Z</time>
      </trkpt>
      <trkpt lat="47.07767" lon="-1.75059">
        <ele>59</ele>
        <time>2021-09-05T07:36:13.000Z</time>
      </trkpt>
      <trkpt lat="47.07753" lon="-1.75061">
        <ele>59</ele>
        <time>2021-09-05T07:36:15.000Z</time>
      </trkpt>
      <trkpt lat="47.07741" lon="-1.75061">
        <ele>59</ele>
        <time>2021-09-05T07:36:17.000Z</time>
      </trkpt>
      <trkpt lat="47.07729" lon="-1.75061">
        <ele>59</ele>
        <time>2021-09-05T07:36:19.000Z</time>
      </trkpt>
      <trkpt lat="47.07719" lon="-1.75063">
        <ele>58</ele>
        <time>2021-09-05T07:36:21.000Z</time>
      </trkpt>
      <trkpt lat="47.07714" lon="-1.75074">
        <ele>58</ele>
        <time>2021-09-05T07:36:23.000Z</time>
      </trkpt>
      <trkpt lat="47.07714" lon="-1.75091">
        <ele>57</ele>
        <time>2021-09-05T07:36:25.000Z</time>
      </trkpt>
      <trkpt lat="47.07714" lon="-1.75109">
        <ele>57</ele>
        <time>2021-09-05T07:36:27.000Z</time>
      </trkpt>
      <trkpt lat="47.07716" lon="-1.75127">
        <ele>56</ele>
        <time>2021-09-05T07:36:29.000Z</time>
      </trkpt>
      <trkpt lat="47.0772" lon="-1.75145">
        <ele>56</ele>
        <time>2021-09-05T07:36:31.000Z</time>
      </trkpt>
      <trkpt lat="47.07724" lon="-1.75163">
        <ele>56</ele>
        <time>2021-09-05T07:36:33.000Z</time>
      </trkpt>
      <trkpt lat="47.07728" lon="-1.75179">
        <ele>56</ele>
        <time>2021-09-05T07:36:35.000Z</time>
      </trkpt>
      <trkpt lat="47.07733" lon="-1.75196">
        <ele>55</ele>
        <time>2021-09-05T07:36:37.000Z</time>
      </trkpt>
      <trkpt lat="47.07738" lon="-1.75212">
        <ele>55</ele>
        <time>2021-09-05T07:36:39.000Z</time>
      </trkpt>
      <trkpt lat="47.07744" lon="-1.75229">
        <ele>55</ele>
        <time>2021-09-05T07:36:41.000Z</time>
      </trkpt>
      <trkpt lat="47.07751" lon="-1.75247">
        <ele>55</ele>
        <time>2021-09-05T07:36:43.000Z</time>
      </trkpt>
      <trkpt lat="47.07756" lon="-1.75264">
        <ele>55</ele>
        <time>2021-09-05T07:36:45.000Z</time>
      </trkpt>
      <trkpt lat="47.07763" lon="-1.75281">
        <ele>55</ele>
        <time>2021-09-05T07:36:47.000Z</time>
      </trkpt>
      <trkpt lat="47.07768" lon="-1.75298">
        <ele>55</ele>
        <time>2021-09-05T07:36:49.000Z</time>
      </trkpt>
      <trkpt lat="47.07774" lon="-1.75315">
        <ele>55</ele>
        <time>2021-09-05T07:36:51.000Z</time>
      </trkpt>
      <trkpt lat="47.07781" lon="-1.75329">
        <ele>56</ele>
        <time>2021-09-05T07:36:53.000Z</time>
      </trkpt>
      <trkpt lat="47.07787" lon="-1.75343">
        <ele>56</ele>
        <time>2021-09-05T07:36:55.000Z</time>
      </trkpt>
      <trkpt lat="47.07794" lon="-1.75357">
        <ele>57</ele>
        <time>2021-09-05T07:36:57.000Z</time>
      </trkpt>
      <trkpt lat="47.078" lon="-1.75373">
        <ele>57</ele>
        <time>2021-09-05T07:36:59.000Z</time>
      </trkpt>
      <trkpt lat="47.07805" lon="-1.75386">
        <ele>58</ele>
        <time>2021-09-05T07:37:01.000Z</time>
      </trkpt>
      <trkpt lat="47.07811" lon="-1.75398">
        <ele>57</ele>
        <time>2021-09-05T07:37:03.000Z</time>
      </trkpt>
      <trkpt lat="47.07817" lon="-1.75413">
        <ele>56</ele>
        <time>2021-09-05T07:37:06.000Z</time>
      </trkpt>
      <trkpt lat="47.0781" lon="-1.75427">
        <ele>57</ele>
        <time>2021-09-05T07:37:09.000Z</time>
      </trkpt>
      <trkpt lat="47.07799" lon="-1.75433">
        <ele>57</ele>
        <time>2021-09-05T07:37:11.000Z</time>
      </trkpt>
      <trkpt lat="47.07787" lon="-1.75437">
        <ele>57</ele>
        <time>2021-09-05T07:37:13.000Z</time>
      </trkpt>
      <trkpt lat="47.07775" lon="-1.75442">
        <ele>57</ele>
        <time>2021-09-05T07:37:15.000Z</time>
      </trkpt>
      <trkpt lat="47.07763" lon="-1.75446">
        <ele>57</ele>
        <time>2021-09-05T07:37:17.000Z</time>
      </trkpt>
      <trkpt lat="47.07752" lon="-1.75451">
        <ele>56</ele>
        <time>2021-09-05T07:37:19.000Z</time>
      </trkpt>
      <trkpt lat="47.0774" lon="-1.75455">
        <ele>56</ele>
        <time>2021-09-05T07:37:21.000Z</time>
      </trkpt>
      <trkpt lat="47.07728" lon="-1.7546">
        <ele>56</ele>
        <time>2021-09-05T07:37:23.000Z</time>
      </trkpt>
      <trkpt lat="47.07717" lon="-1.75464">
        <ele>57</ele>
        <time>2021-09-05T07:37:25.000Z</time>
      </trkpt>
      <trkpt lat="47.07705" lon="-1.75469">
        <ele>57</ele>
        <time>2021-09-05T07:37:27.000Z</time>
      </trkpt>
      <trkpt lat="47.07693" lon="-1.75473">
        <ele>57</ele>
        <time>2021-09-05T07:37:29.000Z</time>
      </trkpt>
      <trkpt lat="47.07682" lon="-1.75478">
        <ele>57</ele>
        <time>2021-09-05T07:37:31.000Z</time>
      </trkpt>
      <trkpt lat="47.0767" lon="-1.75483">
        <ele>58</ele>
        <time>2021-09-05T07:37:33.000Z</time>
      </trkpt>
      <trkpt lat="47.07658" lon="-1.75487">
        <ele>58</ele>
        <time>2021-09-05T07:37:35.000Z</time>
      </trkpt>
      <trkpt lat="47.07647" lon="-1.75491">
        <ele>59</ele>
        <time>2021-09-05T07:37:37.000Z</time>
      </trkpt>
      <trkpt lat="47.07636" lon="-1.75495">
        <ele>59</ele>
        <time>2021-09-05T07:37:39.000Z</time>
      </trkpt>
      <trkpt lat="47.07625" lon="-1.75499">
        <ele>59</ele>
        <time>2021-09-05T07:37:41.000Z</time>
      </trkpt>
      <trkpt lat="47.07614" lon="-1.75504">
        <ele>60</ele>
        <time>2021-09-05T07:37:43.000Z</time>
      </trkpt>
      <trkpt lat="47.07603" lon="-1.75508">
        <ele>60</ele>
        <time>2021-09-05T07:37:45.000Z</time>
      </trkpt>
      <trkpt lat="47.07592" lon="-1.75513">
        <ele>60</ele>
        <time>2021-09-05T07:37:47.000Z</time>
      </trkpt>
      <trkpt lat="47.0758" lon="-1.75517">
        <ele>60</ele>
        <time>2021-09-05T07:37:49.000Z</time>
      </trkpt>
      <trkpt lat="47.07569" lon="-1.75521">
        <ele>60</ele>
        <time>2021-09-05T07:37:51.000Z</time>
      </trkpt>
      <trkpt lat="47.07558" lon="-1.75526">
        <ele>61</ele>
        <time>2021-09-05T07:37:53.000Z</time>
      </trkpt>
      <trkpt lat="47.07547" lon="-1.7553">
        <ele>61</ele>
        <time>2021-09-05T07:37:55.000Z</time>
      </trkpt>
      <trkpt lat="47.07536" lon="-1.75534">
        <ele>62</ele>
        <time>2021-09-05T07:37:57.000Z</time>
      </trkpt>
      <trkpt lat="47.07525" lon="-1.75538">
        <ele>62</ele>
        <time>2021-09-05T07:37:59.000Z</time>
      </trkpt>
      <trkpt lat="47.07514" lon="-1.75542">
        <ele>62</ele>
        <time>2021-09-05T07:38:01.000Z</time>
      </trkpt>
      <trkpt lat="47.07503" lon="-1.75547">
        <ele>63</ele>
        <time>2021-09-05T07:38:03.000Z</time>
      </trkpt>
      <trkpt lat="47.07493" lon="-1.75551">
        <ele>63</ele>
        <time>2021-09-05T07:38:05.000Z</time>
      </trkpt>
      <trkpt lat="47.07482" lon="-1.75556">
        <ele>63</ele>
        <time>2021-09-05T07:38:07.000Z</time>
      </trkpt>
      <trkpt lat="47.07471" lon="-1.75559">
        <ele>63</ele>
        <time>2021-09-05T07:38:09.000Z</time>
      </trkpt>
      <trkpt lat="47.0746" lon="-1.75564">
        <ele>63</ele>
        <time>2021-09-05T07:38:11.000Z</time>
      </trkpt>
      <trkpt lat="47.07449" lon="-1.75568">
        <ele>64</ele>
        <time>2021-09-05T07:38:13.000Z</time>
      </trkpt>
      <trkpt lat="47.07437" lon="-1.75573">
        <ele>64</ele>
        <time>2021-09-05T07:38:15.000Z</time>
      </trkpt>
      <trkpt lat="47.07426" lon="-1.75577">
        <ele>64</ele>
        <time>2021-09-05T07:38:17.000Z</time>
      </trkpt>
      <trkpt lat="47.07415" lon="-1.75582">
        <ele>64</ele>
        <time>2021-09-05T07:38:19.000Z</time>
      </trkpt>
      <trkpt lat="47.07404" lon="-1.75586">
        <ele>65</ele>
        <time>2021-09-05T07:38:21.000Z</time>
      </trkpt>
      <trkpt lat="47.07393" lon="-1.75591">
        <ele>65</ele>
        <time>2021-09-05T07:38:23.000Z</time>
      </trkpt>
      <trkpt lat="47.07382" lon="-1.75595">
        <ele>65</ele>
        <time>2021-09-05T07:38:25.000Z</time>
      </trkpt>
      <trkpt lat="47.0737" lon="-1.756">
        <ele>65</ele>
        <time>2021-09-05T07:38:27.000Z</time>
      </trkpt>
      <trkpt lat="47.07359" lon="-1.75604">
        <ele>66</ele>
        <time>2021-09-05T07:38:29.000Z</time>
      </trkpt>
      <trkpt lat="47.07348" lon="-1.75608">
        <ele>66</ele>
        <time>2021-09-05T07:38:31.000Z</time>
      </trkpt>
      <trkpt lat="47.07336" lon="-1.75612">
        <ele>67</ele>
        <time>2021-09-05T07:38:33.000Z</time>
      </trkpt>
      <trkpt lat="47.07325" lon="-1.75616">
        <ele>67</ele>
        <time>2021-09-05T07:38:35.000Z</time>
      </trkpt>
      <trkpt lat="47.07313" lon="-1.75622">
        <ele>67</ele>
        <time>2021-09-05T07:38:37.000Z</time>
      </trkpt>
      <trkpt lat="47.07302" lon="-1.75627">
        <ele>68</ele>
        <time>2021-09-05T07:38:39.000Z</time>
      </trkpt>
      <trkpt lat="47.07291" lon="-1.75634">
        <ele>68</ele>
        <time>2021-09-05T07:38:41.000Z</time>
      </trkpt>
      <trkpt lat="47.07281" lon="-1.75642">
        <ele>68</ele>
        <time>2021-09-05T07:38:43.000Z</time>
      </trkpt>
      <trkpt lat="47.0727" lon="-1.75651">
        <ele>68</ele>
        <time>2021-09-05T07:38:45.000Z</time>
      </trkpt>
      <trkpt lat="47.0726" lon="-1.7566">
        <ele>68</ele>
        <time>2021-09-05T07:38:47.000Z</time>
      </trkpt>
      <trkpt lat="47.07251" lon="-1.75671">
        <ele>68</ele>
        <time>2021-09-05T07:38:49.000Z</time>
      </trkpt>
      <trkpt lat="47.07242" lon="-1.75681">
        <ele>69</ele>
        <time>2021-09-05T07:38:51.000Z</time>
      </trkpt>
      <trkpt lat="47.07232" lon="-1.75692">
        <ele>69</ele>
        <time>2021-09-05T07:38:53.000Z</time>
      </trkpt>
      <trkpt lat="47.07223" lon="-1.75704">
        <ele>69</ele>
        <time>2021-09-05T07:38:55.000Z</time>
      </trkpt>
      <trkpt lat="47.07214" lon="-1.75715">
        <ele>69</ele>
        <time>2021-09-05T07:38:57.000Z</time>
      </trkpt>
      <trkpt lat="47.07204" lon="-1.75726">
        <ele>69</ele>
        <time>2021-09-05T07:38:59.000Z</time>
      </trkpt>
      <trkpt lat="47.07194" lon="-1.75736">
        <ele>69</ele>
        <time>2021-09-05T07:39:01.000Z</time>
      </trkpt>
      <trkpt lat="47.07185" lon="-1.75747">
        <ele>69</ele>
        <time>2021-09-05T07:39:03.000Z</time>
      </trkpt>
      <trkpt lat="47.07176" lon="-1.75758">
        <ele>69</ele>
        <time>2021-09-05T07:39:05.000Z</time>
      </trkpt>
      <trkpt lat="47.07166" lon="-1.75769">
        <ele>69</ele>
        <time>2021-09-05T07:39:07.000Z</time>
      </trkpt>
      <trkpt lat="47.07157" lon="-1.7578">
        <ele>69</ele>
        <time>2021-09-05T07:39:09.000Z</time>
      </trkpt>
      <trkpt lat="47.07147" lon="-1.75791">
        <ele>70</ele>
        <time>2021-09-05T07:39:11.000Z</time>
      </trkpt>
      <trkpt lat="47.07137" lon="-1.75802">
        <ele>70</ele>
        <time>2021-09-05T07:39:13.000Z</time>
      </trkpt>
      <trkpt lat="47.07127" lon="-1.75813">
        <ele>70</ele>
        <time>2021-09-05T07:39:15.000Z</time>
      </trkpt>
      <trkpt lat="47.07118" lon="-1.75824">
        <ele>70</ele>
        <time>2021-09-05T07:39:17.000Z</time>
      </trkpt>
      <trkpt lat="47.07109" lon="-1.75836">
        <ele>71</ele>
        <time>2021-09-05T07:39:19.000Z</time>
      </trkpt>
      <trkpt lat="47.07099" lon="-1.75847">
        <ele>71</ele>
        <time>2021-09-05T07:39:21.000Z</time>
      </trkpt>
      <trkpt lat="47.07089" lon="-1.75858">
        <ele>71</ele>
        <time>2021-09-05T07:39:23.000Z</time>
      </trkpt>
      <trkpt lat="47.0708" lon="-1.7587">
        <ele>71</ele>
        <time>2021-09-05T07:39:25.000Z</time>
      </trkpt>
      <trkpt lat="47.0707" lon="-1.75881">
        <ele>71</ele>
        <time>2021-09-05T07:39:27.000Z</time>
      </trkpt>
      <trkpt lat="47.07061" lon="-1.75892">
        <ele>71</ele>
        <time>2021-09-05T07:39:29.000Z</time>
      </trkpt>
      <trkpt lat="47.07051" lon="-1.75903">
        <ele>71</ele>
        <time>2021-09-05T07:39:31.000Z</time>
      </trkpt>
      <trkpt lat="47.07041" lon="-1.75915">
        <ele>71</ele>
        <time>2021-09-05T07:39:33.000Z</time>
      </trkpt>
      <trkpt lat="47.07032" lon="-1.75926">
        <ele>71</ele>
        <time>2021-09-05T07:39:35.000Z</time>
      </trkpt>
      <trkpt lat="47.07022" lon="-1.75937">
        <ele>71</ele>
        <time>2021-09-05T07:39:37.000Z</time>
      </trkpt>
      <trkpt lat="47.07012" lon="-1.75948">
        <ele>71</ele>
        <time>2021-09-05T07:39:39.000Z</time>
      </trkpt>
      <trkpt lat="47.07003" lon="-1.75959">
        <ele>71</ele>
        <time>2021-09-05T07:39:41.000Z</time>
      </trkpt>
      <trkpt lat="47.06994" lon="-1.7597">
        <ele>71</ele>
        <time>2021-09-05T07:39:43.000Z</time>
      </trkpt>
      <trkpt lat="47.06984" lon="-1.75981">
        <ele>72</ele>
        <time>2021-09-05T07:39:45.000Z</time>
      </trkpt>
      <trkpt lat="47.06975" lon="-1.75992">
        <ele>72</ele>
        <time>2021-09-05T07:39:47.000Z</time>
      </trkpt>
      <trkpt lat="47.06966" lon="-1.76004">
        <ele>72</ele>
        <time>2021-09-05T07:39:49.000Z</time>
      </trkpt>
      <trkpt lat="47.06957" lon="-1.76014">
        <ele>73</ele>
        <time>2021-09-05T07:39:51.000Z</time>
      </trkpt>
      <trkpt lat="47.06947" lon="-1.76023">
        <ele>73</ele>
        <time>2021-09-05T07:39:53.000Z</time>
      </trkpt>
      <trkpt lat="47.06936" lon="-1.76033">
        <ele>73</ele>
        <time>2021-09-05T07:39:55.000Z</time>
      </trkpt>
      <trkpt lat="47.06926" lon="-1.76042">
        <ele>73</ele>
        <time>2021-09-05T07:39:57.000Z</time>
      </trkpt>
      <trkpt lat="47.06915" lon="-1.7605">
        <ele>73</ele>
        <time>2021-09-05T07:39:59.000Z</time>
      </trkpt>
      <trkpt lat="47.06904" lon="-1.76057">
        <ele>74</ele>
        <time>2021-09-05T07:40:01.000Z</time>
      </trkpt>
      <trkpt lat="47.06893" lon="-1.76064">
        <ele>74</ele>
        <time>2021-09-05T07:40:03.000Z</time>
      </trkpt>
      <trkpt lat="47.06882" lon="-1.76069">
        <ele>74</ele>
        <time>2021-09-05T07:40:05.000Z</time>
      </trkpt>
      <trkpt lat="47.06871" lon="-1.76075">
        <ele>75</ele>
        <time>2021-09-05T07:40:07.000Z</time>
      </trkpt>
      <trkpt lat="47.0686" lon="-1.7608">
        <ele>75</ele>
        <time>2021-09-05T07:40:09.000Z</time>
      </trkpt>
      <trkpt lat="47.06849" lon="-1.76086">
        <ele>76</ele>
        <time>2021-09-05T07:40:11.000Z</time>
      </trkpt>
      <trkpt lat="47.06838" lon="-1.76091">
        <ele>76</ele>
        <time>2021-09-05T07:40:13.000Z</time>
      </trkpt>
      <trkpt lat="47.06827" lon="-1.76096">
        <ele>76</ele>
        <time>2021-09-05T07:40:15.000Z</time>
      </trkpt>
      <trkpt lat="47.06816" lon="-1.76101">
        <ele>76</ele>
        <time>2021-09-05T07:40:17.000Z</time>
      </trkpt>
      <trkpt lat="47.06804" lon="-1.76106">
        <ele>77</ele>
        <time>2021-09-05T07:40:19.000Z</time>
      </trkpt>
      <trkpt lat="47.06793" lon="-1.76111">
        <ele>77</ele>
        <time>2021-09-05T07:40:21.000Z</time>
      </trkpt>
      <trkpt lat="47.06781" lon="-1.76116">
        <ele>77</ele>
        <time>2021-09-05T07:40:23.000Z</time>
      </trkpt>
      <trkpt lat="47.06771" lon="-1.76121">
        <ele>78</ele>
        <time>2021-09-05T07:40:25.000Z</time>
      </trkpt>
      <trkpt lat="47.0676" lon="-1.76125">
        <ele>79</ele>
        <time>2021-09-05T07:40:27.000Z</time>
      </trkpt>
      <trkpt lat="47.06749" lon="-1.7613">
        <ele>79</ele>
        <time>2021-09-05T07:40:29.000Z</time>
      </trkpt>
      <trkpt lat="47.06738" lon="-1.76136">
        <ele>79</ele>
        <time>2021-09-05T07:40:31.000Z</time>
      </trkpt>
      <trkpt lat="47.06727" lon="-1.7614">
        <ele>79</ele>
        <time>2021-09-05T07:40:33.000Z</time>
      </trkpt>
      <trkpt lat="47.06716" lon="-1.76145">
        <ele>80</ele>
        <time>2021-09-05T07:40:35.000Z</time>
      </trkpt>
      <trkpt lat="47.06705" lon="-1.7615">
        <ele>80</ele>
        <time>2021-09-05T07:40:37.000Z</time>
      </trkpt>
      <trkpt lat="47.06694" lon="-1.76155">
        <ele>81</ele>
        <time>2021-09-05T07:40:39.000Z</time>
      </trkpt>
      <trkpt lat="47.06684" lon="-1.7616">
        <ele>81</ele>
        <time>2021-09-05T07:40:41.000Z</time>
      </trkpt>
      <trkpt lat="47.06673" lon="-1.76165">
        <ele>82</ele>
        <time>2021-09-05T07:40:43.000Z</time>
      </trkpt>
      <trkpt lat="47.06662" lon="-1.76169">
        <ele>82</ele>
        <time>2021-09-05T07:40:45.000Z</time>
      </trkpt>
      <trkpt lat="47.06651" lon="-1.76174">
        <ele>83</ele>
        <time>2021-09-05T07:40:47.000Z</time>
      </trkpt>
      <trkpt lat="47.0664" lon="-1.76179">
        <ele>83</ele>
        <time>2021-09-05T07:40:49.000Z</time>
      </trkpt>
      <trkpt lat="47.0663" lon="-1.76183">
        <ele>83</ele>
        <time>2021-09-05T07:40:51.000Z</time>
      </trkpt>
      <trkpt lat="47.06619" lon="-1.76188">
        <ele>83</ele>
        <time>2021-09-05T07:40:53.000Z</time>
      </trkpt>
      <trkpt lat="47.06608" lon="-1.76193">
        <ele>84</ele>
        <time>2021-09-05T07:40:55.000Z</time>
      </trkpt>
      <trkpt lat="47.06599" lon="-1.76197">
        <ele>84</ele>
        <time>2021-09-05T07:40:57.000Z</time>
      </trkpt>
      <trkpt lat="47.06588" lon="-1.76202">
        <ele>84</ele>
        <time>2021-09-05T07:40:59.000Z</time>
      </trkpt>
      <trkpt lat="47.06578" lon="-1.76207">
        <ele>85</ele>
        <time>2021-09-05T07:41:01.000Z</time>
      </trkpt>
      <trkpt lat="47.06566" lon="-1.76212">
        <ele>84</ele>
        <time>2021-09-05T07:41:03.000Z</time>
      </trkpt>
      <trkpt lat="47.06555" lon="-1.76218">
        <ele>85</ele>
        <time>2021-09-05T07:41:05.000Z</time>
      </trkpt>
      <trkpt lat="47.06544" lon="-1.76223">
        <ele>84</ele>
        <time>2021-09-05T07:41:07.000Z</time>
      </trkpt>
      <trkpt lat="47.06532" lon="-1.76229">
        <ele>84</ele>
        <time>2021-09-05T07:41:09.000Z</time>
      </trkpt>
      <trkpt lat="47.0652" lon="-1.76235">
        <ele>84</ele>
        <time>2021-09-05T07:41:11.000Z</time>
      </trkpt>
      <trkpt lat="47.06508" lon="-1.76241">
        <ele>84</ele>
        <time>2021-09-05T07:41:13.000Z</time>
      </trkpt>
      <trkpt lat="47.06495" lon="-1.76247">
        <ele>84</ele>
        <time>2021-09-05T07:41:15.000Z</time>
      </trkpt>
      <trkpt lat="47.06482" lon="-1.76252">
        <ele>84</ele>
        <time>2021-09-05T07:41:17.000Z</time>
      </trkpt>
      <trkpt lat="47.0647" lon="-1.76259">
        <ele>83</ele>
        <time>2021-09-05T07:41:19.000Z</time>
      </trkpt>
      <trkpt lat="47.06457" lon="-1.76265">
        <ele>83</ele>
        <time>2021-09-05T07:41:21.000Z</time>
      </trkpt>
      <trkpt lat="47.06444" lon="-1.76271">
        <ele>82</ele>
        <time>2021-09-05T07:41:23.000Z</time>
      </trkpt>
      <trkpt lat="47.06431" lon="-1.76278">
        <ele>82</ele>
        <time>2021-09-05T07:41:25.000Z</time>
      </trkpt>
      <trkpt lat="47.06417" lon="-1.76285">
        <ele>82</ele>
        <time>2021-09-05T07:41:27.000Z</time>
      </trkpt>
      <trkpt lat="47.06403" lon="-1.76291">
        <ele>81</ele>
        <time>2021-09-05T07:41:29.000Z</time>
      </trkpt>
      <trkpt lat="47.0639" lon="-1.76296">
        <ele>81</ele>
        <time>2021-09-05T07:41:31.000Z</time>
      </trkpt>
      <trkpt lat="47.06376" lon="-1.76301">
        <ele>81</ele>
        <time>2021-09-05T07:41:33.000Z</time>
      </trkpt>
      <trkpt lat="47.06363" lon="-1.76308">
        <ele>81</ele>
        <time>2021-09-05T07:41:35.000Z</time>
      </trkpt>
      <trkpt lat="47.0635" lon="-1.76315">
        <ele>80</ele>
        <time>2021-09-05T07:41:37.000Z</time>
      </trkpt>
      <trkpt lat="47.06337" lon="-1.76321">
        <ele>80</ele>
        <time>2021-09-05T07:41:39.000Z</time>
      </trkpt>
      <trkpt lat="47.06323" lon="-1.76326">
        <ele>80</ele>
        <time>2021-09-05T07:41:41.000Z</time>
      </trkpt>
      <trkpt lat="47.0631" lon="-1.7633">
        <ele>80</ele>
        <time>2021-09-05T07:41:43.000Z</time>
      </trkpt>
      <trkpt lat="47.06298" lon="-1.76322">
        <ele>80</ele>
        <time>2021-09-05T07:41:45.000Z</time>
      </trkpt>
      <trkpt lat="47.06296" lon="-1.76304">
        <ele>79</ele>
        <time>2021-09-05T07:41:47.000Z</time>
      </trkpt>
      <trkpt lat="47.063" lon="-1.76285">
        <ele>79</ele>
        <time>2021-09-05T07:41:49.000Z</time>
      </trkpt>
      <trkpt lat="47.06301" lon="-1.76266">
        <ele>79</ele>
        <time>2021-09-05T07:41:51.000Z</time>
      </trkpt>
      <trkpt lat="47.06301" lon="-1.76246">
        <ele>79</ele>
        <time>2021-09-05T07:41:53.000Z</time>
      </trkpt>
      <trkpt lat="47.06299" lon="-1.76227">
        <ele>79</ele>
        <time>2021-09-05T07:41:55.000Z</time>
      </trkpt>
      <trkpt lat="47.06295" lon="-1.76207">
        <ele>80</ele>
        <time>2021-09-05T07:41:57.000Z</time>
      </trkpt>
      <trkpt lat="47.06289" lon="-1.76188">
        <ele>79</ele>
        <time>2021-09-05T07:41:59.000Z</time>
      </trkpt>
      <trkpt lat="47.06283" lon="-1.76171">
        <ele>79</ele>
        <time>2021-09-05T07:42:01.000Z</time>
      </trkpt>
      <trkpt lat="47.06274" lon="-1.76156">
        <ele>79</ele>
        <time>2021-09-05T07:42:03.000Z</time>
      </trkpt>
      <trkpt lat="47.06264" lon="-1.76141">
        <ele>80</ele>
        <time>2021-09-05T07:42:05.000Z</time>
      </trkpt>
      <trkpt lat="47.06254" lon="-1.76128">
        <ele>80</ele>
        <time>2021-09-05T07:42:07.000Z</time>
      </trkpt>
      <trkpt lat="47.06243" lon="-1.76116">
        <ele>80</ele>
        <time>2021-09-05T07:42:09.000Z</time>
      </trkpt>
      <trkpt lat="47.06232" lon="-1.76102">
        <ele>80</ele>
        <time>2021-09-05T07:42:11.000Z</time>
      </trkpt>
      <trkpt lat="47.06221" lon="-1.76088">
        <ele>80</ele>
        <time>2021-09-05T07:42:13.000Z</time>
      </trkpt>
      <trkpt lat="47.0621" lon="-1.76075">
        <ele>80</ele>
        <time>2021-09-05T07:42:15.000Z</time>
      </trkpt>
      <trkpt lat="47.06198" lon="-1.76061">
        <ele>80</ele>
        <time>2021-09-05T07:42:17.000Z</time>
      </trkpt>
      <trkpt lat="47.06187" lon="-1.76048">
        <ele>80</ele>
        <time>2021-09-05T07:42:19.000Z</time>
      </trkpt>
      <trkpt lat="47.06175" lon="-1.76034">
        <ele>80</ele>
        <time>2021-09-05T07:42:21.000Z</time>
      </trkpt>
      <trkpt lat="47.06162" lon="-1.7602">
        <ele>79</ele>
        <time>2021-09-05T07:42:23.000Z</time>
      </trkpt>
      <trkpt lat="47.0615" lon="-1.76005">
        <ele>78</ele>
        <time>2021-09-05T07:42:25.000Z</time>
      </trkpt>
      <trkpt lat="47.06138" lon="-1.7599">
        <ele>78</ele>
        <time>2021-09-05T07:42:27.000Z</time>
      </trkpt>
      <trkpt lat="47.06126" lon="-1.75976">
        <ele>77</ele>
        <time>2021-09-05T07:42:29.000Z</time>
      </trkpt>
      <trkpt lat="47.06114" lon="-1.75962">
        <ele>76</ele>
        <time>2021-09-05T07:42:31.000Z</time>
      </trkpt>
      <trkpt lat="47.06102" lon="-1.75947">
        <ele>76</ele>
        <time>2021-09-05T07:42:33.000Z</time>
      </trkpt>
      <trkpt lat="47.06091" lon="-1.75934">
        <ele>76</ele>
        <time>2021-09-05T07:42:35.000Z</time>
      </trkpt>
      <trkpt lat="47.06079" lon="-1.7592">
        <ele>75</ele>
        <time>2021-09-05T07:42:37.000Z</time>
      </trkpt>
      <trkpt lat="47.06067" lon="-1.75906">
        <ele>75</ele>
        <time>2021-09-05T07:42:39.000Z</time>
      </trkpt>
      <trkpt lat="47.06055" lon="-1.75892">
        <ele>75</ele>
        <time>2021-09-05T07:42:41.000Z</time>
      </trkpt>
      <trkpt lat="47.06043" lon="-1.75878">
        <ele>75</ele>
        <time>2021-09-05T07:42:43.000Z</time>
      </trkpt>
      <trkpt lat="47.06031" lon="-1.75864">
        <ele>75</ele>
        <time>2021-09-05T07:42:45.000Z</time>
      </trkpt>
      <trkpt lat="47.0602" lon="-1.7585">
        <ele>76</ele>
        <time>2021-09-05T07:42:47.000Z</time>
      </trkpt>
      <trkpt lat="47.06008" lon="-1.75836">
        <ele>76</ele>
        <time>2021-09-05T07:42:49.000Z</time>
      </trkpt>
      <trkpt lat="47.05996" lon="-1.75821">
        <ele>75</ele>
        <time>2021-09-05T07:42:51.000Z</time>
      </trkpt>
      <trkpt lat="47.05984" lon="-1.75805">
        <ele>74</ele>
        <time>2021-09-05T07:42:53.000Z</time>
      </trkpt>
      <trkpt lat="47.05973" lon="-1.7579">
        <ele>74</ele>
        <time>2021-09-05T07:42:55.000Z</time>
      </trkpt>
      <trkpt lat="47.05962" lon="-1.75774">
        <ele>74</ele>
        <time>2021-09-05T07:42:57.000Z</time>
      </trkpt>
      <trkpt lat="47.05952" lon="-1.75757">
        <ele>74</ele>
        <time>2021-09-05T07:42:59.000Z</time>
      </trkpt>
      <trkpt lat="47.05943" lon="-1.75739">
        <ele>74</ele>
        <time>2021-09-05T07:43:01.000Z</time>
      </trkpt>
      <trkpt lat="47.05936" lon="-1.75721">
        <ele>74</ele>
        <time>2021-09-05T07:43:03.000Z</time>
      </trkpt>
      <trkpt lat="47.05929" lon="-1.75702">
        <ele>74</ele>
        <time>2021-09-05T07:43:05.000Z</time>
      </trkpt>
      <trkpt lat="47.05922" lon="-1.75683">
        <ele>74</ele>
        <time>2021-09-05T07:43:07.000Z</time>
      </trkpt>
      <trkpt lat="47.05915" lon="-1.75664">
        <ele>74</ele>
        <time>2021-09-05T07:43:09.000Z</time>
      </trkpt>
      <trkpt lat="47.05909" lon="-1.75645">
        <ele>74</ele>
        <time>2021-09-05T07:43:11.000Z</time>
      </trkpt>
      <trkpt lat="47.05903" lon="-1.75625">
        <ele>74</ele>
        <time>2021-09-05T07:43:13.000Z</time>
      </trkpt>
      <trkpt lat="47.05896" lon="-1.75607">
        <ele>74</ele>
        <time>2021-09-05T07:43:15.000Z</time>
      </trkpt>
      <trkpt lat="47.0589" lon="-1.75587">
        <ele>74</ele>
        <time>2021-09-05T07:43:17.000Z</time>
      </trkpt>
      <trkpt lat="47.05883" lon="-1.75569">
        <ele>74</ele>
        <time>2021-09-05T07:43:19.000Z</time>
      </trkpt>
      <trkpt lat="47.05877" lon="-1.7555">
        <ele>73</ele>
        <time>2021-09-05T07:43:21.000Z</time>
      </trkpt>
      <trkpt lat="47.0587" lon="-1.75531">
        <ele>73</ele>
        <time>2021-09-05T07:43:23.000Z</time>
      </trkpt>
      <trkpt lat="47.05864" lon="-1.75512">
        <ele>73</ele>
        <time>2021-09-05T07:43:25.000Z</time>
      </trkpt>
      <trkpt lat="47.05857" lon="-1.75494">
        <ele>73</ele>
        <time>2021-09-05T07:43:27.000Z</time>
      </trkpt>
      <trkpt lat="47.05851" lon="-1.75474">
        <ele>72</ele>
        <time>2021-09-05T07:43:29.000Z</time>
      </trkpt>
      <trkpt lat="47.05844" lon="-1.75456">
        <ele>72</ele>
        <time>2021-09-05T07:43:31.000Z</time>
      </trkpt>
      <trkpt lat="47.05837" lon="-1.75437">
        <ele>73</ele>
        <time>2021-09-05T07:43:33.000Z</time>
      </trkpt>
      <trkpt lat="47.05831" lon="-1.75418">
        <ele>73</ele>
        <time>2021-09-05T07:43:35.000Z</time>
      </trkpt>
      <trkpt lat="47.05823" lon="-1.754">
        <ele>73</ele>
        <time>2021-09-05T07:43:37.000Z</time>
      </trkpt>
      <trkpt lat="47.05815" lon="-1.75382">
        <ele>73</ele>
        <time>2021-09-05T07:43:39.000Z</time>
      </trkpt>
      <trkpt lat="47.05807" lon="-1.75363">
        <ele>72</ele>
        <time>2021-09-05T07:43:41.000Z</time>
      </trkpt>
      <trkpt lat="47.058" lon="-1.75345">
        <ele>72</ele>
        <time>2021-09-05T07:43:43.000Z</time>
      </trkpt>
      <trkpt lat="47.05792" lon="-1.75327">
        <ele>72</ele>
        <time>2021-09-05T07:43:45.000Z</time>
      </trkpt>
      <trkpt lat="47.05784" lon="-1.75309">
        <ele>72</ele>
        <time>2021-09-05T07:43:47.000Z</time>
      </trkpt>
      <trkpt lat="47.05776" lon="-1.75292">
        <ele>72</ele>
        <time>2021-09-05T07:43:49.000Z</time>
      </trkpt>
      <trkpt lat="47.05768" lon="-1.75275">
        <ele>72</ele>
        <time>2021-09-05T07:43:51.000Z</time>
      </trkpt>
      <trkpt lat="47.0576" lon="-1.75257">
        <ele>72</ele>
        <time>2021-09-05T07:43:53.000Z</time>
      </trkpt>
      <trkpt lat="47.05752" lon="-1.75239">
        <ele>71</ele>
        <time>2021-09-05T07:43:55.000Z</time>
      </trkpt>
      <trkpt lat="47.05744" lon="-1.75221">
        <ele>71</ele>
        <time>2021-09-05T07:43:57.000Z</time>
      </trkpt>
      <trkpt lat="47.05735" lon="-1.75202">
        <ele>70</ele>
        <time>2021-09-05T07:43:59.000Z</time>
      </trkpt>
      <trkpt lat="47.05727" lon="-1.75184">
        <ele>70</ele>
        <time>2021-09-05T07:44:01.000Z</time>
      </trkpt>
      <trkpt lat="47.05718" lon="-1.75165">
        <ele>69</ele>
        <time>2021-09-05T07:44:03.000Z</time>
      </trkpt>
      <trkpt lat="47.0571" lon="-1.75146">
        <ele>68</ele>
        <time>2021-09-05T07:44:05.000Z</time>
      </trkpt>
      <trkpt lat="47.05701" lon="-1.75127">
        <ele>68</ele>
        <time>2021-09-05T07:44:07.000Z</time>
      </trkpt>
      <trkpt lat="47.05692" lon="-1.75107">
        <ele>67</ele>
        <time>2021-09-05T07:44:09.000Z</time>
      </trkpt>
      <trkpt lat="47.05682" lon="-1.75088">
        <ele>66</ele>
        <time>2021-09-05T07:44:11.000Z</time>
      </trkpt>
      <trkpt lat="47.0567" lon="-1.75071">
        <ele>66</ele>
        <time>2021-09-05T07:44:13.000Z</time>
      </trkpt>
      <trkpt lat="47.05656" lon="-1.75055">
        <ele>65</ele>
        <time>2021-09-05T07:44:15.000Z</time>
      </trkpt>
      <trkpt lat="47.05642" lon="-1.75041">
        <ele>65</ele>
        <time>2021-09-05T07:44:17.000Z</time>
      </trkpt>
      <trkpt lat="47.05627" lon="-1.75026">
        <ele>64</ele>
        <time>2021-09-05T07:44:19.000Z</time>
      </trkpt>
      <trkpt lat="47.05613" lon="-1.75011">
        <ele>63</ele>
        <time>2021-09-05T07:44:21.000Z</time>
      </trkpt>
      <trkpt lat="47.05598" lon="-1.74996">
        <ele>62</ele>
        <time>2021-09-05T07:44:23.000Z</time>
      </trkpt>
      <trkpt lat="47.05583" lon="-1.74982">
        <ele>62</ele>
        <time>2021-09-05T07:44:25.000Z</time>
      </trkpt>
      <trkpt lat="47.05569" lon="-1.74968">
        <ele>61</ele>
        <time>2021-09-05T07:44:27.000Z</time>
      </trkpt>
      <trkpt lat="47.05555" lon="-1.74954">
        <ele>61</ele>
        <time>2021-09-05T07:44:29.000Z</time>
      </trkpt>
      <trkpt lat="47.0554" lon="-1.7494">
        <ele>60</ele>
        <time>2021-09-05T07:44:31.000Z</time>
      </trkpt>
      <trkpt lat="47.05532" lon="-1.74933">
        <ele>60</ele>
        <time>2021-09-05T07:44:32.000Z</time>
      </trkpt>
      <trkpt lat="47.05518" lon="-1.74918">
        <ele>60</ele>
        <time>2021-09-05T07:44:34.000Z</time>
      </trkpt>
      <trkpt lat="47.05504" lon="-1.74904">
        <ele>60</ele>
        <time>2021-09-05T07:44:36.000Z</time>
      </trkpt>
      <trkpt lat="47.0549" lon="-1.74891">
        <ele>60</ele>
        <time>2021-09-05T07:44:38.000Z</time>
      </trkpt>
      <trkpt lat="47.05476" lon="-1.74878">
        <ele>61</ele>
        <time>2021-09-05T07:44:40.000Z</time>
      </trkpt>
      <trkpt lat="47.05462" lon="-1.74866">
        <ele>62</ele>
        <time>2021-09-05T07:44:42.000Z</time>
      </trkpt>
      <trkpt lat="47.05449" lon="-1.74855">
        <ele>62</ele>
        <time>2021-09-05T07:44:44.000Z</time>
      </trkpt>
      <trkpt lat="47.05435" lon="-1.74843">
        <ele>63</ele>
        <time>2021-09-05T07:44:46.000Z</time>
      </trkpt>
      <trkpt lat="47.05421" lon="-1.74831">
        <ele>63</ele>
        <time>2021-09-05T07:44:48.000Z</time>
      </trkpt>
      <trkpt lat="47.05407" lon="-1.7482">
        <ele>63</ele>
        <time>2021-09-05T07:44:50.000Z</time>
      </trkpt>
      <trkpt lat="47.05393" lon="-1.74809">
        <ele>62</ele>
        <time>2021-09-05T07:44:52.000Z</time>
      </trkpt>
      <trkpt lat="47.05379" lon="-1.74797">
        <ele>62</ele>
        <time>2021-09-05T07:44:54.000Z</time>
      </trkpt>
      <trkpt lat="47.05366" lon="-1.74784">
        <ele>62</ele>
        <time>2021-09-05T07:44:56.000Z</time>
      </trkpt>
      <trkpt lat="47.05354" lon="-1.74769">
        <ele>62</ele>
        <time>2021-09-05T07:44:58.000Z</time>
      </trkpt>
      <trkpt lat="47.05344" lon="-1.74753">
        <ele>61</ele>
        <time>2021-09-05T07:45:00.000Z</time>
      </trkpt>
      <trkpt lat="47.05334" lon="-1.74736">
        <ele>61</ele>
        <time>2021-09-05T07:45:02.000Z</time>
      </trkpt>
      <trkpt lat="47.05325" lon="-1.74718">
        <ele>61</ele>
        <time>2021-09-05T07:45:04.000Z</time>
      </trkpt>
      <trkpt lat="47.05316" lon="-1.74701">
        <ele>61</ele>
        <time>2021-09-05T07:45:06.000Z</time>
      </trkpt>
      <trkpt lat="47.05309" lon="-1.74684">
        <ele>61</ele>
        <time>2021-09-05T07:45:08.000Z</time>
      </trkpt>
      <trkpt lat="47.05301" lon="-1.74668">
        <ele>61</ele>
        <time>2021-09-05T07:45:10.000Z</time>
      </trkpt>
      <trkpt lat="47.05293" lon="-1.74651">
        <ele>61</ele>
        <time>2021-09-05T07:45:12.000Z</time>
      </trkpt>
      <trkpt lat="47.05285" lon="-1.74634">
        <ele>61</ele>
        <time>2021-09-05T07:45:14.000Z</time>
      </trkpt>
      <trkpt lat="47.05278" lon="-1.74618">
        <ele>61</ele>
        <time>2021-09-05T07:45:16.000Z</time>
      </trkpt>
      <trkpt lat="47.0527" lon="-1.74601">
        <ele>60</ele>
        <time>2021-09-05T07:45:18.000Z</time>
      </trkpt>
      <trkpt lat="47.05264" lon="-1.74585">
        <ele>61</ele>
        <time>2021-09-05T07:45:20.000Z</time>
      </trkpt>
      <trkpt lat="47.05257" lon="-1.7457">
        <ele>61</ele>
        <time>2021-09-05T07:45:22.000Z</time>
      </trkpt>
      <trkpt lat="47.0525" lon="-1.74555">
        <ele>62</ele>
        <time>2021-09-05T07:45:24.000Z</time>
      </trkpt>
      <trkpt lat="47.05244" lon="-1.74539">
        <ele>62</ele>
        <time>2021-09-05T07:45:26.000Z</time>
      </trkpt>
      <trkpt lat="47.05237" lon="-1.74523">
        <ele>62</ele>
        <time>2021-09-05T07:45:28.000Z</time>
      </trkpt>
      <trkpt lat="47.05231" lon="-1.74497">
        <ele>62</ele>
        <time>2021-09-05T07:45:31.000Z</time>
      </trkpt>
      <trkpt lat="47.05228" lon="-1.7448">
        <ele>62</ele>
        <time>2021-09-05T07:45:33.000Z</time>
      </trkpt>
      <trkpt lat="47.05225" lon="-1.74463">
        <ele>62</ele>
        <time>2021-09-05T07:45:35.000Z</time>
      </trkpt>
      <trkpt lat="47.05224" lon="-1.74445">
        <ele>62</ele>
        <time>2021-09-05T07:45:37.000Z</time>
      </trkpt>
      <trkpt lat="47.05224" lon="-1.74428">
        <ele>62</ele>
        <time>2021-09-05T07:45:39.000Z</time>
      </trkpt>
      <trkpt lat="47.05224" lon="-1.74411">
        <ele>63</ele>
        <time>2021-09-05T07:45:41.000Z</time>
      </trkpt>
      <trkpt lat="47.05224" lon="-1.74385">
        <ele>64</ele>
        <time>2021-09-05T07:45:44.000Z</time>
      </trkpt>
      <trkpt lat="47.05224" lon="-1.74368">
        <ele>64</ele>
        <time>2021-09-05T07:45:46.000Z</time>
      </trkpt>
      <trkpt lat="47.05224" lon="-1.74343">
        <ele>65</ele>
        <time>2021-09-05T07:45:49.000Z</time>
      </trkpt>
      <trkpt lat="47.05224" lon="-1.74317">
        <ele>65</ele>
        <time>2021-09-05T07:45:52.000Z</time>
      </trkpt>
      <trkpt lat="47.05225" lon="-1.74292">
        <ele>66</ele>
        <time>2021-09-05T07:45:55.000Z</time>
      </trkpt>
      <trkpt lat="47.05225" lon="-1.74275">
        <ele>67</ele>
        <time>2021-09-05T07:45:57.000Z</time>
      </trkpt>
      <trkpt lat="47.05225" lon="-1.74257">
        <ele>67</ele>
        <time>2021-09-05T07:45:59.000Z</time>
      </trkpt>
      <trkpt lat="47.05226" lon="-1.74241">
        <ele>68</ele>
        <time>2021-09-05T07:46:01.000Z</time>
      </trkpt>
      <trkpt lat="47.05226" lon="-1.74225">
        <ele>68</ele>
        <time>2021-09-05T07:46:03.000Z</time>
      </trkpt>
      <trkpt lat="47.05226" lon="-1.74209">
        <ele>68</ele>
        <time>2021-09-05T07:46:05.000Z</time>
      </trkpt>
      <trkpt lat="47.05227" lon="-1.74193">
        <ele>69</ele>
        <time>2021-09-05T07:46:07.000Z</time>
      </trkpt>
      <trkpt lat="47.05227" lon="-1.74176">
        <ele>69</ele>
        <time>2021-09-05T07:46:09.000Z</time>
      </trkpt>
      <trkpt lat="47.05227" lon="-1.74159">
        <ele>69</ele>
        <time>2021-09-05T07:46:11.000Z</time>
      </trkpt>
      <trkpt lat="47.05228" lon="-1.74142">
        <ele>69</ele>
        <time>2021-09-05T07:46:13.000Z</time>
      </trkpt>
      <trkpt lat="47.05228" lon="-1.74124">
        <ele>70</ele>
        <time>2021-09-05T07:46:15.000Z</time>
      </trkpt>
      <trkpt lat="47.05229" lon="-1.74107">
        <ele>70</ele>
        <time>2021-09-05T07:46:17.000Z</time>
      </trkpt>
      <trkpt lat="47.05229" lon="-1.7409">
        <ele>70</ele>
        <time>2021-09-05T07:46:19.000Z</time>
      </trkpt>
      <trkpt lat="47.0523" lon="-1.74073">
        <ele>70</ele>
        <time>2021-09-05T07:46:21.000Z</time>
      </trkpt>
      <trkpt lat="47.0523" lon="-1.74056">
        <ele>70</ele>
        <time>2021-09-05T07:46:23.000Z</time>
      </trkpt>
      <trkpt lat="47.0523" lon="-1.74039">
        <ele>70</ele>
        <time>2021-09-05T07:46:25.000Z</time>
      </trkpt>
      <trkpt lat="47.0523" lon="-1.74022">
        <ele>71</ele>
        <time>2021-09-05T07:46:27.000Z</time>
      </trkpt>
      <trkpt lat="47.05231" lon="-1.74005">
        <ele>71</ele>
        <time>2021-09-05T07:46:29.000Z</time>
      </trkpt>
      <trkpt lat="47.05231" lon="-1.73988">
        <ele>71</ele>
        <time>2021-09-05T07:46:31.000Z</time>
      </trkpt>
      <trkpt lat="47.05231" lon="-1.73971">
        <ele>71</ele>
        <time>2021-09-05T07:46:33.000Z</time>
      </trkpt>
      <trkpt lat="47.05232" lon="-1.73954">
        <ele>71</ele>
        <time>2021-09-05T07:46:35.000Z</time>
      </trkpt>
      <trkpt lat="47.05232" lon="-1.73937">
        <ele>72</ele>
        <time>2021-09-05T07:46:37.000Z</time>
      </trkpt>
      <trkpt lat="47.05232" lon="-1.73919">
        <ele>72</ele>
        <time>2021-09-05T07:46:39.000Z</time>
      </trkpt>
      <trkpt lat="47.05232" lon="-1.73901">
        <ele>72</ele>
        <time>2021-09-05T07:46:41.000Z</time>
      </trkpt>
      <trkpt lat="47.05232" lon="-1.73884">
        <ele>72</ele>
        <time>2021-09-05T07:46:43.000Z</time>
      </trkpt>
      <trkpt lat="47.05233" lon="-1.73866">
        <ele>72</ele>
        <time>2021-09-05T07:46:45.000Z</time>
      </trkpt>
      <trkpt lat="47.05233" lon="-1.73848">
        <ele>72</ele>
        <time>2021-09-05T07:46:47.000Z</time>
      </trkpt>
      <trkpt lat="47.05234" lon="-1.73831">
        <ele>72</ele>
        <time>2021-09-05T07:46:49.000Z</time>
      </trkpt>
      <trkpt lat="47.05234" lon="-1.73813">
        <ele>72</ele>
        <time>2021-09-05T07:46:51.000Z</time>
      </trkpt>
      <trkpt lat="47.05235" lon="-1.73795">
        <ele>72</ele>
        <time>2021-09-05T07:46:53.000Z</time>
      </trkpt>
      <trkpt lat="47.05234" lon="-1.73777">
        <ele>72</ele>
        <time>2021-09-05T07:46:55.000Z</time>
      </trkpt>
      <trkpt lat="47.05234" lon="-1.7376">
        <ele>72</ele>
        <time>2021-09-05T07:46:57.000Z</time>
      </trkpt>
      <trkpt lat="47.05235" lon="-1.73742">
        <ele>72</ele>
        <time>2021-09-05T07:46:59.000Z</time>
      </trkpt>
      <trkpt lat="47.05234" lon="-1.73724">
        <ele>72</ele>
        <time>2021-09-05T07:47:01.000Z</time>
      </trkpt>
      <trkpt lat="47.05235" lon="-1.73707">
        <ele>72</ele>
        <time>2021-09-05T07:47:03.000Z</time>
      </trkpt>
      <trkpt lat="47.05237" lon="-1.7369">
        <ele>71</ele>
        <time>2021-09-05T07:47:05.000Z</time>
      </trkpt>
      <trkpt lat="47.05238" lon="-1.73672">
        <ele>71</ele>
        <time>2021-09-05T07:47:07.000Z</time>
      </trkpt>
      <trkpt lat="47.05242" lon="-1.73655">
        <ele>71</ele>
        <time>2021-09-05T07:47:09.000Z</time>
      </trkpt>
      <trkpt lat="47.05246" lon="-1.73638">
        <ele>70</ele>
        <time>2021-09-05T07:47:11.000Z</time>
      </trkpt>
      <trkpt lat="47.05251" lon="-1.73621">
        <ele>70</ele>
        <time>2021-09-05T07:47:13.000Z</time>
      </trkpt>
      <trkpt lat="47.05256" lon="-1.73604">
        <ele>69</ele>
        <time>2021-09-05T07:47:15.000Z</time>
      </trkpt>
      <trkpt lat="47.05262" lon="-1.73587">
        <ele>69</ele>
        <time>2021-09-05T07:47:17.000Z</time>
      </trkpt>
      <trkpt lat="47.05268" lon="-1.7357">
        <ele>69</ele>
        <time>2021-09-05T07:47:19.000Z</time>
      </trkpt>
      <trkpt lat="47.05274" lon="-1.73552">
        <ele>69</ele>
        <time>2021-09-05T07:47:21.000Z</time>
      </trkpt>
      <trkpt lat="47.05279" lon="-1.73534">
        <ele>68</ele>
        <time>2021-09-05T07:47:23.000Z</time>
      </trkpt>
      <trkpt lat="47.05285" lon="-1.73517">
        <ele>68</ele>
        <time>2021-09-05T07:47:25.000Z</time>
      </trkpt>
      <trkpt lat="47.05291" lon="-1.73499">
        <ele>68</ele>
        <time>2021-09-05T07:47:27.000Z</time>
      </trkpt>
      <trkpt lat="47.05297" lon="-1.73481">
        <ele>68</ele>
        <time>2021-09-05T07:47:29.000Z</time>
      </trkpt>
      <trkpt lat="47.05302" lon="-1.73462">
        <ele>69</ele>
        <time>2021-09-05T07:47:31.000Z</time>
      </trkpt>
      <trkpt lat="47.05306" lon="-1.73442">
        <ele>69</ele>
        <time>2021-09-05T07:47:33.000Z</time>
      </trkpt>
      <trkpt lat="47.05309" lon="-1.73422">
        <ele>69</ele>
        <time>2021-09-05T07:47:35.000Z</time>
      </trkpt>
      <trkpt lat="47.05312" lon="-1.73402">
        <ele>69</ele>
        <time>2021-09-05T07:47:37.000Z</time>
      </trkpt>
      <trkpt lat="47.05314" lon="-1.73383">
        <ele>68</ele>
        <time>2021-09-05T07:47:39.000Z</time>
      </trkpt>
      <trkpt lat="47.05317" lon="-1.73363">
        <ele>68</ele>
        <time>2021-09-05T07:47:41.000Z</time>
      </trkpt>
      <trkpt lat="47.05319" lon="-1.73344">
        <ele>69</ele>
        <time>2021-09-05T07:47:43.000Z</time>
      </trkpt>
      <trkpt lat="47.05321" lon="-1.73325">
        <ele>69</ele>
        <time>2021-09-05T07:47:45.000Z</time>
      </trkpt>
      <trkpt lat="47.05324" lon="-1.73305">
        <ele>69</ele>
        <time>2021-09-05T07:47:47.000Z</time>
      </trkpt>
      <trkpt lat="47.05325" lon="-1.73286">
        <ele>70</ele>
        <time>2021-09-05T07:47:49.000Z</time>
      </trkpt>
      <trkpt lat="47.05324" lon="-1.73268">
        <ele>70</ele>
        <time>2021-09-05T07:47:51.000Z</time>
      </trkpt>
      <trkpt lat="47.05324" lon="-1.73251">
        <ele>71</ele>
        <time>2021-09-05T07:47:53.000Z</time>
      </trkpt>
      <trkpt lat="47.05321" lon="-1.73234">
        <ele>71</ele>
        <time>2021-09-05T07:47:55.000Z</time>
      </trkpt>
      <trkpt lat="47.05318" lon="-1.73217">
        <ele>71</ele>
        <time>2021-09-05T07:47:57.000Z</time>
      </trkpt>
      <trkpt lat="47.05315" lon="-1.732">
        <ele>71</ele>
        <time>2021-09-05T07:47:59.000Z</time>
      </trkpt>
      <trkpt lat="47.05312" lon="-1.73182">
        <ele>71</ele>
        <time>2021-09-05T07:48:01.000Z</time>
      </trkpt>
      <trkpt lat="47.05309" lon="-1.73165">
        <ele>71</ele>
        <time>2021-09-05T07:48:03.000Z</time>
      </trkpt>
      <trkpt lat="47.05306" lon="-1.73149">
        <ele>72</ele>
        <time>2021-09-05T07:48:05.000Z</time>
      </trkpt>
      <trkpt lat="47.05305" lon="-1.73136">
        <ele>72</ele>
        <time>2021-09-05T07:48:07.000Z</time>
      </trkpt>
      <trkpt lat="47.05313" lon="-1.73125">
        <ele>73</ele>
        <time>2021-09-05T07:48:09.000Z</time>
      </trkpt>
      <trkpt lat="47.05323" lon="-1.73115">
        <ele>73</ele>
        <time>2021-09-05T07:48:11.000Z</time>
      </trkpt>
      <trkpt lat="47.05331" lon="-1.73102">
        <ele>73</ele>
        <time>2021-09-05T07:48:13.000Z</time>
      </trkpt>
      <trkpt lat="47.05339" lon="-1.73089">
        <ele>73</ele>
        <time>2021-09-05T07:48:15.000Z</time>
      </trkpt>
      <trkpt lat="47.05347" lon="-1.73075">
        <ele>73</ele>
        <time>2021-09-05T07:48:17.000Z</time>
      </trkpt>
      <trkpt lat="47.05355" lon="-1.73062">
        <ele>73</ele>
        <time>2021-09-05T07:48:19.000Z</time>
      </trkpt>
      <trkpt lat="47.05363" lon="-1.73049">
        <ele>73</ele>
        <time>2021-09-05T07:48:21.000Z</time>
      </trkpt>
      <trkpt lat="47.05372" lon="-1.73036">
        <ele>73</ele>
        <time>2021-09-05T07:48:23.000Z</time>
      </trkpt>
      <trkpt lat="47.0538" lon="-1.73023">
        <ele>73</ele>
        <time>2021-09-05T07:48:25.000Z</time>
      </trkpt>
      <trkpt lat="47.05389" lon="-1.7301">
        <ele>74</ele>
        <time>2021-09-05T07:48:27.000Z</time>
      </trkpt>
      <trkpt lat="47.05396" lon="-1.72996">
        <ele>74</ele>
        <time>2021-09-05T07:48:29.000Z</time>
      </trkpt>
      <trkpt lat="47.05403" lon="-1.72981">
        <ele>74</ele>
        <time>2021-09-05T07:48:31.000Z</time>
      </trkpt>
      <trkpt lat="47.0541" lon="-1.72965">
        <ele>73</ele>
        <time>2021-09-05T07:48:33.000Z</time>
      </trkpt>
      <trkpt lat="47.05417" lon="-1.7295">
        <ele>73</ele>
        <time>2021-09-05T07:48:35.000Z</time>
      </trkpt>
      <trkpt lat="47.05424" lon="-1.72934">
        <ele>73</ele>
        <time>2021-09-05T07:48:37.000Z</time>
      </trkpt>
      <trkpt lat="47.05432" lon="-1.72918">
        <ele>72</ele>
        <time>2021-09-05T07:48:39.000Z</time>
      </trkpt>
      <trkpt lat="47.0544" lon="-1.72903">
        <ele>72</ele>
        <time>2021-09-05T07:48:41.000Z</time>
      </trkpt>
      <trkpt lat="47.05449" lon="-1.72889">
        <ele>72</ele>
        <time>2021-09-05T07:48:43.000Z</time>
      </trkpt>
      <trkpt lat="47.05458" lon="-1.72876">
        <ele>72</ele>
        <time>2021-09-05T07:48:45.000Z</time>
      </trkpt>
      <trkpt lat="47.05468" lon="-1.72863">
        <ele>72</ele>
        <time>2021-09-05T07:48:47.000Z</time>
      </trkpt>
      <trkpt lat="47.05477" lon="-1.72851">
        <ele>71</ele>
        <time>2021-09-05T07:48:49.000Z</time>
      </trkpt>
      <trkpt lat="47.05487" lon="-1.72837">
        <ele>70</ele>
        <time>2021-09-05T07:48:51.000Z</time>
      </trkpt>
      <trkpt lat="47.05496" lon="-1.72823">
        <ele>70</ele>
        <time>2021-09-05T07:48:53.000Z</time>
      </trkpt>
      <trkpt lat="47.05505" lon="-1.72809">
        <ele>69</ele>
        <time>2021-09-05T07:48:55.000Z</time>
      </trkpt>
      <trkpt lat="47.05514" lon="-1.72794">
        <ele>68</ele>
        <time>2021-09-05T07:48:57.000Z</time>
      </trkpt>
      <trkpt lat="47.0552" lon="-1.72776">
        <ele>67</ele>
        <time>2021-09-05T07:48:59.000Z</time>
      </trkpt>
      <trkpt lat="47.05524" lon="-1.72757">
        <ele>67</ele>
        <time>2021-09-05T07:49:01.000Z</time>
      </trkpt>
      <trkpt lat="47.05525" lon="-1.72739">
        <ele>68</ele>
        <time>2021-09-05T07:49:03.000Z</time>
      </trkpt>
      <trkpt lat="47.05527" lon="-1.72721">
        <ele>68</ele>
        <time>2021-09-05T07:49:05.000Z</time>
      </trkpt>
      <trkpt lat="47.05528" lon="-1.72704">
        <ele>68</ele>
        <time>2021-09-05T07:49:07.000Z</time>
      </trkpt>
      <trkpt lat="47.05531" lon="-1.72688">
        <ele>69</ele>
        <time>2021-09-05T07:49:09.000Z</time>
      </trkpt>
      <trkpt lat="47.05534" lon="-1.72675">
        <ele>69</ele>
        <time>2021-09-05T07:49:11.000Z</time>
      </trkpt>
      <trkpt lat="47.05536" lon="-1.72661">
        <ele>69</ele>
        <time>2021-09-05T07:49:14.000Z</time>
      </trkpt>
      <trkpt lat="47.05548" lon="-1.72655">
        <ele>70</ele>
        <time>2021-09-05T07:49:17.000Z</time>
      </trkpt>
      <trkpt lat="47.05559" lon="-1.72655">
        <ele>69</ele>
        <time>2021-09-05T07:49:19.000Z</time>
      </trkpt>
      <trkpt lat="47.0557" lon="-1.72651">
        <ele>69</ele>
        <time>2021-09-05T07:49:21.000Z</time>
      </trkpt>
      <trkpt lat="47.05578" lon="-1.72639">
        <ele>69</ele>
        <time>2021-09-05T07:49:23.000Z</time>
      </trkpt>
      <trkpt lat="47.05575" lon="-1.72623">
        <ele>69</ele>
        <time>2021-09-05T07:49:25.000Z</time>
      </trkpt>
      <trkpt lat="47.05571" lon="-1.72604">
        <ele>70</ele>
        <time>2021-09-05T07:49:27.000Z</time>
      </trkpt>
      <trkpt lat="47.05567" lon="-1.72585">
        <ele>70</ele>
        <time>2021-09-05T07:49:29.000Z</time>
      </trkpt>
      <trkpt lat="47.05563" lon="-1.72567">
        <ele>71</ele>
        <time>2021-09-05T07:49:31.000Z</time>
      </trkpt>
      <trkpt lat="47.05559" lon="-1.72549">
        <ele>71</ele>
        <time>2021-09-05T07:49:33.000Z</time>
      </trkpt>
      <trkpt lat="47.05555" lon="-1.72531">
        <ele>71</ele>
        <time>2021-09-05T07:49:35.000Z</time>
      </trkpt>
      <trkpt lat="47.05553" lon="-1.72513">
        <ele>72</ele>
        <time>2021-09-05T07:49:37.000Z</time>
      </trkpt>
      <trkpt lat="47.05549" lon="-1.72495">
        <ele>72</ele>
        <time>2021-09-05T07:49:39.000Z</time>
      </trkpt>
      <trkpt lat="47.05545" lon="-1.72477">
        <ele>72</ele>
        <time>2021-09-05T07:49:41.000Z</time>
      </trkpt>
      <trkpt lat="47.0554" lon="-1.72461">
        <ele>73</ele>
        <time>2021-09-05T07:49:43.000Z</time>
      </trkpt>
      <trkpt lat="47.05535" lon="-1.72444">
        <ele>73</ele>
        <time>2021-09-05T07:49:45.000Z</time>
      </trkpt>
      <trkpt lat="47.05529" lon="-1.72427">
        <ele>74</ele>
        <time>2021-09-05T07:49:47.000Z</time>
      </trkpt>
      <trkpt lat="47.05524" lon="-1.7241">
        <ele>73</ele>
        <time>2021-09-05T07:49:49.000Z</time>
      </trkpt>
      <trkpt lat="47.05519" lon="-1.72392">
        <ele>74</ele>
        <time>2021-09-05T07:49:51.000Z</time>
      </trkpt>
      <trkpt lat="47.05514" lon="-1.72374">
        <ele>73</ele>
        <time>2021-09-05T07:49:53.000Z</time>
      </trkpt>
      <trkpt lat="47.05509" lon="-1.72357">
        <ele>73</ele>
        <time>2021-09-05T07:49:55.000Z</time>
      </trkpt>
      <trkpt lat="47.05504" lon="-1.72339">
        <ele>73</ele>
        <time>2021-09-05T07:49:57.000Z</time>
      </trkpt>
      <trkpt lat="47.05499" lon="-1.72322">
        <ele>73</ele>
        <time>2021-09-05T07:49:59.000Z</time>
      </trkpt>
      <trkpt lat="47.05494" lon="-1.72305">
        <ele>73</ele>
        <time>2021-09-05T07:50:01.000Z</time>
      </trkpt>
      <trkpt lat="47.0549" lon="-1.72287">
        <ele>72</ele>
        <time>2021-09-05T07:50:03.000Z</time>
      </trkpt>
      <trkpt lat="47.05486" lon="-1.72269">
        <ele>72</ele>
        <time>2021-09-05T07:50:05.000Z</time>
      </trkpt>
      <trkpt lat="47.05482" lon="-1.72249">
        <ele>71</ele>
        <time>2021-09-05T07:50:07.000Z</time>
      </trkpt>
      <trkpt lat="47.05477" lon="-1.72229">
        <ele>70</ele>
        <time>2021-09-05T07:50:09.000Z</time>
      </trkpt>
      <trkpt lat="47.05473" lon="-1.72208">
        <ele>70</ele>
        <time>2021-09-05T07:50:11.000Z</time>
      </trkpt>
      <trkpt lat="47.05468" lon="-1.72187">
        <ele>69</ele>
        <time>2021-09-05T07:50:13.000Z</time>
      </trkpt>
      <trkpt lat="47.05463" lon="-1.72166">
        <ele>68</ele>
        <time>2021-09-05T07:50:15.000Z</time>
      </trkpt>
      <trkpt lat="47.05458" lon="-1.72144">
        <ele>67</ele>
        <time>2021-09-05T07:50:17.000Z</time>
      </trkpt>
      <trkpt lat="47.05453" lon="-1.72121">
        <ele>66</ele>
        <time>2021-09-05T07:50:19.000Z</time>
      </trkpt>
      <trkpt lat="47.05448" lon="-1.72098">
        <ele>66</ele>
        <time>2021-09-05T07:50:21.000Z</time>
      </trkpt>
      <trkpt lat="47.05443" lon="-1.72075">
        <ele>66</ele>
        <time>2021-09-05T07:50:23.000Z</time>
      </trkpt>
      <trkpt lat="47.05438" lon="-1.72051">
        <ele>65</ele>
        <time>2021-09-05T07:50:25.000Z</time>
      </trkpt>
      <trkpt lat="47.05434" lon="-1.72028">
        <ele>65</ele>
        <time>2021-09-05T07:50:27.000Z</time>
      </trkpt>
      <trkpt lat="47.05429" lon="-1.72004">
        <ele>64</ele>
        <time>2021-09-05T07:50:29.000Z</time>
      </trkpt>
      <trkpt lat="47.05424" lon="-1.71981">
        <ele>64</ele>
        <time>2021-09-05T07:50:31.000Z</time>
      </trkpt>
      <trkpt lat="47.0542" lon="-1.71961">
        <ele>65</ele>
        <time>2021-09-05T07:50:33.000Z</time>
      </trkpt>
      <trkpt lat="47.05415" lon="-1.71941">
        <ele>65</ele>
        <time>2021-09-05T07:50:35.000Z</time>
      </trkpt>
      <trkpt lat="47.05411" lon="-1.71922">
        <ele>65</ele>
        <time>2021-09-05T07:50:37.000Z</time>
      </trkpt>
      <trkpt lat="47.05407" lon="-1.71904">
        <ele>65</ele>
        <time>2021-09-05T07:50:39.000Z</time>
      </trkpt>
      <trkpt lat="47.05403" lon="-1.71883">
        <ele>65</ele>
        <time>2021-09-05T07:50:41.000Z</time>
      </trkpt>
      <trkpt lat="47.05399" lon="-1.71864">
        <ele>65</ele>
        <time>2021-09-05T07:50:43.000Z</time>
      </trkpt>
      <trkpt lat="47.05394" lon="-1.71844">
        <ele>65</ele>
        <time>2021-09-05T07:50:45.000Z</time>
      </trkpt>
      <trkpt lat="47.05388" lon="-1.71823">
        <ele>65</ele>
        <time>2021-09-05T07:50:47.000Z</time>
      </trkpt>
      <trkpt lat="47.05385" lon="-1.71802">
        <ele>64</ele>
        <time>2021-09-05T07:50:49.000Z</time>
      </trkpt>
      <trkpt lat="47.05382" lon="-1.71781">
        <ele>64</ele>
        <time>2021-09-05T07:50:51.000Z</time>
      </trkpt>
      <trkpt lat="47.05382" lon="-1.7176">
        <ele>65</ele>
        <time>2021-09-05T07:50:53.000Z</time>
      </trkpt>
      <trkpt lat="47.05383" lon="-1.7174">
        <ele>65</ele>
        <time>2021-09-05T07:50:55.000Z</time>
      </trkpt>
      <trkpt lat="47.05385" lon="-1.7172">
        <ele>64</ele>
        <time>2021-09-05T07:50:57.000Z</time>
      </trkpt>
      <trkpt lat="47.05387" lon="-1.71699">
        <ele>63</ele>
        <time>2021-09-05T07:50:59.000Z</time>
      </trkpt>
      <trkpt lat="47.05389" lon="-1.71678">
        <ele>63</ele>
        <time>2021-09-05T07:51:01.000Z</time>
      </trkpt>
      <trkpt lat="47.0539" lon="-1.71657">
        <ele>63</ele>
        <time>2021-09-05T07:51:03.000Z</time>
      </trkpt>
      <trkpt lat="47.05392" lon="-1.71636">
        <ele>62</ele>
        <time>2021-09-05T07:51:05.000Z</time>
      </trkpt>
      <trkpt lat="47.05394" lon="-1.71615">
        <ele>62</ele>
        <time>2021-09-05T07:51:07.000Z</time>
      </trkpt>
      <trkpt lat="47.05396" lon="-1.71592">
        <ele>62</ele>
        <time>2021-09-05T07:51:09.000Z</time>
      </trkpt>
      <trkpt lat="47.05397" lon="-1.7157">
        <ele>62</ele>
        <time>2021-09-05T07:51:11.000Z</time>
      </trkpt>
      <trkpt lat="47.05399" lon="-1.71548">
        <ele>62</ele>
        <time>2021-09-05T07:51:13.000Z</time>
      </trkpt>
      <trkpt lat="47.054" lon="-1.71526">
        <ele>62</ele>
        <time>2021-09-05T07:51:15.000Z</time>
      </trkpt>
      <trkpt lat="47.05403" lon="-1.71504">
        <ele>62</ele>
        <time>2021-09-05T07:51:17.000Z</time>
      </trkpt>
      <trkpt lat="47.05405" lon="-1.71484">
        <ele>62</ele>
        <time>2021-09-05T07:51:19.000Z</time>
      </trkpt>
      <trkpt lat="47.05406" lon="-1.71462">
        <ele>62</ele>
        <time>2021-09-05T07:51:21.000Z</time>
      </trkpt>
      <trkpt lat="47.05407" lon="-1.71442">
        <ele>62</ele>
        <time>2021-09-05T07:51:23.000Z</time>
      </trkpt>
      <trkpt lat="47.05407" lon="-1.7142">
        <ele>62</ele>
        <time>2021-09-05T07:51:25.000Z</time>
      </trkpt>
      <trkpt lat="47.05406" lon="-1.71399">
        <ele>63</ele>
        <time>2021-09-05T07:51:27.000Z</time>
      </trkpt>
      <trkpt lat="47.05404" lon="-1.71378">
        <ele>63</ele>
        <time>2021-09-05T07:51:29.000Z</time>
      </trkpt>
      <trkpt lat="47.05401" lon="-1.71357">
        <ele>63</ele>
        <time>2021-09-05T07:51:31.000Z</time>
      </trkpt>
      <trkpt lat="47.05399" lon="-1.71335">
        <ele>63</ele>
        <time>2021-09-05T07:51:33.000Z</time>
      </trkpt>
      <trkpt lat="47.05396" lon="-1.71315">
        <ele>63</ele>
        <time>2021-09-05T07:51:35.000Z</time>
      </trkpt>
      <trkpt lat="47.05393" lon="-1.71295">
        <ele>63</ele>
        <time>2021-09-05T07:51:37.000Z</time>
      </trkpt>
      <trkpt lat="47.0539" lon="-1.71274">
        <ele>63</ele>
        <time>2021-09-05T07:51:39.000Z</time>
      </trkpt>
      <trkpt lat="47.0539" lon="-1.71254">
        <ele>63</ele>
        <time>2021-09-05T07:51:41.000Z</time>
      </trkpt>
      <trkpt lat="47.05389" lon="-1.71233">
        <ele>63</ele>
        <time>2021-09-05T07:51:43.000Z</time>
      </trkpt>
      <trkpt lat="47.05389" lon="-1.71212">
        <ele>63</ele>
        <time>2021-09-05T07:51:45.000Z</time>
      </trkpt>
      <trkpt lat="47.05391" lon="-1.71191">
        <ele>63</ele>
        <time>2021-09-05T07:51:47.000Z</time>
      </trkpt>
      <trkpt lat="47.05392" lon="-1.71171">
        <ele>62</ele>
        <time>2021-09-05T07:51:49.000Z</time>
      </trkpt>
      <trkpt lat="47.05393" lon="-1.71151">
        <ele>63</ele>
        <time>2021-09-05T07:51:51.000Z</time>
      </trkpt>
      <trkpt lat="47.05395" lon="-1.71131">
        <ele>63</ele>
        <time>2021-09-05T07:51:53.000Z</time>
      </trkpt>
      <trkpt lat="47.05398" lon="-1.71111">
        <ele>63</ele>
        <time>2021-09-05T07:51:55.000Z</time>
      </trkpt>
      <trkpt lat="47.054" lon="-1.7109">
        <ele>63</ele>
        <time>2021-09-05T07:51:57.000Z</time>
      </trkpt>
      <trkpt lat="47.05402" lon="-1.7107">
        <ele>62</ele>
        <time>2021-09-05T07:51:59.000Z</time>
      </trkpt>
      <trkpt lat="47.05404" lon="-1.71049">
        <ele>62</ele>
        <time>2021-09-05T07:52:01.000Z</time>
      </trkpt>
      <trkpt lat="47.05405" lon="-1.71028">
        <ele>62</ele>
        <time>2021-09-05T07:52:03.000Z</time>
      </trkpt>
      <trkpt lat="47.05408" lon="-1.71008">
        <ele>62</ele>
        <time>2021-09-05T07:52:05.000Z</time>
      </trkpt>
      <trkpt lat="47.05409" lon="-1.70988">
        <ele>62</ele>
        <time>2021-09-05T07:52:07.000Z</time>
      </trkpt>
      <trkpt lat="47.05411" lon="-1.70967">
        <ele>61</ele>
        <time>2021-09-05T07:52:09.000Z</time>
      </trkpt>
      <trkpt lat="47.05413" lon="-1.70945">
        <ele>61</ele>
        <time>2021-09-05T07:52:11.000Z</time>
      </trkpt>
      <trkpt lat="47.05415" lon="-1.70922">
        <ele>61</ele>
        <time>2021-09-05T07:52:13.000Z</time>
      </trkpt>
      <trkpt lat="47.05416" lon="-1.70899">
        <ele>60</ele>
        <time>2021-09-05T07:52:15.000Z</time>
      </trkpt>
      <trkpt lat="47.05416" lon="-1.70877">
        <ele>60</ele>
        <time>2021-09-05T07:52:17.000Z</time>
      </trkpt>
      <trkpt lat="47.05414" lon="-1.70856">
        <ele>60</ele>
        <time>2021-09-05T07:52:19.000Z</time>
      </trkpt>
      <trkpt lat="47.05411" lon="-1.70835">
        <ele>60</ele>
        <time>2021-09-05T07:52:21.000Z</time>
      </trkpt>
      <trkpt lat="47.05409" lon="-1.70814">
        <ele>60</ele>
        <time>2021-09-05T07:52:23.000Z</time>
      </trkpt>
      <trkpt lat="47.05405" lon="-1.70794">
        <ele>60</ele>
        <time>2021-09-05T07:52:25.000Z</time>
      </trkpt>
      <trkpt lat="47.05402" lon="-1.70775">
        <ele>61</ele>
        <time>2021-09-05T07:52:27.000Z</time>
      </trkpt>
      <trkpt lat="47.05398" lon="-1.70756">
        <ele>61</ele>
        <time>2021-09-05T07:52:29.000Z</time>
      </trkpt>
      <trkpt lat="47.05394" lon="-1.70736">
        <ele>61</ele>
        <time>2021-09-05T07:52:31.000Z</time>
      </trkpt>
      <trkpt lat="47.05391" lon="-1.70717">
        <ele>61</ele>
        <time>2021-09-05T07:52:33.000Z</time>
      </trkpt>
      <trkpt lat="47.05388" lon="-1.70697">
        <ele>61</ele>
        <time>2021-09-05T07:52:35.000Z</time>
      </trkpt>
      <trkpt lat="47.05385" lon="-1.70678">
        <ele>61</ele>
        <time>2021-09-05T07:52:37.000Z</time>
      </trkpt>
      <trkpt lat="47.05383" lon="-1.70659">
        <ele>61</ele>
        <time>2021-09-05T07:52:39.000Z</time>
      </trkpt>
      <trkpt lat="47.0538" lon="-1.7064">
        <ele>62</ele>
        <time>2021-09-05T07:52:41.000Z</time>
      </trkpt>
      <trkpt lat="47.05376" lon="-1.7062">
        <ele>62</ele>
        <time>2021-09-05T07:52:43.000Z</time>
      </trkpt>
      <trkpt lat="47.05373" lon="-1.70601">
        <ele>62</ele>
        <time>2021-09-05T07:52:45.000Z</time>
      </trkpt>
      <trkpt lat="47.0537" lon="-1.70582">
        <ele>62</ele>
        <time>2021-09-05T07:52:47.000Z</time>
      </trkpt>
      <trkpt lat="47.05366" lon="-1.70563">
        <ele>63</ele>
        <time>2021-09-05T07:52:49.000Z</time>
      </trkpt>
      <trkpt lat="47.05363" lon="-1.70543">
        <ele>63</ele>
        <time>2021-09-05T07:52:51.000Z</time>
      </trkpt>
      <trkpt lat="47.0536" lon="-1.70522">
        <ele>63</ele>
        <time>2021-09-05T07:52:53.000Z</time>
      </trkpt>
      <trkpt lat="47.05356" lon="-1.70502">
        <ele>62</ele>
        <time>2021-09-05T07:52:55.000Z</time>
      </trkpt>
      <trkpt lat="47.05353" lon="-1.70482">
        <ele>62</ele>
        <time>2021-09-05T07:52:57.000Z</time>
      </trkpt>
      <trkpt lat="47.05349" lon="-1.70462">
        <ele>61</ele>
        <time>2021-09-05T07:52:59.000Z</time>
      </trkpt>
      <trkpt lat="47.05345" lon="-1.70442">
        <ele>61</ele>
        <time>2021-09-05T07:53:01.000Z</time>
      </trkpt>
      <trkpt lat="47.05341" lon="-1.70423">
        <ele>61</ele>
        <time>2021-09-05T07:53:03.000Z</time>
      </trkpt>
      <trkpt lat="47.05336" lon="-1.70403">
        <ele>61</ele>
        <time>2021-09-05T07:53:05.000Z</time>
      </trkpt>
      <trkpt lat="47.0533" lon="-1.70384">
        <ele>61</ele>
        <time>2021-09-05T07:53:07.000Z</time>
      </trkpt>
      <trkpt lat="47.05324" lon="-1.70365">
        <ele>60</ele>
        <time>2021-09-05T07:53:09.000Z</time>
      </trkpt>
      <trkpt lat="47.05317" lon="-1.70346">
        <ele>60</ele>
        <time>2021-09-05T07:53:11.000Z</time>
      </trkpt>
      <trkpt lat="47.0531" lon="-1.70327">
        <ele>59</ele>
        <time>2021-09-05T07:53:13.000Z</time>
      </trkpt>
      <trkpt lat="47.05303" lon="-1.70308">
        <ele>59</ele>
        <time>2021-09-05T07:53:15.000Z</time>
      </trkpt>
      <trkpt lat="47.05296" lon="-1.70289">
        <ele>59</ele>
        <time>2021-09-05T07:53:17.000Z</time>
      </trkpt>
      <trkpt lat="47.05289" lon="-1.7027">
        <ele>59</ele>
        <time>2021-09-05T07:53:19.000Z</time>
      </trkpt>
      <trkpt lat="47.05281" lon="-1.70251">
        <ele>59</ele>
        <time>2021-09-05T07:53:21.000Z</time>
      </trkpt>
      <trkpt lat="47.05274" lon="-1.70231">
        <ele>58</ele>
        <time>2021-09-05T07:53:23.000Z</time>
      </trkpt>
      <trkpt lat="47.05266" lon="-1.70211">
        <ele>58</ele>
        <time>2021-09-05T07:53:25.000Z</time>
      </trkpt>
      <trkpt lat="47.05259" lon="-1.70191">
        <ele>58</ele>
        <time>2021-09-05T07:53:27.000Z</time>
      </trkpt>
      <trkpt lat="47.05251" lon="-1.7017">
        <ele>57</ele>
        <time>2021-09-05T07:53:29.000Z</time>
      </trkpt>
      <trkpt lat="47.05244" lon="-1.7015">
        <ele>57</ele>
        <time>2021-09-05T07:53:31.000Z</time>
      </trkpt>
      <trkpt lat="47.05236" lon="-1.7013">
        <ele>56</ele>
        <time>2021-09-05T07:53:33.000Z</time>
      </trkpt>
      <trkpt lat="47.05228" lon="-1.7011">
        <ele>56</ele>
        <time>2021-09-05T07:53:35.000Z</time>
      </trkpt>
      <trkpt lat="47.05221" lon="-1.70089">
        <ele>55</ele>
        <time>2021-09-05T07:53:37.000Z</time>
      </trkpt>
      <trkpt lat="47.05213" lon="-1.70069">
        <ele>55</ele>
        <time>2021-09-05T07:53:39.000Z</time>
      </trkpt>
      <trkpt lat="47.05206" lon="-1.70049">
        <ele>55</ele>
        <time>2021-09-05T07:53:41.000Z</time>
      </trkpt>
      <trkpt lat="47.05199" lon="-1.70029">
        <ele>55</ele>
        <time>2021-09-05T07:53:43.000Z</time>
      </trkpt>
      <trkpt lat="47.05192" lon="-1.7001">
        <ele>55</ele>
        <time>2021-09-05T07:53:45.000Z</time>
      </trkpt>
      <trkpt lat="47.05185" lon="-1.6999">
        <ele>56</ele>
        <time>2021-09-05T07:53:47.000Z</time>
      </trkpt>
      <trkpt lat="47.05178" lon="-1.69972">
        <ele>56</ele>
        <time>2021-09-05T07:53:49.000Z</time>
      </trkpt>
      <trkpt lat="47.0517" lon="-1.69954">
        <ele>57</ele>
        <time>2021-09-05T07:53:51.000Z</time>
      </trkpt>
      <trkpt lat="47.05163" lon="-1.69936">
        <ele>56</ele>
        <time>2021-09-05T07:53:53.000Z</time>
      </trkpt>
      <trkpt lat="47.05157" lon="-1.69917">
        <ele>56</ele>
        <time>2021-09-05T07:53:55.000Z</time>
      </trkpt>
      <trkpt lat="47.05155" lon="-1.69897">
        <ele>56</ele>
        <time>2021-09-05T07:53:57.000Z</time>
      </trkpt>
      <trkpt lat="47.05154" lon="-1.69875">
        <ele>55</ele>
        <time>2021-09-05T07:53:59.000Z</time>
      </trkpt>
      <trkpt lat="47.0515" lon="-1.69854">
        <ele>55</ele>
        <time>2021-09-05T07:54:01.000Z</time>
      </trkpt>
      <trkpt lat="47.05143" lon="-1.69835">
        <ele>55</ele>
        <time>2021-09-05T07:54:03.000Z</time>
      </trkpt>
      <trkpt lat="47.05135" lon="-1.69818">
        <ele>54</ele>
        <time>2021-09-05T07:54:05.000Z</time>
      </trkpt>
      <trkpt lat="47.05126" lon="-1.69802">
        <ele>54</ele>
        <time>2021-09-05T07:54:07.000Z</time>
      </trkpt>
      <trkpt lat="47.05115" lon="-1.69789">
        <ele>55</ele>
        <time>2021-09-05T07:54:09.000Z</time>
      </trkpt>
      <trkpt lat="47.05105" lon="-1.69776">
        <ele>55</ele>
        <time>2021-09-05T07:54:11.000Z</time>
      </trkpt>
      <trkpt lat="47.05094" lon="-1.69763">
        <ele>55</ele>
        <time>2021-09-05T07:54:13.000Z</time>
      </trkpt>
      <trkpt lat="47.05084" lon="-1.6975">
        <ele>55</ele>
        <time>2021-09-05T07:54:15.000Z</time>
      </trkpt>
      <trkpt lat="47.05073" lon="-1.69738">
        <ele>55</ele>
        <time>2021-09-05T07:54:17.000Z</time>
      </trkpt>
      <trkpt lat="47.05063" lon="-1.69725">
        <ele>55</ele>
        <time>2021-09-05T07:54:19.000Z</time>
      </trkpt>
      <trkpt lat="47.05052" lon="-1.69712">
        <ele>56</ele>
        <time>2021-09-05T07:54:21.000Z</time>
      </trkpt>
      <trkpt lat="47.05042" lon="-1.69699">
        <ele>56</ele>
        <time>2021-09-05T07:54:23.000Z</time>
      </trkpt>
      <trkpt lat="47.05032" lon="-1.69686">
        <ele>56</ele>
        <time>2021-09-05T07:54:25.000Z</time>
      </trkpt>
      <trkpt lat="47.05022" lon="-1.69673">
        <ele>56</ele>
        <time>2021-09-05T07:54:27.000Z</time>
      </trkpt>
      <trkpt lat="47.05012" lon="-1.6966">
        <ele>57</ele>
        <time>2021-09-05T07:54:29.000Z</time>
      </trkpt>
      <trkpt lat="47.05003" lon="-1.69645">
        <ele>57</ele>
        <time>2021-09-05T07:54:31.000Z</time>
      </trkpt>
      <trkpt lat="47.04996" lon="-1.6963">
        <ele>58</ele>
        <time>2021-09-05T07:54:33.000Z</time>
      </trkpt>
      <trkpt lat="47.0499" lon="-1.69611">
        <ele>57</ele>
        <time>2021-09-05T07:54:35.000Z</time>
      </trkpt>
      <trkpt lat="47.04985" lon="-1.69593">
        <ele>57</ele>
        <time>2021-09-05T07:54:37.000Z</time>
      </trkpt>
      <trkpt lat="47.0498" lon="-1.69574">
        <ele>57</ele>
        <time>2021-09-05T07:54:39.000Z</time>
      </trkpt>
      <trkpt lat="47.04975" lon="-1.69554">
        <ele>57</ele>
        <time>2021-09-05T07:54:41.000Z</time>
      </trkpt>
      <trkpt lat="47.04971" lon="-1.69534">
        <ele>57</ele>
        <time>2021-09-05T07:54:43.000Z</time>
      </trkpt>
      <trkpt lat="47.04966" lon="-1.69516">
        <ele>57</ele>
        <time>2021-09-05T07:54:45.000Z</time>
      </trkpt>
      <trkpt lat="47.04961" lon="-1.69498">
        <ele>57</ele>
        <time>2021-09-05T07:54:47.000Z</time>
      </trkpt>
      <trkpt lat="47.04956" lon="-1.69479">
        <ele>57</ele>
        <time>2021-09-05T07:54:49.000Z</time>
      </trkpt>
      <trkpt lat="47.04952" lon="-1.6946">
        <ele>57</ele>
        <time>2021-09-05T07:54:51.000Z</time>
      </trkpt>
      <trkpt lat="47.04946" lon="-1.69442">
        <ele>57</ele>
        <time>2021-09-05T07:54:53.000Z</time>
      </trkpt>
      <trkpt lat="47.04942" lon="-1.69424">
        <ele>57</ele>
        <time>2021-09-05T07:54:55.000Z</time>
      </trkpt>
      <trkpt lat="47.04937" lon="-1.69406">
        <ele>57</ele>
        <time>2021-09-05T07:54:57.000Z</time>
      </trkpt>
      <trkpt lat="47.04932" lon="-1.69388">
        <ele>57</ele>
        <time>2021-09-05T07:54:59.000Z</time>
      </trkpt>
      <trkpt lat="47.04927" lon="-1.6937">
        <ele>57</ele>
        <time>2021-09-05T07:55:01.000Z</time>
      </trkpt>
      <trkpt lat="47.04923" lon="-1.69352">
        <ele>58</ele>
        <time>2021-09-05T07:55:03.000Z</time>
      </trkpt>
      <trkpt lat="47.04918" lon="-1.69334">
        <ele>58</ele>
        <time>2021-09-05T07:55:05.000Z</time>
      </trkpt>
      <trkpt lat="47.04913" lon="-1.69316">
        <ele>58</ele>
        <time>2021-09-05T07:55:07.000Z</time>
      </trkpt>
      <trkpt lat="47.04907" lon="-1.69298">
        <ele>57</ele>
        <time>2021-09-05T07:55:09.000Z</time>
      </trkpt>
      <trkpt lat="47.04903" lon="-1.6928">
        <ele>58</ele>
        <time>2021-09-05T07:55:11.000Z</time>
      </trkpt>
      <trkpt lat="47.04898" lon="-1.69262">
        <ele>57</ele>
        <time>2021-09-05T07:55:13.000Z</time>
      </trkpt>
      <trkpt lat="47.04893" lon="-1.69244">
        <ele>57</ele>
        <time>2021-09-05T07:55:15.000Z</time>
      </trkpt>
      <trkpt lat="47.04887" lon="-1.69226">
        <ele>58</ele>
        <time>2021-09-05T07:55:17.000Z</time>
      </trkpt>
      <trkpt lat="47.04883" lon="-1.69209">
        <ele>58</ele>
        <time>2021-09-05T07:55:19.000Z</time>
      </trkpt>
      <trkpt lat="47.04878" lon="-1.69191">
        <ele>58</ele>
        <time>2021-09-05T07:55:21.000Z</time>
      </trkpt>
      <trkpt lat="47.04874" lon="-1.69174">
        <ele>57</ele>
        <time>2021-09-05T07:55:23.000Z</time>
      </trkpt>
      <trkpt lat="47.04869" lon="-1.69157">
        <ele>57</ele>
        <time>2021-09-05T07:55:25.000Z</time>
      </trkpt>
      <trkpt lat="47.04865" lon="-1.6914">
        <ele>58</ele>
        <time>2021-09-05T07:55:27.000Z</time>
      </trkpt>
      <trkpt lat="47.0486" lon="-1.69122">
        <ele>58</ele>
        <time>2021-09-05T07:55:29.000Z</time>
      </trkpt>
      <trkpt lat="47.04856" lon="-1.69105">
        <ele>58</ele>
        <time>2021-09-05T07:55:31.000Z</time>
      </trkpt>
      <trkpt lat="47.04851" lon="-1.69087">
        <ele>58</ele>
        <time>2021-09-05T07:55:33.000Z</time>
      </trkpt>
      <trkpt lat="47.04846" lon="-1.6907">
        <ele>58</ele>
        <time>2021-09-05T07:55:35.000Z</time>
      </trkpt>
      <trkpt lat="47.04842" lon="-1.69053">
        <ele>58</ele>
        <time>2021-09-05T07:55:37.000Z</time>
      </trkpt>
      <trkpt lat="47.04838" lon="-1.69035">
        <ele>59</ele>
        <time>2021-09-05T07:55:39.000Z</time>
      </trkpt>
      <trkpt lat="47.04833" lon="-1.69018">
        <ele>59</ele>
        <time>2021-09-05T07:55:41.000Z</time>
      </trkpt>
      <trkpt lat="47.04828" lon="-1.69001">
        <ele>59</ele>
        <time>2021-09-05T07:55:43.000Z</time>
      </trkpt>
      <trkpt lat="47.04824" lon="-1.68983">
        <ele>59</ele>
        <time>2021-09-05T07:55:45.000Z</time>
      </trkpt>
      <trkpt lat="47.04819" lon="-1.68966">
        <ele>59</ele>
        <time>2021-09-05T07:55:47.000Z</time>
      </trkpt>
      <trkpt lat="47.04814" lon="-1.68949">
        <ele>59</ele>
        <time>2021-09-05T07:55:49.000Z</time>
      </trkpt>
      <trkpt lat="47.04809" lon="-1.68931">
        <ele>59</ele>
        <time>2021-09-05T07:55:51.000Z</time>
      </trkpt>
      <trkpt lat="47.04805" lon="-1.68913">
        <ele>59</ele>
        <time>2021-09-05T07:55:53.000Z</time>
      </trkpt>
      <trkpt lat="47.04801" lon="-1.68895">
        <ele>59</ele>
        <time>2021-09-05T07:55:55.000Z</time>
      </trkpt>
      <trkpt lat="47.04796" lon="-1.68876">
        <ele>58</ele>
        <time>2021-09-05T07:55:57.000Z</time>
      </trkpt>
      <trkpt lat="47.04791" lon="-1.68858">
        <ele>58</ele>
        <time>2021-09-05T07:55:59.000Z</time>
      </trkpt>
      <trkpt lat="47.04786" lon="-1.68839">
        <ele>59</ele>
        <time>2021-09-05T07:56:01.000Z</time>
      </trkpt>
      <trkpt lat="47.04781" lon="-1.68821">
        <ele>59</ele>
        <time>2021-09-05T07:56:03.000Z</time>
      </trkpt>
      <trkpt lat="47.04777" lon="-1.68803">
        <ele>59</ele>
        <time>2021-09-05T07:56:05.000Z</time>
      </trkpt>
      <trkpt lat="47.04772" lon="-1.68785">
        <ele>59</ele>
        <time>2021-09-05T07:56:07.000Z</time>
      </trkpt>
      <trkpt lat="47.04768" lon="-1.68768">
        <ele>59</ele>
        <time>2021-09-05T07:56:09.000Z</time>
      </trkpt>
      <trkpt lat="47.04763" lon="-1.6875">
        <ele>60</ele>
        <time>2021-09-05T07:56:11.000Z</time>
      </trkpt>
      <trkpt lat="47.04759" lon="-1.68733">
        <ele>60</ele>
        <time>2021-09-05T07:56:13.000Z</time>
      </trkpt>
      <trkpt lat="47.04755" lon="-1.68716">
        <ele>60</ele>
        <time>2021-09-05T07:56:15.000Z</time>
      </trkpt>
      <trkpt lat="47.0475" lon="-1.68699">
        <ele>60</ele>
        <time>2021-09-05T07:56:17.000Z</time>
      </trkpt>
      <trkpt lat="47.04746" lon="-1.68682">
        <ele>60</ele>
        <time>2021-09-05T07:56:19.000Z</time>
      </trkpt>
      <trkpt lat="47.04741" lon="-1.68664">
        <ele>60</ele>
        <time>2021-09-05T07:56:21.000Z</time>
      </trkpt>
      <trkpt lat="47.04737" lon="-1.68647">
        <ele>60</ele>
        <time>2021-09-05T07:56:23.000Z</time>
      </trkpt>
      <trkpt lat="47.04732" lon="-1.68629">
        <ele>60</ele>
        <time>2021-09-05T07:56:25.000Z</time>
      </trkpt>
      <trkpt lat="47.04727" lon="-1.6861">
        <ele>60</ele>
        <time>2021-09-05T07:56:27.000Z</time>
      </trkpt>
      <trkpt lat="47.04723" lon="-1.68593">
        <ele>60</ele>
        <time>2021-09-05T07:56:29.000Z</time>
      </trkpt>
      <trkpt lat="47.04718" lon="-1.68576">
        <ele>60</ele>
        <time>2021-09-05T07:56:31.000Z</time>
      </trkpt>
      <trkpt lat="47.04714" lon="-1.68558">
        <ele>60</ele>
        <time>2021-09-05T07:56:33.000Z</time>
      </trkpt>
      <trkpt lat="47.04709" lon="-1.68541">
        <ele>60</ele>
        <time>2021-09-05T07:56:35.000Z</time>
      </trkpt>
      <trkpt lat="47.04704" lon="-1.68523">
        <ele>60</ele>
        <time>2021-09-05T07:56:37.000Z</time>
      </trkpt>
      <trkpt lat="47.047" lon="-1.68506">
        <ele>60</ele>
        <time>2021-09-05T07:56:39.000Z</time>
      </trkpt>
      <trkpt lat="47.04696" lon="-1.6849">
        <ele>61</ele>
        <time>2021-09-05T07:56:41.000Z</time>
      </trkpt>
      <trkpt lat="47.04692" lon="-1.68473">
        <ele>61</ele>
        <time>2021-09-05T07:56:43.000Z</time>
      </trkpt>
      <trkpt lat="47.04687" lon="-1.68456">
        <ele>61</ele>
        <time>2021-09-05T07:56:45.000Z</time>
      </trkpt>
      <trkpt lat="47.04682" lon="-1.68439">
        <ele>60</ele>
        <time>2021-09-05T07:56:47.000Z</time>
      </trkpt>
      <trkpt lat="47.04678" lon="-1.68421">
        <ele>60</ele>
        <time>2021-09-05T07:56:49.000Z</time>
      </trkpt>
      <trkpt lat="47.04673" lon="-1.68403">
        <ele>60</ele>
        <time>2021-09-05T07:56:51.000Z</time>
      </trkpt>
      <trkpt lat="47.04668" lon="-1.68384">
        <ele>59</ele>
        <time>2021-09-05T07:56:53.000Z</time>
      </trkpt>
      <trkpt lat="47.04663" lon="-1.68366">
        <ele>60</ele>
        <time>2021-09-05T07:56:55.000Z</time>
      </trkpt>
      <trkpt lat="47.04658" lon="-1.68348">
        <ele>60</ele>
        <time>2021-09-05T07:56:57.000Z</time>
      </trkpt>
      <trkpt lat="47.04654" lon="-1.68329">
        <ele>59</ele>
        <time>2021-09-05T07:56:59.000Z</time>
      </trkpt>
      <trkpt lat="47.04649" lon="-1.68311">
        <ele>59</ele>
        <time>2021-09-05T07:57:01.000Z</time>
      </trkpt>
      <trkpt lat="47.04645" lon="-1.68292">
        <ele>59</ele>
        <time>2021-09-05T07:57:03.000Z</time>
      </trkpt>
      <trkpt lat="47.04639" lon="-1.68272">
        <ele>58</ele>
        <time>2021-09-05T07:57:05.000Z</time>
      </trkpt>
      <trkpt lat="47.04635" lon="-1.68254">
        <ele>58</ele>
        <time>2021-09-05T07:57:07.000Z</time>
      </trkpt>
      <trkpt lat="47.04629" lon="-1.68234">
        <ele>58</ele>
        <time>2021-09-05T07:57:09.000Z</time>
      </trkpt>
      <trkpt lat="47.04624" lon="-1.68215">
        <ele>58</ele>
        <time>2021-09-05T07:57:11.000Z</time>
      </trkpt>
      <trkpt lat="47.04619" lon="-1.68195">
        <ele>58</ele>
        <time>2021-09-05T07:57:13.000Z</time>
      </trkpt>
      <trkpt lat="47.04615" lon="-1.68176">
        <ele>58</ele>
        <time>2021-09-05T07:57:15.000Z</time>
      </trkpt>
      <trkpt lat="47.0461" lon="-1.68156">
        <ele>58</ele>
        <time>2021-09-05T07:57:17.000Z</time>
      </trkpt>
      <trkpt lat="47.04605" lon="-1.68136">
        <ele>58</ele>
        <time>2021-09-05T07:57:19.000Z</time>
      </trkpt>
      <trkpt lat="47.046" lon="-1.68117">
        <ele>58</ele>
        <time>2021-09-05T07:57:21.000Z</time>
      </trkpt>
      <trkpt lat="47.04595" lon="-1.68099">
        <ele>58</ele>
        <time>2021-09-05T07:57:23.000Z</time>
      </trkpt>
      <trkpt lat="47.0459" lon="-1.68081">
        <ele>58</ele>
        <time>2021-09-05T07:57:25.000Z</time>
      </trkpt>
      <trkpt lat="47.04585" lon="-1.68063">
        <ele>58</ele>
        <time>2021-09-05T07:57:27.000Z</time>
      </trkpt>
      <trkpt lat="47.04581" lon="-1.68046">
        <ele>59</ele>
        <time>2021-09-05T07:57:29.000Z</time>
      </trkpt>
      <trkpt lat="47.04577" lon="-1.6803">
        <ele>59</ele>
        <time>2021-09-05T07:57:31.000Z</time>
      </trkpt>
      <trkpt lat="47.04573" lon="-1.68014">
        <ele>59</ele>
        <time>2021-09-05T07:57:33.000Z</time>
      </trkpt>
      <trkpt lat="47.04569" lon="-1.67998">
        <ele>60</ele>
        <time>2021-09-05T07:57:35.000Z</time>
      </trkpt>
      <trkpt lat="47.04564" lon="-1.67981">
        <ele>60</ele>
        <time>2021-09-05T07:57:37.000Z</time>
      </trkpt>
      <trkpt lat="47.04561" lon="-1.67965">
        <ele>60</ele>
        <time>2021-09-05T07:57:39.000Z</time>
      </trkpt>
      <trkpt lat="47.04557" lon="-1.67948">
        <ele>60</ele>
        <time>2021-09-05T07:57:41.000Z</time>
      </trkpt>
      <trkpt lat="47.04552" lon="-1.67931">
        <ele>60</ele>
        <time>2021-09-05T07:57:43.000Z</time>
      </trkpt>
      <trkpt lat="47.04548" lon="-1.67915">
        <ele>61</ele>
        <time>2021-09-05T07:57:45.000Z</time>
      </trkpt>
      <trkpt lat="47.04543" lon="-1.67898">
        <ele>61</ele>
        <time>2021-09-05T07:57:47.000Z</time>
      </trkpt>
      <trkpt lat="47.04539" lon="-1.67881">
        <ele>61</ele>
        <time>2021-09-05T07:57:49.000Z</time>
      </trkpt>
      <trkpt lat="47.04534" lon="-1.67864">
        <ele>61</ele>
        <time>2021-09-05T07:57:51.000Z</time>
      </trkpt>
      <trkpt lat="47.0453" lon="-1.67847">
        <ele>61</ele>
        <time>2021-09-05T07:57:53.000Z</time>
      </trkpt>
      <trkpt lat="47.04526" lon="-1.6783">
        <ele>61</ele>
        <time>2021-09-05T07:57:55.000Z</time>
      </trkpt>
      <trkpt lat="47.04521" lon="-1.67814">
        <ele>61</ele>
        <time>2021-09-05T07:57:57.000Z</time>
      </trkpt>
      <trkpt lat="47.04517" lon="-1.67797">
        <ele>61</ele>
        <time>2021-09-05T07:57:59.000Z</time>
      </trkpt>
      <trkpt lat="47.04513" lon="-1.67779">
        <ele>61</ele>
        <time>2021-09-05T07:58:01.000Z</time>
      </trkpt>
      <trkpt lat="47.04508" lon="-1.67762">
        <ele>61</ele>
        <time>2021-09-05T07:58:03.000Z</time>
      </trkpt>
      <trkpt lat="47.04503" lon="-1.67744">
        <ele>61</ele>
        <time>2021-09-05T07:58:05.000Z</time>
      </trkpt>
      <trkpt lat="47.04499" lon="-1.67726">
        <ele>61</ele>
        <time>2021-09-05T07:58:07.000Z</time>
      </trkpt>
      <trkpt lat="47.04494" lon="-1.67707">
        <ele>61</ele>
        <time>2021-09-05T07:58:09.000Z</time>
      </trkpt>
      <trkpt lat="47.04489" lon="-1.67687">
        <ele>61</ele>
        <time>2021-09-05T07:58:11.000Z</time>
      </trkpt>
      <trkpt lat="47.04483" lon="-1.67667">
        <ele>60</ele>
        <time>2021-09-05T07:58:13.000Z</time>
      </trkpt>
      <trkpt lat="47.04478" lon="-1.67647">
        <ele>60</ele>
        <time>2021-09-05T07:58:15.000Z</time>
      </trkpt>
      <trkpt lat="47.04473" lon="-1.67626">
        <ele>59</ele>
        <time>2021-09-05T07:58:17.000Z</time>
      </trkpt>
      <trkpt lat="47.04467" lon="-1.67607">
        <ele>59</ele>
        <time>2021-09-05T07:58:19.000Z</time>
      </trkpt>
      <trkpt lat="47.04462" lon="-1.67587">
        <ele>59</ele>
        <time>2021-09-05T07:58:21.000Z</time>
      </trkpt>
      <trkpt lat="47.04458" lon="-1.67566">
        <ele>59</ele>
        <time>2021-09-05T07:58:23.000Z</time>
      </trkpt>
      <trkpt lat="47.04452" lon="-1.67545">
        <ele>58</ele>
        <time>2021-09-05T07:58:25.000Z</time>
      </trkpt>
      <trkpt lat="47.04447" lon="-1.67523">
        <ele>58</ele>
        <time>2021-09-05T07:58:27.000Z</time>
      </trkpt>
      <trkpt lat="47.04441" lon="-1.67501">
        <ele>58</ele>
        <time>2021-09-05T07:58:29.000Z</time>
      </trkpt>
      <trkpt lat="47.04435" lon="-1.6748">
        <ele>58</ele>
        <time>2021-09-05T07:58:31.000Z</time>
      </trkpt>
      <trkpt lat="47.0443" lon="-1.67459">
        <ele>58</ele>
        <time>2021-09-05T07:58:33.000Z</time>
      </trkpt>
      <trkpt lat="47.04425" lon="-1.67439">
        <ele>58</ele>
        <time>2021-09-05T07:58:35.000Z</time>
      </trkpt>
      <trkpt lat="47.04419" lon="-1.67419">
        <ele>58</ele>
        <time>2021-09-05T07:58:37.000Z</time>
      </trkpt>
      <trkpt lat="47.04414" lon="-1.67397">
        <ele>58</ele>
        <time>2021-09-05T07:58:39.000Z</time>
      </trkpt>
      <trkpt lat="47.04409" lon="-1.67376">
        <ele>58</ele>
        <time>2021-09-05T07:58:41.000Z</time>
      </trkpt>
      <trkpt lat="47.04403" lon="-1.67356">
        <ele>58</ele>
        <time>2021-09-05T07:58:43.000Z</time>
      </trkpt>
      <trkpt lat="47.04395" lon="-1.67326">
        <ele>58</ele>
        <time>2021-09-05T07:58:46.000Z</time>
      </trkpt>
      <trkpt lat="47.0439" lon="-1.67306">
        <ele>58</ele>
        <time>2021-09-05T07:58:48.000Z</time>
      </trkpt>
      <trkpt lat="47.04385" lon="-1.67286">
        <ele>58</ele>
        <time>2021-09-05T07:58:50.000Z</time>
      </trkpt>
      <trkpt lat="47.04381" lon="-1.67267">
        <ele>58</ele>
        <time>2021-09-05T07:58:52.000Z</time>
      </trkpt>
      <trkpt lat="47.04375" lon="-1.67247">
        <ele>58</ele>
        <time>2021-09-05T07:58:54.000Z</time>
      </trkpt>
      <trkpt lat="47.0437" lon="-1.67228">
        <ele>58</ele>
        <time>2021-09-05T07:58:56.000Z</time>
      </trkpt>
      <trkpt lat="47.04365" lon="-1.67209">
        <ele>57</ele>
        <time>2021-09-05T07:58:58.000Z</time>
      </trkpt>
      <trkpt lat="47.0436" lon="-1.67189">
        <ele>57</ele>
        <time>2021-09-05T07:59:00.000Z</time>
      </trkpt>
      <trkpt lat="47.04355" lon="-1.67169">
        <ele>57</ele>
        <time>2021-09-05T07:59:02.000Z</time>
      </trkpt>
      <trkpt lat="47.0435" lon="-1.6715">
        <ele>57</ele>
        <time>2021-09-05T07:59:04.000Z</time>
      </trkpt>
      <trkpt lat="47.04345" lon="-1.6713">
        <ele>56</ele>
        <time>2021-09-05T07:59:06.000Z</time>
      </trkpt>
      <trkpt lat="47.0434" lon="-1.6711">
        <ele>56</ele>
        <time>2021-09-05T07:59:08.000Z</time>
      </trkpt>
      <trkpt lat="47.04335" lon="-1.6709">
        <ele>56</ele>
        <time>2021-09-05T07:59:10.000Z</time>
      </trkpt>
      <trkpt lat="47.0433" lon="-1.6707">
        <ele>56</ele>
        <time>2021-09-05T07:59:12.000Z</time>
      </trkpt>
      <trkpt lat="47.04324" lon="-1.6705">
        <ele>56</ele>
        <time>2021-09-05T07:59:14.000Z</time>
      </trkpt>
      <trkpt lat="47.04319" lon="-1.67029">
        <ele>56</ele>
        <time>2021-09-05T07:59:16.000Z</time>
      </trkpt>
      <trkpt lat="47.04314" lon="-1.67008">
        <ele>56</ele>
        <time>2021-09-05T07:59:18.000Z</time>
      </trkpt>
      <trkpt lat="47.04309" lon="-1.66988">
        <ele>56</ele>
        <time>2021-09-05T07:59:20.000Z</time>
      </trkpt>
      <trkpt lat="47.04303" lon="-1.66968">
        <ele>56</ele>
        <time>2021-09-05T07:59:22.000Z</time>
      </trkpt>
      <trkpt lat="47.04297" lon="-1.66948">
        <ele>55</ele>
        <time>2021-09-05T07:59:24.000Z</time>
      </trkpt>
      <trkpt lat="47.04293" lon="-1.66928">
        <ele>56</ele>
        <time>2021-09-05T07:59:26.000Z</time>
      </trkpt>
      <trkpt lat="47.04288" lon="-1.66908">
        <ele>55</ele>
        <time>2021-09-05T07:59:28.000Z</time>
      </trkpt>
      <trkpt lat="47.04283" lon="-1.66889">
        <ele>55</ele>
        <time>2021-09-05T07:59:30.000Z</time>
      </trkpt>
      <trkpt lat="47.04278" lon="-1.6687">
        <ele>55</ele>
        <time>2021-09-05T07:59:32.000Z</time>
      </trkpt>
      <trkpt lat="47.04273" lon="-1.66851">
        <ele>55</ele>
        <time>2021-09-05T07:59:34.000Z</time>
      </trkpt>
      <trkpt lat="47.04267" lon="-1.6683">
        <ele>55</ele>
        <time>2021-09-05T07:59:36.000Z</time>
      </trkpt>
      <trkpt lat="47.04262" lon="-1.66811">
        <ele>55</ele>
        <time>2021-09-05T07:59:38.000Z</time>
      </trkpt>
      <trkpt lat="47.04257" lon="-1.66791">
        <ele>55</ele>
        <time>2021-09-05T07:59:40.000Z</time>
      </trkpt>
      <trkpt lat="47.04252" lon="-1.66771">
        <ele>55</ele>
        <time>2021-09-05T07:59:42.000Z</time>
      </trkpt>
      <trkpt lat="47.04247" lon="-1.66752">
        <ele>56</ele>
        <time>2021-09-05T07:59:44.000Z</time>
      </trkpt>
      <trkpt lat="47.04242" lon="-1.66733">
        <ele>56</ele>
        <time>2021-09-05T07:59:46.000Z</time>
      </trkpt>
      <trkpt lat="47.04237" lon="-1.66713">
        <ele>56</ele>
        <time>2021-09-05T07:59:48.000Z</time>
      </trkpt>
      <trkpt lat="47.04232" lon="-1.66695">
        <ele>56</ele>
        <time>2021-09-05T07:59:50.000Z</time>
      </trkpt>
      <trkpt lat="47.04227" lon="-1.66676">
        <ele>56</ele>
        <time>2021-09-05T07:59:52.000Z</time>
      </trkpt>
      <trkpt lat="47.04222" lon="-1.66656">
        <ele>57</ele>
        <time>2021-09-05T07:59:54.000Z</time>
      </trkpt>
      <trkpt lat="47.04218" lon="-1.66637">
        <ele>56</ele>
        <time>2021-09-05T07:59:56.000Z</time>
      </trkpt>
      <trkpt lat="47.04213" lon="-1.66617">
        <ele>56</ele>
        <time>2021-09-05T07:59:58.000Z</time>
      </trkpt>
      <trkpt lat="47.04207" lon="-1.66597">
        <ele>56</ele>
        <time>2021-09-05T08:00:00.000Z</time>
      </trkpt>
      <trkpt lat="47.04202" lon="-1.66577">
        <ele>56</ele>
        <time>2021-09-05T08:00:02.000Z</time>
      </trkpt>
      <trkpt lat="47.04197" lon="-1.66558">
        <ele>56</ele>
        <time>2021-09-05T08:00:04.000Z</time>
      </trkpt>
      <trkpt lat="47.04192" lon="-1.66538">
        <ele>56</ele>
        <time>2021-09-05T08:00:06.000Z</time>
      </trkpt>
      <trkpt lat="47.04188" lon="-1.66519">
        <ele>57</ele>
        <time>2021-09-05T08:00:08.000Z</time>
      </trkpt>
      <trkpt lat="47.04183" lon="-1.665">
        <ele>57</ele>
        <time>2021-09-05T08:00:10.000Z</time>
      </trkpt>
      <trkpt lat="47.04177" lon="-1.66481">
        <ele>57</ele>
        <time>2021-09-05T08:00:12.000Z</time>
      </trkpt>
      <trkpt lat="47.04172" lon="-1.66462">
        <ele>57</ele>
        <time>2021-09-05T08:00:14.000Z</time>
      </trkpt>
      <trkpt lat="47.04167" lon="-1.66443">
        <ele>57</ele>
        <time>2021-09-05T08:00:16.000Z</time>
      </trkpt>
      <trkpt lat="47.04163" lon="-1.66424">
        <ele>57</ele>
        <time>2021-09-05T08:00:18.000Z</time>
      </trkpt>
      <trkpt lat="47.04158" lon="-1.66406">
        <ele>57</ele>
        <time>2021-09-05T08:00:20.000Z</time>
      </trkpt>
      <trkpt lat="47.04152" lon="-1.66387">
        <ele>57</ele>
        <time>2021-09-05T08:00:22.000Z</time>
      </trkpt>
      <trkpt lat="47.04147" lon="-1.66367">
        <ele>58</ele>
        <time>2021-09-05T08:00:24.000Z</time>
      </trkpt>
      <trkpt lat="47.04142" lon="-1.66349">
        <ele>58</ele>
        <time>2021-09-05T08:00:26.000Z</time>
      </trkpt>
      <trkpt lat="47.04138" lon="-1.6633">
        <ele>57</ele>
        <time>2021-09-05T08:00:28.000Z</time>
      </trkpt>
      <trkpt lat="47.04133" lon="-1.66312">
        <ele>57</ele>
        <time>2021-09-05T08:00:30.000Z</time>
      </trkpt>
      <trkpt lat="47.04128" lon="-1.66294">
        <ele>57</ele>
        <time>2021-09-05T08:00:32.000Z</time>
      </trkpt>
      <trkpt lat="47.04124" lon="-1.66275">
        <ele>57</ele>
        <time>2021-09-05T08:00:34.000Z</time>
      </trkpt>
      <trkpt lat="47.04119" lon="-1.66257">
        <ele>57</ele>
        <time>2021-09-05T08:00:36.000Z</time>
      </trkpt>
      <trkpt lat="47.04115" lon="-1.66239">
        <ele>57</ele>
        <time>2021-09-05T08:00:38.000Z</time>
      </trkpt>
      <trkpt lat="47.0411" lon="-1.66222">
        <ele>58</ele>
        <time>2021-09-05T08:00:40.000Z</time>
      </trkpt>
      <trkpt lat="47.04106" lon="-1.66204">
        <ele>59</ele>
        <time>2021-09-05T08:00:42.000Z</time>
      </trkpt>
      <trkpt lat="47.04101" lon="-1.66186">
        <ele>59</ele>
        <time>2021-09-05T08:00:44.000Z</time>
      </trkpt>
      <trkpt lat="47.04096" lon="-1.66168">
        <ele>59</ele>
        <time>2021-09-05T08:00:46.000Z</time>
      </trkpt>
      <trkpt lat="47.04091" lon="-1.66149">
        <ele>59</ele>
        <time>2021-09-05T08:00:48.000Z</time>
      </trkpt>
      <trkpt lat="47.04087" lon="-1.66131">
        <ele>59</ele>
        <time>2021-09-05T08:00:50.000Z</time>
      </trkpt>
      <trkpt lat="47.04081" lon="-1.66113">
        <ele>59</ele>
        <time>2021-09-05T08:00:52.000Z</time>
      </trkpt>
      <trkpt lat="47.04077" lon="-1.66094">
        <ele>59</ele>
        <time>2021-09-05T08:00:54.000Z</time>
      </trkpt>
      <trkpt lat="47.04072" lon="-1.66076">
        <ele>60</ele>
        <time>2021-09-05T08:00:56.000Z</time>
      </trkpt>
      <trkpt lat="47.04068" lon="-1.66057">
        <ele>60</ele>
        <time>2021-09-05T08:00:58.000Z</time>
      </trkpt>
      <trkpt lat="47.04062" lon="-1.66037">
        <ele>60</ele>
        <time>2021-09-05T08:01:00.000Z</time>
      </trkpt>
      <trkpt lat="47.04057" lon="-1.66019">
        <ele>60</ele>
        <time>2021-09-05T08:01:02.000Z</time>
      </trkpt>
      <trkpt lat="47.04051" lon="-1.66">
        <ele>60</ele>
        <time>2021-09-05T08:01:04.000Z</time>
      </trkpt>
      <trkpt lat="47.04046" lon="-1.65981">
        <ele>60</ele>
        <time>2021-09-05T08:01:06.000Z</time>
      </trkpt>
      <trkpt lat="47.04041" lon="-1.65962">
        <ele>59</ele>
        <time>2021-09-05T08:01:08.000Z</time>
      </trkpt>
      <trkpt lat="47.04035" lon="-1.65943">
        <ele>59</ele>
        <time>2021-09-05T08:01:10.000Z</time>
      </trkpt>
      <trkpt lat="47.0403" lon="-1.65924">
        <ele>59</ele>
        <time>2021-09-05T08:01:12.000Z</time>
      </trkpt>
      <trkpt lat="47.04025" lon="-1.65905">
        <ele>59</ele>
        <time>2021-09-05T08:01:14.000Z</time>
      </trkpt>
      <trkpt lat="47.0402" lon="-1.65886">
        <ele>59</ele>
        <time>2021-09-05T08:01:16.000Z</time>
      </trkpt>
      <trkpt lat="47.04015" lon="-1.65867">
        <ele>59</ele>
        <time>2021-09-05T08:01:18.000Z</time>
      </trkpt>
      <trkpt lat="47.04009" lon="-1.65848">
        <ele>59</ele>
        <time>2021-09-05T08:01:20.000Z</time>
      </trkpt>
      <trkpt lat="47.04004" lon="-1.65829">
        <ele>59</ele>
        <time>2021-09-05T08:01:22.000Z</time>
      </trkpt>
      <trkpt lat="47.03999" lon="-1.65809">
        <ele>59</ele>
        <time>2021-09-05T08:01:24.000Z</time>
      </trkpt>
      <trkpt lat="47.03993" lon="-1.6579">
        <ele>59</ele>
        <time>2021-09-05T08:01:26.000Z</time>
      </trkpt>
      <trkpt lat="47.03988" lon="-1.65771">
        <ele>59</ele>
        <time>2021-09-05T08:01:28.000Z</time>
      </trkpt>
      <trkpt lat="47.03982" lon="-1.65752">
        <ele>59</ele>
        <time>2021-09-05T08:01:30.000Z</time>
      </trkpt>
      <trkpt lat="47.03977" lon="-1.65734">
        <ele>58</ele>
        <time>2021-09-05T08:01:32.000Z</time>
      </trkpt>
      <trkpt lat="47.03972" lon="-1.65715">
        <ele>58</ele>
        <time>2021-09-05T08:01:34.000Z</time>
      </trkpt>
      <trkpt lat="47.03967" lon="-1.65696">
        <ele>58</ele>
        <time>2021-09-05T08:01:36.000Z</time>
      </trkpt>
      <trkpt lat="47.03962" lon="-1.65678">
        <ele>58</ele>
        <time>2021-09-05T08:01:38.000Z</time>
      </trkpt>
      <trkpt lat="47.03956" lon="-1.65659">
        <ele>57</ele>
        <time>2021-09-05T08:01:40.000Z</time>
      </trkpt>
      <trkpt lat="47.03951" lon="-1.6564">
        <ele>57</ele>
        <time>2021-09-05T08:01:42.000Z</time>
      </trkpt>
      <trkpt lat="47.03946" lon="-1.65621">
        <ele>57</ele>
        <time>2021-09-05T08:01:44.000Z</time>
      </trkpt>
      <trkpt lat="47.03941" lon="-1.65602">
        <ele>57</ele>
        <time>2021-09-05T08:01:46.000Z</time>
      </trkpt>
      <trkpt lat="47.03936" lon="-1.65584">
        <ele>57</ele>
        <time>2021-09-05T08:01:48.000Z</time>
      </trkpt>
      <trkpt lat="47.0393" lon="-1.65565">
        <ele>57</ele>
        <time>2021-09-05T08:01:50.000Z</time>
      </trkpt>
      <trkpt lat="47.03925" lon="-1.65547">
        <ele>58</ele>
        <time>2021-09-05T08:01:52.000Z</time>
      </trkpt>
      <trkpt lat="47.0392" lon="-1.65529">
        <ele>58</ele>
        <time>2021-09-05T08:01:54.000Z</time>
      </trkpt>
      <trkpt lat="47.03915" lon="-1.6551">
        <ele>58</ele>
        <time>2021-09-05T08:01:56.000Z</time>
      </trkpt>
      <trkpt lat="47.0391" lon="-1.65492">
        <ele>57</ele>
        <time>2021-09-05T08:01:58.000Z</time>
      </trkpt>
      <trkpt lat="47.03905" lon="-1.65473">
        <ele>57</ele>
        <time>2021-09-05T08:02:00.000Z</time>
      </trkpt>
      <trkpt lat="47.039" lon="-1.65455">
        <ele>57</ele>
        <time>2021-09-05T08:02:02.000Z</time>
      </trkpt>
      <trkpt lat="47.03895" lon="-1.65435">
        <ele>57</ele>
        <time>2021-09-05T08:02:04.000Z</time>
      </trkpt>
      <trkpt lat="47.03889" lon="-1.65417">
        <ele>57</ele>
        <time>2021-09-05T08:02:06.000Z</time>
      </trkpt>
      <trkpt lat="47.03883" lon="-1.65399">
        <ele>58</ele>
        <time>2021-09-05T08:02:08.000Z</time>
      </trkpt>
      <trkpt lat="47.03878" lon="-1.65381">
        <ele>58</ele>
        <time>2021-09-05T08:02:10.000Z</time>
      </trkpt>
      <trkpt lat="47.03871" lon="-1.65364">
        <ele>58</ele>
        <time>2021-09-05T08:02:12.000Z</time>
      </trkpt>
      <trkpt lat="47.03862" lon="-1.65349">
        <ele>57</ele>
        <time>2021-09-05T08:02:14.000Z</time>
      </trkpt>
      <trkpt lat="47.03851" lon="-1.65337">
        <ele>57</ele>
        <time>2021-09-05T08:02:16.000Z</time>
      </trkpt>
      <trkpt lat="47.03839" lon="-1.65329">
        <ele>57</ele>
        <time>2021-09-05T08:02:18.000Z</time>
      </trkpt>
      <trkpt lat="47.03825" lon="-1.65327">
        <ele>58</ele>
        <time>2021-09-05T08:02:20.000Z</time>
      </trkpt>
      <trkpt lat="47.03812" lon="-1.6533">
        <ele>58</ele>
        <time>2021-09-05T08:02:22.000Z</time>
      </trkpt>
      <trkpt lat="47.038" lon="-1.65337">
        <ele>58</ele>
        <time>2021-09-05T08:02:24.000Z</time>
      </trkpt>
      <trkpt lat="47.03788" lon="-1.65345">
        <ele>58</ele>
        <time>2021-09-05T08:02:26.000Z</time>
      </trkpt>
      <trkpt lat="47.03776" lon="-1.65354">
        <ele>58</ele>
        <time>2021-09-05T08:02:28.000Z</time>
      </trkpt>
      <trkpt lat="47.03764" lon="-1.65363">
        <ele>58</ele>
        <time>2021-09-05T08:02:30.000Z</time>
      </trkpt>
      <trkpt lat="47.03751" lon="-1.65371">
        <ele>58</ele>
        <time>2021-09-05T08:02:32.000Z</time>
      </trkpt>
      <trkpt lat="47.03739" lon="-1.6538">
        <ele>59</ele>
        <time>2021-09-05T08:02:34.000Z</time>
      </trkpt>
      <trkpt lat="47.03726" lon="-1.65389">
        <ele>59</ele>
        <time>2021-09-05T08:02:36.000Z</time>
      </trkpt>
      <trkpt lat="47.03714" lon="-1.65398">
        <ele>59</ele>
        <time>2021-09-05T08:02:38.000Z</time>
      </trkpt>
      <trkpt lat="47.03702" lon="-1.65406">
        <ele>59</ele>
        <time>2021-09-05T08:02:40.000Z</time>
      </trkpt>
      <trkpt lat="47.03689" lon="-1.65415">
        <ele>59</ele>
        <time>2021-09-05T08:02:42.000Z</time>
      </trkpt>
      <trkpt lat="47.03676" lon="-1.65423">
        <ele>59</ele>
        <time>2021-09-05T08:02:44.000Z</time>
      </trkpt>
      <trkpt lat="47.03663" lon="-1.65432">
        <ele>60</ele>
        <time>2021-09-05T08:02:46.000Z</time>
      </trkpt>
      <trkpt lat="47.03651" lon="-1.6544">
        <ele>60</ele>
        <time>2021-09-05T08:02:48.000Z</time>
      </trkpt>
      <trkpt lat="47.0364" lon="-1.65451">
        <ele>60</ele>
        <time>2021-09-05T08:02:50.000Z</time>
      </trkpt>
      <trkpt lat="47.03628" lon="-1.65461">
        <ele>61</ele>
        <time>2021-09-05T08:02:52.000Z</time>
      </trkpt>
      <trkpt lat="47.03616" lon="-1.65471">
        <ele>61</ele>
        <time>2021-09-05T08:02:54.000Z</time>
      </trkpt>
      <trkpt lat="47.03603" lon="-1.65481">
        <ele>62</ele>
        <time>2021-09-05T08:02:56.000Z</time>
      </trkpt>
      <trkpt lat="47.03591" lon="-1.65492">
        <ele>63</ele>
        <time>2021-09-05T08:02:58.000Z</time>
      </trkpt>
      <trkpt lat="47.03579" lon="-1.65503">
        <ele>63</ele>
        <time>2021-09-05T08:03:00.000Z</time>
      </trkpt>
      <trkpt lat="47.03568" lon="-1.65514">
        <ele>64</ele>
        <time>2021-09-05T08:03:02.000Z</time>
      </trkpt>
      <trkpt lat="47.03557" lon="-1.65526">
        <ele>64</ele>
        <time>2021-09-05T08:03:04.000Z</time>
      </trkpt>
      <trkpt lat="47.03546" lon="-1.65539">
        <ele>65</ele>
        <time>2021-09-05T08:03:06.000Z</time>
      </trkpt>
      <trkpt lat="47.03535" lon="-1.65552">
        <ele>65</ele>
        <time>2021-09-05T08:03:08.000Z</time>
      </trkpt>
      <trkpt lat="47.03525" lon="-1.65565">
        <ele>65</ele>
        <time>2021-09-05T08:03:10.000Z</time>
      </trkpt>
      <trkpt lat="47.03515" lon="-1.65579">
        <ele>66</ele>
        <time>2021-09-05T08:03:12.000Z</time>
      </trkpt>
      <trkpt lat="47.03505" lon="-1.65592">
        <ele>66</ele>
        <time>2021-09-05T08:03:14.000Z</time>
      </trkpt>
      <trkpt lat="47.03495" lon="-1.65606">
        <ele>66</ele>
        <time>2021-09-05T08:03:16.000Z</time>
      </trkpt>
      <trkpt lat="47.03486" lon="-1.65621">
        <ele>66</ele>
        <time>2021-09-05T08:03:18.000Z</time>
      </trkpt>
      <trkpt lat="47.03477" lon="-1.65635">
        <ele>67</ele>
        <time>2021-09-05T08:03:20.000Z</time>
      </trkpt>
      <trkpt lat="47.03467" lon="-1.6565">
        <ele>67</ele>
        <time>2021-09-05T08:03:22.000Z</time>
      </trkpt>
      <trkpt lat="47.03458" lon="-1.65666">
        <ele>67</ele>
        <time>2021-09-05T08:03:24.000Z</time>
      </trkpt>
      <trkpt lat="47.03449" lon="-1.65681">
        <ele>67</ele>
        <time>2021-09-05T08:03:26.000Z</time>
      </trkpt>
      <trkpt lat="47.03441" lon="-1.65695">
        <ele>67</ele>
        <time>2021-09-05T08:03:28.000Z</time>
      </trkpt>
      <trkpt lat="47.03433" lon="-1.65711">
        <ele>67</ele>
        <time>2021-09-05T08:03:30.000Z</time>
      </trkpt>
      <trkpt lat="47.03426" lon="-1.65726">
        <ele>67</ele>
        <time>2021-09-05T08:03:32.000Z</time>
      </trkpt>
      <trkpt lat="47.03418" lon="-1.65741">
        <ele>67</ele>
        <time>2021-09-05T08:03:34.000Z</time>
      </trkpt>
      <trkpt lat="47.03411" lon="-1.65757">
        <ele>67</ele>
        <time>2021-09-05T08:03:36.000Z</time>
      </trkpt>
      <trkpt lat="47.03405" lon="-1.65773">
        <ele>67</ele>
        <time>2021-09-05T08:03:38.000Z</time>
      </trkpt>
      <trkpt lat="47.034" lon="-1.65792">
        <ele>67</ele>
        <time>2021-09-05T08:03:40.000Z</time>
      </trkpt>
      <trkpt lat="47.034" lon="-1.65812">
        <ele>67</ele>
        <time>2021-09-05T08:03:42.000Z</time>
      </trkpt>
      <trkpt lat="47.03403" lon="-1.65832">
        <ele>67</ele>
        <time>2021-09-05T08:03:44.000Z</time>
      </trkpt>
      <trkpt lat="47.03407" lon="-1.65851">
        <ele>67</ele>
        <time>2021-09-05T08:03:46.000Z</time>
      </trkpt>
      <trkpt lat="47.03411" lon="-1.6587">
        <ele>66</ele>
        <time>2021-09-05T08:03:48.000Z</time>
      </trkpt>
      <trkpt lat="47.03415" lon="-1.6589">
        <ele>66</ele>
        <time>2021-09-05T08:03:50.000Z</time>
      </trkpt>
      <trkpt lat="47.03419" lon="-1.6591">
        <ele>66</ele>
        <time>2021-09-05T08:03:52.000Z</time>
      </trkpt>
      <trkpt lat="47.03423" lon="-1.65928">
        <ele>66</ele>
        <time>2021-09-05T08:03:54.000Z</time>
      </trkpt>
      <trkpt lat="47.03427" lon="-1.65947">
        <ele>65</ele>
        <time>2021-09-05T08:03:56.000Z</time>
      </trkpt>
      <trkpt lat="47.03431" lon="-1.65966">
        <ele>65</ele>
        <time>2021-09-05T08:03:58.000Z</time>
      </trkpt>
      <trkpt lat="47.03435" lon="-1.65985">
        <ele>65</ele>
        <time>2021-09-05T08:04:00.000Z</time>
      </trkpt>
      <trkpt lat="47.03439" lon="-1.66004">
        <ele>65</ele>
        <time>2021-09-05T08:04:02.000Z</time>
      </trkpt>
      <trkpt lat="47.0344" lon="-1.66021">
        <ele>65</ele>
        <time>2021-09-05T08:04:04.000Z</time>
      </trkpt>
      <trkpt lat="47.03437" lon="-1.66036">
        <ele>66</ele>
        <time>2021-09-05T08:04:06.000Z</time>
      </trkpt>
      <trkpt lat="47.03432" lon="-1.6605">
        <ele>66</ele>
        <time>2021-09-05T08:04:08.000Z</time>
      </trkpt>
      <trkpt lat="47.03428" lon="-1.66065">
        <ele>67</ele>
        <time>2021-09-05T08:04:10.000Z</time>
      </trkpt>
      <trkpt lat="47.03423" lon="-1.66081">
        <ele>67</ele>
        <time>2021-09-05T08:04:12.000Z</time>
      </trkpt>
      <trkpt lat="47.03413" lon="-1.66092">
        <ele>67</ele>
        <time>2021-09-05T08:04:14.000Z</time>
      </trkpt>
      <trkpt lat="47.034" lon="-1.6609">
        <ele>68</ele>
        <time>2021-09-05T08:04:16.000Z</time>
      </trkpt>
      <trkpt lat="47.0339" lon="-1.66077">
        <ele>68</ele>
        <time>2021-09-05T08:04:18.000Z</time>
      </trkpt>
      <trkpt lat="47.03387" lon="-1.6606">
        <ele>69</ele>
        <time>2021-09-05T08:04:20.000Z</time>
      </trkpt>
      <trkpt lat="47.03389" lon="-1.66044">
        <ele>69</ele>
        <time>2021-09-05T08:04:22.000Z</time>
      </trkpt>
      <trkpt lat="47.03396" lon="-1.66028">
        <ele>70</ele>
        <time>2021-09-05T08:04:24.000Z</time>
      </trkpt>
      <trkpt lat="47.034" lon="-1.66011">
        <ele>70</ele>
        <time>2021-09-05T08:04:26.000Z</time>
      </trkpt>
      <trkpt lat="47.034" lon="-1.65993">
        <ele>70</ele>
        <time>2021-09-05T08:04:28.000Z</time>
      </trkpt>
      <trkpt lat="47.03399" lon="-1.65975">
        <ele>71</ele>
        <time>2021-09-05T08:04:30.000Z</time>
      </trkpt>
      <trkpt lat="47.03399" lon="-1.65957">
        <ele>71</ele>
        <time>2021-09-05T08:04:32.000Z</time>
      </trkpt>
      <trkpt lat="47.03398" lon="-1.6594">
        <ele>71</ele>
        <time>2021-09-05T08:04:34.000Z</time>
      </trkpt>
      <trkpt lat="47.03396" lon="-1.65922">
        <ele>71</ele>
        <time>2021-09-05T08:04:36.000Z</time>
      </trkpt>
      <trkpt lat="47.03393" lon="-1.65906">
        <ele>72</ele>
        <time>2021-09-05T08:04:38.000Z</time>
      </trkpt>
      <trkpt lat="47.03389" lon="-1.6589">
        <ele>72</ele>
        <time>2021-09-05T08:04:40.000Z</time>
      </trkpt>
      <trkpt lat="47.03384" lon="-1.65874">
        <ele>72</ele>
        <time>2021-09-05T08:04:42.000Z</time>
      </trkpt>
      <trkpt lat="47.03377" lon="-1.6586">
        <ele>73</ele>
        <time>2021-09-05T08:04:44.000Z</time>
      </trkpt>
      <trkpt lat="47.03371" lon="-1.65845">
        <ele>73</ele>
        <time>2021-09-05T08:04:46.000Z</time>
      </trkpt>
      <trkpt lat="47.03364" lon="-1.65831">
        <ele>73</ele>
        <time>2021-09-05T08:04:48.000Z</time>
      </trkpt>
      <trkpt lat="47.03357" lon="-1.65817">
        <ele>73</ele>
        <time>2021-09-05T08:04:50.000Z</time>
      </trkpt>
      <trkpt lat="47.0335" lon="-1.65802">
        <ele>73</ele>
        <time>2021-09-05T08:04:52.000Z</time>
      </trkpt>
      <trkpt lat="47.03343" lon="-1.65787">
        <ele>73</ele>
        <time>2021-09-05T08:04:54.000Z</time>
      </trkpt>
      <trkpt lat="47.03336" lon="-1.65772">
        <ele>73</ele>
        <time>2021-09-05T08:04:56.000Z</time>
      </trkpt>
      <trkpt lat="47.03329" lon="-1.65756">
        <ele>73</ele>
        <time>2021-09-05T08:04:58.000Z</time>
      </trkpt>
      <trkpt lat="47.03323" lon="-1.65739">
        <ele>72</ele>
        <time>2021-09-05T08:05:00.000Z</time>
      </trkpt>
      <trkpt lat="47.03318" lon="-1.6572">
        <ele>72</ele>
        <time>2021-09-05T08:05:02.000Z</time>
      </trkpt>
      <trkpt lat="47.03314" lon="-1.65701">
        <ele>72</ele>
        <time>2021-09-05T08:05:04.000Z</time>
      </trkpt>
      <trkpt lat="47.03312" lon="-1.65682">
        <ele>72</ele>
        <time>2021-09-05T08:05:06.000Z</time>
      </trkpt>
      <trkpt lat="47.03311" lon="-1.65662">
        <ele>72</ele>
        <time>2021-09-05T08:05:08.000Z</time>
      </trkpt>
      <trkpt lat="47.03312" lon="-1.65641">
        <ele>72</ele>
        <time>2021-09-05T08:05:10.000Z</time>
      </trkpt>
      <trkpt lat="47.03313" lon="-1.65621">
        <ele>71</ele>
        <time>2021-09-05T08:05:12.000Z</time>
      </trkpt>
      <trkpt lat="47.03309" lon="-1.65602">
        <ele>71</ele>
        <time>2021-09-05T08:05:14.000Z</time>
      </trkpt>
      <trkpt lat="47.03303" lon="-1.65582">
        <ele>71</ele>
        <time>2021-09-05T08:05:16.000Z</time>
      </trkpt>
      <trkpt lat="47.03306" lon="-1.65561">
        <ele>71</ele>
        <time>2021-09-05T08:05:18.000Z</time>
      </trkpt>
      <trkpt lat="47.03309" lon="-1.65541">
        <ele>71</ele>
        <time>2021-09-05T08:05:20.000Z</time>
      </trkpt>
      <trkpt lat="47.03306" lon="-1.6552">
        <ele>70</ele>
        <time>2021-09-05T08:05:22.000Z</time>
      </trkpt>
      <trkpt lat="47.03302" lon="-1.655">
        <ele>70</ele>
        <time>2021-09-05T08:05:24.000Z</time>
      </trkpt>
      <trkpt lat="47.03298" lon="-1.65479">
        <ele>69</ele>
        <time>2021-09-05T08:05:26.000Z</time>
      </trkpt>
      <trkpt lat="47.03293" lon="-1.65459">
        <ele>68</ele>
        <time>2021-09-05T08:05:28.000Z</time>
      </trkpt>
      <trkpt lat="47.03288" lon="-1.65438">
        <ele>68</ele>
        <time>2021-09-05T08:05:30.000Z</time>
      </trkpt>
      <trkpt lat="47.03284" lon="-1.65417">
        <ele>67</ele>
        <time>2021-09-05T08:05:32.000Z</time>
      </trkpt>
      <trkpt lat="47.03279" lon="-1.65396">
        <ele>66</ele>
        <time>2021-09-05T08:05:34.000Z</time>
      </trkpt>
      <trkpt lat="47.03273" lon="-1.65374">
        <ele>66</ele>
        <time>2021-09-05T08:05:36.000Z</time>
      </trkpt>
      <trkpt lat="47.03268" lon="-1.65352">
        <ele>66</ele>
        <time>2021-09-05T08:05:38.000Z</time>
      </trkpt>
      <trkpt lat="47.03263" lon="-1.6533">
        <ele>65</ele>
        <time>2021-09-05T08:05:40.000Z</time>
      </trkpt>
      <trkpt lat="47.03258" lon="-1.65307">
        <ele>64</ele>
        <time>2021-09-05T08:05:42.000Z</time>
      </trkpt>
      <trkpt lat="47.03252" lon="-1.65285">
        <ele>64</ele>
        <time>2021-09-05T08:05:44.000Z</time>
      </trkpt>
      <trkpt lat="47.03246" lon="-1.65264">
        <ele>64</ele>
        <time>2021-09-05T08:05:46.000Z</time>
      </trkpt>
      <trkpt lat="47.03241" lon="-1.65243">
        <ele>64</ele>
        <time>2021-09-05T08:05:48.000Z</time>
      </trkpt>
      <trkpt lat="47.03234" lon="-1.65223">
        <ele>64</ele>
        <time>2021-09-05T08:05:50.000Z</time>
      </trkpt>
      <trkpt lat="47.03228" lon="-1.65204">
        <ele>64</ele>
        <time>2021-09-05T08:05:52.000Z</time>
      </trkpt>
      <trkpt lat="47.03221" lon="-1.65185">
        <ele>64</ele>
        <time>2021-09-05T08:05:54.000Z</time>
      </trkpt>
      <trkpt lat="47.03215" lon="-1.65166">
        <ele>65</ele>
        <time>2021-09-05T08:05:56.000Z</time>
      </trkpt>
      <trkpt lat="47.03208" lon="-1.65149">
        <ele>65</ele>
        <time>2021-09-05T08:05:58.000Z</time>
      </trkpt>
      <trkpt lat="47.03201" lon="-1.6513">
        <ele>65</ele>
        <time>2021-09-05T08:06:00.000Z</time>
      </trkpt>
      <trkpt lat="47.03194" lon="-1.65113">
        <ele>65</ele>
        <time>2021-09-05T08:06:02.000Z</time>
      </trkpt>
      <trkpt lat="47.03186" lon="-1.65097">
        <ele>65</ele>
        <time>2021-09-05T08:06:04.000Z</time>
      </trkpt>
      <trkpt lat="47.03178" lon="-1.6508">
        <ele>65</ele>
        <time>2021-09-05T08:06:06.000Z</time>
      </trkpt>
      <trkpt lat="47.0317" lon="-1.65064">
        <ele>65</ele>
        <time>2021-09-05T08:06:08.000Z</time>
      </trkpt>
      <trkpt lat="47.03161" lon="-1.65049">
        <ele>65</ele>
        <time>2021-09-05T08:06:10.000Z</time>
      </trkpt>
      <trkpt lat="47.03153" lon="-1.65033">
        <ele>65</ele>
        <time>2021-09-05T08:06:12.000Z</time>
      </trkpt>
      <trkpt lat="47.03144" lon="-1.65018">
        <ele>65</ele>
        <time>2021-09-05T08:06:14.000Z</time>
      </trkpt>
      <trkpt lat="47.03135" lon="-1.65003">
        <ele>65</ele>
        <time>2021-09-05T08:06:16.000Z</time>
      </trkpt>
      <trkpt lat="47.03126" lon="-1.64988">
        <ele>65</ele>
        <time>2021-09-05T08:06:18.000Z</time>
      </trkpt>
      <trkpt lat="47.03118" lon="-1.64973">
        <ele>65</ele>
        <time>2021-09-05T08:06:20.000Z</time>
      </trkpt>
      <trkpt lat="47.03109" lon="-1.64959">
        <ele>66</ele>
        <time>2021-09-05T08:06:22.000Z</time>
      </trkpt>
      <trkpt lat="47.031" lon="-1.64944">
        <ele>66</ele>
        <time>2021-09-05T08:06:24.000Z</time>
      </trkpt>
      <trkpt lat="47.03092" lon="-1.6493">
        <ele>66</ele>
        <time>2021-09-05T08:06:26.000Z</time>
      </trkpt>
      <trkpt lat="47.03083" lon="-1.64916">
        <ele>66</ele>
        <time>2021-09-05T08:06:28.000Z</time>
      </trkpt>
      <trkpt lat="47.03075" lon="-1.64902">
        <ele>67</ele>
        <time>2021-09-05T08:06:30.000Z</time>
      </trkpt>
      <trkpt lat="47.03066" lon="-1.64887">
        <ele>67</ele>
        <time>2021-09-05T08:06:32.000Z</time>
      </trkpt>
      <trkpt lat="47.03058" lon="-1.64873">
        <ele>67</ele>
        <time>2021-09-05T08:06:34.000Z</time>
      </trkpt>
      <trkpt lat="47.03049" lon="-1.64859">
        <ele>67</ele>
        <time>2021-09-05T08:06:36.000Z</time>
      </trkpt>
      <trkpt lat="47.03041" lon="-1.64845">
        <ele>67</ele>
        <time>2021-09-05T08:06:38.000Z</time>
      </trkpt>
      <trkpt lat="47.03032" lon="-1.64831">
        <ele>67</ele>
        <time>2021-09-05T08:06:40.000Z</time>
      </trkpt>
      <trkpt lat="47.03023" lon="-1.64819">
        <ele>68</ele>
        <time>2021-09-05T08:06:42.000Z</time>
      </trkpt>
      <trkpt lat="47.03013" lon="-1.64808">
        <ele>68</ele>
        <time>2021-09-05T08:06:44.000Z</time>
      </trkpt>
      <trkpt lat="47.03001" lon="-1.64801">
        <ele>68</ele>
        <time>2021-09-05T08:06:46.000Z</time>
      </trkpt>
      <trkpt lat="47.0299" lon="-1.6479">
        <ele>68</ele>
        <time>2021-09-05T08:06:48.000Z</time>
      </trkpt>
      <trkpt lat="47.02984" lon="-1.64773">
        <ele>69</ele>
        <time>2021-09-05T08:06:50.000Z</time>
      </trkpt>
      <trkpt lat="47.02981" lon="-1.64753">
        <ele>68</ele>
        <time>2021-09-05T08:06:52.000Z</time>
      </trkpt>
      <trkpt lat="47.02973" lon="-1.64736">
        <ele>68</ele>
        <time>2021-09-05T08:06:54.000Z</time>
      </trkpt>
      <trkpt lat="47.02963" lon="-1.64722">
        <ele>68</ele>
        <time>2021-09-05T08:06:56.000Z</time>
      </trkpt>
      <trkpt lat="47.02954" lon="-1.64709">
        <ele>68</ele>
        <time>2021-09-05T08:06:58.000Z</time>
      </trkpt>
      <trkpt lat="47.02945" lon="-1.64695">
        <ele>68</ele>
        <time>2021-09-05T08:07:00.000Z</time>
      </trkpt>
      <trkpt lat="47.02936" lon="-1.64681">
        <ele>69</ele>
        <time>2021-09-05T08:07:02.000Z</time>
      </trkpt>
      <trkpt lat="47.02927" lon="-1.64668">
        <ele>69</ele>
        <time>2021-09-05T08:07:04.000Z</time>
      </trkpt>
      <trkpt lat="47.02918" lon="-1.64654">
        <ele>70</ele>
        <time>2021-09-05T08:07:06.000Z</time>
      </trkpt>
      <trkpt lat="47.02909" lon="-1.64639">
        <ele>70</ele>
        <time>2021-09-05T08:07:08.000Z</time>
      </trkpt>
      <trkpt lat="47.029" lon="-1.64626">
        <ele>70</ele>
        <time>2021-09-05T08:07:10.000Z</time>
      </trkpt>
      <trkpt lat="47.02891" lon="-1.64612">
        <ele>70</ele>
        <time>2021-09-05T08:07:12.000Z</time>
      </trkpt>
      <trkpt lat="47.02882" lon="-1.64599">
        <ele>71</ele>
        <time>2021-09-05T08:07:14.000Z</time>
      </trkpt>
      <trkpt lat="47.02873" lon="-1.64585">
        <ele>71</ele>
        <time>2021-09-05T08:07:16.000Z</time>
      </trkpt>
      <trkpt lat="47.02864" lon="-1.64571">
        <ele>72</ele>
        <time>2021-09-05T08:07:18.000Z</time>
      </trkpt>
      <trkpt lat="47.02855" lon="-1.64556">
        <ele>72</ele>
        <time>2021-09-05T08:07:20.000Z</time>
      </trkpt>
      <trkpt lat="47.02846" lon="-1.6454">
        <ele>72</ele>
        <time>2021-09-05T08:07:22.000Z</time>
      </trkpt>
      <trkpt lat="47.02837" lon="-1.64526">
        <ele>72</ele>
        <time>2021-09-05T08:07:24.000Z</time>
      </trkpt>
      <trkpt lat="47.02828" lon="-1.64512">
        <ele>72</ele>
        <time>2021-09-05T08:07:26.000Z</time>
      </trkpt>
      <trkpt lat="47.0282" lon="-1.64497">
        <ele>72</ele>
        <time>2021-09-05T08:07:28.000Z</time>
      </trkpt>
      <trkpt lat="47.02812" lon="-1.64482">
        <ele>72</ele>
        <time>2021-09-05T08:07:30.000Z</time>
      </trkpt>
      <trkpt lat="47.02804" lon="-1.64466">
        <ele>71</ele>
        <time>2021-09-05T08:07:32.000Z</time>
      </trkpt>
      <trkpt lat="47.02796" lon="-1.64451">
        <ele>71</ele>
        <time>2021-09-05T08:07:34.000Z</time>
      </trkpt>
      <trkpt lat="47.02789" lon="-1.64436">
        <ele>71</ele>
        <time>2021-09-05T08:07:36.000Z</time>
      </trkpt>
      <trkpt lat="47.0278" lon="-1.6442">
        <ele>71</ele>
        <time>2021-09-05T08:07:38.000Z</time>
      </trkpt>
      <trkpt lat="47.02771" lon="-1.64408">
        <ele>71</ele>
        <time>2021-09-05T08:07:40.000Z</time>
      </trkpt>
      <trkpt lat="47.0276" lon="-1.64397">
        <ele>71</ele>
        <time>2021-09-05T08:07:42.000Z</time>
      </trkpt>
      <trkpt lat="47.02754" lon="-1.64381">
        <ele>72</ele>
        <time>2021-09-05T08:07:44.000Z</time>
      </trkpt>
      <trkpt lat="47.02761" lon="-1.64364">
        <ele>72</ele>
        <time>2021-09-05T08:07:46.000Z</time>
      </trkpt>
      <trkpt lat="47.02775" lon="-1.6436">
        <ele>71</ele>
        <time>2021-09-05T08:07:48.000Z</time>
      </trkpt>
      <trkpt lat="47.02787" lon="-1.6436">
        <ele>71</ele>
        <time>2021-09-05T08:07:50.000Z</time>
      </trkpt>
      <trkpt lat="47.02798" lon="-1.64355">
        <ele>71</ele>
        <time>2021-09-05T08:07:52.000Z</time>
      </trkpt>
      <trkpt lat="47.02811" lon="-1.64348">
        <ele>70</ele>
        <time>2021-09-05T08:07:54.000Z</time>
      </trkpt>
      <trkpt lat="47.02823" lon="-1.64342">
        <ele>71</ele>
        <time>2021-09-05T08:07:56.000Z</time>
      </trkpt>
      <trkpt lat="47.02835" lon="-1.64338">
        <ele>71</ele>
        <time>2021-09-05T08:07:58.000Z</time>
      </trkpt>
      <trkpt lat="47.02847" lon="-1.64334">
        <ele>71</ele>
        <time>2021-09-05T08:08:00.000Z</time>
      </trkpt>
      <trkpt lat="47.02859" lon="-1.64333">
        <ele>72</ele>
        <time>2021-09-05T08:08:02.000Z</time>
      </trkpt>
      <trkpt lat="47.02871" lon="-1.64333">
        <ele>72</ele>
        <time>2021-09-05T08:08:04.000Z</time>
      </trkpt>
      <trkpt lat="47.02883" lon="-1.64333">
        <ele>72</ele>
        <time>2021-09-05T08:08:06.000Z</time>
      </trkpt>
      <trkpt lat="47.02895" lon="-1.64329">
        <ele>72</ele>
        <time>2021-09-05T08:08:08.000Z</time>
      </trkpt>
      <trkpt lat="47.02907" lon="-1.64321">
        <ele>72</ele>
        <time>2021-09-05T08:08:10.000Z</time>
      </trkpt>
      <trkpt lat="47.02919" lon="-1.64312">
        <ele>72</ele>
        <time>2021-09-05T08:08:12.000Z</time>
      </trkpt>
      <trkpt lat="47.02931" lon="-1.64304">
        <ele>71</ele>
        <time>2021-09-05T08:08:14.000Z</time>
      </trkpt>
      <trkpt lat="47.02944" lon="-1.64295">
        <ele>71</ele>
        <time>2021-09-05T08:08:16.000Z</time>
      </trkpt>
      <trkpt lat="47.02957" lon="-1.64286">
        <ele>70</ele>
        <time>2021-09-05T08:08:18.000Z</time>
      </trkpt>
      <trkpt lat="47.02971" lon="-1.64277">
        <ele>69</ele>
        <time>2021-09-05T08:08:20.000Z</time>
      </trkpt>
      <trkpt lat="47.02984" lon="-1.64267">
        <ele>69</ele>
        <time>2021-09-05T08:08:22.000Z</time>
      </trkpt>
      <trkpt lat="47.02998" lon="-1.64258">
        <ele>68</ele>
        <time>2021-09-05T08:08:24.000Z</time>
      </trkpt>
      <trkpt lat="47.03012" lon="-1.64248">
        <ele>68</ele>
        <time>2021-09-05T08:08:26.000Z</time>
      </trkpt>
      <trkpt lat="47.03026" lon="-1.64239">
        <ele>67</ele>
        <time>2021-09-05T08:08:28.000Z</time>
      </trkpt>
      <trkpt lat="47.0304" lon="-1.64229">
        <ele>66</ele>
        <time>2021-09-05T08:08:30.000Z</time>
      </trkpt>
      <trkpt lat="47.03054" lon="-1.64221">
        <ele>66</ele>
        <time>2021-09-05T08:08:32.000Z</time>
      </trkpt>
      <trkpt lat="47.03069" lon="-1.64216">
        <ele>66</ele>
        <time>2021-09-05T08:08:34.000Z</time>
      </trkpt>
      <trkpt lat="47.03084" lon="-1.64215">
        <ele>66</ele>
        <time>2021-09-05T08:08:36.000Z</time>
      </trkpt>
      <trkpt lat="47.031" lon="-1.64216">
        <ele>66</ele>
        <time>2021-09-05T08:08:38.000Z</time>
      </trkpt>
      <trkpt lat="47.03115" lon="-1.6422">
        <ele>65</ele>
        <time>2021-09-05T08:08:40.000Z</time>
      </trkpt>
      <trkpt lat="47.0313" lon="-1.64226">
        <ele>64</ele>
        <time>2021-09-05T08:08:42.000Z</time>
      </trkpt>
      <trkpt lat="47.03145" lon="-1.64229">
        <ele>63</ele>
        <time>2021-09-05T08:08:44.000Z</time>
      </trkpt>
      <trkpt lat="47.0316" lon="-1.64233">
        <ele>63</ele>
        <time>2021-09-05T08:08:46.000Z</time>
      </trkpt>
      <trkpt lat="47.03175" lon="-1.64237">
        <ele>63</ele>
        <time>2021-09-05T08:08:48.000Z</time>
      </trkpt>
      <trkpt lat="47.0319" lon="-1.64239">
        <ele>62</ele>
        <time>2021-09-05T08:08:50.000Z</time>
      </trkpt>
      <trkpt lat="47.03205" lon="-1.64241">
        <ele>61</ele>
        <time>2021-09-05T08:08:52.000Z</time>
      </trkpt>
      <trkpt lat="47.03221" lon="-1.64242">
        <ele>61</ele>
        <time>2021-09-05T08:08:54.000Z</time>
      </trkpt>
      <trkpt lat="47.03236" lon="-1.64241">
        <ele>61</ele>
        <time>2021-09-05T08:08:56.000Z</time>
      </trkpt>
      <trkpt lat="47.03251" lon="-1.6424">
        <ele>61</ele>
        <time>2021-09-05T08:08:58.000Z</time>
      </trkpt>
      <trkpt lat="47.03265" lon="-1.6424">
        <ele>61</ele>
        <time>2021-09-05T08:09:00.000Z</time>
      </trkpt>
      <trkpt lat="47.03279" lon="-1.6424">
        <ele>61</ele>
        <time>2021-09-05T08:09:02.000Z</time>
      </trkpt>
      <trkpt lat="47.03294" lon="-1.6424">
        <ele>61</ele>
        <time>2021-09-05T08:09:04.000Z</time>
      </trkpt>
      <trkpt lat="47.03308" lon="-1.64239">
        <ele>60</ele>
        <time>2021-09-05T08:09:06.000Z</time>
      </trkpt>
      <trkpt lat="47.03323" lon="-1.64239">
        <ele>60</ele>
        <time>2021-09-05T08:09:08.000Z</time>
      </trkpt>
      <trkpt lat="47.03337" lon="-1.6424">
        <ele>60</ele>
        <time>2021-09-05T08:09:10.000Z</time>
      </trkpt>
      <trkpt lat="47.03352" lon="-1.64241">
        <ele>59</ele>
        <time>2021-09-05T08:09:12.000Z</time>
      </trkpt>
      <trkpt lat="47.03366" lon="-1.64244">
        <ele>60</ele>
        <time>2021-09-05T08:09:14.000Z</time>
      </trkpt>
      <trkpt lat="47.0338" lon="-1.64246">
        <ele>60</ele>
        <time>2021-09-05T08:09:16.000Z</time>
      </trkpt>
      <trkpt lat="47.03394" lon="-1.6425">
        <ele>59</ele>
        <time>2021-09-05T08:09:18.000Z</time>
      </trkpt>
      <trkpt lat="47.03408" lon="-1.64256">
        <ele>59</ele>
        <time>2021-09-05T08:09:20.000Z</time>
      </trkpt>
      <trkpt lat="47.03421" lon="-1.64262">
        <ele>59</ele>
        <time>2021-09-05T08:09:22.000Z</time>
      </trkpt>
      <trkpt lat="47.03435" lon="-1.64268">
        <ele>59</ele>
        <time>2021-09-05T08:09:24.000Z</time>
      </trkpt>
      <trkpt lat="47.03449" lon="-1.64272">
        <ele>59</ele>
        <time>2021-09-05T08:09:26.000Z</time>
      </trkpt>
      <trkpt lat="47.03462" lon="-1.64276">
        <ele>60</ele>
        <time>2021-09-05T08:09:28.000Z</time>
      </trkpt>
      <trkpt lat="47.03476" lon="-1.6428">
        <ele>60</ele>
        <time>2021-09-05T08:09:30.000Z</time>
      </trkpt>
      <trkpt lat="47.03489" lon="-1.64286">
        <ele>60</ele>
        <time>2021-09-05T08:09:32.000Z</time>
      </trkpt>
      <trkpt lat="47.03502" lon="-1.64292">
        <ele>60</ele>
        <time>2021-09-05T08:09:34.000Z</time>
      </trkpt>
      <trkpt lat="47.03514" lon="-1.64297">
        <ele>61</ele>
        <time>2021-09-05T08:09:36.000Z</time>
      </trkpt>
      <trkpt lat="47.03526" lon="-1.64303">
        <ele>60</ele>
        <time>2021-09-05T08:09:38.000Z</time>
      </trkpt>
      <trkpt lat="47.03539" lon="-1.64307">
        <ele>60</ele>
        <time>2021-09-05T08:09:40.000Z</time>
      </trkpt>
      <trkpt lat="47.03552" lon="-1.64307">
        <ele>60</ele>
        <time>2021-09-05T08:09:42.000Z</time>
      </trkpt>
      <trkpt lat="47.03564" lon="-1.64306">
        <ele>60</ele>
        <time>2021-09-05T08:09:44.000Z</time>
      </trkpt>
      <trkpt lat="47.03575" lon="-1.64297">
        <ele>59</ele>
        <time>2021-09-05T08:09:46.000Z</time>
      </trkpt>
      <trkpt lat="47.03572" lon="-1.64278">
        <ele>58</ele>
        <time>2021-09-05T08:09:48.000Z</time>
      </trkpt>
      <trkpt lat="47.03567" lon="-1.64259">
        <ele>58</ele>
        <time>2021-09-05T08:09:50.000Z</time>
      </trkpt>
      <trkpt lat="47.03561" lon="-1.64241">
        <ele>59</ele>
        <time>2021-09-05T08:09:52.000Z</time>
      </trkpt>
      <trkpt lat="47.03556" lon="-1.64223">
        <ele>59</ele>
        <time>2021-09-05T08:09:54.000Z</time>
      </trkpt>
      <trkpt lat="47.03551" lon="-1.64205">
        <ele>59</ele>
        <time>2021-09-05T08:09:56.000Z</time>
      </trkpt>
      <trkpt lat="47.03546" lon="-1.64187">
        <ele>58</ele>
        <time>2021-09-05T08:09:58.000Z</time>
      </trkpt>
      <trkpt lat="47.03541" lon="-1.64169">
        <ele>59</ele>
        <time>2021-09-05T08:10:00.000Z</time>
      </trkpt>
      <trkpt lat="47.03536" lon="-1.64152">
        <ele>59</ele>
        <time>2021-09-05T08:10:02.000Z</time>
      </trkpt>
      <trkpt lat="47.03531" lon="-1.64135">
        <ele>59</ele>
        <time>2021-09-05T08:10:04.000Z</time>
      </trkpt>
      <trkpt lat="47.03523" lon="-1.64119">
        <ele>59</ele>
        <time>2021-09-05T08:10:06.000Z</time>
      </trkpt>
      <trkpt lat="47.03515" lon="-1.64101">
        <ele>58</ele>
        <time>2021-09-05T08:10:08.000Z</time>
      </trkpt>
      <trkpt lat="47.03507" lon="-1.64084">
        <ele>57</ele>
        <time>2021-09-05T08:10:10.000Z</time>
      </trkpt>
      <trkpt lat="47.03497" lon="-1.64068">
        <ele>57</ele>
        <time>2021-09-05T08:10:12.000Z</time>
      </trkpt>
      <trkpt lat="47.03487" lon="-1.64056">
        <ele>57</ele>
        <time>2021-09-05T08:10:14.000Z</time>
      </trkpt>
      <trkpt lat="47.03476" lon="-1.64044">
        <ele>57</ele>
        <time>2021-09-05T08:10:16.000Z</time>
      </trkpt>
      <trkpt lat="47.03464" lon="-1.64032">
        <ele>57</ele>
        <time>2021-09-05T08:10:18.000Z</time>
      </trkpt>
      <trkpt lat="47.03453" lon="-1.64019">
        <ele>57</ele>
        <time>2021-09-05T08:10:20.000Z</time>
      </trkpt>
      <trkpt lat="47.03442" lon="-1.64006">
        <ele>57</ele>
        <time>2021-09-05T08:10:22.000Z</time>
      </trkpt>
      <trkpt lat="47.03431" lon="-1.63993">
        <ele>57</ele>
        <time>2021-09-05T08:10:24.000Z</time>
      </trkpt>
      <trkpt lat="47.0342" lon="-1.63978">
        <ele>56</ele>
        <time>2021-09-05T08:10:26.000Z</time>
      </trkpt>
      <trkpt lat="47.03411" lon="-1.63963">
        <ele>56</ele>
        <time>2021-09-05T08:10:28.000Z</time>
      </trkpt>
      <trkpt lat="47.03403" lon="-1.63946">
        <ele>56</ele>
        <time>2021-09-05T08:10:30.000Z</time>
      </trkpt>
      <trkpt lat="47.03397" lon="-1.63928">
        <ele>56</ele>
        <time>2021-09-05T08:10:32.000Z</time>
      </trkpt>
      <trkpt lat="47.03391" lon="-1.63911">
        <ele>56</ele>
        <time>2021-09-05T08:10:34.000Z</time>
      </trkpt>
      <trkpt lat="47.03385" lon="-1.63893">
        <ele>55</ele>
        <time>2021-09-05T08:10:36.000Z</time>
      </trkpt>
      <trkpt lat="47.0338" lon="-1.63876">
        <ele>55</ele>
        <time>2021-09-05T08:10:38.000Z</time>
      </trkpt>
      <trkpt lat="47.03374" lon="-1.6386">
        <ele>56</ele>
        <time>2021-09-05T08:10:40.000Z</time>
      </trkpt>
      <trkpt lat="47.03367" lon="-1.63843">
        <ele>55</ele>
        <time>2021-09-05T08:10:42.000Z</time>
      </trkpt>
      <trkpt lat="47.03359" lon="-1.63826">
        <ele>55</ele>
        <time>2021-09-05T08:10:44.000Z</time>
      </trkpt>
      <trkpt lat="47.0335" lon="-1.63813">
        <ele>55</ele>
        <time>2021-09-05T08:10:46.000Z</time>
      </trkpt>
      <trkpt lat="47.0334" lon="-1.638">
        <ele>55</ele>
        <time>2021-09-05T08:10:48.000Z</time>
      </trkpt>
      <trkpt lat="47.03331" lon="-1.63787">
        <ele>55</ele>
        <time>2021-09-05T08:10:50.000Z</time>
      </trkpt>
      <trkpt lat="47.03322" lon="-1.63775">
        <ele>56</ele>
        <time>2021-09-05T08:10:52.000Z</time>
      </trkpt>
      <trkpt lat="47.03312" lon="-1.63762">
        <ele>56</ele>
        <time>2021-09-05T08:10:54.000Z</time>
      </trkpt>
      <trkpt lat="47.03303" lon="-1.6375">
        <ele>56</ele>
        <time>2021-09-05T08:10:56.000Z</time>
      </trkpt>
      <trkpt lat="47.03294" lon="-1.63738">
        <ele>56</ele>
        <time>2021-09-05T08:10:58.000Z</time>
      </trkpt>
      <trkpt lat="47.03286" lon="-1.63727">
        <ele>56</ele>
        <time>2021-09-05T08:11:00.000Z</time>
      </trkpt>
      <trkpt lat="47.03277" lon="-1.63715">
        <ele>56</ele>
        <time>2021-09-05T08:11:02.000Z</time>
      </trkpt>
      <trkpt lat="47.0327" lon="-1.63704">
        <ele>57</ele>
        <time>2021-09-05T08:11:04.000Z</time>
      </trkpt>
      <trkpt lat="47.03263" lon="-1.6369">
        <ele>58</ele>
        <time>2021-09-05T08:11:06.000Z</time>
      </trkpt>
      <trkpt lat="47.03257" lon="-1.63676">
        <ele>58</ele>
        <time>2021-09-05T08:11:08.000Z</time>
      </trkpt>
      <trkpt lat="47.03254" lon="-1.63663">
        <ele>58</ele>
        <time>2021-09-05T08:11:10.000Z</time>
      </trkpt>
      <trkpt lat="47.03254" lon="-1.63646">
        <ele>58</ele>
        <time>2021-09-05T08:11:13.000Z</time>
      </trkpt>
      <trkpt lat="47.03243" lon="-1.63634">
        <ele>58</ele>
        <time>2021-09-05T08:11:16.000Z</time>
      </trkpt>
      <trkpt lat="47.03234" lon="-1.63625">
        <ele>58</ele>
        <time>2021-09-05T08:11:18.000Z</time>
      </trkpt>
      <trkpt lat="47.03231" lon="-1.6361">
        <ele>58</ele>
        <time>2021-09-05T08:11:20.000Z</time>
      </trkpt>
      <trkpt lat="47.03236" lon="-1.63594">
        <ele>58</ele>
        <time>2021-09-05T08:11:22.000Z</time>
      </trkpt>
      <trkpt lat="47.03235" lon="-1.63578">
        <ele>58</ele>
        <time>2021-09-05T08:11:24.000Z</time>
      </trkpt>
      <trkpt lat="47.03232" lon="-1.63562">
        <ele>58</ele>
        <time>2021-09-05T08:11:26.000Z</time>
      </trkpt>
      <trkpt lat="47.03229" lon="-1.63547">
        <ele>58</ele>
        <time>2021-09-05T08:11:28.000Z</time>
      </trkpt>
      <trkpt lat="47.03225" lon="-1.63532">
        <ele>58</ele>
        <time>2021-09-05T08:11:30.000Z</time>
      </trkpt>
      <trkpt lat="47.03222" lon="-1.63515">
        <ele>58</ele>
        <time>2021-09-05T08:11:32.000Z</time>
      </trkpt>
      <trkpt lat="47.03219" lon="-1.63498">
        <ele>58</ele>
        <time>2021-09-05T08:11:34.000Z</time>
      </trkpt>
      <trkpt lat="47.03215" lon="-1.63481">
        <ele>58</ele>
        <time>2021-09-05T08:11:36.000Z</time>
      </trkpt>
      <trkpt lat="47.03211" lon="-1.63463">
        <ele>58</ele>
        <time>2021-09-05T08:11:38.000Z</time>
      </trkpt>
      <trkpt lat="47.03208" lon="-1.63446">
        <ele>58</ele>
        <time>2021-09-05T08:11:40.000Z</time>
      </trkpt>
      <trkpt lat="47.03205" lon="-1.63429">
        <ele>58</ele>
        <time>2021-09-05T08:11:42.000Z</time>
      </trkpt>
      <trkpt lat="47.03201" lon="-1.63411">
        <ele>59</ele>
        <time>2021-09-05T08:11:44.000Z</time>
      </trkpt>
      <trkpt lat="47.03197" lon="-1.63393">
        <ele>59</ele>
        <time>2021-09-05T08:11:46.000Z</time>
      </trkpt>
      <trkpt lat="47.03194" lon="-1.63376">
        <ele>58</ele>
        <time>2021-09-05T08:11:48.000Z</time>
      </trkpt>
      <trkpt lat="47.0319" lon="-1.63358">
        <ele>58</ele>
        <time>2021-09-05T08:11:50.000Z</time>
      </trkpt>
      <trkpt lat="47.03186" lon="-1.63339">
        <ele>59</ele>
        <time>2021-09-05T08:11:52.000Z</time>
      </trkpt>
      <trkpt lat="47.03182" lon="-1.63321">
        <ele>59</ele>
        <time>2021-09-05T08:11:54.000Z</time>
      </trkpt>
      <trkpt lat="47.03178" lon="-1.63303">
        <ele>59</ele>
        <time>2021-09-05T08:11:56.000Z</time>
      </trkpt>
      <trkpt lat="47.03174" lon="-1.63285">
        <ele>59</ele>
        <time>2021-09-05T08:11:58.000Z</time>
      </trkpt>
      <trkpt lat="47.03171" lon="-1.63267">
        <ele>59</ele>
        <time>2021-09-05T08:12:00.000Z</time>
      </trkpt>
      <trkpt lat="47.03167" lon="-1.63249">
        <ele>59</ele>
        <time>2021-09-05T08:12:02.000Z</time>
      </trkpt>
      <trkpt lat="47.03164" lon="-1.63231">
        <ele>59</ele>
        <time>2021-09-05T08:12:04.000Z</time>
      </trkpt>
      <trkpt lat="47.0316" lon="-1.63213">
        <ele>59</ele>
        <time>2021-09-05T08:12:06.000Z</time>
      </trkpt>
      <trkpt lat="47.03156" lon="-1.63196">
        <ele>59</ele>
        <time>2021-09-05T08:12:08.000Z</time>
      </trkpt>
      <trkpt lat="47.03153" lon="-1.63178">
        <ele>59</ele>
        <time>2021-09-05T08:12:10.000Z</time>
      </trkpt>
      <trkpt lat="47.03149" lon="-1.63161">
        <ele>59</ele>
        <time>2021-09-05T08:12:12.000Z</time>
      </trkpt>
      <trkpt lat="47.03146" lon="-1.63144">
        <ele>59</ele>
        <time>2021-09-05T08:12:14.000Z</time>
      </trkpt>
      <trkpt lat="47.03141" lon="-1.63118">
        <ele>59</ele>
        <time>2021-09-05T08:12:17.000Z</time>
      </trkpt>
      <trkpt lat="47.03137" lon="-1.63101">
        <ele>60</ele>
        <time>2021-09-05T08:12:19.000Z</time>
      </trkpt>
      <trkpt lat="47.03134" lon="-1.63084">
        <ele>60</ele>
        <time>2021-09-05T08:12:21.000Z</time>
      </trkpt>
      <trkpt lat="47.03131" lon="-1.63067">
        <ele>60</ele>
        <time>2021-09-05T08:12:23.000Z</time>
      </trkpt>
      <trkpt lat="47.03127" lon="-1.6305">
        <ele>60</ele>
        <time>2021-09-05T08:12:25.000Z</time>
      </trkpt>
      <trkpt lat="47.03123" lon="-1.63032">
        <ele>60</ele>
        <time>2021-09-05T08:12:27.000Z</time>
      </trkpt>
      <trkpt lat="47.03119" lon="-1.63014">
        <ele>60</ele>
        <time>2021-09-05T08:12:29.000Z</time>
      </trkpt>
      <trkpt lat="47.03115" lon="-1.62997">
        <ele>59</ele>
        <time>2021-09-05T08:12:31.000Z</time>
      </trkpt>
      <trkpt lat="47.03111" lon="-1.62978">
        <ele>58</ele>
        <time>2021-09-05T08:12:33.000Z</time>
      </trkpt>
      <trkpt lat="47.03106" lon="-1.6296">
        <ele>58</ele>
        <time>2021-09-05T08:12:35.000Z</time>
      </trkpt>
      <trkpt lat="47.03101" lon="-1.62943">
        <ele>58</ele>
        <time>2021-09-05T08:12:37.000Z</time>
      </trkpt>
      <trkpt lat="47.03095" lon="-1.62926">
        <ele>57</ele>
        <time>2021-09-05T08:12:39.000Z</time>
      </trkpt>
      <trkpt lat="47.0309" lon="-1.62909">
        <ele>57</ele>
        <time>2021-09-05T08:12:41.000Z</time>
      </trkpt>
      <trkpt lat="47.03089" lon="-1.62891">
        <ele>57</ele>
        <time>2021-09-05T08:12:43.000Z</time>
      </trkpt>
      <trkpt lat="47.03087" lon="-1.62872">
        <ele>57</ele>
        <time>2021-09-05T08:12:45.000Z</time>
      </trkpt>
      <trkpt lat="47.03083" lon="-1.62844">
        <ele>57</ele>
        <time>2021-09-05T08:12:48.000Z</time>
      </trkpt>
      <trkpt lat="47.0308" lon="-1.62825">
        <ele>58</ele>
        <time>2021-09-05T08:12:50.000Z</time>
      </trkpt>
      <trkpt lat="47.03077" lon="-1.62807">
        <ele>58</ele>
        <time>2021-09-05T08:12:52.000Z</time>
      </trkpt>
      <trkpt lat="47.03074" lon="-1.62788">
        <ele>58</ele>
        <time>2021-09-05T08:12:54.000Z</time>
      </trkpt>
      <trkpt lat="47.0307" lon="-1.62769">
        <ele>58</ele>
        <time>2021-09-05T08:12:56.000Z</time>
      </trkpt>
      <trkpt lat="47.03066" lon="-1.62751">
        <ele>58</ele>
        <time>2021-09-05T08:12:58.000Z</time>
      </trkpt>
      <trkpt lat="47.03062" lon="-1.62733">
        <ele>58</ele>
        <time>2021-09-05T08:13:00.000Z</time>
      </trkpt>
      <trkpt lat="47.03059" lon="-1.62716">
        <ele>58</ele>
        <time>2021-09-05T08:13:02.000Z</time>
      </trkpt>
      <trkpt lat="47.03055" lon="-1.62697">
        <ele>58</ele>
        <time>2021-09-05T08:13:04.000Z</time>
      </trkpt>
      <trkpt lat="47.03051" lon="-1.62679">
        <ele>58</ele>
        <time>2021-09-05T08:13:06.000Z</time>
      </trkpt>
      <trkpt lat="47.03047" lon="-1.62662">
        <ele>58</ele>
        <time>2021-09-05T08:13:08.000Z</time>
      </trkpt>
      <trkpt lat="47.03043" lon="-1.62644">
        <ele>58</ele>
        <time>2021-09-05T08:13:10.000Z</time>
      </trkpt>
      <trkpt lat="47.03039" lon="-1.62626">
        <ele>58</ele>
        <time>2021-09-05T08:13:12.000Z</time>
      </trkpt>
      <trkpt lat="47.03036" lon="-1.62607">
        <ele>58</ele>
        <time>2021-09-05T08:13:14.000Z</time>
      </trkpt>
      <trkpt lat="47.03032" lon="-1.6259">
        <ele>58</ele>
        <time>2021-09-05T08:13:16.000Z</time>
      </trkpt>
      <trkpt lat="47.03029" lon="-1.62572">
        <ele>58</ele>
        <time>2021-09-05T08:13:18.000Z</time>
      </trkpt>
      <trkpt lat="47.03026" lon="-1.62554">
        <ele>57</ele>
        <time>2021-09-05T08:13:20.000Z</time>
      </trkpt>
      <trkpt lat="47.03022" lon="-1.62537">
        <ele>57</ele>
        <time>2021-09-05T08:13:22.000Z</time>
      </trkpt>
      <trkpt lat="47.03017" lon="-1.6252">
        <ele>56</ele>
        <time>2021-09-05T08:13:24.000Z</time>
      </trkpt>
      <trkpt lat="47.03011" lon="-1.62503">
        <ele>56</ele>
        <time>2021-09-05T08:13:26.000Z</time>
      </trkpt>
      <trkpt lat="47.03001" lon="-1.62492">
        <ele>56</ele>
        <time>2021-09-05T08:13:28.000Z</time>
      </trkpt>
      <trkpt lat="47.02994" lon="-1.62478">
        <ele>57</ele>
        <time>2021-09-05T08:13:30.000Z</time>
      </trkpt>
      <trkpt lat="47.02991" lon="-1.6246">
        <ele>57</ele>
        <time>2021-09-05T08:13:32.000Z</time>
      </trkpt>
      <trkpt lat="47.02988" lon="-1.62442">
        <ele>57</ele>
        <time>2021-09-05T08:13:34.000Z</time>
      </trkpt>
      <trkpt lat="47.02982" lon="-1.62428">
        <ele>57</ele>
        <time>2021-09-05T08:13:36.000Z</time>
      </trkpt>
      <trkpt lat="47.02975" lon="-1.62414">
        <ele>57</ele>
        <time>2021-09-05T08:13:38.000Z</time>
      </trkpt>
      <trkpt lat="47.02967" lon="-1.624">
        <ele>57</ele>
        <time>2021-09-05T08:13:40.000Z</time>
      </trkpt>
      <trkpt lat="47.02958" lon="-1.62386">
        <ele>57</ele>
        <time>2021-09-05T08:13:42.000Z</time>
      </trkpt>
      <trkpt lat="47.0295" lon="-1.62373">
        <ele>57</ele>
        <time>2021-09-05T08:13:44.000Z</time>
      </trkpt>
      <trkpt lat="47.02941" lon="-1.6236">
        <ele>57</ele>
        <time>2021-09-05T08:13:46.000Z</time>
      </trkpt>
      <trkpt lat="47.02933" lon="-1.62347">
        <ele>58</ele>
        <time>2021-09-05T08:13:48.000Z</time>
      </trkpt>
      <trkpt lat="47.02925" lon="-1.62334">
        <ele>58</ele>
        <time>2021-09-05T08:13:50.000Z</time>
      </trkpt>
      <trkpt lat="47.02916" lon="-1.6232">
        <ele>59</ele>
        <time>2021-09-05T08:13:52.000Z</time>
      </trkpt>
      <trkpt lat="47.02907" lon="-1.62308">
        <ele>59</ele>
        <time>2021-09-05T08:13:54.000Z</time>
      </trkpt>
      <trkpt lat="47.02898" lon="-1.62294">
        <ele>59</ele>
        <time>2021-09-05T08:13:56.000Z</time>
      </trkpt>
      <trkpt lat="47.0289" lon="-1.62281">
        <ele>59</ele>
        <time>2021-09-05T08:13:58.000Z</time>
      </trkpt>
      <trkpt lat="47.02882" lon="-1.62268">
        <ele>59</ele>
        <time>2021-09-05T08:14:00.000Z</time>
      </trkpt>
      <trkpt lat="47.02873" lon="-1.62255">
        <ele>59</ele>
        <time>2021-09-05T08:14:02.000Z</time>
      </trkpt>
      <trkpt lat="47.02865" lon="-1.62243">
        <ele>60</ele>
        <time>2021-09-05T08:14:04.000Z</time>
      </trkpt>
      <trkpt lat="47.02857" lon="-1.6223">
        <ele>60</ele>
        <time>2021-09-05T08:14:06.000Z</time>
      </trkpt>
      <trkpt lat="47.02849" lon="-1.62217">
        <ele>60</ele>
        <time>2021-09-05T08:14:08.000Z</time>
      </trkpt>
      <trkpt lat="47.02841" lon="-1.62205">
        <ele>60</ele>
        <time>2021-09-05T08:14:10.000Z</time>
      </trkpt>
      <trkpt lat="47.02833" lon="-1.62193">
        <ele>61</ele>
        <time>2021-09-05T08:14:12.000Z</time>
      </trkpt>
      <trkpt lat="47.02825" lon="-1.62181">
        <ele>61</ele>
        <time>2021-09-05T08:14:14.000Z</time>
      </trkpt>
      <trkpt lat="47.02817" lon="-1.62168">
        <ele>61</ele>
        <time>2021-09-05T08:14:16.000Z</time>
      </trkpt>
      <trkpt lat="47.02809" lon="-1.62155">
        <ele>62</ele>
        <time>2021-09-05T08:14:18.000Z</time>
      </trkpt>
      <trkpt lat="47.02801" lon="-1.62142">
        <ele>62</ele>
        <time>2021-09-05T08:14:20.000Z</time>
      </trkpt>
      <trkpt lat="47.02793" lon="-1.62129">
        <ele>62</ele>
        <time>2021-09-05T08:14:22.000Z</time>
      </trkpt>
      <trkpt lat="47.02785" lon="-1.62115">
        <ele>62</ele>
        <time>2021-09-05T08:14:24.000Z</time>
      </trkpt>
      <trkpt lat="47.02778" lon="-1.62102">
        <ele>62</ele>
        <time>2021-09-05T08:14:26.000Z</time>
      </trkpt>
      <trkpt lat="47.02771" lon="-1.62088">
        <ele>63</ele>
        <time>2021-09-05T08:14:28.000Z</time>
      </trkpt>
      <trkpt lat="47.02765" lon="-1.62074">
        <ele>63</ele>
        <time>2021-09-05T08:14:30.000Z</time>
      </trkpt>
      <trkpt lat="47.02758" lon="-1.62059">
        <ele>63</ele>
        <time>2021-09-05T08:14:32.000Z</time>
      </trkpt>
      <trkpt lat="47.02752" lon="-1.62045">
        <ele>63</ele>
        <time>2021-09-05T08:14:34.000Z</time>
      </trkpt>
      <trkpt lat="47.02746" lon="-1.62031">
        <ele>64</ele>
        <time>2021-09-05T08:14:36.000Z</time>
      </trkpt>
      <trkpt lat="47.0274" lon="-1.62015">
        <ele>64</ele>
        <time>2021-09-05T08:14:38.000Z</time>
      </trkpt>
      <trkpt lat="47.02734" lon="-1.62">
        <ele>64</ele>
        <time>2021-09-05T08:14:40.000Z</time>
      </trkpt>
      <trkpt lat="47.02727" lon="-1.61985">
        <ele>64</ele>
        <time>2021-09-05T08:14:42.000Z</time>
      </trkpt>
      <trkpt lat="47.02722" lon="-1.6197">
        <ele>64</ele>
        <time>2021-09-05T08:14:44.000Z</time>
      </trkpt>
      <trkpt lat="47.02715" lon="-1.61954">
        <ele>64</ele>
        <time>2021-09-05T08:14:46.000Z</time>
      </trkpt>
      <trkpt lat="47.02708" lon="-1.61939">
        <ele>64</ele>
        <time>2021-09-05T08:14:48.000Z</time>
      </trkpt>
      <trkpt lat="47.02702" lon="-1.61924">
        <ele>63</ele>
        <time>2021-09-05T08:14:50.000Z</time>
      </trkpt>
      <trkpt lat="47.02696" lon="-1.6191">
        <ele>63</ele>
        <time>2021-09-05T08:14:52.000Z</time>
      </trkpt>
      <trkpt lat="47.02689" lon="-1.61895">
        <ele>63</ele>
        <time>2021-09-05T08:14:54.000Z</time>
      </trkpt>
      <trkpt lat="47.02683" lon="-1.6188">
        <ele>63</ele>
        <time>2021-09-05T08:14:56.000Z</time>
      </trkpt>
      <trkpt lat="47.02678" lon="-1.61866">
        <ele>63</ele>
        <time>2021-09-05T08:14:58.000Z</time>
      </trkpt>
      <trkpt lat="47.02672" lon="-1.61852">
        <ele>64</ele>
        <time>2021-09-05T08:15:00.000Z</time>
      </trkpt>
      <trkpt lat="47.02666" lon="-1.61838">
        <ele>64</ele>
        <time>2021-09-05T08:15:02.000Z</time>
      </trkpt>
      <trkpt lat="47.02661" lon="-1.61825">
        <ele>65</ele>
        <time>2021-09-05T08:15:04.000Z</time>
      </trkpt>
      <trkpt lat="47.02655" lon="-1.61812">
        <ele>65</ele>
        <time>2021-09-05T08:15:06.000Z</time>
      </trkpt>
      <trkpt lat="47.0265" lon="-1.61799">
        <ele>65</ele>
        <time>2021-09-05T08:15:08.000Z</time>
      </trkpt>
      <trkpt lat="47.02645" lon="-1.61786">
        <ele>66</ele>
        <time>2021-09-05T08:15:10.000Z</time>
      </trkpt>
      <trkpt lat="47.02639" lon="-1.61772">
        <ele>66</ele>
        <time>2021-09-05T08:15:12.000Z</time>
      </trkpt>
      <trkpt lat="47.02634" lon="-1.61759">
        <ele>67</ele>
        <time>2021-09-05T08:15:14.000Z</time>
      </trkpt>
      <trkpt lat="47.02628" lon="-1.61745">
        <ele>67</ele>
        <time>2021-09-05T08:15:16.000Z</time>
      </trkpt>
      <trkpt lat="47.02622" lon="-1.61731">
        <ele>67</ele>
        <time>2021-09-05T08:15:18.000Z</time>
      </trkpt>
      <trkpt lat="47.02617" lon="-1.61718">
        <ele>68</ele>
        <time>2021-09-05T08:15:20.000Z</time>
      </trkpt>
      <trkpt lat="47.02612" lon="-1.61704">
        <ele>68</ele>
        <time>2021-09-05T08:15:22.000Z</time>
      </trkpt>
      <trkpt lat="47.02607" lon="-1.61691">
        <ele>68</ele>
        <time>2021-09-05T08:15:24.000Z</time>
      </trkpt>
      <trkpt lat="47.02601" lon="-1.61679">
        <ele>69</ele>
        <time>2021-09-05T08:15:26.000Z</time>
      </trkpt>
      <trkpt lat="47.02595" lon="-1.61665">
        <ele>69</ele>
        <time>2021-09-05T08:15:28.000Z</time>
      </trkpt>
      <trkpt lat="47.0259" lon="-1.61652">
        <ele>69</ele>
        <time>2021-09-05T08:15:30.000Z</time>
      </trkpt>
      <trkpt lat="47.02585" lon="-1.61639">
        <ele>69</ele>
        <time>2021-09-05T08:15:32.000Z</time>
      </trkpt>
      <trkpt lat="47.02579" lon="-1.61624">
        <ele>69</ele>
        <time>2021-09-05T08:15:34.000Z</time>
      </trkpt>
      <trkpt lat="47.02572" lon="-1.61609">
        <ele>68</ele>
        <time>2021-09-05T08:15:36.000Z</time>
      </trkpt>
      <trkpt lat="47.02566" lon="-1.61592">
        <ele>68</ele>
        <time>2021-09-05T08:15:38.000Z</time>
      </trkpt>
      <trkpt lat="47.02559" lon="-1.61575">
        <ele>67</ele>
        <time>2021-09-05T08:15:40.000Z</time>
      </trkpt>
      <trkpt lat="47.02552" lon="-1.61559">
        <ele>67</ele>
        <time>2021-09-05T08:15:42.000Z</time>
      </trkpt>
      <trkpt lat="47.02545" lon="-1.61543">
        <ele>67</ele>
        <time>2021-09-05T08:15:44.000Z</time>
      </trkpt>
      <trkpt lat="47.02538" lon="-1.61526">
        <ele>67</ele>
        <time>2021-09-05T08:15:46.000Z</time>
      </trkpt>
      <trkpt lat="47.02531" lon="-1.61511">
        <ele>67</ele>
        <time>2021-09-05T08:15:48.000Z</time>
      </trkpt>
      <trkpt lat="47.02525" lon="-1.61495">
        <ele>67</ele>
        <time>2021-09-05T08:15:50.000Z</time>
      </trkpt>
      <trkpt lat="47.02518" lon="-1.61481">
        <ele>67</ele>
        <time>2021-09-05T08:15:52.000Z</time>
      </trkpt>
      <trkpt lat="47.02512" lon="-1.61466">
        <ele>67</ele>
        <time>2021-09-05T08:15:54.000Z</time>
      </trkpt>
      <trkpt lat="47.02505" lon="-1.61449">
        <ele>66</ele>
        <time>2021-09-05T08:15:56.000Z</time>
      </trkpt>
      <trkpt lat="47.02498" lon="-1.61431">
        <ele>65</ele>
        <time>2021-09-05T08:15:58.000Z</time>
      </trkpt>
      <trkpt lat="47.0249" lon="-1.61412">
        <ele>64</ele>
        <time>2021-09-05T08:16:00.000Z</time>
      </trkpt>
      <trkpt lat="47.02482" lon="-1.61393">
        <ele>64</ele>
        <time>2021-09-05T08:16:02.000Z</time>
      </trkpt>
      <trkpt lat="47.02475" lon="-1.61374">
        <ele>63</ele>
        <time>2021-09-05T08:16:04.000Z</time>
      </trkpt>
      <trkpt lat="47.02468" lon="-1.61355">
        <ele>63</ele>
        <time>2021-09-05T08:16:06.000Z</time>
      </trkpt>
      <trkpt lat="47.02461" lon="-1.61337">
        <ele>63</ele>
        <time>2021-09-05T08:16:08.000Z</time>
      </trkpt>
      <trkpt lat="47.02453" lon="-1.61319">
        <ele>64</ele>
        <time>2021-09-05T08:16:10.000Z</time>
      </trkpt>
      <trkpt lat="47.02445" lon="-1.61302">
        <ele>64</ele>
        <time>2021-09-05T08:16:12.000Z</time>
      </trkpt>
      <trkpt lat="47.02438" lon="-1.61284">
        <ele>63</ele>
        <time>2021-09-05T08:16:14.000Z</time>
      </trkpt>
      <trkpt lat="47.02431" lon="-1.61267">
        <ele>63</ele>
        <time>2021-09-05T08:16:16.000Z</time>
      </trkpt>
      <trkpt lat="47.02424" lon="-1.61249">
        <ele>63</ele>
        <time>2021-09-05T08:16:18.000Z</time>
      </trkpt>
      <trkpt lat="47.02417" lon="-1.61232">
        <ele>63</ele>
        <time>2021-09-05T08:16:20.000Z</time>
      </trkpt>
      <trkpt lat="47.0241" lon="-1.61216">
        <ele>64</ele>
        <time>2021-09-05T08:16:22.000Z</time>
      </trkpt>
      <trkpt lat="47.02403" lon="-1.612">
        <ele>64</ele>
        <time>2021-09-05T08:16:24.000Z</time>
      </trkpt>
      <trkpt lat="47.02398" lon="-1.61185">
        <ele>65</ele>
        <time>2021-09-05T08:16:26.000Z</time>
      </trkpt>
      <trkpt lat="47.02392" lon="-1.6117">
        <ele>65</ele>
        <time>2021-09-05T08:16:28.000Z</time>
      </trkpt>
      <trkpt lat="47.02386" lon="-1.61155">
        <ele>66</ele>
        <time>2021-09-05T08:16:30.000Z</time>
      </trkpt>
      <trkpt lat="47.0238" lon="-1.6114">
        <ele>67</ele>
        <time>2021-09-05T08:16:32.000Z</time>
      </trkpt>
      <trkpt lat="47.02373" lon="-1.61125">
        <ele>67</ele>
        <time>2021-09-05T08:16:34.000Z</time>
      </trkpt>
      <trkpt lat="47.02366" lon="-1.6111">
        <ele>67</ele>
        <time>2021-09-05T08:16:36.000Z</time>
      </trkpt>
      <trkpt lat="47.0236" lon="-1.61095">
        <ele>67</ele>
        <time>2021-09-05T08:16:38.000Z</time>
      </trkpt>
      <trkpt lat="47.02354" lon="-1.61079">
        <ele>67</ele>
        <time>2021-09-05T08:16:40.000Z</time>
      </trkpt>
      <trkpt lat="47.02348" lon="-1.61064">
        <ele>67</ele>
        <time>2021-09-05T08:16:42.000Z</time>
      </trkpt>
      <trkpt lat="47.02341" lon="-1.61048">
        <ele>67</ele>
        <time>2021-09-05T08:16:44.000Z</time>
      </trkpt>
      <trkpt lat="47.02335" lon="-1.61033">
        <ele>67</ele>
        <time>2021-09-05T08:16:46.000Z</time>
      </trkpt>
      <trkpt lat="47.02329" lon="-1.61018">
        <ele>67</ele>
        <time>2021-09-05T08:16:48.000Z</time>
      </trkpt>
      <trkpt lat="47.02323" lon="-1.61003">
        <ele>67</ele>
        <time>2021-09-05T08:16:50.000Z</time>
      </trkpt>
      <trkpt lat="47.02317" lon="-1.60988">
        <ele>68</ele>
        <time>2021-09-05T08:16:52.000Z</time>
      </trkpt>
      <trkpt lat="47.0231" lon="-1.60973">
        <ele>68</ele>
        <time>2021-09-05T08:16:54.000Z</time>
      </trkpt>
      <trkpt lat="47.02303" lon="-1.60957">
        <ele>68</ele>
        <time>2021-09-05T08:16:56.000Z</time>
      </trkpt>
      <trkpt lat="47.02298" lon="-1.60942">
        <ele>68</ele>
        <time>2021-09-05T08:16:58.000Z</time>
      </trkpt>
      <trkpt lat="47.02292" lon="-1.60926">
        <ele>68</ele>
        <time>2021-09-05T08:17:00.000Z</time>
      </trkpt>
      <trkpt lat="47.02285" lon="-1.6091">
        <ele>68</ele>
        <time>2021-09-05T08:17:02.000Z</time>
      </trkpt>
      <trkpt lat="47.02279" lon="-1.60894">
        <ele>68</ele>
        <time>2021-09-05T08:17:04.000Z</time>
      </trkpt>
      <trkpt lat="47.02273" lon="-1.60879">
        <ele>68</ele>
        <time>2021-09-05T08:17:06.000Z</time>
      </trkpt>
      <trkpt lat="47.02267" lon="-1.60864">
        <ele>68</ele>
        <time>2021-09-05T08:17:08.000Z</time>
      </trkpt>
      <trkpt lat="47.02261" lon="-1.60849">
        <ele>68</ele>
        <time>2021-09-05T08:17:10.000Z</time>
      </trkpt>
      <trkpt lat="47.02255" lon="-1.60834">
        <ele>69</ele>
        <time>2021-09-05T08:17:12.000Z</time>
      </trkpt>
      <trkpt lat="47.02248" lon="-1.60819">
        <ele>69</ele>
        <time>2021-09-05T08:17:14.000Z</time>
      </trkpt>
      <trkpt lat="47.02242" lon="-1.60804">
        <ele>69</ele>
        <time>2021-09-05T08:17:16.000Z</time>
      </trkpt>
      <trkpt lat="47.02235" lon="-1.60788">
        <ele>68</ele>
        <time>2021-09-05T08:17:18.000Z</time>
      </trkpt>
      <trkpt lat="47.02228" lon="-1.60772">
        <ele>68</ele>
        <time>2021-09-05T08:17:20.000Z</time>
      </trkpt>
      <trkpt lat="47.02221" lon="-1.60756">
        <ele>68</ele>
        <time>2021-09-05T08:17:22.000Z</time>
      </trkpt>
      <trkpt lat="47.02214" lon="-1.6074">
        <ele>69</ele>
        <time>2021-09-05T08:17:24.000Z</time>
      </trkpt>
      <trkpt lat="47.02208" lon="-1.60724">
        <ele>69</ele>
        <time>2021-09-05T08:17:26.000Z</time>
      </trkpt>
      <trkpt lat="47.02201" lon="-1.60708">
        <ele>70</ele>
        <time>2021-09-05T08:17:28.000Z</time>
      </trkpt>
      <trkpt lat="47.02195" lon="-1.60691">
        <ele>70</ele>
        <time>2021-09-05T08:17:30.000Z</time>
      </trkpt>
      <trkpt lat="47.02188" lon="-1.60673">
        <ele>69</ele>
        <time>2021-09-05T08:17:32.000Z</time>
      </trkpt>
      <trkpt lat="47.02182" lon="-1.60657">
        <ele>69</ele>
        <time>2021-09-05T08:17:34.000Z</time>
      </trkpt>
      <trkpt lat="47.02174" lon="-1.6064">
        <ele>69</ele>
        <time>2021-09-05T08:17:36.000Z</time>
      </trkpt>
      <trkpt lat="47.02168" lon="-1.60623">
        <ele>69</ele>
        <time>2021-09-05T08:17:38.000Z</time>
      </trkpt>
      <trkpt lat="47.02161" lon="-1.60607">
        <ele>69</ele>
        <time>2021-09-05T08:17:40.000Z</time>
      </trkpt>
      <trkpt lat="47.02155" lon="-1.60591">
        <ele>69</ele>
        <time>2021-09-05T08:17:42.000Z</time>
      </trkpt>
      <trkpt lat="47.02148" lon="-1.60576">
        <ele>69</ele>
        <time>2021-09-05T08:17:44.000Z</time>
      </trkpt>
      <trkpt lat="47.02142" lon="-1.6056">
        <ele>69</ele>
        <time>2021-09-05T08:17:46.000Z</time>
      </trkpt>
      <trkpt lat="47.02135" lon="-1.60544">
        <ele>69</ele>
        <time>2021-09-05T08:17:48.000Z</time>
      </trkpt>
      <trkpt lat="47.02128" lon="-1.60529">
        <ele>69</ele>
        <time>2021-09-05T08:17:50.000Z</time>
      </trkpt>
      <trkpt lat="47.02122" lon="-1.60513">
        <ele>68</ele>
        <time>2021-09-05T08:17:52.000Z</time>
      </trkpt>
      <trkpt lat="47.02116" lon="-1.60498">
        <ele>69</ele>
        <time>2021-09-05T08:17:54.000Z</time>
      </trkpt>
      <trkpt lat="47.02109" lon="-1.60483">
        <ele>69</ele>
        <time>2021-09-05T08:17:56.000Z</time>
      </trkpt>
      <trkpt lat="47.02103" lon="-1.60467">
        <ele>69</ele>
        <time>2021-09-05T08:17:58.000Z</time>
      </trkpt>
      <trkpt lat="47.02097" lon="-1.60452">
        <ele>70</ele>
        <time>2021-09-05T08:18:00.000Z</time>
      </trkpt>
      <trkpt lat="47.02091" lon="-1.60437">
        <ele>70</ele>
        <time>2021-09-05T08:18:02.000Z</time>
      </trkpt>
      <trkpt lat="47.02084" lon="-1.60421">
        <ele>70</ele>
        <time>2021-09-05T08:18:04.000Z</time>
      </trkpt>
      <trkpt lat="47.02078" lon="-1.60406">
        <ele>70</ele>
        <time>2021-09-05T08:18:06.000Z</time>
      </trkpt>
      <trkpt lat="47.02072" lon="-1.60391">
        <ele>69</ele>
        <time>2021-09-05T08:18:08.000Z</time>
      </trkpt>
      <trkpt lat="47.02065" lon="-1.60375">
        <ele>69</ele>
        <time>2021-09-05T08:18:10.000Z</time>
      </trkpt>
      <trkpt lat="47.02059" lon="-1.6036">
        <ele>69</ele>
        <time>2021-09-05T08:18:12.000Z</time>
      </trkpt>
      <trkpt lat="47.02053" lon="-1.60344">
        <ele>69</ele>
        <time>2021-09-05T08:18:14.000Z</time>
      </trkpt>
      <trkpt lat="47.02046" lon="-1.6033">
        <ele>70</ele>
        <time>2021-09-05T08:18:16.000Z</time>
      </trkpt>
      <trkpt lat="47.0204" lon="-1.60314">
        <ele>69</ele>
        <time>2021-09-05T08:18:18.000Z</time>
      </trkpt>
      <trkpt lat="47.02034" lon="-1.60298">
        <ele>69</ele>
        <time>2021-09-05T08:18:20.000Z</time>
      </trkpt>
      <trkpt lat="47.02027" lon="-1.60282">
        <ele>69</ele>
        <time>2021-09-05T08:18:22.000Z</time>
      </trkpt>
      <trkpt lat="47.02021" lon="-1.60266">
        <ele>69</ele>
        <time>2021-09-05T08:18:24.000Z</time>
      </trkpt>
      <trkpt lat="47.02014" lon="-1.6025">
        <ele>69</ele>
        <time>2021-09-05T08:18:26.000Z</time>
      </trkpt>
      <trkpt lat="47.02007" lon="-1.60234">
        <ele>68</ele>
        <time>2021-09-05T08:18:28.000Z</time>
      </trkpt>
      <trkpt lat="47.02001" lon="-1.60218">
        <ele>68</ele>
        <time>2021-09-05T08:18:30.000Z</time>
      </trkpt>
      <trkpt lat="47.01994" lon="-1.60202">
        <ele>68</ele>
        <time>2021-09-05T08:18:32.000Z</time>
      </trkpt>
      <trkpt lat="47.01988" lon="-1.60186">
        <ele>68</ele>
        <time>2021-09-05T08:18:34.000Z</time>
      </trkpt>
      <trkpt lat="47.01981" lon="-1.60169">
        <ele>68</ele>
        <time>2021-09-05T08:18:36.000Z</time>
      </trkpt>
      <trkpt lat="47.01974" lon="-1.60154">
        <ele>68</ele>
        <time>2021-09-05T08:18:38.000Z</time>
      </trkpt>
      <trkpt lat="47.01968" lon="-1.60137">
        <ele>68</ele>
        <time>2021-09-05T08:18:40.000Z</time>
      </trkpt>
      <trkpt lat="47.01961" lon="-1.60121">
        <ele>68</ele>
        <time>2021-09-05T08:18:42.000Z</time>
      </trkpt>
      <trkpt lat="47.01954" lon="-1.60105">
        <ele>68</ele>
        <time>2021-09-05T08:18:44.000Z</time>
      </trkpt>
      <trkpt lat="47.01948" lon="-1.60088">
        <ele>67</ele>
        <time>2021-09-05T08:18:46.000Z</time>
      </trkpt>
      <trkpt lat="47.01941" lon="-1.60072">
        <ele>67</ele>
        <time>2021-09-05T08:18:48.000Z</time>
      </trkpt>
      <trkpt lat="47.01934" lon="-1.60055">
        <ele>67</ele>
        <time>2021-09-05T08:18:50.000Z</time>
      </trkpt>
      <trkpt lat="47.01928" lon="-1.60038">
        <ele>67</ele>
        <time>2021-09-05T08:18:52.000Z</time>
      </trkpt>
      <trkpt lat="47.01921" lon="-1.60022">
        <ele>67</ele>
        <time>2021-09-05T08:18:54.000Z</time>
      </trkpt>
      <trkpt lat="47.01915" lon="-1.60006">
        <ele>67</ele>
        <time>2021-09-05T08:18:56.000Z</time>
      </trkpt>
      <trkpt lat="47.01908" lon="-1.5999">
        <ele>67</ele>
        <time>2021-09-05T08:18:58.000Z</time>
      </trkpt>
      <trkpt lat="47.01901" lon="-1.59973">
        <ele>66</ele>
        <time>2021-09-05T08:19:00.000Z</time>
      </trkpt>
      <trkpt lat="47.01894" lon="-1.59957">
        <ele>66</ele>
        <time>2021-09-05T08:19:02.000Z</time>
      </trkpt>
      <trkpt lat="47.01888" lon="-1.5994">
        <ele>66</ele>
        <time>2021-09-05T08:19:04.000Z</time>
      </trkpt>
      <trkpt lat="47.01881" lon="-1.59924">
        <ele>66</ele>
        <time>2021-09-05T08:19:06.000Z</time>
      </trkpt>
      <trkpt lat="47.01874" lon="-1.59908">
        <ele>66</ele>
        <time>2021-09-05T08:19:08.000Z</time>
      </trkpt>
      <trkpt lat="47.01867" lon="-1.59892">
        <ele>66</ele>
        <time>2021-09-05T08:19:10.000Z</time>
      </trkpt>
      <trkpt lat="47.01861" lon="-1.59877">
        <ele>66</ele>
        <time>2021-09-05T08:19:12.000Z</time>
      </trkpt>
      <trkpt lat="47.01855" lon="-1.59861">
        <ele>66</ele>
        <time>2021-09-05T08:19:14.000Z</time>
      </trkpt>
      <trkpt lat="47.01849" lon="-1.59846">
        <ele>66</ele>
        <time>2021-09-05T08:19:16.000Z</time>
      </trkpt>
      <trkpt lat="47.01843" lon="-1.59831">
        <ele>67</ele>
        <time>2021-09-05T08:19:18.000Z</time>
      </trkpt>
      <trkpt lat="47.01836" lon="-1.59816">
        <ele>67</ele>
        <time>2021-09-05T08:19:20.000Z</time>
      </trkpt>
      <trkpt lat="47.0183" lon="-1.59799">
        <ele>67</ele>
        <time>2021-09-05T08:19:22.000Z</time>
      </trkpt>
      <trkpt lat="47.01823" lon="-1.59783">
        <ele>67</ele>
        <time>2021-09-05T08:19:24.000Z</time>
      </trkpt>
      <trkpt lat="47.01817" lon="-1.59767">
        <ele>67</ele>
        <time>2021-09-05T08:19:26.000Z</time>
      </trkpt>
      <trkpt lat="47.0181" lon="-1.59751">
        <ele>68</ele>
        <time>2021-09-05T08:19:28.000Z</time>
      </trkpt>
      <trkpt lat="47.01804" lon="-1.59735">
        <ele>68</ele>
        <time>2021-09-05T08:19:30.000Z</time>
      </trkpt>
      <trkpt lat="47.01797" lon="-1.59719">
        <ele>68</ele>
        <time>2021-09-05T08:19:32.000Z</time>
      </trkpt>
      <trkpt lat="47.01791" lon="-1.59703">
        <ele>68</ele>
        <time>2021-09-05T08:19:34.000Z</time>
      </trkpt>
      <trkpt lat="47.01785" lon="-1.59688">
        <ele>68</ele>
        <time>2021-09-05T08:19:36.000Z</time>
      </trkpt>
      <trkpt lat="47.01778" lon="-1.59672">
        <ele>68</ele>
        <time>2021-09-05T08:19:38.000Z</time>
      </trkpt>
      <trkpt lat="47.01771" lon="-1.59655">
        <ele>67</ele>
        <time>2021-09-05T08:19:40.000Z</time>
      </trkpt>
      <trkpt lat="47.01764" lon="-1.59639">
        <ele>67</ele>
        <time>2021-09-05T08:19:42.000Z</time>
      </trkpt>
      <trkpt lat="47.01758" lon="-1.59622">
        <ele>67</ele>
        <time>2021-09-05T08:19:44.000Z</time>
      </trkpt>
      <trkpt lat="47.01752" lon="-1.59606">
        <ele>67</ele>
        <time>2021-09-05T08:19:46.000Z</time>
      </trkpt>
      <trkpt lat="47.01745" lon="-1.59591">
        <ele>66</ele>
        <time>2021-09-05T08:19:48.000Z</time>
      </trkpt>
      <trkpt lat="47.01738" lon="-1.59575">
        <ele>66</ele>
        <time>2021-09-05T08:19:50.000Z</time>
      </trkpt>
      <trkpt lat="47.01731" lon="-1.59558">
        <ele>67</ele>
        <time>2021-09-05T08:19:52.000Z</time>
      </trkpt>
      <trkpt lat="47.01724" lon="-1.59541">
        <ele>67</ele>
        <time>2021-09-05T08:19:54.000Z</time>
      </trkpt>
      <trkpt lat="47.01717" lon="-1.59524">
        <ele>66</ele>
        <time>2021-09-05T08:19:56.000Z</time>
      </trkpt>
      <trkpt lat="47.0171" lon="-1.59506">
        <ele>66</ele>
        <time>2021-09-05T08:19:58.000Z</time>
      </trkpt>
      <trkpt lat="47.01703" lon="-1.59488">
        <ele>66</ele>
        <time>2021-09-05T08:20:00.000Z</time>
      </trkpt>
      <trkpt lat="47.01696" lon="-1.5947">
        <ele>66</ele>
        <time>2021-09-05T08:20:02.000Z</time>
      </trkpt>
      <trkpt lat="47.01689" lon="-1.59453">
        <ele>66</ele>
        <time>2021-09-05T08:20:04.000Z</time>
      </trkpt>
      <trkpt lat="47.01681" lon="-1.59435">
        <ele>65</ele>
        <time>2021-09-05T08:20:06.000Z</time>
      </trkpt>
      <trkpt lat="47.01674" lon="-1.59416">
        <ele>65</ele>
        <time>2021-09-05T08:20:08.000Z</time>
      </trkpt>
      <trkpt lat="47.01667" lon="-1.59398">
        <ele>65</ele>
        <time>2021-09-05T08:20:10.000Z</time>
      </trkpt>
      <trkpt lat="47.01659" lon="-1.5938">
        <ele>64</ele>
        <time>2021-09-05T08:20:12.000Z</time>
      </trkpt>
      <trkpt lat="47.01651" lon="-1.59363">
        <ele>64</ele>
        <time>2021-09-05T08:20:14.000Z</time>
      </trkpt>
      <trkpt lat="47.01644" lon="-1.59344">
        <ele>64</ele>
        <time>2021-09-05T08:20:16.000Z</time>
      </trkpt>
      <trkpt lat="47.01638" lon="-1.59324">
        <ele>63</ele>
        <time>2021-09-05T08:20:18.000Z</time>
      </trkpt>
      <trkpt lat="47.01632" lon="-1.59304">
        <ele>63</ele>
        <time>2021-09-05T08:20:20.000Z</time>
      </trkpt>
      <trkpt lat="47.01627" lon="-1.59285">
        <ele>62</ele>
        <time>2021-09-05T08:20:22.000Z</time>
      </trkpt>
      <trkpt lat="47.01622" lon="-1.59264">
        <ele>62</ele>
        <time>2021-09-05T08:20:24.000Z</time>
      </trkpt>
      <trkpt lat="47.01618" lon="-1.59244">
        <ele>62</ele>
        <time>2021-09-05T08:20:26.000Z</time>
      </trkpt>
      <trkpt lat="47.01615" lon="-1.59222">
        <ele>63</ele>
        <time>2021-09-05T08:20:28.000Z</time>
      </trkpt>
      <trkpt lat="47.01612" lon="-1.59201">
        <ele>62</ele>
        <time>2021-09-05T08:20:30.000Z</time>
      </trkpt>
      <trkpt lat="47.0161" lon="-1.59179">
        <ele>62</ele>
        <time>2021-09-05T08:20:32.000Z</time>
      </trkpt>
      <trkpt lat="47.01608" lon="-1.59157">
        <ele>62</ele>
        <time>2021-09-05T08:20:34.000Z</time>
      </trkpt>
      <trkpt lat="47.01606" lon="-1.59135">
        <ele>62</ele>
        <time>2021-09-05T08:20:36.000Z</time>
      </trkpt>
      <trkpt lat="47.01605" lon="-1.59113">
        <ele>61</ele>
        <time>2021-09-05T08:20:38.000Z</time>
      </trkpt>
      <trkpt lat="47.01604" lon="-1.59091">
        <ele>60</ele>
        <time>2021-09-05T08:20:40.000Z</time>
      </trkpt>
      <trkpt lat="47.01603" lon="-1.59069">
        <ele>60</ele>
        <time>2021-09-05T08:20:42.000Z</time>
      </trkpt>
      <trkpt lat="47.01602" lon="-1.59048">
        <ele>60</ele>
        <time>2021-09-05T08:20:44.000Z</time>
      </trkpt>
      <trkpt lat="47.016" lon="-1.59026">
        <ele>60</ele>
        <time>2021-09-05T08:20:46.000Z</time>
      </trkpt>
      <trkpt lat="47.01599" lon="-1.59006">
        <ele>60</ele>
        <time>2021-09-05T08:20:48.000Z</time>
      </trkpt>
      <trkpt lat="47.01598" lon="-1.58987">
        <ele>60</ele>
        <time>2021-09-05T08:20:50.000Z</time>
      </trkpt>
      <trkpt lat="47.01597" lon="-1.58968">
        <ele>60</ele>
        <time>2021-09-05T08:20:52.000Z</time>
      </trkpt>
      <trkpt lat="47.01596" lon="-1.58947">
        <ele>60</ele>
        <time>2021-09-05T08:20:54.000Z</time>
      </trkpt>
      <trkpt lat="47.01594" lon="-1.58927">
        <ele>60</ele>
        <time>2021-09-05T08:20:56.000Z</time>
      </trkpt>
      <trkpt lat="47.01593" lon="-1.58908">
        <ele>60</ele>
        <time>2021-09-05T08:20:58.000Z</time>
      </trkpt>
      <trkpt lat="47.01591" lon="-1.58888">
        <ele>59</ele>
        <time>2021-09-05T08:21:00.000Z</time>
      </trkpt>
      <trkpt lat="47.01589" lon="-1.58868">
        <ele>60</ele>
        <time>2021-09-05T08:21:02.000Z</time>
      </trkpt>
      <trkpt lat="47.01586" lon="-1.5885">
        <ele>60</ele>
        <time>2021-09-05T08:21:04.000Z</time>
      </trkpt>
      <trkpt lat="47.01582" lon="-1.58834">
        <ele>61</ele>
        <time>2021-09-05T08:21:06.000Z</time>
      </trkpt>
      <trkpt lat="47.01576" lon="-1.58819">
        <ele>61</ele>
        <time>2021-09-05T08:21:08.000Z</time>
      </trkpt>
      <trkpt lat="47.01569" lon="-1.58805">
        <ele>61</ele>
        <time>2021-09-05T08:21:10.000Z</time>
      </trkpt>
      <trkpt lat="47.01562" lon="-1.58792">
        <ele>61</ele>
        <time>2021-09-05T08:21:12.000Z</time>
      </trkpt>
      <trkpt lat="47.01552" lon="-1.5878">
        <ele>61</ele>
        <time>2021-09-05T08:21:14.000Z</time>
      </trkpt>
      <trkpt lat="47.01542" lon="-1.58768">
        <ele>62</ele>
        <time>2021-09-05T08:21:16.000Z</time>
      </trkpt>
      <trkpt lat="47.01531" lon="-1.58757">
        <ele>62</ele>
        <time>2021-09-05T08:21:18.000Z</time>
      </trkpt>
      <trkpt lat="47.0152" lon="-1.58746">
        <ele>62</ele>
        <time>2021-09-05T08:21:20.000Z</time>
      </trkpt>
      <trkpt lat="47.0151" lon="-1.58736">
        <ele>63</ele>
        <time>2021-09-05T08:21:22.000Z</time>
      </trkpt>
      <trkpt lat="47.01499" lon="-1.58725">
        <ele>63</ele>
        <time>2021-09-05T08:21:24.000Z</time>
      </trkpt>
      <trkpt lat="47.01488" lon="-1.58714">
        <ele>63</ele>
        <time>2021-09-05T08:21:26.000Z</time>
      </trkpt>
      <trkpt lat="47.01478" lon="-1.58704">
        <ele>63</ele>
        <time>2021-09-05T08:21:28.000Z</time>
      </trkpt>
      <trkpt lat="47.01468" lon="-1.58693">
        <ele>64</ele>
        <time>2021-09-05T08:21:30.000Z</time>
      </trkpt>
      <trkpt lat="47.01458" lon="-1.58682">
        <ele>64</ele>
        <time>2021-09-05T08:21:32.000Z</time>
      </trkpt>
      <trkpt lat="47.01448" lon="-1.58671">
        <ele>64</ele>
        <time>2021-09-05T08:21:34.000Z</time>
      </trkpt>
      <trkpt lat="47.01437" lon="-1.5866">
        <ele>64</ele>
        <time>2021-09-05T08:21:36.000Z</time>
      </trkpt>
      <trkpt lat="47.01427" lon="-1.58649">
        <ele>64</ele>
        <time>2021-09-05T08:21:38.000Z</time>
      </trkpt>
      <trkpt lat="47.01416" lon="-1.58638">
        <ele>64</ele>
        <time>2021-09-05T08:21:40.000Z</time>
      </trkpt>
      <trkpt lat="47.01406" lon="-1.58627">
        <ele>64</ele>
        <time>2021-09-05T08:21:42.000Z</time>
      </trkpt>
      <trkpt lat="47.01398" lon="-1.5862">
        <ele>64</ele>
        <time>2021-09-05T08:21:44.000Z</time>
      </trkpt>
      <trkpt lat="47.01389" lon="-1.58607">
        <ele>64</ele>
        <time>2021-09-05T08:21:47.000Z</time>
      </trkpt>
      <trkpt lat="47.0138" lon="-1.58601">
        <ele>64</ele>
        <time>2021-09-05T08:21:49.000Z</time>
      </trkpt>
      <trkpt lat="47.01369" lon="-1.58594">
        <ele>64</ele>
        <time>2021-09-05T08:21:51.000Z</time>
      </trkpt>
      <trkpt lat="47.01358" lon="-1.58587">
        <ele>64</ele>
        <time>2021-09-05T08:21:53.000Z</time>
      </trkpt>
      <trkpt lat="47.01346" lon="-1.58581">
        <ele>64</ele>
        <time>2021-09-05T08:21:55.000Z</time>
      </trkpt>
      <trkpt lat="47.01335" lon="-1.58576">
        <ele>64</ele>
        <time>2021-09-05T08:21:57.000Z</time>
      </trkpt>
      <trkpt lat="47.01323" lon="-1.58571">
        <ele>64</ele>
        <time>2021-09-05T08:21:59.000Z</time>
      </trkpt>
      <trkpt lat="47.01312" lon="-1.58567">
        <ele>64</ele>
        <time>2021-09-05T08:22:01.000Z</time>
      </trkpt>
      <trkpt lat="47.01301" lon="-1.58562">
        <ele>65</ele>
        <time>2021-09-05T08:22:03.000Z</time>
      </trkpt>
      <trkpt lat="47.0129" lon="-1.58559">
        <ele>65</ele>
        <time>2021-09-05T08:22:05.000Z</time>
      </trkpt>
      <trkpt lat="47.01279" lon="-1.58556">
        <ele>65</ele>
        <time>2021-09-05T08:22:07.000Z</time>
      </trkpt>
      <trkpt lat="47.01267" lon="-1.58554">
        <ele>66</ele>
        <time>2021-09-05T08:22:09.000Z</time>
      </trkpt>
      <trkpt lat="47.01255" lon="-1.58552">
        <ele>66</ele>
        <time>2021-09-05T08:22:11.000Z</time>
      </trkpt>
      <trkpt lat="47.01242" lon="-1.58549">
        <ele>66</ele>
        <time>2021-09-05T08:22:13.000Z</time>
      </trkpt>
      <trkpt lat="47.0123" lon="-1.5855">
        <ele>66</ele>
        <time>2021-09-05T08:22:15.000Z</time>
      </trkpt>
      <trkpt lat="47.01217" lon="-1.58548">
        <ele>67</ele>
        <time>2021-09-05T08:22:17.000Z</time>
      </trkpt>
      <trkpt lat="47.01205" lon="-1.58545">
        <ele>67</ele>
        <time>2021-09-05T08:22:19.000Z</time>
      </trkpt>
      <trkpt lat="47.01192" lon="-1.58543">
        <ele>67</ele>
        <time>2021-09-05T08:22:21.000Z</time>
      </trkpt>
      <trkpt lat="47.01179" lon="-1.5854">
        <ele>66</ele>
        <time>2021-09-05T08:22:23.000Z</time>
      </trkpt>
      <trkpt lat="47.01166" lon="-1.58538">
        <ele>66</ele>
        <time>2021-09-05T08:22:25.000Z</time>
      </trkpt>
      <trkpt lat="47.01153" lon="-1.58535">
        <ele>66</ele>
        <time>2021-09-05T08:22:27.000Z</time>
      </trkpt>
      <trkpt lat="47.0114" lon="-1.5853">
        <ele>65</ele>
        <time>2021-09-05T08:22:29.000Z</time>
      </trkpt>
      <trkpt lat="47.01127" lon="-1.58524">
        <ele>65</ele>
        <time>2021-09-05T08:22:31.000Z</time>
      </trkpt>
      <trkpt lat="47.01115" lon="-1.58514">
        <ele>66</ele>
        <time>2021-09-05T08:22:33.000Z</time>
      </trkpt>
      <trkpt lat="47.01105" lon="-1.58505">
        <ele>66</ele>
        <time>2021-09-05T08:22:35.000Z</time>
      </trkpt>
      <trkpt lat="47.01095" lon="-1.58493">
        <ele>66</ele>
        <time>2021-09-05T08:22:37.000Z</time>
      </trkpt>
      <trkpt lat="47.01086" lon="-1.5848">
        <ele>66</ele>
        <time>2021-09-05T08:22:39.000Z</time>
      </trkpt>
      <trkpt lat="47.01079" lon="-1.58466">
        <ele>66</ele>
        <time>2021-09-05T08:22:41.000Z</time>
      </trkpt>
      <trkpt lat="47.01071" lon="-1.58452">
        <ele>67</ele>
        <time>2021-09-05T08:22:43.000Z</time>
      </trkpt>
      <trkpt lat="47.01064" lon="-1.58438">
        <ele>68</ele>
        <time>2021-09-05T08:22:45.000Z</time>
      </trkpt>
      <trkpt lat="47.01057" lon="-1.58424">
        <ele>69</ele>
        <time>2021-09-05T08:22:47.000Z</time>
      </trkpt>
      <trkpt lat="47.01051" lon="-1.58409">
        <ele>69</ele>
        <time>2021-09-05T08:22:49.000Z</time>
      </trkpt>
      <trkpt lat="47.01045" lon="-1.58395">
        <ele>70</ele>
        <time>2021-09-05T08:22:51.000Z</time>
      </trkpt>
      <trkpt lat="47.01038" lon="-1.58381">
        <ele>70</ele>
        <time>2021-09-05T08:22:53.000Z</time>
      </trkpt>
      <trkpt lat="47.01032" lon="-1.58367">
        <ele>70</ele>
        <time>2021-09-05T08:22:55.000Z</time>
      </trkpt>
      <trkpt lat="47.01026" lon="-1.58353">
        <ele>71</ele>
        <time>2021-09-05T08:22:57.000Z</time>
      </trkpt>
      <trkpt lat="47.01021" lon="-1.58339">
        <ele>71</ele>
        <time>2021-09-05T08:23:00.000Z</time>
      </trkpt>
      <trkpt lat="47.01021" lon="-1.58325">
        <ele>71</ele>
        <time>2021-09-05T08:23:04.000Z</time>
      </trkpt>
      <trkpt lat="47.01028" lon="-1.58315">
        <ele>71</ele>
        <time>2021-09-05T08:23:06.000Z</time>
      </trkpt>
      <trkpt lat="47.01037" lon="-1.58304">
        <ele>70</ele>
        <time>2021-09-05T08:23:08.000Z</time>
      </trkpt>
      <trkpt lat="47.01047" lon="-1.58294">
        <ele>70</ele>
        <time>2021-09-05T08:23:10.000Z</time>
      </trkpt>
      <trkpt lat="47.01058" lon="-1.58284">
        <ele>69</ele>
        <time>2021-09-05T08:23:12.000Z</time>
      </trkpt>
      <trkpt lat="47.01069" lon="-1.58273">
        <ele>70</ele>
        <time>2021-09-05T08:23:14.000Z</time>
      </trkpt>
      <trkpt lat="47.01079" lon="-1.58264">
        <ele>70</ele>
        <time>2021-09-05T08:23:16.000Z</time>
      </trkpt>
      <trkpt lat="47.01089" lon="-1.58253">
        <ele>70</ele>
        <time>2021-09-05T08:23:18.000Z</time>
      </trkpt>
      <trkpt lat="47.01099" lon="-1.58244">
        <ele>70</ele>
        <time>2021-09-05T08:23:20.000Z</time>
      </trkpt>
      <trkpt lat="47.0111" lon="-1.58235">
        <ele>69</ele>
        <time>2021-09-05T08:23:22.000Z</time>
      </trkpt>
      <trkpt lat="47.01121" lon="-1.58228">
        <ele>69</ele>
        <time>2021-09-05T08:23:24.000Z</time>
      </trkpt>
      <trkpt lat="47.01132" lon="-1.5822">
        <ele>69</ele>
        <time>2021-09-05T08:23:26.000Z</time>
      </trkpt>
      <trkpt lat="47.01142" lon="-1.58212">
        <ele>69</ele>
        <time>2021-09-05T08:23:28.000Z</time>
      </trkpt>
      <trkpt lat="47.01152" lon="-1.58203">
        <ele>69</ele>
        <time>2021-09-05T08:23:30.000Z</time>
      </trkpt>
      <trkpt lat="47.01162" lon="-1.58196">
        <ele>69</ele>
        <time>2021-09-05T08:23:32.000Z</time>
      </trkpt>
      <trkpt lat="47.01172" lon="-1.58188">
        <ele>69</ele>
        <time>2021-09-05T08:23:34.000Z</time>
      </trkpt>
      <trkpt lat="47.0118" lon="-1.58177">
        <ele>69</ele>
        <time>2021-09-05T08:23:36.000Z</time>
      </trkpt>
      <trkpt lat="47.01186" lon="-1.58163">
        <ele>70</ele>
        <time>2021-09-05T08:23:38.000Z</time>
      </trkpt>
      <trkpt lat="47.01188" lon="-1.58146">
        <ele>70</ele>
        <time>2021-09-05T08:23:40.000Z</time>
      </trkpt>
      <trkpt lat="47.01189" lon="-1.58129">
        <ele>70</ele>
        <time>2021-09-05T08:23:42.000Z</time>
      </trkpt>
      <trkpt lat="47.01189" lon="-1.58111">
        <ele>70</ele>
        <time>2021-09-05T08:23:44.000Z</time>
      </trkpt>
      <trkpt lat="47.01189" lon="-1.58093">
        <ele>70</ele>
        <time>2021-09-05T08:23:46.000Z</time>
      </trkpt>
      <trkpt lat="47.01188" lon="-1.58075">
        <ele>70</ele>
        <time>2021-09-05T08:23:48.000Z</time>
      </trkpt>
      <trkpt lat="47.01188" lon="-1.58058">
        <ele>70</ele>
        <time>2021-09-05T08:23:50.000Z</time>
      </trkpt>
      <trkpt lat="47.01188" lon="-1.5804">
        <ele>70</ele>
        <time>2021-09-05T08:23:52.000Z</time>
      </trkpt>
      <trkpt lat="47.01189" lon="-1.58023">
        <ele>71</ele>
        <time>2021-09-05T08:23:54.000Z</time>
      </trkpt>
      <trkpt lat="47.01192" lon="-1.58006">
        <ele>71</ele>
        <time>2021-09-05T08:23:56.000Z</time>
      </trkpt>
      <trkpt lat="47.01195" lon="-1.57989">
        <ele>71</ele>
        <time>2021-09-05T08:23:58.000Z</time>
      </trkpt>
      <trkpt lat="47.01198" lon="-1.57972">
        <ele>71</ele>
        <time>2021-09-05T08:24:00.000Z</time>
      </trkpt>
      <trkpt lat="47.01202" lon="-1.57955">
        <ele>71</ele>
        <time>2021-09-05T08:24:02.000Z</time>
      </trkpt>
      <trkpt lat="47.01205" lon="-1.57938">
        <ele>72</ele>
        <time>2021-09-05T08:24:04.000Z</time>
      </trkpt>
      <trkpt lat="47.01209" lon="-1.57921">
        <ele>72</ele>
        <time>2021-09-05T08:24:06.000Z</time>
      </trkpt>
      <trkpt lat="47.01213" lon="-1.57904">
        <ele>72</ele>
        <time>2021-09-05T08:24:08.000Z</time>
      </trkpt>
      <trkpt lat="47.01216" lon="-1.57887">
        <ele>72</ele>
        <time>2021-09-05T08:24:10.000Z</time>
      </trkpt>
      <trkpt lat="47.01219" lon="-1.57871">
        <ele>73</ele>
        <time>2021-09-05T08:24:12.000Z</time>
      </trkpt>
      <trkpt lat="47.01223" lon="-1.57853">
        <ele>73</ele>
        <time>2021-09-05T08:24:14.000Z</time>
      </trkpt>
      <trkpt lat="47.01226" lon="-1.57835">
        <ele>73</ele>
        <time>2021-09-05T08:24:16.000Z</time>
      </trkpt>
      <trkpt lat="47.0123" lon="-1.57818">
        <ele>74</ele>
        <time>2021-09-05T08:24:18.000Z</time>
      </trkpt>
      <trkpt lat="47.01233" lon="-1.57801">
        <ele>74</ele>
        <time>2021-09-05T08:24:20.000Z</time>
      </trkpt>
      <trkpt lat="47.01236" lon="-1.57783">
        <ele>75</ele>
        <time>2021-09-05T08:24:22.000Z</time>
      </trkpt>
      <trkpt lat="47.0124" lon="-1.57767">
        <ele>75</ele>
        <time>2021-09-05T08:24:24.000Z</time>
      </trkpt>
      <trkpt lat="47.01243" lon="-1.5775">
        <ele>75</ele>
        <time>2021-09-05T08:24:26.000Z</time>
      </trkpt>
      <trkpt lat="47.01246" lon="-1.57732">
        <ele>75</ele>
        <time>2021-09-05T08:24:28.000Z</time>
      </trkpt>
      <trkpt lat="47.0125" lon="-1.57713">
        <ele>75</ele>
        <time>2021-09-05T08:24:30.000Z</time>
      </trkpt>
      <trkpt lat="47.01254" lon="-1.57695">
        <ele>75</ele>
        <time>2021-09-05T08:24:32.000Z</time>
      </trkpt>
      <trkpt lat="47.01257" lon="-1.57677">
        <ele>74</ele>
        <time>2021-09-05T08:24:34.000Z</time>
      </trkpt>
      <trkpt lat="47.0126" lon="-1.57659">
        <ele>75</ele>
        <time>2021-09-05T08:24:36.000Z</time>
      </trkpt>
      <trkpt lat="47.01263" lon="-1.57641">
        <ele>75</ele>
        <time>2021-09-05T08:24:38.000Z</time>
      </trkpt>
      <trkpt lat="47.01266" lon="-1.57623">
        <ele>75</ele>
        <time>2021-09-05T08:24:40.000Z</time>
      </trkpt>
      <trkpt lat="47.0127" lon="-1.57605">
        <ele>74</ele>
        <time>2021-09-05T08:24:42.000Z</time>
      </trkpt>
      <trkpt lat="47.01273" lon="-1.57586">
        <ele>74</ele>
        <time>2021-09-05T08:24:44.000Z</time>
      </trkpt>
      <trkpt lat="47.01277" lon="-1.57567">
        <ele>73</ele>
        <time>2021-09-05T08:24:46.000Z</time>
      </trkpt>
      <trkpt lat="47.0128" lon="-1.57548">
        <ele>73</ele>
        <time>2021-09-05T08:24:48.000Z</time>
      </trkpt>
      <trkpt lat="47.01284" lon="-1.57529">
        <ele>73</ele>
        <time>2021-09-05T08:24:50.000Z</time>
      </trkpt>
      <trkpt lat="47.01286" lon="-1.5751">
        <ele>73</ele>
        <time>2021-09-05T08:24:52.000Z</time>
      </trkpt>
      <trkpt lat="47.0129" lon="-1.57491">
        <ele>73</ele>
        <time>2021-09-05T08:24:54.000Z</time>
      </trkpt>
      <trkpt lat="47.01293" lon="-1.57473">
        <ele>73</ele>
        <time>2021-09-05T08:24:56.000Z</time>
      </trkpt>
      <trkpt lat="47.01296" lon="-1.57454">
        <ele>73</ele>
        <time>2021-09-05T08:24:58.000Z</time>
      </trkpt>
      <trkpt lat="47.01299" lon="-1.57434">
        <ele>73</ele>
        <time>2021-09-05T08:25:00.000Z</time>
      </trkpt>
      <trkpt lat="47.01302" lon="-1.57415">
        <ele>73</ele>
        <time>2021-09-05T08:25:02.000Z</time>
      </trkpt>
      <trkpt lat="47.01305" lon="-1.57396">
        <ele>73</ele>
        <time>2021-09-05T08:25:04.000Z</time>
      </trkpt>
      <trkpt lat="47.01309" lon="-1.57376">
        <ele>73</ele>
        <time>2021-09-05T08:25:06.000Z</time>
      </trkpt>
      <trkpt lat="47.01312" lon="-1.57357">
        <ele>73</ele>
        <time>2021-09-05T08:25:08.000Z</time>
      </trkpt>
      <trkpt lat="47.01316" lon="-1.57337">
        <ele>73</ele>
        <time>2021-09-05T08:25:10.000Z</time>
      </trkpt>
      <trkpt lat="47.01319" lon="-1.57318">
        <ele>73</ele>
        <time>2021-09-05T08:25:12.000Z</time>
      </trkpt>
      <trkpt lat="47.01321" lon="-1.57302">
        <ele>73</ele>
        <time>2021-09-05T08:25:14.000Z</time>
      </trkpt>
      <trkpt lat="47.01326" lon="-1.57284">
        <ele>72</ele>
        <time>2021-09-05T08:25:17.000Z</time>
      </trkpt>
      <trkpt lat="47.01329" lon="-1.57267">
        <ele>72</ele>
        <time>2021-09-05T08:25:19.000Z</time>
      </trkpt>
      <trkpt lat="47.01333" lon="-1.57248">
        <ele>72</ele>
        <time>2021-09-05T08:25:21.000Z</time>
      </trkpt>
      <trkpt lat="47.01337" lon="-1.57229">
        <ele>72</ele>
        <time>2021-09-05T08:25:23.000Z</time>
      </trkpt>
      <trkpt lat="47.01342" lon="-1.57211">
        <ele>72</ele>
        <time>2021-09-05T08:25:25.000Z</time>
      </trkpt>
      <trkpt lat="47.01347" lon="-1.57192">
        <ele>71</ele>
        <time>2021-09-05T08:25:27.000Z</time>
      </trkpt>
      <trkpt lat="47.01352" lon="-1.57173">
        <ele>71</ele>
        <time>2021-09-05T08:25:29.000Z</time>
      </trkpt>
      <trkpt lat="47.01358" lon="-1.57154">
        <ele>71</ele>
        <time>2021-09-05T08:25:31.000Z</time>
      </trkpt>
      <trkpt lat="47.01362" lon="-1.57135">
        <ele>71</ele>
        <time>2021-09-05T08:25:33.000Z</time>
      </trkpt>
      <trkpt lat="47.01367" lon="-1.57116">
        <ele>71</ele>
        <time>2021-09-05T08:25:35.000Z</time>
      </trkpt>
      <trkpt lat="47.01372" lon="-1.57096">
        <ele>71</ele>
        <time>2021-09-05T08:25:37.000Z</time>
      </trkpt>
      <trkpt lat="47.01377" lon="-1.57078">
        <ele>71</ele>
        <time>2021-09-05T08:25:39.000Z</time>
      </trkpt>
      <trkpt lat="47.01381" lon="-1.57061">
        <ele>71</ele>
        <time>2021-09-05T08:25:41.000Z</time>
      </trkpt>
      <trkpt lat="47.01385" lon="-1.57044">
        <ele>71</ele>
        <time>2021-09-05T08:25:43.000Z</time>
      </trkpt>
      <trkpt lat="47.01391" lon="-1.57028">
        <ele>71</ele>
        <time>2021-09-05T08:25:46.000Z</time>
      </trkpt>
      <trkpt lat="47.01404" lon="-1.57022">
        <ele>70</ele>
        <time>2021-09-05T08:25:48.000Z</time>
      </trkpt>
      <trkpt lat="47.01418" lon="-1.57019">
        <ele>69</ele>
        <time>2021-09-05T08:25:50.000Z</time>
      </trkpt>
      <trkpt lat="47.01432" lon="-1.57018">
        <ele>69</ele>
        <time>2021-09-05T08:25:52.000Z</time>
      </trkpt>
      <trkpt lat="47.01446" lon="-1.57013">
        <ele>68</ele>
        <time>2021-09-05T08:25:54.000Z</time>
      </trkpt>
      <trkpt lat="47.0146" lon="-1.57006">
        <ele>68</ele>
        <time>2021-09-05T08:25:56.000Z</time>
      </trkpt>
      <trkpt lat="47.01474" lon="-1.56999">
        <ele>67</ele>
        <time>2021-09-05T08:25:58.000Z</time>
      </trkpt>
      <trkpt lat="47.01488" lon="-1.56991">
        <ele>67</ele>
        <time>2021-09-05T08:26:00.000Z</time>
      </trkpt>
      <trkpt lat="47.01501" lon="-1.5698">
        <ele>66</ele>
        <time>2021-09-05T08:26:02.000Z</time>
      </trkpt>
      <trkpt lat="47.01513" lon="-1.56965">
        <ele>65</ele>
        <time>2021-09-05T08:26:04.000Z</time>
      </trkpt>
      <trkpt lat="47.01526" lon="-1.56951">
        <ele>64</ele>
        <time>2021-09-05T08:26:06.000Z</time>
      </trkpt>
      <trkpt lat="47.01538" lon="-1.56937">
        <ele>63</ele>
        <time>2021-09-05T08:26:08.000Z</time>
      </trkpt>
      <trkpt lat="47.0155" lon="-1.56922">
        <ele>63</ele>
        <time>2021-09-05T08:26:10.000Z</time>
      </trkpt>
      <trkpt lat="47.01562" lon="-1.56906">
        <ele>62</ele>
        <time>2021-09-05T08:26:12.000Z</time>
      </trkpt>
      <trkpt lat="47.01575" lon="-1.56891">
        <ele>62</ele>
        <time>2021-09-05T08:26:14.000Z</time>
      </trkpt>
      <trkpt lat="47.01588" lon="-1.56875">
        <ele>61</ele>
        <time>2021-09-05T08:26:16.000Z</time>
      </trkpt>
      <trkpt lat="47.01601" lon="-1.5686">
        <ele>61</ele>
        <time>2021-09-05T08:26:18.000Z</time>
      </trkpt>
      <trkpt lat="47.01613" lon="-1.56846">
        <ele>60</ele>
        <time>2021-09-05T08:26:20.000Z</time>
      </trkpt>
      <trkpt lat="47.01626" lon="-1.56832">
        <ele>60</ele>
        <time>2021-09-05T08:26:22.000Z</time>
      </trkpt>
      <trkpt lat="47.01638" lon="-1.56818">
        <ele>59</ele>
        <time>2021-09-05T08:26:24.000Z</time>
      </trkpt>
      <trkpt lat="47.01656" lon="-1.56797">
        <ele>59</ele>
        <time>2021-09-05T08:26:27.000Z</time>
      </trkpt>
      <trkpt lat="47.01667" lon="-1.56784">
        <ele>59</ele>
        <time>2021-09-05T08:26:29.000Z</time>
      </trkpt>
      <trkpt lat="47.01678" lon="-1.56771">
        <ele>59</ele>
        <time>2021-09-05T08:26:31.000Z</time>
      </trkpt>
      <trkpt lat="47.01689" lon="-1.56759">
        <ele>59</ele>
        <time>2021-09-05T08:26:33.000Z</time>
      </trkpt>
      <trkpt lat="47.017" lon="-1.56746">
        <ele>59</ele>
        <time>2021-09-05T08:26:35.000Z</time>
      </trkpt>
      <trkpt lat="47.01716" lon="-1.56728">
        <ele>58</ele>
        <time>2021-09-05T08:26:38.000Z</time>
      </trkpt>
      <trkpt lat="47.01726" lon="-1.56716">
        <ele>58</ele>
        <time>2021-09-05T08:26:40.000Z</time>
      </trkpt>
      <trkpt lat="47.01742" lon="-1.56696">
        <ele>59</ele>
        <time>2021-09-05T08:26:43.000Z</time>
      </trkpt>
      <trkpt lat="47.01751" lon="-1.56684">
        <ele>59</ele>
        <time>2021-09-05T08:26:45.000Z</time>
      </trkpt>
      <trkpt lat="47.01761" lon="-1.56672">
        <ele>59</ele>
        <time>2021-09-05T08:26:47.000Z</time>
      </trkpt>
      <trkpt lat="47.01766" lon="-1.56656">
        <ele>60</ele>
        <time>2021-09-05T08:26:49.000Z</time>
      </trkpt>
      <trkpt lat="47.01763" lon="-1.56638">
        <ele>60</ele>
        <time>2021-09-05T08:26:51.000Z</time>
      </trkpt>
      <trkpt lat="47.01767" lon="-1.56619">
        <ele>61</ele>
        <time>2021-09-05T08:26:53.000Z</time>
      </trkpt>
      <trkpt lat="47.01772" lon="-1.566">
        <ele>61</ele>
        <time>2021-09-05T08:26:55.000Z</time>
      </trkpt>
      <trkpt lat="47.01776" lon="-1.56582">
        <ele>61</ele>
        <time>2021-09-05T08:26:57.000Z</time>
      </trkpt>
      <trkpt lat="47.01781" lon="-1.56562">
        <ele>61</ele>
        <time>2021-09-05T08:26:59.000Z</time>
      </trkpt>
      <trkpt lat="47.01786" lon="-1.56544">
        <ele>60</ele>
        <time>2021-09-05T08:27:01.000Z</time>
      </trkpt>
      <trkpt lat="47.01791" lon="-1.56526">
        <ele>60</ele>
        <time>2021-09-05T08:27:03.000Z</time>
      </trkpt>
      <trkpt lat="47.01795" lon="-1.56507">
        <ele>60</ele>
        <time>2021-09-05T08:27:05.000Z</time>
      </trkpt>
      <trkpt lat="47.01799" lon="-1.5649">
        <ele>60</ele>
        <time>2021-09-05T08:27:07.000Z</time>
      </trkpt>
      <trkpt lat="47.01803" lon="-1.56473">
        <ele>61</ele>
        <time>2021-09-05T08:27:09.000Z</time>
      </trkpt>
      <trkpt lat="47.01806" lon="-1.56456">
        <ele>61</ele>
        <time>2021-09-05T08:27:11.000Z</time>
      </trkpt>
      <trkpt lat="47.0181" lon="-1.5644">
        <ele>61</ele>
        <time>2021-09-05T08:27:13.000Z</time>
      </trkpt>
      <trkpt lat="47.01814" lon="-1.56423">
        <ele>62</ele>
        <time>2021-09-05T08:27:15.000Z</time>
      </trkpt>
      <trkpt lat="47.01817" lon="-1.56406">
        <ele>62</ele>
        <time>2021-09-05T08:27:17.000Z</time>
      </trkpt>
      <trkpt lat="47.01821" lon="-1.5639">
        <ele>62</ele>
        <time>2021-09-05T08:27:19.000Z</time>
      </trkpt>
      <trkpt lat="47.01825" lon="-1.56374">
        <ele>62</ele>
        <time>2021-09-05T08:27:21.000Z</time>
      </trkpt>
      <trkpt lat="47.01829" lon="-1.56357">
        <ele>63</ele>
        <time>2021-09-05T08:27:23.000Z</time>
      </trkpt>
      <trkpt lat="47.01832" lon="-1.56341">
        <ele>63</ele>
        <time>2021-09-05T08:27:25.000Z</time>
      </trkpt>
      <trkpt lat="47.01836" lon="-1.56325">
        <ele>63</ele>
        <time>2021-09-05T08:27:27.000Z</time>
      </trkpt>
      <trkpt lat="47.0184" lon="-1.56309">
        <ele>63</ele>
        <time>2021-09-05T08:27:29.000Z</time>
      </trkpt>
      <trkpt lat="47.01843" lon="-1.56293">
        <ele>63</ele>
        <time>2021-09-05T08:27:31.000Z</time>
      </trkpt>
      <trkpt lat="47.01847" lon="-1.56277">
        <ele>64</ele>
        <time>2021-09-05T08:27:33.000Z</time>
      </trkpt>
      <trkpt lat="47.0185" lon="-1.56261">
        <ele>64</ele>
        <time>2021-09-05T08:27:35.000Z</time>
      </trkpt>
      <trkpt lat="47.01854" lon="-1.56245">
        <ele>64</ele>
        <time>2021-09-05T08:27:37.000Z</time>
      </trkpt>
      <trkpt lat="47.01857" lon="-1.56228">
        <ele>64</ele>
        <time>2021-09-05T08:27:39.000Z</time>
      </trkpt>
      <trkpt lat="47.01861" lon="-1.56212">
        <ele>64</ele>
        <time>2021-09-05T08:27:41.000Z</time>
      </trkpt>
      <trkpt lat="47.01865" lon="-1.56196">
        <ele>64</ele>
        <time>2021-09-05T08:27:43.000Z</time>
      </trkpt>
      <trkpt lat="47.01868" lon="-1.56179">
        <ele>64</ele>
        <time>2021-09-05T08:27:45.000Z</time>
      </trkpt>
      <trkpt lat="47.01873" lon="-1.56164">
        <ele>64</ele>
        <time>2021-09-05T08:27:47.000Z</time>
      </trkpt>
      <trkpt lat="47.01876" lon="-1.56148">
        <ele>64</ele>
        <time>2021-09-05T08:27:49.000Z</time>
      </trkpt>
      <trkpt lat="47.01881" lon="-1.56133">
        <ele>65</ele>
        <time>2021-09-05T08:27:51.000Z</time>
      </trkpt>
      <trkpt lat="47.01885" lon="-1.56117">
        <ele>65</ele>
        <time>2021-09-05T08:27:53.000Z</time>
      </trkpt>
      <trkpt lat="47.01889" lon="-1.56101">
        <ele>65</ele>
        <time>2021-09-05T08:27:55.000Z</time>
      </trkpt>
      <trkpt lat="47.01895" lon="-1.56087">
        <ele>66</ele>
        <time>2021-09-05T08:27:57.000Z</time>
      </trkpt>
      <trkpt lat="47.019" lon="-1.56072">
        <ele>66</ele>
        <time>2021-09-05T08:27:59.000Z</time>
      </trkpt>
      <trkpt lat="47.01906" lon="-1.56058">
        <ele>66</ele>
        <time>2021-09-05T08:28:01.000Z</time>
      </trkpt>
      <trkpt lat="47.01913" lon="-1.56045">
        <ele>66</ele>
        <time>2021-09-05T08:28:03.000Z</time>
      </trkpt>
      <trkpt lat="47.0192" lon="-1.56032">
        <ele>67</ele>
        <time>2021-09-05T08:28:05.000Z</time>
      </trkpt>
      <trkpt lat="47.01928" lon="-1.56019">
        <ele>66</ele>
        <time>2021-09-05T08:28:07.000Z</time>
      </trkpt>
      <trkpt lat="47.01937" lon="-1.56007">
        <ele>66</ele>
        <time>2021-09-05T08:28:09.000Z</time>
      </trkpt>
      <trkpt lat="47.01946" lon="-1.55995">
        <ele>66</ele>
        <time>2021-09-05T08:28:11.000Z</time>
      </trkpt>
      <trkpt lat="47.01956" lon="-1.55985">
        <ele>66</ele>
        <time>2021-09-05T08:28:13.000Z</time>
      </trkpt>
      <trkpt lat="47.01967" lon="-1.55976">
        <ele>66</ele>
        <time>2021-09-05T08:28:15.000Z</time>
      </trkpt>
      <trkpt lat="47.01977" lon="-1.55967">
        <ele>67</ele>
        <time>2021-09-05T08:28:17.000Z</time>
      </trkpt>
      <trkpt lat="47.01988" lon="-1.55958">
        <ele>67</ele>
        <time>2021-09-05T08:28:19.000Z</time>
      </trkpt>
      <trkpt lat="47.01998" lon="-1.55949">
        <ele>67</ele>
        <time>2021-09-05T08:28:21.000Z</time>
      </trkpt>
      <trkpt lat="47.02009" lon="-1.55942">
        <ele>67</ele>
        <time>2021-09-05T08:28:23.000Z</time>
      </trkpt>
      <trkpt lat="47.02019" lon="-1.55934">
        <ele>68</ele>
        <time>2021-09-05T08:28:25.000Z</time>
      </trkpt>
      <trkpt lat="47.0203" lon="-1.55925">
        <ele>68</ele>
        <time>2021-09-05T08:28:27.000Z</time>
      </trkpt>
      <trkpt lat="47.02041" lon="-1.55915">
        <ele>68</ele>
        <time>2021-09-05T08:28:29.000Z</time>
      </trkpt>
      <trkpt lat="47.02052" lon="-1.55907">
        <ele>68</ele>
        <time>2021-09-05T08:28:31.000Z</time>
      </trkpt>
      <trkpt lat="47.02063" lon="-1.55899">
        <ele>67</ele>
        <time>2021-09-05T08:28:33.000Z</time>
      </trkpt>
      <trkpt lat="47.02074" lon="-1.5589">
        <ele>67</ele>
        <time>2021-09-05T08:28:35.000Z</time>
      </trkpt>
      <trkpt lat="47.02085" lon="-1.55882">
        <ele>67</ele>
        <time>2021-09-05T08:28:37.000Z</time>
      </trkpt>
      <trkpt lat="47.02096" lon="-1.55874">
        <ele>67</ele>
        <time>2021-09-05T08:28:39.000Z</time>
      </trkpt>
      <trkpt lat="47.02107" lon="-1.55866">
        <ele>67</ele>
        <time>2021-09-05T08:28:41.000Z</time>
      </trkpt>
      <trkpt lat="47.02119" lon="-1.55858">
        <ele>66</ele>
        <time>2021-09-05T08:28:43.000Z</time>
      </trkpt>
      <trkpt lat="47.02129" lon="-1.55849">
        <ele>67</ele>
        <time>2021-09-05T08:28:45.000Z</time>
      </trkpt>
      <trkpt lat="47.0214" lon="-1.55841">
        <ele>67</ele>
        <time>2021-09-05T08:28:47.000Z</time>
      </trkpt>
      <trkpt lat="47.02152" lon="-1.55833">
        <ele>67</ele>
        <time>2021-09-05T08:28:49.000Z</time>
      </trkpt>
      <trkpt lat="47.02163" lon="-1.55825">
        <ele>67</ele>
        <time>2021-09-05T08:28:51.000Z</time>
      </trkpt>
      <trkpt lat="47.02174" lon="-1.55817">
        <ele>67</ele>
        <time>2021-09-05T08:28:53.000Z</time>
      </trkpt>
      <trkpt lat="47.02186" lon="-1.55809">
        <ele>68</ele>
        <time>2021-09-05T08:28:55.000Z</time>
      </trkpt>
      <trkpt lat="47.02197" lon="-1.558">
        <ele>68</ele>
        <time>2021-09-05T08:28:57.000Z</time>
      </trkpt>
      <trkpt lat="47.02208" lon="-1.55792">
        <ele>68</ele>
        <time>2021-09-05T08:28:59.000Z</time>
      </trkpt>
      <trkpt lat="47.02219" lon="-1.55784">
        <ele>69</ele>
        <time>2021-09-05T08:29:01.000Z</time>
      </trkpt>
      <trkpt lat="47.0223" lon="-1.55775">
        <ele>69</ele>
        <time>2021-09-05T08:29:03.000Z</time>
      </trkpt>
      <trkpt lat="47.02241" lon="-1.55767">
        <ele>69</ele>
        <time>2021-09-05T08:29:05.000Z</time>
      </trkpt>
      <trkpt lat="47.02252" lon="-1.55758">
        <ele>69</ele>
        <time>2021-09-05T08:29:07.000Z</time>
      </trkpt>
      <trkpt lat="47.02263" lon="-1.5575">
        <ele>69</ele>
        <time>2021-09-05T08:29:09.000Z</time>
      </trkpt>
      <trkpt lat="47.02275" lon="-1.55742">
        <ele>69</ele>
        <time>2021-09-05T08:29:11.000Z</time>
      </trkpt>
      <trkpt lat="47.02286" lon="-1.55733">
        <ele>69</ele>
        <time>2021-09-05T08:29:13.000Z</time>
      </trkpt>
      <trkpt lat="47.02296" lon="-1.55725">
        <ele>69</ele>
        <time>2021-09-05T08:29:15.000Z</time>
      </trkpt>
      <trkpt lat="47.02307" lon="-1.55716">
        <ele>69</ele>
        <time>2021-09-05T08:29:17.000Z</time>
      </trkpt>
      <trkpt lat="47.02318" lon="-1.55708">
        <ele>69</ele>
        <time>2021-09-05T08:29:19.000Z</time>
      </trkpt>
      <trkpt lat="47.02329" lon="-1.55699">
        <ele>69</ele>
        <time>2021-09-05T08:29:21.000Z</time>
      </trkpt>
      <trkpt lat="47.0234" lon="-1.55691">
        <ele>69</ele>
        <time>2021-09-05T08:29:23.000Z</time>
      </trkpt>
      <trkpt lat="47.02351" lon="-1.55682">
        <ele>69</ele>
        <time>2021-09-05T08:29:25.000Z</time>
      </trkpt>
      <trkpt lat="47.02362" lon="-1.55674">
        <ele>69</ele>
        <time>2021-09-05T08:29:27.000Z</time>
      </trkpt>
      <trkpt lat="47.02373" lon="-1.55666">
        <ele>68</ele>
        <time>2021-09-05T08:29:29.000Z</time>
      </trkpt>
      <trkpt lat="47.02384" lon="-1.55658">
        <ele>69</ele>
        <time>2021-09-05T08:29:31.000Z</time>
      </trkpt>
      <trkpt lat="47.02395" lon="-1.55649">
        <ele>69</ele>
        <time>2021-09-05T08:29:33.000Z</time>
      </trkpt>
      <trkpt lat="47.02406" lon="-1.5564">
        <ele>69</ele>
        <time>2021-09-05T08:29:35.000Z</time>
      </trkpt>
      <trkpt lat="47.02418" lon="-1.55632">
        <ele>69</ele>
        <time>2021-09-05T08:29:37.000Z</time>
      </trkpt>
      <trkpt lat="47.02429" lon="-1.55623">
        <ele>69</ele>
        <time>2021-09-05T08:29:39.000Z</time>
      </trkpt>
      <trkpt lat="47.0244" lon="-1.55613">
        <ele>68</ele>
        <time>2021-09-05T08:29:41.000Z</time>
      </trkpt>
      <trkpt lat="47.02451" lon="-1.55603">
        <ele>69</ele>
        <time>2021-09-05T08:29:43.000Z</time>
      </trkpt>
      <trkpt lat="47.02461" lon="-1.55593">
        <ele>68</ele>
        <time>2021-09-05T08:29:45.000Z</time>
      </trkpt>
      <trkpt lat="47.02472" lon="-1.55582">
        <ele>68</ele>
        <time>2021-09-05T08:29:47.000Z</time>
      </trkpt>
      <trkpt lat="47.02482" lon="-1.5557">
        <ele>68</ele>
        <time>2021-09-05T08:29:49.000Z</time>
      </trkpt>
      <trkpt lat="47.02492" lon="-1.55558">
        <ele>68</ele>
        <time>2021-09-05T08:29:51.000Z</time>
      </trkpt>
      <trkpt lat="47.02502" lon="-1.55547">
        <ele>68</ele>
        <time>2021-09-05T08:29:53.000Z</time>
      </trkpt>
      <trkpt lat="47.02511" lon="-1.55534">
        <ele>68</ele>
        <time>2021-09-05T08:29:55.000Z</time>
      </trkpt>
      <trkpt lat="47.02521" lon="-1.55521">
        <ele>67</ele>
        <time>2021-09-05T08:29:57.000Z</time>
      </trkpt>
      <trkpt lat="47.02531" lon="-1.55509">
        <ele>68</ele>
        <time>2021-09-05T08:29:59.000Z</time>
      </trkpt>
      <trkpt lat="47.0254" lon="-1.55496">
        <ele>68</ele>
        <time>2021-09-05T08:30:01.000Z</time>
      </trkpt>
      <trkpt lat="47.02549" lon="-1.55484">
        <ele>67</ele>
        <time>2021-09-05T08:30:03.000Z</time>
      </trkpt>
      <trkpt lat="47.02558" lon="-1.55473">
        <ele>67</ele>
        <time>2021-09-05T08:30:05.000Z</time>
      </trkpt>
      <trkpt lat="47.02568" lon="-1.55461">
        <ele>67</ele>
        <time>2021-09-05T08:30:07.000Z</time>
      </trkpt>
      <trkpt lat="47.02578" lon="-1.55451">
        <ele>67</ele>
        <time>2021-09-05T08:30:09.000Z</time>
      </trkpt>
      <trkpt lat="47.02588" lon="-1.55441">
        <ele>67</ele>
        <time>2021-09-05T08:30:11.000Z</time>
      </trkpt>
      <trkpt lat="47.02599" lon="-1.55432">
        <ele>67</ele>
        <time>2021-09-05T08:30:13.000Z</time>
      </trkpt>
      <trkpt lat="47.0261" lon="-1.55423">
        <ele>67</ele>
        <time>2021-09-05T08:30:15.000Z</time>
      </trkpt>
      <trkpt lat="47.02621" lon="-1.55414">
        <ele>67</ele>
        <time>2021-09-05T08:30:17.000Z</time>
      </trkpt>
      <trkpt lat="47.02632" lon="-1.55405">
        <ele>67</ele>
        <time>2021-09-05T08:30:19.000Z</time>
      </trkpt>
      <trkpt lat="47.02643" lon="-1.55396">
        <ele>67</ele>
        <time>2021-09-05T08:30:21.000Z</time>
      </trkpt>
      <trkpt lat="47.02654" lon="-1.55387">
        <ele>67</ele>
        <time>2021-09-05T08:30:23.000Z</time>
      </trkpt>
      <trkpt lat="47.02665" lon="-1.55379">
        <ele>67</ele>
        <time>2021-09-05T08:30:25.000Z</time>
      </trkpt>
      <trkpt lat="47.02676" lon="-1.5537">
        <ele>67</ele>
        <time>2021-09-05T08:30:27.000Z</time>
      </trkpt>
      <trkpt lat="47.02688" lon="-1.55362">
        <ele>67</ele>
        <time>2021-09-05T08:30:29.000Z</time>
      </trkpt>
      <trkpt lat="47.027" lon="-1.55353">
        <ele>67</ele>
        <time>2021-09-05T08:30:31.000Z</time>
      </trkpt>
      <trkpt lat="47.02713" lon="-1.55346">
        <ele>67</ele>
        <time>2021-09-05T08:30:33.000Z</time>
      </trkpt>
      <trkpt lat="47.02725" lon="-1.55338">
        <ele>66</ele>
        <time>2021-09-05T08:30:35.000Z</time>
      </trkpt>
      <trkpt lat="47.02737" lon="-1.55328">
        <ele>66</ele>
        <time>2021-09-05T08:30:37.000Z</time>
      </trkpt>
      <trkpt lat="47.02749" lon="-1.55319">
        <ele>67</ele>
        <time>2021-09-05T08:30:39.000Z</time>
      </trkpt>
      <trkpt lat="47.02761" lon="-1.5531">
        <ele>67</ele>
        <time>2021-09-05T08:30:41.000Z</time>
      </trkpt>
      <trkpt lat="47.02773" lon="-1.55301">
        <ele>68</ele>
        <time>2021-09-05T08:30:43.000Z</time>
      </trkpt>
      <trkpt lat="47.02785" lon="-1.55292">
        <ele>69</ele>
        <time>2021-09-05T08:30:45.000Z</time>
      </trkpt>
      <trkpt lat="47.02797" lon="-1.55283">
        <ele>69</ele>
        <time>2021-09-05T08:30:47.000Z</time>
      </trkpt>
      <trkpt lat="47.0281" lon="-1.55274">
        <ele>70</ele>
        <time>2021-09-05T08:30:49.000Z</time>
      </trkpt>
      <trkpt lat="47.02822" lon="-1.55265">
        <ele>70</ele>
        <time>2021-09-05T08:30:51.000Z</time>
      </trkpt>
      <trkpt lat="47.02833" lon="-1.55256">
        <ele>71</ele>
        <time>2021-09-05T08:30:53.000Z</time>
      </trkpt>
      <trkpt lat="47.02846" lon="-1.55247">
        <ele>71</ele>
        <time>2021-09-05T08:30:55.000Z</time>
      </trkpt>
      <trkpt lat="47.02857" lon="-1.55237">
        <ele>70</ele>
        <time>2021-09-05T08:30:57.000Z</time>
      </trkpt>
      <trkpt lat="47.02869" lon="-1.55226">
        <ele>70</ele>
        <time>2021-09-05T08:30:59.000Z</time>
      </trkpt>
      <trkpt lat="47.02881" lon="-1.55214">
        <ele>70</ele>
        <time>2021-09-05T08:31:01.000Z</time>
      </trkpt>
      <trkpt lat="47.02892" lon="-1.552">
        <ele>69</ele>
        <time>2021-09-05T08:31:03.000Z</time>
      </trkpt>
      <trkpt lat="47.02902" lon="-1.55187">
        <ele>68</ele>
        <time>2021-09-05T08:31:05.000Z</time>
      </trkpt>
      <trkpt lat="47.02912" lon="-1.55171">
        <ele>68</ele>
        <time>2021-09-05T08:31:07.000Z</time>
      </trkpt>
      <trkpt lat="47.02921" lon="-1.55156">
        <ele>68</ele>
        <time>2021-09-05T08:31:09.000Z</time>
      </trkpt>
      <trkpt lat="47.02929" lon="-1.5514">
        <ele>67</ele>
        <time>2021-09-05T08:31:11.000Z</time>
      </trkpt>
      <trkpt lat="47.02937" lon="-1.55124">
        <ele>67</ele>
        <time>2021-09-05T08:31:13.000Z</time>
      </trkpt>
      <trkpt lat="47.02945" lon="-1.55108">
        <ele>66</ele>
        <time>2021-09-05T08:31:15.000Z</time>
      </trkpt>
      <trkpt lat="47.02953" lon="-1.55091">
        <ele>66</ele>
        <time>2021-09-05T08:31:17.000Z</time>
      </trkpt>
      <trkpt lat="47.0296" lon="-1.55075">
        <ele>66</ele>
        <time>2021-09-05T08:31:19.000Z</time>
      </trkpt>
      <trkpt lat="47.02967" lon="-1.5506">
        <ele>65</ele>
        <time>2021-09-05T08:31:21.000Z</time>
      </trkpt>
      <trkpt lat="47.02975" lon="-1.55044">
        <ele>66</ele>
        <time>2021-09-05T08:31:23.000Z</time>
      </trkpt>
      <trkpt lat="47.02982" lon="-1.55028">
        <ele>66</ele>
        <time>2021-09-05T08:31:25.000Z</time>
      </trkpt>
      <trkpt lat="47.02989" lon="-1.55012">
        <ele>66</ele>
        <time>2021-09-05T08:31:27.000Z</time>
      </trkpt>
      <trkpt lat="47.02997" lon="-1.54997">
        <ele>66</ele>
        <time>2021-09-05T08:31:29.000Z</time>
      </trkpt>
      <trkpt lat="47.03004" lon="-1.54981">
        <ele>66</ele>
        <time>2021-09-05T08:31:31.000Z</time>
      </trkpt>
      <trkpt lat="47.03011" lon="-1.54966">
        <ele>65</ele>
        <time>2021-09-05T08:31:33.000Z</time>
      </trkpt>
      <trkpt lat="47.03018" lon="-1.54951">
        <ele>65</ele>
        <time>2021-09-05T08:31:35.000Z</time>
      </trkpt>
      <trkpt lat="47.03025" lon="-1.54937">
        <ele>65</ele>
        <time>2021-09-05T08:31:37.000Z</time>
      </trkpt>
      <trkpt lat="47.03032" lon="-1.54922">
        <ele>66</ele>
        <time>2021-09-05T08:31:39.000Z</time>
      </trkpt>
      <trkpt lat="47.03039" lon="-1.54907">
        <ele>65</ele>
        <time>2021-09-05T08:31:41.000Z</time>
      </trkpt>
      <trkpt lat="47.03046" lon="-1.54892">
        <ele>65</ele>
        <time>2021-09-05T08:31:43.000Z</time>
      </trkpt>
      <trkpt lat="47.03053" lon="-1.54877">
        <ele>64</ele>
        <time>2021-09-05T08:31:45.000Z</time>
      </trkpt>
      <trkpt lat="47.0306" lon="-1.54862">
        <ele>64</ele>
        <time>2021-09-05T08:31:47.000Z</time>
      </trkpt>
      <trkpt lat="47.03067" lon="-1.54847">
        <ele>64</ele>
        <time>2021-09-05T08:31:49.000Z</time>
      </trkpt>
      <trkpt lat="47.03074" lon="-1.54832">
        <ele>64</ele>
        <time>2021-09-05T08:31:51.000Z</time>
      </trkpt>
      <trkpt lat="47.0308" lon="-1.54816">
        <ele>64</ele>
        <time>2021-09-05T08:31:53.000Z</time>
      </trkpt>
      <trkpt lat="47.03085" lon="-1.548">
        <ele>64</ele>
        <time>2021-09-05T08:31:55.000Z</time>
      </trkpt>
      <trkpt lat="47.0309" lon="-1.54783">
        <ele>65</ele>
        <time>2021-09-05T08:31:57.000Z</time>
      </trkpt>
      <trkpt lat="47.03094" lon="-1.54766">
        <ele>65</ele>
        <time>2021-09-05T08:31:59.000Z</time>
      </trkpt>
      <trkpt lat="47.03098" lon="-1.54749">
        <ele>64</ele>
        <time>2021-09-05T08:32:01.000Z</time>
      </trkpt>
      <trkpt lat="47.031" lon="-1.5473">
        <ele>65</ele>
        <time>2021-09-05T08:32:03.000Z</time>
      </trkpt>
      <trkpt lat="47.03102" lon="-1.54711">
        <ele>65</ele>
        <time>2021-09-05T08:32:05.000Z</time>
      </trkpt>
      <trkpt lat="47.03104" lon="-1.54693">
        <ele>65</ele>
        <time>2021-09-05T08:32:07.000Z</time>
      </trkpt>
      <trkpt lat="47.03107" lon="-1.54674">
        <ele>65</ele>
        <time>2021-09-05T08:32:09.000Z</time>
      </trkpt>
      <trkpt lat="47.03109" lon="-1.54655">
        <ele>65</ele>
        <time>2021-09-05T08:32:11.000Z</time>
      </trkpt>
      <trkpt lat="47.0311" lon="-1.54635">
        <ele>65</ele>
        <time>2021-09-05T08:32:13.000Z</time>
      </trkpt>
      <trkpt lat="47.03112" lon="-1.54616">
        <ele>65</ele>
        <time>2021-09-05T08:32:15.000Z</time>
      </trkpt>
      <trkpt lat="47.03115" lon="-1.54596">
        <ele>66</ele>
        <time>2021-09-05T08:32:17.000Z</time>
      </trkpt>
      <trkpt lat="47.03118" lon="-1.54577">
        <ele>66</ele>
        <time>2021-09-05T08:32:19.000Z</time>
      </trkpt>
      <trkpt lat="47.03121" lon="-1.54559">
        <ele>66</ele>
        <time>2021-09-05T08:32:21.000Z</time>
      </trkpt>
      <trkpt lat="47.03124" lon="-1.5454">
        <ele>67</ele>
        <time>2021-09-05T08:32:23.000Z</time>
      </trkpt>
      <trkpt lat="47.03127" lon="-1.54522">
        <ele>67</ele>
        <time>2021-09-05T08:32:25.000Z</time>
      </trkpt>
      <trkpt lat="47.0313" lon="-1.54502">
        <ele>68</ele>
        <time>2021-09-05T08:32:27.000Z</time>
      </trkpt>
      <trkpt lat="47.03134" lon="-1.54484">
        <ele>68</ele>
        <time>2021-09-05T08:32:29.000Z</time>
      </trkpt>
      <trkpt lat="47.0314" lon="-1.54468">
        <ele>69</ele>
        <time>2021-09-05T08:32:31.000Z</time>
      </trkpt>
      <trkpt lat="47.03146" lon="-1.54452">
        <ele>68</ele>
        <time>2021-09-05T08:32:33.000Z</time>
      </trkpt>
      <trkpt lat="47.03153" lon="-1.54436">
        <ele>69</ele>
        <time>2021-09-05T08:32:35.000Z</time>
      </trkpt>
      <trkpt lat="47.03161" lon="-1.54421">
        <ele>69</ele>
        <time>2021-09-05T08:32:37.000Z</time>
      </trkpt>
      <trkpt lat="47.0317" lon="-1.54407">
        <ele>70</ele>
        <time>2021-09-05T08:32:39.000Z</time>
      </trkpt>
      <trkpt lat="47.03178" lon="-1.54393">
        <ele>70</ele>
        <time>2021-09-05T08:32:41.000Z</time>
      </trkpt>
      <trkpt lat="47.03187" lon="-1.5438">
        <ele>70</ele>
        <time>2021-09-05T08:32:43.000Z</time>
      </trkpt>
      <trkpt lat="47.03195" lon="-1.54366">
        <ele>71</ele>
        <time>2021-09-05T08:32:45.000Z</time>
      </trkpt>
      <trkpt lat="47.03203" lon="-1.54352">
        <ele>71</ele>
        <time>2021-09-05T08:32:47.000Z</time>
      </trkpt>
      <trkpt lat="47.03212" lon="-1.54337">
        <ele>72</ele>
        <time>2021-09-05T08:32:49.000Z</time>
      </trkpt>
      <trkpt lat="47.03221" lon="-1.54323">
        <ele>72</ele>
        <time>2021-09-05T08:32:51.000Z</time>
      </trkpt>
      <trkpt lat="47.03229" lon="-1.54309">
        <ele>72</ele>
        <time>2021-09-05T08:32:53.000Z</time>
      </trkpt>
      <trkpt lat="47.03237" lon="-1.54295">
        <ele>72</ele>
        <time>2021-09-05T08:32:55.000Z</time>
      </trkpt>
      <trkpt lat="47.03246" lon="-1.5428">
        <ele>72</ele>
        <time>2021-09-05T08:32:57.000Z</time>
      </trkpt>
      <trkpt lat="47.03254" lon="-1.54267">
        <ele>72</ele>
        <time>2021-09-05T08:32:59.000Z</time>
      </trkpt>
      <trkpt lat="47.03263" lon="-1.54253">
        <ele>73</ele>
        <time>2021-09-05T08:33:01.000Z</time>
      </trkpt>
      <trkpt lat="47.0327" lon="-1.5424">
        <ele>74</ele>
        <time>2021-09-05T08:33:03.000Z</time>
      </trkpt>
      <trkpt lat="47.03277" lon="-1.54227">
        <ele>74</ele>
        <time>2021-09-05T08:33:05.000Z</time>
      </trkpt>
      <trkpt lat="47.03285" lon="-1.54214">
        <ele>76</ele>
        <time>2021-09-05T08:33:07.000Z</time>
      </trkpt>
      <trkpt lat="47.03292" lon="-1.54202">
        <ele>76</ele>
        <time>2021-09-05T08:33:09.000Z</time>
      </trkpt>
      <trkpt lat="47.03299" lon="-1.5419">
        <ele>76</ele>
        <time>2021-09-05T08:33:11.000Z</time>
      </trkpt>
      <trkpt lat="47.03306" lon="-1.54177">
        <ele>76</ele>
        <time>2021-09-05T08:33:13.000Z</time>
      </trkpt>
      <trkpt lat="47.03313" lon="-1.54164">
        <ele>76</ele>
        <time>2021-09-05T08:33:15.000Z</time>
      </trkpt>
      <trkpt lat="47.03321" lon="-1.54151">
        <ele>75</ele>
        <time>2021-09-05T08:33:17.000Z</time>
      </trkpt>
      <trkpt lat="47.03329" lon="-1.54138">
        <ele>75</ele>
        <time>2021-09-05T08:33:19.000Z</time>
      </trkpt>
      <trkpt lat="47.03336" lon="-1.54124">
        <ele>75</ele>
        <time>2021-09-05T08:33:21.000Z</time>
      </trkpt>
      <trkpt lat="47.03343" lon="-1.5411">
        <ele>75</ele>
        <time>2021-09-05T08:33:23.000Z</time>
      </trkpt>
      <trkpt lat="47.03351" lon="-1.54097">
        <ele>75</ele>
        <time>2021-09-05T08:33:25.000Z</time>
      </trkpt>
      <trkpt lat="47.03356" lon="-1.54082">
        <ele>75</ele>
        <time>2021-09-05T08:33:27.000Z</time>
      </trkpt>
      <trkpt lat="47.03362" lon="-1.54067">
        <ele>76</ele>
        <time>2021-09-05T08:33:29.000Z</time>
      </trkpt>
      <trkpt lat="47.03367" lon="-1.54051">
        <ele>75</ele>
        <time>2021-09-05T08:33:31.000Z</time>
      </trkpt>
      <trkpt lat="47.03371" lon="-1.54035">
        <ele>75</ele>
        <time>2021-09-05T08:33:33.000Z</time>
      </trkpt>
      <trkpt lat="47.03376" lon="-1.54019">
        <ele>75</ele>
        <time>2021-09-05T08:33:35.000Z</time>
      </trkpt>
      <trkpt lat="47.0338" lon="-1.54004">
        <ele>76</ele>
        <time>2021-09-05T08:33:37.000Z</time>
      </trkpt>
      <trkpt lat="47.03385" lon="-1.53989">
        <ele>76</ele>
        <time>2021-09-05T08:33:39.000Z</time>
      </trkpt>
      <trkpt lat="47.03389" lon="-1.53973">
        <ele>76</ele>
        <time>2021-09-05T08:33:41.000Z</time>
      </trkpt>
      <trkpt lat="47.03394" lon="-1.53958">
        <ele>76</ele>
        <time>2021-09-05T08:33:43.000Z</time>
      </trkpt>
      <trkpt lat="47.03399" lon="-1.53942">
        <ele>76</ele>
        <time>2021-09-05T08:33:45.000Z</time>
      </trkpt>
      <trkpt lat="47.03404" lon="-1.53926">
        <ele>76</ele>
        <time>2021-09-05T08:33:47.000Z</time>
      </trkpt>
      <trkpt lat="47.03409" lon="-1.5391">
        <ele>77</ele>
        <time>2021-09-05T08:33:49.000Z</time>
      </trkpt>
      <trkpt lat="47.03413" lon="-1.53894">
        <ele>77</ele>
        <time>2021-09-05T08:33:51.000Z</time>
      </trkpt>
      <trkpt lat="47.03418" lon="-1.53878">
        <ele>77</ele>
        <time>2021-09-05T08:33:53.000Z</time>
      </trkpt>
      <trkpt lat="47.03423" lon="-1.53861">
        <ele>77</ele>
        <time>2021-09-05T08:33:55.000Z</time>
      </trkpt>
      <trkpt lat="47.03428" lon="-1.53845">
        <ele>77</ele>
        <time>2021-09-05T08:33:57.000Z</time>
      </trkpt>
      <trkpt lat="47.03433" lon="-1.53828">
        <ele>77</ele>
        <time>2021-09-05T08:33:59.000Z</time>
      </trkpt>
      <trkpt lat="47.03438" lon="-1.53812">
        <ele>77</ele>
        <time>2021-09-05T08:34:01.000Z</time>
      </trkpt>
      <trkpt lat="47.03442" lon="-1.53796">
        <ele>77</ele>
        <time>2021-09-05T08:34:03.000Z</time>
      </trkpt>
      <trkpt lat="47.03447" lon="-1.53779">
        <ele>77</ele>
        <time>2021-09-05T08:34:05.000Z</time>
      </trkpt>
      <trkpt lat="47.03452" lon="-1.53761">
        <ele>77</ele>
        <time>2021-09-05T08:34:07.000Z</time>
      </trkpt>
      <trkpt lat="47.03457" lon="-1.53745">
        <ele>77</ele>
        <time>2021-09-05T08:34:09.000Z</time>
      </trkpt>
      <trkpt lat="47.03462" lon="-1.53727">
        <ele>76</ele>
        <time>2021-09-05T08:34:11.000Z</time>
      </trkpt>
      <trkpt lat="47.03468" lon="-1.5371">
        <ele>76</ele>
        <time>2021-09-05T08:34:13.000Z</time>
      </trkpt>
      <trkpt lat="47.03473" lon="-1.53693">
        <ele>76</ele>
        <time>2021-09-05T08:34:15.000Z</time>
      </trkpt>
      <trkpt lat="47.03478" lon="-1.53675">
        <ele>76</ele>
        <time>2021-09-05T08:34:17.000Z</time>
      </trkpt>
      <trkpt lat="47.03483" lon="-1.53657">
        <ele>76</ele>
        <time>2021-09-05T08:34:19.000Z</time>
      </trkpt>
      <trkpt lat="47.03489" lon="-1.53639">
        <ele>76</ele>
        <time>2021-09-05T08:34:21.000Z</time>
      </trkpt>
      <trkpt lat="47.03494" lon="-1.53621">
        <ele>76</ele>
        <time>2021-09-05T08:34:23.000Z</time>
      </trkpt>
      <trkpt lat="47.03499" lon="-1.53602">
        <ele>76</ele>
        <time>2021-09-05T08:34:25.000Z</time>
      </trkpt>
      <trkpt lat="47.03505" lon="-1.53584">
        <ele>76</ele>
        <time>2021-09-05T08:34:27.000Z</time>
      </trkpt>
      <trkpt lat="47.0351" lon="-1.53565">
        <ele>76</ele>
        <time>2021-09-05T08:34:29.000Z</time>
      </trkpt>
      <trkpt lat="47.03516" lon="-1.53546">
        <ele>76</ele>
        <time>2021-09-05T08:34:31.000Z</time>
      </trkpt>
      <trkpt lat="47.03522" lon="-1.53526">
        <ele>75</ele>
        <time>2021-09-05T08:34:33.000Z</time>
      </trkpt>
      <trkpt lat="47.03527" lon="-1.53507">
        <ele>75</ele>
        <time>2021-09-05T08:34:35.000Z</time>
      </trkpt>
      <trkpt lat="47.03533" lon="-1.53488">
        <ele>75</ele>
        <time>2021-09-05T08:34:37.000Z</time>
      </trkpt>
      <trkpt lat="47.03538" lon="-1.53468">
        <ele>75</ele>
        <time>2021-09-05T08:34:39.000Z</time>
      </trkpt>
      <trkpt lat="47.03544" lon="-1.53449">
        <ele>75</ele>
        <time>2021-09-05T08:34:41.000Z</time>
      </trkpt>
      <trkpt lat="47.0355" lon="-1.5343">
        <ele>75</ele>
        <time>2021-09-05T08:34:43.000Z</time>
      </trkpt>
      <trkpt lat="47.03555" lon="-1.5341">
        <ele>75</ele>
        <time>2021-09-05T08:34:45.000Z</time>
      </trkpt>
      <trkpt lat="47.03561" lon="-1.5339">
        <ele>75</ele>
        <time>2021-09-05T08:34:47.000Z</time>
      </trkpt>
      <trkpt lat="47.03567" lon="-1.53372">
        <ele>75</ele>
        <time>2021-09-05T08:34:49.000Z</time>
      </trkpt>
      <trkpt lat="47.03572" lon="-1.53352">
        <ele>75</ele>
        <time>2021-09-05T08:34:51.000Z</time>
      </trkpt>
      <trkpt lat="47.03577" lon="-1.53331">
        <ele>75</ele>
        <time>2021-09-05T08:34:53.000Z</time>
      </trkpt>
      <trkpt lat="47.03583" lon="-1.53312">
        <ele>75</ele>
        <time>2021-09-05T08:34:55.000Z</time>
      </trkpt>
      <trkpt lat="47.03588" lon="-1.53291">
        <ele>75</ele>
        <time>2021-09-05T08:34:57.000Z</time>
      </trkpt>
      <trkpt lat="47.03594" lon="-1.5327">
        <ele>75</ele>
        <time>2021-09-05T08:34:59.000Z</time>
      </trkpt>
      <trkpt lat="47.036" lon="-1.53251">
        <ele>75</ele>
        <time>2021-09-05T08:35:01.000Z</time>
      </trkpt>
      <trkpt lat="47.03605" lon="-1.5323">
        <ele>74</ele>
        <time>2021-09-05T08:35:03.000Z</time>
      </trkpt>
      <trkpt lat="47.03611" lon="-1.5321">
        <ele>74</ele>
        <time>2021-09-05T08:35:05.000Z</time>
      </trkpt>
      <trkpt lat="47.03617" lon="-1.5319">
        <ele>74</ele>
        <time>2021-09-05T08:35:07.000Z</time>
      </trkpt>
      <trkpt lat="47.03622" lon="-1.5317">
        <ele>73</ele>
        <time>2021-09-05T08:35:09.000Z</time>
      </trkpt>
      <trkpt lat="47.03628" lon="-1.53151">
        <ele>73</ele>
        <time>2021-09-05T08:35:11.000Z</time>
      </trkpt>
      <trkpt lat="47.03634" lon="-1.53132">
        <ele>73</ele>
        <time>2021-09-05T08:35:13.000Z</time>
      </trkpt>
      <trkpt lat="47.03641" lon="-1.53113">
        <ele>73</ele>
        <time>2021-09-05T08:35:15.000Z</time>
      </trkpt>
      <trkpt lat="47.03648" lon="-1.53096">
        <ele>74</ele>
        <time>2021-09-05T08:35:17.000Z</time>
      </trkpt>
      <trkpt lat="47.03654" lon="-1.5308">
        <ele>75</ele>
        <time>2021-09-05T08:35:19.000Z</time>
      </trkpt>
      <trkpt lat="47.03661" lon="-1.53063">
        <ele>75</ele>
        <time>2021-09-05T08:35:21.000Z</time>
      </trkpt>
      <trkpt lat="47.03669" lon="-1.53046">
        <ele>75</ele>
        <time>2021-09-05T08:35:23.000Z</time>
      </trkpt>
      <trkpt lat="47.03678" lon="-1.53032">
        <ele>75</ele>
        <time>2021-09-05T08:35:25.000Z</time>
      </trkpt>
      <trkpt lat="47.03686" lon="-1.53017">
        <ele>76</ele>
        <time>2021-09-05T08:35:27.000Z</time>
      </trkpt>
      <trkpt lat="47.03696" lon="-1.53002">
        <ele>75</ele>
        <time>2021-09-05T08:35:29.000Z</time>
      </trkpt>
      <trkpt lat="47.03705" lon="-1.52988">
        <ele>75</ele>
        <time>2021-09-05T08:35:31.000Z</time>
      </trkpt>
      <trkpt lat="47.03714" lon="-1.52973">
        <ele>76</ele>
        <time>2021-09-05T08:35:33.000Z</time>
      </trkpt>
      <trkpt lat="47.03723" lon="-1.52959">
        <ele>76</ele>
        <time>2021-09-05T08:35:35.000Z</time>
      </trkpt>
      <trkpt lat="47.03731" lon="-1.52946">
        <ele>76</ele>
        <time>2021-09-05T08:35:37.000Z</time>
      </trkpt>
      <trkpt lat="47.03739" lon="-1.52933">
        <ele>77</ele>
        <time>2021-09-05T08:35:39.000Z</time>
      </trkpt>
      <trkpt lat="47.03747" lon="-1.5292">
        <ele>77</ele>
        <time>2021-09-05T08:35:41.000Z</time>
      </trkpt>
      <trkpt lat="47.03755" lon="-1.52905">
        <ele>78</ele>
        <time>2021-09-05T08:35:43.000Z</time>
      </trkpt>
      <trkpt lat="47.03763" lon="-1.52891">
        <ele>77</ele>
        <time>2021-09-05T08:35:45.000Z</time>
      </trkpt>
      <trkpt lat="47.0377" lon="-1.52878">
        <ele>78</ele>
        <time>2021-09-05T08:35:47.000Z</time>
      </trkpt>
      <trkpt lat="47.03779" lon="-1.52864">
        <ele>78</ele>
        <time>2021-09-05T08:35:49.000Z</time>
      </trkpt>
      <trkpt lat="47.03787" lon="-1.52851">
        <ele>79</ele>
        <time>2021-09-05T08:35:51.000Z</time>
      </trkpt>
      <trkpt lat="47.03795" lon="-1.52838">
        <ele>80</ele>
        <time>2021-09-05T08:35:53.000Z</time>
      </trkpt>
      <trkpt lat="47.03803" lon="-1.52824">
        <ele>80</ele>
        <time>2021-09-05T08:35:55.000Z</time>
      </trkpt>
      <trkpt lat="47.03811" lon="-1.52811">
        <ele>81</ele>
        <time>2021-09-05T08:35:57.000Z</time>
      </trkpt>
      <trkpt lat="47.03819" lon="-1.52798">
        <ele>80</ele>
        <time>2021-09-05T08:35:59.000Z</time>
      </trkpt>
      <trkpt lat="47.03827" lon="-1.52786">
        <ele>81</ele>
        <time>2021-09-05T08:36:01.000Z</time>
      </trkpt>
      <trkpt lat="47.03835" lon="-1.52772">
        <ele>81</ele>
        <time>2021-09-05T08:36:03.000Z</time>
      </trkpt>
      <trkpt lat="47.03844" lon="-1.52759">
        <ele>81</ele>
        <time>2021-09-05T08:36:05.000Z</time>
      </trkpt>
      <trkpt lat="47.03852" lon="-1.52745">
        <ele>80</ele>
        <time>2021-09-05T08:36:07.000Z</time>
      </trkpt>
      <trkpt lat="47.0386" lon="-1.52732">
        <ele>80</ele>
        <time>2021-09-05T08:36:09.000Z</time>
      </trkpt>
      <trkpt lat="47.03868" lon="-1.52719">
        <ele>80</ele>
        <time>2021-09-05T08:36:11.000Z</time>
      </trkpt>
      <trkpt lat="47.03875" lon="-1.52705">
        <ele>80</ele>
        <time>2021-09-05T08:36:13.000Z</time>
      </trkpt>
      <trkpt lat="47.03883" lon="-1.52692">
        <ele>80</ele>
        <time>2021-09-05T08:36:15.000Z</time>
      </trkpt>
      <trkpt lat="47.03891" lon="-1.52679">
        <ele>79</ele>
        <time>2021-09-05T08:36:17.000Z</time>
      </trkpt>
      <trkpt lat="47.03899" lon="-1.52666">
        <ele>79</ele>
        <time>2021-09-05T08:36:19.000Z</time>
      </trkpt>
      <trkpt lat="47.03908" lon="-1.52653">
        <ele>79</ele>
        <time>2021-09-05T08:36:21.000Z</time>
      </trkpt>
      <trkpt lat="47.03916" lon="-1.52639">
        <ele>79</ele>
        <time>2021-09-05T08:36:23.000Z</time>
      </trkpt>
      <trkpt lat="47.03924" lon="-1.52626">
        <ele>80</ele>
        <time>2021-09-05T08:36:25.000Z</time>
      </trkpt>
      <trkpt lat="47.03932" lon="-1.52612">
        <ele>80</ele>
        <time>2021-09-05T08:36:27.000Z</time>
      </trkpt>
      <trkpt lat="47.03941" lon="-1.52599">
        <ele>80</ele>
        <time>2021-09-05T08:36:29.000Z</time>
      </trkpt>
      <trkpt lat="47.03949" lon="-1.52585">
        <ele>80</ele>
        <time>2021-09-05T08:36:31.000Z</time>
      </trkpt>
      <trkpt lat="47.03957" lon="-1.52572">
        <ele>80</ele>
        <time>2021-09-05T08:36:33.000Z</time>
      </trkpt>
      <trkpt lat="47.03965" lon="-1.52558">
        <ele>80</ele>
        <time>2021-09-05T08:36:35.000Z</time>
      </trkpt>
      <trkpt lat="47.03974" lon="-1.52545">
        <ele>80</ele>
        <time>2021-09-05T08:36:37.000Z</time>
      </trkpt>
      <trkpt lat="47.03982" lon="-1.52531">
        <ele>81</ele>
        <time>2021-09-05T08:36:39.000Z</time>
      </trkpt>
      <trkpt lat="47.0399" lon="-1.52517">
        <ele>80</ele>
        <time>2021-09-05T08:36:41.000Z</time>
      </trkpt>
      <trkpt lat="47.03998" lon="-1.52504">
        <ele>80</ele>
        <time>2021-09-05T08:36:43.000Z</time>
      </trkpt>
      <trkpt lat="47.04006" lon="-1.5249">
        <ele>80</ele>
        <time>2021-09-05T08:36:45.000Z</time>
      </trkpt>
      <trkpt lat="47.04015" lon="-1.52476">
        <ele>80</ele>
        <time>2021-09-05T08:36:47.000Z</time>
      </trkpt>
      <trkpt lat="47.04023" lon="-1.52461">
        <ele>80</ele>
        <time>2021-09-05T08:36:49.000Z</time>
      </trkpt>
      <trkpt lat="47.04031" lon="-1.52448">
        <ele>79</ele>
        <time>2021-09-05T08:36:51.000Z</time>
      </trkpt>
      <trkpt lat="47.04039" lon="-1.52434">
        <ele>80</ele>
        <time>2021-09-05T08:36:53.000Z</time>
      </trkpt>
      <trkpt lat="47.04047" lon="-1.5242">
        <ele>80</ele>
        <time>2021-09-05T08:36:55.000Z</time>
      </trkpt>
      <trkpt lat="47.04055" lon="-1.52406">
        <ele>80</ele>
        <time>2021-09-05T08:36:57.000Z</time>
      </trkpt>
      <trkpt lat="47.04063" lon="-1.52392">
        <ele>81</ele>
        <time>2021-09-05T08:36:59.000Z</time>
      </trkpt>
      <trkpt lat="47.04072" lon="-1.52378">
        <ele>81</ele>
        <time>2021-09-05T08:37:01.000Z</time>
      </trkpt>
      <trkpt lat="47.0408" lon="-1.52364">
        <ele>81</ele>
        <time>2021-09-05T08:37:03.000Z</time>
      </trkpt>
      <trkpt lat="47.04089" lon="-1.5235">
        <ele>81</ele>
        <time>2021-09-05T08:37:05.000Z</time>
      </trkpt>
      <trkpt lat="47.04097" lon="-1.52336">
        <ele>81</ele>
        <time>2021-09-05T08:37:07.000Z</time>
      </trkpt>
      <trkpt lat="47.04106" lon="-1.52322">
        <ele>81</ele>
        <time>2021-09-05T08:37:09.000Z</time>
      </trkpt>
      <trkpt lat="47.04115" lon="-1.52309">
        <ele>81</ele>
        <time>2021-09-05T08:37:11.000Z</time>
      </trkpt>
      <trkpt lat="47.04123" lon="-1.52294">
        <ele>81</ele>
        <time>2021-09-05T08:37:13.000Z</time>
      </trkpt>
      <trkpt lat="47.04132" lon="-1.5228">
        <ele>81</ele>
        <time>2021-09-05T08:37:15.000Z</time>
      </trkpt>
      <trkpt lat="47.0414" lon="-1.52266">
        <ele>81</ele>
        <time>2021-09-05T08:37:17.000Z</time>
      </trkpt>
      <trkpt lat="47.04149" lon="-1.52252">
        <ele>81</ele>
        <time>2021-09-05T08:37:19.000Z</time>
      </trkpt>
      <trkpt lat="47.04157" lon="-1.52238">
        <ele>81</ele>
        <time>2021-09-05T08:37:21.000Z</time>
      </trkpt>
      <trkpt lat="47.04165" lon="-1.52223">
        <ele>81</ele>
        <time>2021-09-05T08:37:23.000Z</time>
      </trkpt>
      <trkpt lat="47.04174" lon="-1.52209">
        <ele>81</ele>
        <time>2021-09-05T08:37:25.000Z</time>
      </trkpt>
      <trkpt lat="47.04182" lon="-1.52195">
        <ele>81</ele>
        <time>2021-09-05T08:37:27.000Z</time>
      </trkpt>
      <trkpt lat="47.04191" lon="-1.52181">
        <ele>81</ele>
        <time>2021-09-05T08:37:29.000Z</time>
      </trkpt>
      <trkpt lat="47.04199" lon="-1.52167">
        <ele>82</ele>
        <time>2021-09-05T08:37:31.000Z</time>
      </trkpt>
      <trkpt lat="47.04208" lon="-1.52153">
        <ele>81</ele>
        <time>2021-09-05T08:37:33.000Z</time>
      </trkpt>
      <trkpt lat="47.04217" lon="-1.52138">
        <ele>82</ele>
        <time>2021-09-05T08:37:35.000Z</time>
      </trkpt>
      <trkpt lat="47.04225" lon="-1.52124">
        <ele>82</ele>
        <time>2021-09-05T08:37:37.000Z</time>
      </trkpt>
      <trkpt lat="47.04234" lon="-1.5211">
        <ele>81</ele>
        <time>2021-09-05T08:37:39.000Z</time>
      </trkpt>
      <trkpt lat="47.04242" lon="-1.52095">
        <ele>82</ele>
        <time>2021-09-05T08:37:41.000Z</time>
      </trkpt>
      <trkpt lat="47.04251" lon="-1.5208">
        <ele>82</ele>
        <time>2021-09-05T08:37:43.000Z</time>
      </trkpt>
      <trkpt lat="47.0426" lon="-1.52066">
        <ele>81</ele>
        <time>2021-09-05T08:37:45.000Z</time>
      </trkpt>
      <trkpt lat="47.04269" lon="-1.52051">
        <ele>81</ele>
        <time>2021-09-05T08:37:47.000Z</time>
      </trkpt>
      <trkpt lat="47.04278" lon="-1.52037">
        <ele>81</ele>
        <time>2021-09-05T08:37:49.000Z</time>
      </trkpt>
      <trkpt lat="47.04287" lon="-1.52021">
        <ele>82</ele>
        <time>2021-09-05T08:37:51.000Z</time>
      </trkpt>
      <trkpt lat="47.04296" lon="-1.52005">
        <ele>82</ele>
        <time>2021-09-05T08:37:53.000Z</time>
      </trkpt>
      <trkpt lat="47.04306" lon="-1.51989">
        <ele>81</ele>
        <time>2021-09-05T08:37:55.000Z</time>
      </trkpt>
      <trkpt lat="47.04316" lon="-1.51973">
        <ele>81</ele>
        <time>2021-09-05T08:37:57.000Z</time>
      </trkpt>
      <trkpt lat="47.04326" lon="-1.51957">
        <ele>81</ele>
        <time>2021-09-05T08:37:59.000Z</time>
      </trkpt>
      <trkpt lat="47.04335" lon="-1.51941">
        <ele>81</ele>
        <time>2021-09-05T08:38:01.000Z</time>
      </trkpt>
      <trkpt lat="47.04344" lon="-1.51924">
        <ele>82</ele>
        <time>2021-09-05T08:38:03.000Z</time>
      </trkpt>
      <trkpt lat="47.04354" lon="-1.51908">
        <ele>82</ele>
        <time>2021-09-05T08:38:05.000Z</time>
      </trkpt>
      <trkpt lat="47.04363" lon="-1.51893">
        <ele>82</ele>
        <time>2021-09-05T08:38:07.000Z</time>
      </trkpt>
      <trkpt lat="47.04372" lon="-1.51878">
        <ele>82</ele>
        <time>2021-09-05T08:38:09.000Z</time>
      </trkpt>
      <trkpt lat="47.04381" lon="-1.51863">
        <ele>82</ele>
        <time>2021-09-05T08:38:11.000Z</time>
      </trkpt>
      <trkpt lat="47.0439" lon="-1.51848">
        <ele>82</ele>
        <time>2021-09-05T08:38:13.000Z</time>
      </trkpt>
      <trkpt lat="47.044" lon="-1.51833">
        <ele>82</ele>
        <time>2021-09-05T08:38:15.000Z</time>
      </trkpt>
      <trkpt lat="47.04409" lon="-1.51818">
        <ele>82</ele>
        <time>2021-09-05T08:38:17.000Z</time>
      </trkpt>
      <trkpt lat="47.04418" lon="-1.51803">
        <ele>81</ele>
        <time>2021-09-05T08:38:19.000Z</time>
      </trkpt>
      <trkpt lat="47.04427" lon="-1.51788">
        <ele>81</ele>
        <time>2021-09-05T08:38:21.000Z</time>
      </trkpt>
      <trkpt lat="47.04436" lon="-1.51773">
        <ele>81</ele>
        <time>2021-09-05T08:38:23.000Z</time>
      </trkpt>
      <trkpt lat="47.04446" lon="-1.51758">
        <ele>81</ele>
        <time>2021-09-05T08:38:25.000Z</time>
      </trkpt>
      <trkpt lat="47.04455" lon="-1.51742">
        <ele>80</ele>
        <time>2021-09-05T08:38:27.000Z</time>
      </trkpt>
      <trkpt lat="47.04464" lon="-1.51726">
        <ele>80</ele>
        <time>2021-09-05T08:38:29.000Z</time>
      </trkpt>
      <trkpt lat="47.04473" lon="-1.51711">
        <ele>80</ele>
        <time>2021-09-05T08:38:31.000Z</time>
      </trkpt>
      <trkpt lat="47.04483" lon="-1.51695">
        <ele>80</ele>
        <time>2021-09-05T08:38:33.000Z</time>
      </trkpt>
      <trkpt lat="47.04492" lon="-1.5168">
        <ele>80</ele>
        <time>2021-09-05T08:38:35.000Z</time>
      </trkpt>
      <trkpt lat="47.04501" lon="-1.51665">
        <ele>79</ele>
        <time>2021-09-05T08:38:37.000Z</time>
      </trkpt>
      <trkpt lat="47.04511" lon="-1.51649">
        <ele>80</ele>
        <time>2021-09-05T08:38:39.000Z</time>
      </trkpt>
      <trkpt lat="47.0452" lon="-1.51633">
        <ele>79</ele>
        <time>2021-09-05T08:38:41.000Z</time>
      </trkpt>
      <trkpt lat="47.0453" lon="-1.51617">
        <ele>79</ele>
        <time>2021-09-05T08:38:43.000Z</time>
      </trkpt>
      <trkpt lat="47.04539" lon="-1.51601">
        <ele>79</ele>
        <time>2021-09-05T08:38:45.000Z</time>
      </trkpt>
      <trkpt lat="47.04548" lon="-1.51585">
        <ele>79</ele>
        <time>2021-09-05T08:38:47.000Z</time>
      </trkpt>
      <trkpt lat="47.04557" lon="-1.51567">
        <ele>78</ele>
        <time>2021-09-05T08:38:49.000Z</time>
      </trkpt>
      <trkpt lat="47.04565" lon="-1.5155">
        <ele>78</ele>
        <time>2021-09-05T08:38:51.000Z</time>
      </trkpt>
      <trkpt lat="47.04573" lon="-1.51532">
        <ele>78</ele>
        <time>2021-09-05T08:38:53.000Z</time>
      </trkpt>
      <trkpt lat="47.04579" lon="-1.51513">
        <ele>78</ele>
        <time>2021-09-05T08:38:55.000Z</time>
      </trkpt>
      <trkpt lat="47.04585" lon="-1.51493">
        <ele>78</ele>
        <time>2021-09-05T08:38:57.000Z</time>
      </trkpt>
      <trkpt lat="47.0459" lon="-1.51472">
        <ele>77</ele>
        <time>2021-09-05T08:38:59.000Z</time>
      </trkpt>
      <trkpt lat="47.04596" lon="-1.51452">
        <ele>77</ele>
        <time>2021-09-05T08:39:01.000Z</time>
      </trkpt>
      <trkpt lat="47.046" lon="-1.51433">
        <ele>77</ele>
        <time>2021-09-05T08:39:03.000Z</time>
      </trkpt>
      <trkpt lat="47.04605" lon="-1.51412">
        <ele>78</ele>
        <time>2021-09-05T08:39:05.000Z</time>
      </trkpt>
      <trkpt lat="47.04609" lon="-1.51392">
        <ele>78</ele>
        <time>2021-09-05T08:39:07.000Z</time>
      </trkpt>
      <trkpt lat="47.04615" lon="-1.51373">
        <ele>78</ele>
        <time>2021-09-05T08:39:09.000Z</time>
      </trkpt>
      <trkpt lat="47.04619" lon="-1.51353">
        <ele>78</ele>
        <time>2021-09-05T08:39:11.000Z</time>
      </trkpt>
      <trkpt lat="47.04624" lon="-1.51333">
        <ele>78</ele>
        <time>2021-09-05T08:39:13.000Z</time>
      </trkpt>
      <trkpt lat="47.04629" lon="-1.51313">
        <ele>78</ele>
        <time>2021-09-05T08:39:15.000Z</time>
      </trkpt>
      <trkpt lat="47.04634" lon="-1.51294">
        <ele>78</ele>
        <time>2021-09-05T08:39:17.000Z</time>
      </trkpt>
      <trkpt lat="47.04639" lon="-1.51274">
        <ele>78</ele>
        <time>2021-09-05T08:39:19.000Z</time>
      </trkpt>
      <trkpt lat="47.04644" lon="-1.51254">
        <ele>78</ele>
        <time>2021-09-05T08:39:21.000Z</time>
      </trkpt>
      <trkpt lat="47.04649" lon="-1.51234">
        <ele>78</ele>
        <time>2021-09-05T08:39:23.000Z</time>
      </trkpt>
      <trkpt lat="47.04654" lon="-1.51214">
        <ele>77</ele>
        <time>2021-09-05T08:39:25.000Z</time>
      </trkpt>
      <trkpt lat="47.04659" lon="-1.51195">
        <ele>77</ele>
        <time>2021-09-05T08:39:27.000Z</time>
      </trkpt>
      <trkpt lat="47.04664" lon="-1.51176">
        <ele>77</ele>
        <time>2021-09-05T08:39:29.000Z</time>
      </trkpt>
      <trkpt lat="47.04668" lon="-1.51156">
        <ele>78</ele>
        <time>2021-09-05T08:39:31.000Z</time>
      </trkpt>
      <trkpt lat="47.04673" lon="-1.51137">
        <ele>78</ele>
        <time>2021-09-05T08:39:33.000Z</time>
      </trkpt>
      <trkpt lat="47.04677" lon="-1.51118">
        <ele>79</ele>
        <time>2021-09-05T08:39:35.000Z</time>
      </trkpt>
      <trkpt lat="47.04681" lon="-1.511">
        <ele>79</ele>
        <time>2021-09-05T08:39:37.000Z</time>
      </trkpt>
      <trkpt lat="47.04685" lon="-1.51081">
        <ele>79</ele>
        <time>2021-09-05T08:39:39.000Z</time>
      </trkpt>
      <trkpt lat="47.04689" lon="-1.51061">
        <ele>79</ele>
        <time>2021-09-05T08:39:41.000Z</time>
      </trkpt>
      <trkpt lat="47.04693" lon="-1.51042">
        <ele>80</ele>
        <time>2021-09-05T08:39:43.000Z</time>
      </trkpt>
      <trkpt lat="47.04696" lon="-1.51023">
        <ele>80</ele>
        <time>2021-09-05T08:39:45.000Z</time>
      </trkpt>
      <trkpt lat="47.04701" lon="-1.51003">
        <ele>80</ele>
        <time>2021-09-05T08:39:47.000Z</time>
      </trkpt>
      <trkpt lat="47.04704" lon="-1.50982">
        <ele>80</ele>
        <time>2021-09-05T08:39:49.000Z</time>
      </trkpt>
      <trkpt lat="47.04708" lon="-1.50963">
        <ele>79</ele>
        <time>2021-09-05T08:39:51.000Z</time>
      </trkpt>
      <trkpt lat="47.04712" lon="-1.50943">
        <ele>79</ele>
        <time>2021-09-05T08:39:53.000Z</time>
      </trkpt>
      <trkpt lat="47.04715" lon="-1.50924">
        <ele>79</ele>
        <time>2021-09-05T08:39:55.000Z</time>
      </trkpt>
      <trkpt lat="47.04718" lon="-1.50907">
        <ele>79</ele>
        <time>2021-09-05T08:39:57.000Z</time>
      </trkpt>
      <trkpt lat="47.04719" lon="-1.5089">
        <ele>79</ele>
        <time>2021-09-05T08:39:59.000Z</time>
      </trkpt>
      <trkpt lat="47.04719" lon="-1.50875">
        <ele>79</ele>
        <time>2021-09-05T08:40:01.000Z</time>
      </trkpt>
      <trkpt lat="47.04721" lon="-1.50862">
        <ele>78</ele>
        <time>2021-09-05T08:40:05.000Z</time>
      </trkpt>
      <trkpt lat="47.04724" lon="-1.50847">
        <ele>80</ele>
        <time>2021-09-05T08:40:12.000Z</time>
      </trkpt>
      <trkpt lat="47.04731" lon="-1.50835">
        <ele>80</ele>
        <time>2021-09-05T08:40:14.000Z</time>
      </trkpt>
      <trkpt lat="47.04742" lon="-1.50813">
        <ele>80</ele>
        <time>2021-09-05T08:40:17.000Z</time>
      </trkpt>
      <trkpt lat="47.0475" lon="-1.50798">
        <ele>80</ele>
        <time>2021-09-05T08:40:19.000Z</time>
      </trkpt>
      <trkpt lat="47.04757" lon="-1.50783">
        <ele>80</ele>
        <time>2021-09-05T08:40:21.000Z</time>
      </trkpt>
      <trkpt lat="47.04763" lon="-1.50766">
        <ele>80</ele>
        <time>2021-09-05T08:40:23.000Z</time>
      </trkpt>
      <trkpt lat="47.0477" lon="-1.50751">
        <ele>80</ele>
        <time>2021-09-05T08:40:25.000Z</time>
      </trkpt>
      <trkpt lat="47.04776" lon="-1.50735">
        <ele>80</ele>
        <time>2021-09-05T08:40:27.000Z</time>
      </trkpt>
      <trkpt lat="47.04783" lon="-1.50719">
        <ele>80</ele>
        <time>2021-09-05T08:40:29.000Z</time>
      </trkpt>
      <trkpt lat="47.04789" lon="-1.50703">
        <ele>80</ele>
        <time>2021-09-05T08:40:31.000Z</time>
      </trkpt>
      <trkpt lat="47.04795" lon="-1.50687">
        <ele>80</ele>
        <time>2021-09-05T08:40:33.000Z</time>
      </trkpt>
      <trkpt lat="47.04802" lon="-1.50671">
        <ele>80</ele>
        <time>2021-09-05T08:40:35.000Z</time>
      </trkpt>
      <trkpt lat="47.04809" lon="-1.50655">
        <ele>80</ele>
        <time>2021-09-05T08:40:37.000Z</time>
      </trkpt>
      <trkpt lat="47.04815" lon="-1.50638">
        <ele>80</ele>
        <time>2021-09-05T08:40:39.000Z</time>
      </trkpt>
      <trkpt lat="47.04822" lon="-1.50622">
        <ele>80</ele>
        <time>2021-09-05T08:40:41.000Z</time>
      </trkpt>
      <trkpt lat="47.04828" lon="-1.50606">
        <ele>80</ele>
        <time>2021-09-05T08:40:43.000Z</time>
      </trkpt>
      <trkpt lat="47.04836" lon="-1.50589">
        <ele>80</ele>
        <time>2021-09-05T08:40:45.000Z</time>
      </trkpt>
      <trkpt lat="47.04844" lon="-1.50574">
        <ele>80</ele>
        <time>2021-09-05T08:40:47.000Z</time>
      </trkpt>
      <trkpt lat="47.04856" lon="-1.5055">
        <ele>79</ele>
        <time>2021-09-05T08:40:50.000Z</time>
      </trkpt>
      <trkpt lat="47.04865" lon="-1.50535">
        <ele>79</ele>
        <time>2021-09-05T08:40:52.000Z</time>
      </trkpt>
      <trkpt lat="47.04877" lon="-1.50513">
        <ele>79</ele>
        <time>2021-09-05T08:40:55.000Z</time>
      </trkpt>
      <trkpt lat="47.04885" lon="-1.50497">
        <ele>79</ele>
        <time>2021-09-05T08:40:57.000Z</time>
      </trkpt>
      <trkpt lat="47.04894" lon="-1.50482">
        <ele>79</ele>
        <time>2021-09-05T08:40:59.000Z</time>
      </trkpt>
      <trkpt lat="47.04902" lon="-1.50467">
        <ele>79</ele>
        <time>2021-09-05T08:41:01.000Z</time>
      </trkpt>
      <trkpt lat="47.04911" lon="-1.50451">
        <ele>79</ele>
        <time>2021-09-05T08:41:03.000Z</time>
      </trkpt>
      <trkpt lat="47.04919" lon="-1.50435">
        <ele>79</ele>
        <time>2021-09-05T08:41:05.000Z</time>
      </trkpt>
      <trkpt lat="47.04928" lon="-1.50421">
        <ele>80</ele>
        <time>2021-09-05T08:41:07.000Z</time>
      </trkpt>
      <trkpt lat="47.04935" lon="-1.50407">
        <ele>81</ele>
        <time>2021-09-05T08:41:09.000Z</time>
      </trkpt>
      <trkpt lat="47.04944" lon="-1.50391">
        <ele>82</ele>
        <time>2021-09-05T08:41:11.000Z</time>
      </trkpt>
      <trkpt lat="47.04952" lon="-1.50376">
        <ele>82</ele>
        <time>2021-09-05T08:41:13.000Z</time>
      </trkpt>
      <trkpt lat="47.0496" lon="-1.50362">
        <ele>83</ele>
        <time>2021-09-05T08:41:15.000Z</time>
      </trkpt>
      <trkpt lat="47.04968" lon="-1.50348">
        <ele>83</ele>
        <time>2021-09-05T08:41:17.000Z</time>
      </trkpt>
      <trkpt lat="47.04977" lon="-1.50332">
        <ele>84</ele>
        <time>2021-09-05T08:41:19.000Z</time>
      </trkpt>
      <trkpt lat="47.04985" lon="-1.50316">
        <ele>83</ele>
        <time>2021-09-05T08:41:21.000Z</time>
      </trkpt>
      <trkpt lat="47.04993" lon="-1.503">
        <ele>82</ele>
        <time>2021-09-05T08:41:23.000Z</time>
      </trkpt>
      <trkpt lat="47.05" lon="-1.50284">
        <ele>82</ele>
        <time>2021-09-05T08:41:25.000Z</time>
      </trkpt>
      <trkpt lat="47.05007" lon="-1.50267">
        <ele>82</ele>
        <time>2021-09-05T08:41:27.000Z</time>
      </trkpt>
      <trkpt lat="47.05014" lon="-1.50251">
        <ele>82</ele>
        <time>2021-09-05T08:41:29.000Z</time>
      </trkpt>
      <trkpt lat="47.05021" lon="-1.50235">
        <ele>82</ele>
        <time>2021-09-05T08:41:31.000Z</time>
      </trkpt>
      <trkpt lat="47.05027" lon="-1.5022">
        <ele>82</ele>
        <time>2021-09-05T08:41:33.000Z</time>
      </trkpt>
      <trkpt lat="47.05032" lon="-1.50202">
        <ele>82</ele>
        <time>2021-09-05T08:41:35.000Z</time>
      </trkpt>
      <trkpt lat="47.05039" lon="-1.50185">
        <ele>82</ele>
        <time>2021-09-05T08:41:37.000Z</time>
      </trkpt>
      <trkpt lat="47.05045" lon="-1.50169">
        <ele>82</ele>
        <time>2021-09-05T08:41:39.000Z</time>
      </trkpt>
      <trkpt lat="47.05051" lon="-1.50152">
        <ele>82</ele>
        <time>2021-09-05T08:41:41.000Z</time>
      </trkpt>
      <trkpt lat="47.05058" lon="-1.50136">
        <ele>82</ele>
        <time>2021-09-05T08:41:43.000Z</time>
      </trkpt>
      <trkpt lat="47.05065" lon="-1.5012">
        <ele>81</ele>
        <time>2021-09-05T08:41:45.000Z</time>
      </trkpt>
      <trkpt lat="47.05071" lon="-1.50103">
        <ele>81</ele>
        <time>2021-09-05T08:41:47.000Z</time>
      </trkpt>
      <trkpt lat="47.05078" lon="-1.50087">
        <ele>81</ele>
        <time>2021-09-05T08:41:49.000Z</time>
      </trkpt>
      <trkpt lat="47.05085" lon="-1.50072">
        <ele>81</ele>
        <time>2021-09-05T08:41:51.000Z</time>
      </trkpt>
      <trkpt lat="47.05094" lon="-1.50058">
        <ele>81</ele>
        <time>2021-09-05T08:41:53.000Z</time>
      </trkpt>
      <trkpt lat="47.05103" lon="-1.50044">
        <ele>81</ele>
        <time>2021-09-05T08:41:55.000Z</time>
      </trkpt>
      <trkpt lat="47.05112" lon="-1.5003">
        <ele>81</ele>
        <time>2021-09-05T08:41:57.000Z</time>
      </trkpt>
      <trkpt lat="47.05122" lon="-1.50018">
        <ele>81</ele>
        <time>2021-09-05T08:41:59.000Z</time>
      </trkpt>
      <trkpt lat="47.05131" lon="-1.50005">
        <ele>81</ele>
        <time>2021-09-05T08:42:01.000Z</time>
      </trkpt>
      <trkpt lat="47.05141" lon="-1.49992">
        <ele>81</ele>
        <time>2021-09-05T08:42:03.000Z</time>
      </trkpt>
      <trkpt lat="47.0515" lon="-1.4998">
        <ele>81</ele>
        <time>2021-09-05T08:42:05.000Z</time>
      </trkpt>
      <trkpt lat="47.05159" lon="-1.49968">
        <ele>81</ele>
        <time>2021-09-05T08:42:07.000Z</time>
      </trkpt>
      <trkpt lat="47.05168" lon="-1.49956">
        <ele>81</ele>
        <time>2021-09-05T08:42:09.000Z</time>
      </trkpt>
      <trkpt lat="47.05177" lon="-1.49943">
        <ele>81</ele>
        <time>2021-09-05T08:42:11.000Z</time>
      </trkpt>
      <trkpt lat="47.05186" lon="-1.4993">
        <ele>81</ele>
        <time>2021-09-05T08:42:13.000Z</time>
      </trkpt>
      <trkpt lat="47.05195" lon="-1.49917">
        <ele>81</ele>
        <time>2021-09-05T08:42:15.000Z</time>
      </trkpt>
      <trkpt lat="47.05204" lon="-1.49905">
        <ele>82</ele>
        <time>2021-09-05T08:42:17.000Z</time>
      </trkpt>
      <trkpt lat="47.05213" lon="-1.49893">
        <ele>83</ele>
        <time>2021-09-05T08:42:19.000Z</time>
      </trkpt>
      <trkpt lat="47.05222" lon="-1.4988">
        <ele>83</ele>
        <time>2021-09-05T08:42:21.000Z</time>
      </trkpt>
      <trkpt lat="47.05231" lon="-1.49867">
        <ele>83</ele>
        <time>2021-09-05T08:42:23.000Z</time>
      </trkpt>
      <trkpt lat="47.05241" lon="-1.49854">
        <ele>83</ele>
        <time>2021-09-05T08:42:25.000Z</time>
      </trkpt>
      <trkpt lat="47.05249" lon="-1.4984">
        <ele>83</ele>
        <time>2021-09-05T08:42:27.000Z</time>
      </trkpt>
      <trkpt lat="47.05257" lon="-1.49826">
        <ele>83</ele>
        <time>2021-09-05T08:42:29.000Z</time>
      </trkpt>
      <trkpt lat="47.05264" lon="-1.49811">
        <ele>83</ele>
        <time>2021-09-05T08:42:31.000Z</time>
      </trkpt>
      <trkpt lat="47.05271" lon="-1.49796">
        <ele>83</ele>
        <time>2021-09-05T08:42:33.000Z</time>
      </trkpt>
      <trkpt lat="47.05278" lon="-1.49781">
        <ele>83</ele>
        <time>2021-09-05T08:42:35.000Z</time>
      </trkpt>
      <trkpt lat="47.05285" lon="-1.49766">
        <ele>83</ele>
        <time>2021-09-05T08:42:37.000Z</time>
      </trkpt>
      <trkpt lat="47.05291" lon="-1.49751">
        <ele>82</ele>
        <time>2021-09-05T08:42:39.000Z</time>
      </trkpt>
      <trkpt lat="47.05298" lon="-1.49736">
        <ele>83</ele>
        <time>2021-09-05T08:42:41.000Z</time>
      </trkpt>
      <trkpt lat="47.05304" lon="-1.49721">
        <ele>83</ele>
        <time>2021-09-05T08:42:43.000Z</time>
      </trkpt>
      <trkpt lat="47.05311" lon="-1.49706">
        <ele>83</ele>
        <time>2021-09-05T08:42:45.000Z</time>
      </trkpt>
      <trkpt lat="47.05318" lon="-1.4969">
        <ele>83</ele>
        <time>2021-09-05T08:42:47.000Z</time>
      </trkpt>
      <trkpt lat="47.05325" lon="-1.49675">
        <ele>83</ele>
        <time>2021-09-05T08:42:49.000Z</time>
      </trkpt>
      <trkpt lat="47.05332" lon="-1.4966">
        <ele>83</ele>
        <time>2021-09-05T08:42:51.000Z</time>
      </trkpt>
      <trkpt lat="47.05339" lon="-1.49645">
        <ele>83</ele>
        <time>2021-09-05T08:42:53.000Z</time>
      </trkpt>
      <trkpt lat="47.05346" lon="-1.49629">
        <ele>82</ele>
        <time>2021-09-05T08:42:55.000Z</time>
      </trkpt>
      <trkpt lat="47.05353" lon="-1.49614">
        <ele>82</ele>
        <time>2021-09-05T08:42:57.000Z</time>
      </trkpt>
      <trkpt lat="47.0536" lon="-1.49598">
        <ele>82</ele>
        <time>2021-09-05T08:42:59.000Z</time>
      </trkpt>
      <trkpt lat="47.05366" lon="-1.49582">
        <ele>82</ele>
        <time>2021-09-05T08:43:01.000Z</time>
      </trkpt>
      <trkpt lat="47.05373" lon="-1.49566">
        <ele>82</ele>
        <time>2021-09-05T08:43:03.000Z</time>
      </trkpt>
      <trkpt lat="47.05379" lon="-1.49549">
        <ele>82</ele>
        <time>2021-09-05T08:43:05.000Z</time>
      </trkpt>
      <trkpt lat="47.05385" lon="-1.49532">
        <ele>82</ele>
        <time>2021-09-05T08:43:07.000Z</time>
      </trkpt>
      <trkpt lat="47.05389" lon="-1.49515">
        <ele>82</ele>
        <time>2021-09-05T08:43:09.000Z</time>
      </trkpt>
      <trkpt lat="47.05393" lon="-1.49497">
        <ele>81</ele>
        <time>2021-09-05T08:43:11.000Z</time>
      </trkpt>
      <trkpt lat="47.05396" lon="-1.49479">
        <ele>81</ele>
        <time>2021-09-05T08:43:13.000Z</time>
      </trkpt>
      <trkpt lat="47.05399" lon="-1.49461">
        <ele>82</ele>
        <time>2021-09-05T08:43:15.000Z</time>
      </trkpt>
      <trkpt lat="47.05403" lon="-1.49442">
        <ele>81</ele>
        <time>2021-09-05T08:43:17.000Z</time>
      </trkpt>
      <trkpt lat="47.05406" lon="-1.49424">
        <ele>81</ele>
        <time>2021-09-05T08:43:19.000Z</time>
      </trkpt>
      <trkpt lat="47.05409" lon="-1.49406">
        <ele>81</ele>
        <time>2021-09-05T08:43:21.000Z</time>
      </trkpt>
      <trkpt lat="47.05412" lon="-1.49388">
        <ele>81</ele>
        <time>2021-09-05T08:43:23.000Z</time>
      </trkpt>
      <trkpt lat="47.05415" lon="-1.4937">
        <ele>81</ele>
        <time>2021-09-05T08:43:25.000Z</time>
      </trkpt>
      <trkpt lat="47.05418" lon="-1.49352">
        <ele>81</ele>
        <time>2021-09-05T08:43:27.000Z</time>
      </trkpt>
      <trkpt lat="47.05421" lon="-1.49334">
        <ele>81</ele>
        <time>2021-09-05T08:43:29.000Z</time>
      </trkpt>
      <trkpt lat="47.05424" lon="-1.49315">
        <ele>81</ele>
        <time>2021-09-05T08:43:31.000Z</time>
      </trkpt>
      <trkpt lat="47.05427" lon="-1.49297">
        <ele>81</ele>
        <time>2021-09-05T08:43:33.000Z</time>
      </trkpt>
      <trkpt lat="47.05431" lon="-1.4928">
        <ele>81</ele>
        <time>2021-09-05T08:43:35.000Z</time>
      </trkpt>
      <trkpt lat="47.05435" lon="-1.49263">
        <ele>82</ele>
        <time>2021-09-05T08:43:37.000Z</time>
      </trkpt>
      <trkpt lat="47.0544" lon="-1.49247">
        <ele>81</ele>
        <time>2021-09-05T08:43:39.000Z</time>
      </trkpt>
      <trkpt lat="47.05447" lon="-1.49232">
        <ele>81</ele>
        <time>2021-09-05T08:43:41.000Z</time>
      </trkpt>
      <trkpt lat="47.05453" lon="-1.49216">
        <ele>81</ele>
        <time>2021-09-05T08:43:43.000Z</time>
      </trkpt>
      <trkpt lat="47.0546" lon="-1.49202">
        <ele>81</ele>
        <time>2021-09-05T08:43:45.000Z</time>
      </trkpt>
      <trkpt lat="47.05467" lon="-1.49186">
        <ele>80</ele>
        <time>2021-09-05T08:43:47.000Z</time>
      </trkpt>
      <trkpt lat="47.05474" lon="-1.4917">
        <ele>80</ele>
        <time>2021-09-05T08:43:49.000Z</time>
      </trkpt>
      <trkpt lat="47.0548" lon="-1.49154">
        <ele>80</ele>
        <time>2021-09-05T08:43:51.000Z</time>
      </trkpt>
      <trkpt lat="47.05488" lon="-1.49136">
        <ele>79</ele>
        <time>2021-09-05T08:43:53.000Z</time>
      </trkpt>
      <trkpt lat="47.05496" lon="-1.49119">
        <ele>79</ele>
        <time>2021-09-05T08:43:55.000Z</time>
      </trkpt>
      <trkpt lat="47.05503" lon="-1.49101">
        <ele>78</ele>
        <time>2021-09-05T08:43:57.000Z</time>
      </trkpt>
      <trkpt lat="47.05511" lon="-1.49082">
        <ele>78</ele>
        <time>2021-09-05T08:43:59.000Z</time>
      </trkpt>
      <trkpt lat="47.05518" lon="-1.49064">
        <ele>78</ele>
        <time>2021-09-05T08:44:01.000Z</time>
      </trkpt>
      <trkpt lat="47.05526" lon="-1.49045">
        <ele>77</ele>
        <time>2021-09-05T08:44:03.000Z</time>
      </trkpt>
      <trkpt lat="47.05534" lon="-1.49026">
        <ele>76</ele>
        <time>2021-09-05T08:44:05.000Z</time>
      </trkpt>
      <trkpt lat="47.05541" lon="-1.49007">
        <ele>76</ele>
        <time>2021-09-05T08:44:07.000Z</time>
      </trkpt>
      <trkpt lat="47.05549" lon="-1.48987">
        <ele>76</ele>
        <time>2021-09-05T08:44:09.000Z</time>
      </trkpt>
      <trkpt lat="47.05555" lon="-1.48968">
        <ele>75</ele>
        <time>2021-09-05T08:44:11.000Z</time>
      </trkpt>
      <trkpt lat="47.0556" lon="-1.48947">
        <ele>75</ele>
        <time>2021-09-05T08:44:13.000Z</time>
      </trkpt>
      <trkpt lat="47.05564" lon="-1.48925">
        <ele>74</ele>
        <time>2021-09-05T08:44:15.000Z</time>
      </trkpt>
      <trkpt lat="47.05568" lon="-1.48903">
        <ele>73</ele>
        <time>2021-09-05T08:44:17.000Z</time>
      </trkpt>
      <trkpt lat="47.05572" lon="-1.48879">
        <ele>72</ele>
        <time>2021-09-05T08:44:19.000Z</time>
      </trkpt>
      <trkpt lat="47.05575" lon="-1.48856">
        <ele>71</ele>
        <time>2021-09-05T08:44:21.000Z</time>
      </trkpt>
      <trkpt lat="47.05579" lon="-1.48832">
        <ele>69</ele>
        <time>2021-09-05T08:44:23.000Z</time>
      </trkpt>
      <trkpt lat="47.05583" lon="-1.4881">
        <ele>69</ele>
        <time>2021-09-05T08:44:25.000Z</time>
      </trkpt>
      <trkpt lat="47.05586" lon="-1.48791">
        <ele>68</ele>
        <time>2021-09-05T08:44:27.000Z</time>
      </trkpt>
      <trkpt lat="47.05587" lon="-1.48776">
        <ele>68</ele>
        <time>2021-09-05T08:44:30.000Z</time>
      </trkpt>
      <trkpt lat="47.05596" lon="-1.48769">
        <ele>68</ele>
        <time>2021-09-05T08:44:33.000Z</time>
      </trkpt>
      <trkpt lat="47.05608" lon="-1.48769">
        <ele>68</ele>
        <time>2021-09-05T08:44:35.000Z</time>
      </trkpt>
      <trkpt lat="47.05622" lon="-1.48771">
        <ele>68</ele>
        <time>2021-09-05T08:44:37.000Z</time>
      </trkpt>
      <trkpt lat="47.05635" lon="-1.48772">
        <ele>69</ele>
        <time>2021-09-05T08:44:39.000Z</time>
      </trkpt>
      <trkpt lat="47.05649" lon="-1.48771">
        <ele>69</ele>
        <time>2021-09-05T08:44:41.000Z</time>
      </trkpt>
      <trkpt lat="47.05658" lon="-1.48768">
        <ele>68</ele>
        <time>2021-09-05T08:44:43.000Z</time>
      </trkpt>
      <trkpt lat="47.05671" lon="-1.48764">
        <ele>67</ele>
        <time>2021-09-05T08:44:47.000Z</time>
      </trkpt>
      <trkpt lat="47.05679" lon="-1.48775">
        <ele>67</ele>
        <time>2021-09-05T08:44:49.000Z</time>
      </trkpt>
      <trkpt lat="47.05688" lon="-1.48786">
        <ele>66</ele>
        <time>2021-09-05T08:44:51.000Z</time>
      </trkpt>
      <trkpt lat="47.05697" lon="-1.48798">
        <ele>67</ele>
        <time>2021-09-05T08:44:53.000Z</time>
      </trkpt>
      <trkpt lat="47.05706" lon="-1.48808">
        <ele>67</ele>
        <time>2021-09-05T08:44:55.000Z</time>
      </trkpt>
      <trkpt lat="47.05716" lon="-1.48818">
        <ele>68</ele>
        <time>2021-09-05T08:44:57.000Z</time>
      </trkpt>
      <trkpt lat="47.05726" lon="-1.48828">
        <ele>67</ele>
        <time>2021-09-05T08:44:59.000Z</time>
      </trkpt>
      <trkpt lat="47.05735" lon="-1.48838">
        <ele>67</ele>
        <time>2021-09-05T08:45:01.000Z</time>
      </trkpt>
      <trkpt lat="47.05745" lon="-1.48845">
        <ele>67</ele>
        <time>2021-09-05T08:45:03.000Z</time>
      </trkpt>
      <trkpt lat="47.05756" lon="-1.48853">
        <ele>66</ele>
        <time>2021-09-05T08:45:05.000Z</time>
      </trkpt>
      <trkpt lat="47.05768" lon="-1.4886">
        <ele>65</ele>
        <time>2021-09-05T08:45:07.000Z</time>
      </trkpt>
      <trkpt lat="47.05778" lon="-1.48868">
        <ele>66</ele>
        <time>2021-09-05T08:45:09.000Z</time>
      </trkpt>
      <trkpt lat="47.05788" lon="-1.48876">
        <ele>66</ele>
        <time>2021-09-05T08:45:11.000Z</time>
      </trkpt>
      <trkpt lat="47.05799" lon="-1.48884">
        <ele>67</ele>
        <time>2021-09-05T08:45:13.000Z</time>
      </trkpt>
      <trkpt lat="47.0581" lon="-1.48891">
        <ele>67</ele>
        <time>2021-09-05T08:45:15.000Z</time>
      </trkpt>
      <trkpt lat="47.05821" lon="-1.48899">
        <ele>67</ele>
        <time>2021-09-05T08:45:17.000Z</time>
      </trkpt>
      <trkpt lat="47.05831" lon="-1.48909">
        <ele>68</ele>
        <time>2021-09-05T08:45:19.000Z</time>
      </trkpt>
      <trkpt lat="47.0584" lon="-1.4892">
        <ele>69</ele>
        <time>2021-09-05T08:45:21.000Z</time>
      </trkpt>
      <trkpt lat="47.0585" lon="-1.48931">
        <ele>69</ele>
        <time>2021-09-05T08:45:23.000Z</time>
      </trkpt>
      <trkpt lat="47.05861" lon="-1.48939">
        <ele>69</ele>
        <time>2021-09-05T08:45:25.000Z</time>
      </trkpt>
      <trkpt lat="47.05871" lon="-1.48948">
        <ele>69</ele>
        <time>2021-09-05T08:45:27.000Z</time>
      </trkpt>
      <trkpt lat="47.05882" lon="-1.48957">
        <ele>69</ele>
        <time>2021-09-05T08:45:29.000Z</time>
      </trkpt>
      <trkpt lat="47.05891" lon="-1.48966">
        <ele>69</ele>
        <time>2021-09-05T08:45:31.000Z</time>
      </trkpt>
      <trkpt lat="47.05902" lon="-1.48975">
        <ele>70</ele>
        <time>2021-09-05T08:45:33.000Z</time>
      </trkpt>
      <trkpt lat="47.05912" lon="-1.48983">
        <ele>70</ele>
        <time>2021-09-05T08:45:35.000Z</time>
      </trkpt>
      <trkpt lat="47.05922" lon="-1.48993">
        <ele>70</ele>
        <time>2021-09-05T08:45:37.000Z</time>
      </trkpt>
      <trkpt lat="47.05932" lon="-1.49001">
        <ele>70</ele>
        <time>2021-09-05T08:45:39.000Z</time>
      </trkpt>
      <trkpt lat="47.05942" lon="-1.4901">
        <ele>70</ele>
        <time>2021-09-05T08:45:41.000Z</time>
      </trkpt>
      <trkpt lat="47.05952" lon="-1.49019">
        <ele>71</ele>
        <time>2021-09-05T08:45:43.000Z</time>
      </trkpt>
      <trkpt lat="47.05961" lon="-1.49028">
        <ele>71</ele>
        <time>2021-09-05T08:45:45.000Z</time>
      </trkpt>
      <trkpt lat="47.0597" lon="-1.49038">
        <ele>71</ele>
        <time>2021-09-05T08:45:47.000Z</time>
      </trkpt>
      <trkpt lat="47.05979" lon="-1.49048">
        <ele>71</ele>
        <time>2021-09-05T08:45:49.000Z</time>
      </trkpt>
      <trkpt lat="47.05988" lon="-1.49058">
        <ele>72</ele>
        <time>2021-09-05T08:45:51.000Z</time>
      </trkpt>
      <trkpt lat="47.05997" lon="-1.49068">
        <ele>72</ele>
        <time>2021-09-05T08:45:53.000Z</time>
      </trkpt>
      <trkpt lat="47.06005" lon="-1.49079">
        <ele>73</ele>
        <time>2021-09-05T08:45:55.000Z</time>
      </trkpt>
      <trkpt lat="47.06014" lon="-1.49091">
        <ele>73</ele>
        <time>2021-09-05T08:45:57.000Z</time>
      </trkpt>
      <trkpt lat="47.06021" lon="-1.49104">
        <ele>73</ele>
        <time>2021-09-05T08:45:59.000Z</time>
      </trkpt>
      <trkpt lat="47.06028" lon="-1.49116">
        <ele>73</ele>
        <time>2021-09-05T08:46:01.000Z</time>
      </trkpt>
      <trkpt lat="47.06035" lon="-1.4913">
        <ele>73</ele>
        <time>2021-09-05T08:46:03.000Z</time>
      </trkpt>
      <trkpt lat="47.06043" lon="-1.49144">
        <ele>73</ele>
        <time>2021-09-05T08:46:05.000Z</time>
      </trkpt>
      <trkpt lat="47.0605" lon="-1.49157">
        <ele>73</ele>
        <time>2021-09-05T08:46:07.000Z</time>
      </trkpt>
      <trkpt lat="47.06057" lon="-1.49171">
        <ele>73</ele>
        <time>2021-09-05T08:46:09.000Z</time>
      </trkpt>
      <trkpt lat="47.06063" lon="-1.49185">
        <ele>73</ele>
        <time>2021-09-05T08:46:11.000Z</time>
      </trkpt>
      <trkpt lat="47.0607" lon="-1.49199">
        <ele>73</ele>
        <time>2021-09-05T08:46:13.000Z</time>
      </trkpt>
      <trkpt lat="47.06078" lon="-1.49212">
        <ele>73</ele>
        <time>2021-09-05T08:46:15.000Z</time>
      </trkpt>
      <trkpt lat="47.06085" lon="-1.49226">
        <ele>74</ele>
        <time>2021-09-05T08:46:17.000Z</time>
      </trkpt>
      <trkpt lat="47.06092" lon="-1.4924">
        <ele>74</ele>
        <time>2021-09-05T08:46:19.000Z</time>
      </trkpt>
      <trkpt lat="47.06099" lon="-1.49255">
        <ele>74</ele>
        <time>2021-09-05T08:46:21.000Z</time>
      </trkpt>
      <trkpt lat="47.06106" lon="-1.49269">
        <ele>74</ele>
        <time>2021-09-05T08:46:23.000Z</time>
      </trkpt>
      <trkpt lat="47.06113" lon="-1.49283">
        <ele>74</ele>
        <time>2021-09-05T08:46:25.000Z</time>
      </trkpt>
      <trkpt lat="47.06121" lon="-1.49297">
        <ele>74</ele>
        <time>2021-09-05T08:46:27.000Z</time>
      </trkpt>
      <trkpt lat="47.06129" lon="-1.49309">
        <ele>74</ele>
        <time>2021-09-05T08:46:29.000Z</time>
      </trkpt>
      <trkpt lat="47.06137" lon="-1.49321">
        <ele>74</ele>
        <time>2021-09-05T08:46:31.000Z</time>
      </trkpt>
      <trkpt lat="47.06145" lon="-1.49333">
        <ele>74</ele>
        <time>2021-09-05T08:46:33.000Z</time>
      </trkpt>
      <trkpt lat="47.06154" lon="-1.49344">
        <ele>74</ele>
        <time>2021-09-05T08:46:35.000Z</time>
      </trkpt>
      <trkpt lat="47.06163" lon="-1.49354">
        <ele>74</ele>
        <time>2021-09-05T08:46:37.000Z</time>
      </trkpt>
      <trkpt lat="47.06172" lon="-1.49366">
        <ele>74</ele>
        <time>2021-09-05T08:46:39.000Z</time>
      </trkpt>
      <trkpt lat="47.06181" lon="-1.49377">
        <ele>74</ele>
        <time>2021-09-05T08:46:41.000Z</time>
      </trkpt>
      <trkpt lat="47.0619" lon="-1.49388">
        <ele>74</ele>
        <time>2021-09-05T08:46:43.000Z</time>
      </trkpt>
      <trkpt lat="47.06199" lon="-1.49398">
        <ele>74</ele>
        <time>2021-09-05T08:46:45.000Z</time>
      </trkpt>
      <trkpt lat="47.06209" lon="-1.49407">
        <ele>74</ele>
        <time>2021-09-05T08:46:47.000Z</time>
      </trkpt>
      <trkpt lat="47.06218" lon="-1.49417">
        <ele>74</ele>
        <time>2021-09-05T08:46:49.000Z</time>
      </trkpt>
      <trkpt lat="47.06228" lon="-1.49428">
        <ele>75</ele>
        <time>2021-09-05T08:46:51.000Z</time>
      </trkpt>
      <trkpt lat="47.06238" lon="-1.49438">
        <ele>75</ele>
        <time>2021-09-05T08:46:53.000Z</time>
      </trkpt>
      <trkpt lat="47.06248" lon="-1.49449">
        <ele>76</ele>
        <time>2021-09-05T08:46:55.000Z</time>
      </trkpt>
      <trkpt lat="47.06258" lon="-1.4946">
        <ele>75</ele>
        <time>2021-09-05T08:46:57.000Z</time>
      </trkpt>
      <trkpt lat="47.06268" lon="-1.4947">
        <ele>75</ele>
        <time>2021-09-05T08:46:59.000Z</time>
      </trkpt>
      <trkpt lat="47.06279" lon="-1.49479">
        <ele>75</ele>
        <time>2021-09-05T08:47:01.000Z</time>
      </trkpt>
      <trkpt lat="47.0629" lon="-1.49486">
        <ele>75</ele>
        <time>2021-09-05T08:47:03.000Z</time>
      </trkpt>
      <trkpt lat="47.06301" lon="-1.49493">
        <ele>75</ele>
        <time>2021-09-05T08:47:05.000Z</time>
      </trkpt>
      <trkpt lat="47.06313" lon="-1.495">
        <ele>75</ele>
        <time>2021-09-05T08:47:07.000Z</time>
      </trkpt>
      <trkpt lat="47.06324" lon="-1.49506">
        <ele>74</ele>
        <time>2021-09-05T08:47:09.000Z</time>
      </trkpt>
      <trkpt lat="47.06335" lon="-1.49511">
        <ele>74</ele>
        <time>2021-09-05T08:47:11.000Z</time>
      </trkpt>
      <trkpt lat="47.06347" lon="-1.49517">
        <ele>74</ele>
        <time>2021-09-05T08:47:13.000Z</time>
      </trkpt>
      <trkpt lat="47.06359" lon="-1.49523">
        <ele>74</ele>
        <time>2021-09-05T08:47:15.000Z</time>
      </trkpt>
      <trkpt lat="47.0637" lon="-1.49529">
        <ele>74</ele>
        <time>2021-09-05T08:47:17.000Z</time>
      </trkpt>
      <trkpt lat="47.06381" lon="-1.49535">
        <ele>75</ele>
        <time>2021-09-05T08:47:19.000Z</time>
      </trkpt>
      <trkpt lat="47.06393" lon="-1.49542">
        <ele>75</ele>
        <time>2021-09-05T08:47:21.000Z</time>
      </trkpt>
      <trkpt lat="47.06404" lon="-1.49547">
        <ele>75</ele>
        <time>2021-09-05T08:47:23.000Z</time>
      </trkpt>
      <trkpt lat="47.06416" lon="-1.49553">
        <ele>75</ele>
        <time>2021-09-05T08:47:25.000Z</time>
      </trkpt>
      <trkpt lat="47.06427" lon="-1.49559">
        <ele>75</ele>
        <time>2021-09-05T08:47:27.000Z</time>
      </trkpt>
      <trkpt lat="47.06438" lon="-1.49565">
        <ele>75</ele>
        <time>2021-09-05T08:47:29.000Z</time>
      </trkpt>
      <trkpt lat="47.0645" lon="-1.49571">
        <ele>75</ele>
        <time>2021-09-05T08:47:31.000Z</time>
      </trkpt>
      <trkpt lat="47.06461" lon="-1.49576">
        <ele>75</ele>
        <time>2021-09-05T08:47:33.000Z</time>
      </trkpt>
      <trkpt lat="47.06472" lon="-1.49582">
        <ele>75</ele>
        <time>2021-09-05T08:47:35.000Z</time>
      </trkpt>
      <trkpt lat="47.06482" lon="-1.49588">
        <ele>76</ele>
        <time>2021-09-05T08:47:37.000Z</time>
      </trkpt>
      <trkpt lat="47.06493" lon="-1.49593">
        <ele>76</ele>
        <time>2021-09-05T08:47:39.000Z</time>
      </trkpt>
      <trkpt lat="47.06504" lon="-1.49598">
        <ele>76</ele>
        <time>2021-09-05T08:47:41.000Z</time>
      </trkpt>
      <trkpt lat="47.06515" lon="-1.49603">
        <ele>75</ele>
        <time>2021-09-05T08:47:43.000Z</time>
      </trkpt>
      <trkpt lat="47.06527" lon="-1.49606">
        <ele>75</ele>
        <time>2021-09-05T08:47:45.000Z</time>
      </trkpt>
      <trkpt lat="47.0654" lon="-1.49607">
        <ele>74</ele>
        <time>2021-09-05T08:47:47.000Z</time>
      </trkpt>
      <trkpt lat="47.06553" lon="-1.49605">
        <ele>74</ele>
        <time>2021-09-05T08:47:49.000Z</time>
      </trkpt>
      <trkpt lat="47.06567" lon="-1.49601">
        <ele>73</ele>
        <time>2021-09-05T08:47:51.000Z</time>
      </trkpt>
      <trkpt lat="47.06581" lon="-1.49597">
        <ele>72</ele>
        <time>2021-09-05T08:47:53.000Z</time>
      </trkpt>
      <trkpt lat="47.06595" lon="-1.49592">
        <ele>72</ele>
        <time>2021-09-05T08:47:55.000Z</time>
      </trkpt>
      <trkpt lat="47.0661" lon="-1.49588">
        <ele>71</ele>
        <time>2021-09-05T08:47:57.000Z</time>
      </trkpt>
      <trkpt lat="47.06625" lon="-1.49583">
        <ele>71</ele>
        <time>2021-09-05T08:47:59.000Z</time>
      </trkpt>
      <trkpt lat="47.0664" lon="-1.49579">
        <ele>70</ele>
        <time>2021-09-05T08:48:01.000Z</time>
      </trkpt>
      <trkpt lat="47.06655" lon="-1.49576">
        <ele>71</ele>
        <time>2021-09-05T08:48:03.000Z</time>
      </trkpt>
      <trkpt lat="47.0667" lon="-1.49575">
        <ele>71</ele>
        <time>2021-09-05T08:48:05.000Z</time>
      </trkpt>
      <trkpt lat="47.06685" lon="-1.49574">
        <ele>71</ele>
        <time>2021-09-05T08:48:07.000Z</time>
      </trkpt>
      <trkpt lat="47.06701" lon="-1.49573">
        <ele>71</ele>
        <time>2021-09-05T08:48:09.000Z</time>
      </trkpt>
      <trkpt lat="47.06716" lon="-1.49572">
        <ele>70</ele>
        <time>2021-09-05T08:48:11.000Z</time>
      </trkpt>
      <trkpt lat="47.06733" lon="-1.49571">
        <ele>71</ele>
        <time>2021-09-05T08:48:13.000Z</time>
      </trkpt>
      <trkpt lat="47.06748" lon="-1.49571">
        <ele>71</ele>
        <time>2021-09-05T08:48:15.000Z</time>
      </trkpt>
      <trkpt lat="47.06764" lon="-1.49571">
        <ele>71</ele>
        <time>2021-09-05T08:48:17.000Z</time>
      </trkpt>
      <trkpt lat="47.0678" lon="-1.4957">
        <ele>71</ele>
        <time>2021-09-05T08:48:19.000Z</time>
      </trkpt>
      <trkpt lat="47.06797" lon="-1.49569">
        <ele>70</ele>
        <time>2021-09-05T08:48:21.000Z</time>
      </trkpt>
      <trkpt lat="47.06814" lon="-1.49569">
        <ele>70</ele>
        <time>2021-09-05T08:48:23.000Z</time>
      </trkpt>
      <trkpt lat="47.06831" lon="-1.49571">
        <ele>69</ele>
        <time>2021-09-05T08:48:25.000Z</time>
      </trkpt>
      <trkpt lat="47.06848" lon="-1.49576">
        <ele>68</ele>
        <time>2021-09-05T08:48:27.000Z</time>
      </trkpt>
      <trkpt lat="47.06864" lon="-1.49581">
        <ele>68</ele>
        <time>2021-09-05T08:48:29.000Z</time>
      </trkpt>
      <trkpt lat="47.0688" lon="-1.49589">
        <ele>68</ele>
        <time>2021-09-05T08:48:31.000Z</time>
      </trkpt>
      <trkpt lat="47.06897" lon="-1.49595">
        <ele>67</ele>
        <time>2021-09-05T08:48:33.000Z</time>
      </trkpt>
      <trkpt lat="47.06912" lon="-1.49601">
        <ele>67</ele>
        <time>2021-09-05T08:48:35.000Z</time>
      </trkpt>
      <trkpt lat="47.06928" lon="-1.49607">
        <ele>67</ele>
        <time>2021-09-05T08:48:37.000Z</time>
      </trkpt>
      <trkpt lat="47.06944" lon="-1.49614">
        <ele>68</ele>
        <time>2021-09-05T08:48:39.000Z</time>
      </trkpt>
      <trkpt lat="47.0696" lon="-1.4962">
        <ele>68</ele>
        <time>2021-09-05T08:48:41.000Z</time>
      </trkpt>
      <trkpt lat="47.06976" lon="-1.49626">
        <ele>67</ele>
        <time>2021-09-05T08:48:43.000Z</time>
      </trkpt>
      <trkpt lat="47.06992" lon="-1.49631">
        <ele>66</ele>
        <time>2021-09-05T08:48:45.000Z</time>
      </trkpt>
      <trkpt lat="47.07007" lon="-1.49637">
        <ele>66</ele>
        <time>2021-09-05T08:48:47.000Z</time>
      </trkpt>
      <trkpt lat="47.07021" lon="-1.49643">
        <ele>65</ele>
        <time>2021-09-05T08:48:49.000Z</time>
      </trkpt>
      <trkpt lat="47.07035" lon="-1.49648">
        <ele>65</ele>
        <time>2021-09-05T08:48:51.000Z</time>
      </trkpt>
      <trkpt lat="47.07049" lon="-1.49653">
        <ele>65</ele>
        <time>2021-09-05T08:48:53.000Z</time>
      </trkpt>
      <trkpt lat="47.07062" lon="-1.49657">
        <ele>65</ele>
        <time>2021-09-05T08:48:55.000Z</time>
      </trkpt>
      <trkpt lat="47.07075" lon="-1.49662">
        <ele>65</ele>
        <time>2021-09-05T08:48:57.000Z</time>
      </trkpt>
      <trkpt lat="47.07088" lon="-1.49666">
        <ele>65</ele>
        <time>2021-09-05T08:48:59.000Z</time>
      </trkpt>
      <trkpt lat="47.07102" lon="-1.49669">
        <ele>64</ele>
        <time>2021-09-05T08:49:01.000Z</time>
      </trkpt>
      <trkpt lat="47.07116" lon="-1.49672">
        <ele>64</ele>
        <time>2021-09-05T08:49:03.000Z</time>
      </trkpt>
      <trkpt lat="47.07131" lon="-1.49673">
        <ele>63</ele>
        <time>2021-09-05T08:49:05.000Z</time>
      </trkpt>
      <trkpt lat="47.07145" lon="-1.49672">
        <ele>63</ele>
        <time>2021-09-05T08:49:07.000Z</time>
      </trkpt>
      <trkpt lat="47.0716" lon="-1.4967">
        <ele>63</ele>
        <time>2021-09-05T08:49:09.000Z</time>
      </trkpt>
      <trkpt lat="47.07175" lon="-1.49667">
        <ele>63</ele>
        <time>2021-09-05T08:49:11.000Z</time>
      </trkpt>
      <trkpt lat="47.0719" lon="-1.49663">
        <ele>63</ele>
        <time>2021-09-05T08:49:13.000Z</time>
      </trkpt>
      <trkpt lat="47.07204" lon="-1.49659">
        <ele>63</ele>
        <time>2021-09-05T08:49:15.000Z</time>
      </trkpt>
      <trkpt lat="47.07219" lon="-1.49654">
        <ele>63</ele>
        <time>2021-09-05T08:49:17.000Z</time>
      </trkpt>
      <trkpt lat="47.07233" lon="-1.4965">
        <ele>63</ele>
        <time>2021-09-05T08:49:19.000Z</time>
      </trkpt>
      <trkpt lat="47.07248" lon="-1.49646">
        <ele>63</ele>
        <time>2021-09-05T08:49:21.000Z</time>
      </trkpt>
      <trkpt lat="47.07262" lon="-1.49642">
        <ele>63</ele>
        <time>2021-09-05T08:49:23.000Z</time>
      </trkpt>
      <trkpt lat="47.07276" lon="-1.49638">
        <ele>63</ele>
        <time>2021-09-05T08:49:25.000Z</time>
      </trkpt>
      <trkpt lat="47.0729" lon="-1.49634">
        <ele>63</ele>
        <time>2021-09-05T08:49:27.000Z</time>
      </trkpt>
      <trkpt lat="47.07304" lon="-1.4963">
        <ele>63</ele>
        <time>2021-09-05T08:49:29.000Z</time>
      </trkpt>
      <trkpt lat="47.07318" lon="-1.49626">
        <ele>63</ele>
        <time>2021-09-05T08:49:31.000Z</time>
      </trkpt>
      <trkpt lat="47.07332" lon="-1.49622">
        <ele>64</ele>
        <time>2021-09-05T08:49:33.000Z</time>
      </trkpt>
      <trkpt lat="47.07345" lon="-1.49619">
        <ele>64</ele>
        <time>2021-09-05T08:49:35.000Z</time>
      </trkpt>
      <trkpt lat="47.07359" lon="-1.49614">
        <ele>64</ele>
        <time>2021-09-05T08:49:37.000Z</time>
      </trkpt>
      <trkpt lat="47.07372" lon="-1.49611">
        <ele>65</ele>
        <time>2021-09-05T08:49:39.000Z</time>
      </trkpt>
      <trkpt lat="47.07385" lon="-1.49608">
        <ele>65</ele>
        <time>2021-09-05T08:49:41.000Z</time>
      </trkpt>
      <trkpt lat="47.07399" lon="-1.49603">
        <ele>65</ele>
        <time>2021-09-05T08:49:43.000Z</time>
      </trkpt>
      <trkpt lat="47.07412" lon="-1.49599">
        <ele>65</ele>
        <time>2021-09-05T08:49:45.000Z</time>
      </trkpt>
      <trkpt lat="47.07426" lon="-1.49596">
        <ele>65</ele>
        <time>2021-09-05T08:49:47.000Z</time>
      </trkpt>
      <trkpt lat="47.0744" lon="-1.49592">
        <ele>64</ele>
        <time>2021-09-05T08:49:49.000Z</time>
      </trkpt>
      <trkpt lat="47.07454" lon="-1.49589">
        <ele>65</ele>
        <time>2021-09-05T08:49:51.000Z</time>
      </trkpt>
      <trkpt lat="47.07467" lon="-1.49585">
        <ele>65</ele>
        <time>2021-09-05T08:49:53.000Z</time>
      </trkpt>
      <trkpt lat="47.07481" lon="-1.49581">
        <ele>65</ele>
        <time>2021-09-05T08:49:55.000Z</time>
      </trkpt>
      <trkpt lat="47.07495" lon="-1.49578">
        <ele>65</ele>
        <time>2021-09-05T08:49:57.000Z</time>
      </trkpt>
      <trkpt lat="47.07509" lon="-1.49578">
        <ele>65</ele>
        <time>2021-09-05T08:49:59.000Z</time>
      </trkpt>
      <trkpt lat="47.07523" lon="-1.49578">
        <ele>65</ele>
        <time>2021-09-05T08:50:01.000Z</time>
      </trkpt>
      <trkpt lat="47.07537" lon="-1.4958">
        <ele>65</ele>
        <time>2021-09-05T08:50:03.000Z</time>
      </trkpt>
      <trkpt lat="47.07551" lon="-1.49582">
        <ele>65</ele>
        <time>2021-09-05T08:50:05.000Z</time>
      </trkpt>
      <trkpt lat="47.07563" lon="-1.49586">
        <ele>65</ele>
        <time>2021-09-05T08:50:07.000Z</time>
      </trkpt>
      <trkpt lat="47.07576" lon="-1.49588">
        <ele>65</ele>
        <time>2021-09-05T08:50:09.000Z</time>
      </trkpt>
      <trkpt lat="47.0759" lon="-1.4959">
        <ele>66</ele>
        <time>2021-09-05T08:50:11.000Z</time>
      </trkpt>
      <trkpt lat="47.07603" lon="-1.49593">
        <ele>67</ele>
        <time>2021-09-05T08:50:13.000Z</time>
      </trkpt>
      <trkpt lat="47.07617" lon="-1.49594">
        <ele>68</ele>
        <time>2021-09-05T08:50:15.000Z</time>
      </trkpt>
      <trkpt lat="47.0763" lon="-1.49593">
        <ele>68</ele>
        <time>2021-09-05T08:50:17.000Z</time>
      </trkpt>
      <trkpt lat="47.07644" lon="-1.49591">
        <ele>68</ele>
        <time>2021-09-05T08:50:19.000Z</time>
      </trkpt>
      <trkpt lat="47.07657" lon="-1.49587">
        <ele>68</ele>
        <time>2021-09-05T08:50:21.000Z</time>
      </trkpt>
      <trkpt lat="47.0767" lon="-1.49582">
        <ele>68</ele>
        <time>2021-09-05T08:50:23.000Z</time>
      </trkpt>
      <trkpt lat="47.07683" lon="-1.49577">
        <ele>67</ele>
        <time>2021-09-05T08:50:25.000Z</time>
      </trkpt>
      <trkpt lat="47.07695" lon="-1.49572">
        <ele>68</ele>
        <time>2021-09-05T08:50:27.000Z</time>
      </trkpt>
      <trkpt lat="47.07707" lon="-1.49566">
        <ele>68</ele>
        <time>2021-09-05T08:50:29.000Z</time>
      </trkpt>
      <trkpt lat="47.0772" lon="-1.49562">
        <ele>68</ele>
        <time>2021-09-05T08:50:31.000Z</time>
      </trkpt>
      <trkpt lat="47.07732" lon="-1.49557">
        <ele>69</ele>
        <time>2021-09-05T08:50:33.000Z</time>
      </trkpt>
      <trkpt lat="47.07744" lon="-1.49551">
        <ele>69</ele>
        <time>2021-09-05T08:50:35.000Z</time>
      </trkpt>
      <trkpt lat="47.07756" lon="-1.49546">
        <ele>69</ele>
        <time>2021-09-05T08:50:37.000Z</time>
      </trkpt>
      <trkpt lat="47.07769" lon="-1.49541">
        <ele>69</ele>
        <time>2021-09-05T08:50:39.000Z</time>
      </trkpt>
      <trkpt lat="47.07781" lon="-1.49535">
        <ele>69</ele>
        <time>2021-09-05T08:50:41.000Z</time>
      </trkpt>
      <trkpt lat="47.07793" lon="-1.49527">
        <ele>70</ele>
        <time>2021-09-05T08:50:43.000Z</time>
      </trkpt>
      <trkpt lat="47.07805" lon="-1.49519">
        <ele>70</ele>
        <time>2021-09-05T08:50:45.000Z</time>
      </trkpt>
      <trkpt lat="47.07816" lon="-1.49509">
        <ele>70</ele>
        <time>2021-09-05T08:50:47.000Z</time>
      </trkpt>
      <trkpt lat="47.07827" lon="-1.495">
        <ele>71</ele>
        <time>2021-09-05T08:50:49.000Z</time>
      </trkpt>
      <trkpt lat="47.07839" lon="-1.49489">
        <ele>71</ele>
        <time>2021-09-05T08:50:51.000Z</time>
      </trkpt>
      <trkpt lat="47.07849" lon="-1.49478">
        <ele>72</ele>
        <time>2021-09-05T08:50:53.000Z</time>
      </trkpt>
      <trkpt lat="47.07861" lon="-1.49467">
        <ele>72</ele>
        <time>2021-09-05T08:50:55.000Z</time>
      </trkpt>
      <trkpt lat="47.07872" lon="-1.49456">
        <ele>72</ele>
        <time>2021-09-05T08:50:57.000Z</time>
      </trkpt>
      <trkpt lat="47.07883" lon="-1.49446">
        <ele>72</ele>
        <time>2021-09-05T08:50:59.000Z</time>
      </trkpt>
      <trkpt lat="47.07894" lon="-1.49435">
        <ele>72</ele>
        <time>2021-09-05T08:51:01.000Z</time>
      </trkpt>
      <trkpt lat="47.07904" lon="-1.49425">
        <ele>73</ele>
        <time>2021-09-05T08:51:03.000Z</time>
      </trkpt>
      <trkpt lat="47.07915" lon="-1.49416">
        <ele>73</ele>
        <time>2021-09-05T08:51:05.000Z</time>
      </trkpt>
      <trkpt lat="47.07925" lon="-1.49405">
        <ele>73</ele>
        <time>2021-09-05T08:51:07.000Z</time>
      </trkpt>
      <trkpt lat="47.07937" lon="-1.49395">
        <ele>72</ele>
        <time>2021-09-05T08:51:09.000Z</time>
      </trkpt>
      <trkpt lat="47.07948" lon="-1.49384">
        <ele>72</ele>
        <time>2021-09-05T08:51:11.000Z</time>
      </trkpt>
      <trkpt lat="47.0796" lon="-1.49373">
        <ele>72</ele>
        <time>2021-09-05T08:51:13.000Z</time>
      </trkpt>
      <trkpt lat="47.07971" lon="-1.49362">
        <ele>72</ele>
        <time>2021-09-05T08:51:15.000Z</time>
      </trkpt>
      <trkpt lat="47.07983" lon="-1.49351">
        <ele>72</ele>
        <time>2021-09-05T08:51:17.000Z</time>
      </trkpt>
      <trkpt lat="47.07995" lon="-1.4934">
        <ele>72</ele>
        <time>2021-09-05T08:51:19.000Z</time>
      </trkpt>
      <trkpt lat="47.08007" lon="-1.49331">
        <ele>72</ele>
        <time>2021-09-05T08:51:21.000Z</time>
      </trkpt>
      <trkpt lat="47.0802" lon="-1.49323">
        <ele>72</ele>
        <time>2021-09-05T08:51:23.000Z</time>
      </trkpt>
      <trkpt lat="47.08033" lon="-1.49318">
        <ele>71</ele>
        <time>2021-09-05T08:51:25.000Z</time>
      </trkpt>
      <trkpt lat="47.08047" lon="-1.49314">
        <ele>72</ele>
        <time>2021-09-05T08:51:27.000Z</time>
      </trkpt>
      <trkpt lat="47.08061" lon="-1.49312">
        <ele>72</ele>
        <time>2021-09-05T08:51:29.000Z</time>
      </trkpt>
      <trkpt lat="47.08076" lon="-1.49312">
        <ele>71</ele>
        <time>2021-09-05T08:51:31.000Z</time>
      </trkpt>
      <trkpt lat="47.0809" lon="-1.49312">
        <ele>71</ele>
        <time>2021-09-05T08:51:33.000Z</time>
      </trkpt>
      <trkpt lat="47.08104" lon="-1.49312">
        <ele>72</ele>
        <time>2021-09-05T08:51:35.000Z</time>
      </trkpt>
      <trkpt lat="47.08119" lon="-1.49313">
        <ele>72</ele>
        <time>2021-09-05T08:51:37.000Z</time>
      </trkpt>
      <trkpt lat="47.08133" lon="-1.49314">
        <ele>72</ele>
        <time>2021-09-05T08:51:39.000Z</time>
      </trkpt>
      <trkpt lat="47.08148" lon="-1.49314">
        <ele>72</ele>
        <time>2021-09-05T08:51:41.000Z</time>
      </trkpt>
      <trkpt lat="47.08162" lon="-1.49314">
        <ele>72</ele>
        <time>2021-09-05T08:51:43.000Z</time>
      </trkpt>
      <trkpt lat="47.08177" lon="-1.49314">
        <ele>72</ele>
        <time>2021-09-05T08:51:45.000Z</time>
      </trkpt>
      <trkpt lat="47.08191" lon="-1.49315">
        <ele>72</ele>
        <time>2021-09-05T08:51:47.000Z</time>
      </trkpt>
      <trkpt lat="47.08206" lon="-1.49315">
        <ele>73</ele>
        <time>2021-09-05T08:51:49.000Z</time>
      </trkpt>
      <trkpt lat="47.0822" lon="-1.49315">
        <ele>73</ele>
        <time>2021-09-05T08:51:51.000Z</time>
      </trkpt>
      <trkpt lat="47.08234" lon="-1.49316">
        <ele>72</ele>
        <time>2021-09-05T08:51:53.000Z</time>
      </trkpt>
      <trkpt lat="47.08249" lon="-1.49317">
        <ele>72</ele>
        <time>2021-09-05T08:51:55.000Z</time>
      </trkpt>
      <trkpt lat="47.08263" lon="-1.49317">
        <ele>72</ele>
        <time>2021-09-05T08:51:57.000Z</time>
      </trkpt>
      <trkpt lat="47.08278" lon="-1.49317">
        <ele>72</ele>
        <time>2021-09-05T08:51:59.000Z</time>
      </trkpt>
      <trkpt lat="47.08292" lon="-1.49318">
        <ele>72</ele>
        <time>2021-09-05T08:52:01.000Z</time>
      </trkpt>
      <trkpt lat="47.08306" lon="-1.49319">
        <ele>72</ele>
        <time>2021-09-05T08:52:03.000Z</time>
      </trkpt>
      <trkpt lat="47.08321" lon="-1.4932">
        <ele>72</ele>
        <time>2021-09-05T08:52:05.000Z</time>
      </trkpt>
      <trkpt lat="47.08335" lon="-1.4932">
        <ele>73</ele>
        <time>2021-09-05T08:52:07.000Z</time>
      </trkpt>
      <trkpt lat="47.0835" lon="-1.4932">
        <ele>72</ele>
        <time>2021-09-05T08:52:09.000Z</time>
      </trkpt>
      <trkpt lat="47.08365" lon="-1.4932">
        <ele>72</ele>
        <time>2021-09-05T08:52:11.000Z</time>
      </trkpt>
      <trkpt lat="47.0838" lon="-1.4932">
        <ele>72</ele>
        <time>2021-09-05T08:52:13.000Z</time>
      </trkpt>
      <trkpt lat="47.08394" lon="-1.49321">
        <ele>72</ele>
        <time>2021-09-05T08:52:15.000Z</time>
      </trkpt>
      <trkpt lat="47.08408" lon="-1.49321">
        <ele>71</ele>
        <time>2021-09-05T08:52:17.000Z</time>
      </trkpt>
      <trkpt lat="47.08422" lon="-1.49321">
        <ele>71</ele>
        <time>2021-09-05T08:52:19.000Z</time>
      </trkpt>
      <trkpt lat="47.08436" lon="-1.49322">
        <ele>71</ele>
        <time>2021-09-05T08:52:21.000Z</time>
      </trkpt>
      <trkpt lat="47.08449" lon="-1.49323">
        <ele>71</ele>
        <time>2021-09-05T08:52:23.000Z</time>
      </trkpt>
      <trkpt lat="47.08462" lon="-1.49323">
        <ele>71</ele>
        <time>2021-09-05T08:52:25.000Z</time>
      </trkpt>
      <trkpt lat="47.08475" lon="-1.49323">
        <ele>71</ele>
        <time>2021-09-05T08:52:27.000Z</time>
      </trkpt>
      <trkpt lat="47.08489" lon="-1.49324">
        <ele>71</ele>
        <time>2021-09-05T08:52:29.000Z</time>
      </trkpt>
      <trkpt lat="47.08502" lon="-1.49324">
        <ele>71</ele>
        <time>2021-09-05T08:52:31.000Z</time>
      </trkpt>
      <trkpt lat="47.08516" lon="-1.49324">
        <ele>71</ele>
        <time>2021-09-05T08:52:33.000Z</time>
      </trkpt>
      <trkpt lat="47.08529" lon="-1.49325">
        <ele>71</ele>
        <time>2021-09-05T08:52:35.000Z</time>
      </trkpt>
      <trkpt lat="47.08542" lon="-1.49325">
        <ele>72</ele>
        <time>2021-09-05T08:52:37.000Z</time>
      </trkpt>
      <trkpt lat="47.08555" lon="-1.49325">
        <ele>72</ele>
        <time>2021-09-05T08:52:39.000Z</time>
      </trkpt>
      <trkpt lat="47.08568" lon="-1.49326">
        <ele>72</ele>
        <time>2021-09-05T08:52:41.000Z</time>
      </trkpt>
      <trkpt lat="47.08581" lon="-1.49327">
        <ele>73</ele>
        <time>2021-09-05T08:52:43.000Z</time>
      </trkpt>
      <trkpt lat="47.08593" lon="-1.49327">
        <ele>74</ele>
        <time>2021-09-05T08:52:45.000Z</time>
      </trkpt>
      <trkpt lat="47.08606" lon="-1.49328">
        <ele>74</ele>
        <time>2021-09-05T08:52:47.000Z</time>
      </trkpt>
      <trkpt lat="47.08619" lon="-1.49329">
        <ele>74</ele>
        <time>2021-09-05T08:52:49.000Z</time>
      </trkpt>
      <trkpt lat="47.08632" lon="-1.49328">
        <ele>74</ele>
        <time>2021-09-05T08:52:51.000Z</time>
      </trkpt>
      <trkpt lat="47.08645" lon="-1.49328">
        <ele>74</ele>
        <time>2021-09-05T08:52:53.000Z</time>
      </trkpt>
      <trkpt lat="47.08657" lon="-1.49329">
        <ele>74</ele>
        <time>2021-09-05T08:52:55.000Z</time>
      </trkpt>
      <trkpt lat="47.0867" lon="-1.4933">
        <ele>74</ele>
        <time>2021-09-05T08:52:57.000Z</time>
      </trkpt>
      <trkpt lat="47.08683" lon="-1.4933">
        <ele>74</ele>
        <time>2021-09-05T08:52:59.000Z</time>
      </trkpt>
      <trkpt lat="47.08697" lon="-1.4933">
        <ele>74</ele>
        <time>2021-09-05T08:53:01.000Z</time>
      </trkpt>
      <trkpt lat="47.08711" lon="-1.4933">
        <ele>73</ele>
        <time>2021-09-05T08:53:03.000Z</time>
      </trkpt>
      <trkpt lat="47.08725" lon="-1.4933">
        <ele>73</ele>
        <time>2021-09-05T08:53:05.000Z</time>
      </trkpt>
      <trkpt lat="47.08739" lon="-1.49331">
        <ele>73</ele>
        <time>2021-09-05T08:53:07.000Z</time>
      </trkpt>
      <trkpt lat="47.08753" lon="-1.49332">
        <ele>72</ele>
        <time>2021-09-05T08:53:09.000Z</time>
      </trkpt>
      <trkpt lat="47.08768" lon="-1.49335">
        <ele>72</ele>
        <time>2021-09-05T08:53:11.000Z</time>
      </trkpt>
      <trkpt lat="47.08783" lon="-1.49338">
        <ele>71</ele>
        <time>2021-09-05T08:53:13.000Z</time>
      </trkpt>
      <trkpt lat="47.08798" lon="-1.49342">
        <ele>70</ele>
        <time>2021-09-05T08:53:15.000Z</time>
      </trkpt>
      <trkpt lat="47.08812" lon="-1.49345">
        <ele>70</ele>
        <time>2021-09-05T08:53:17.000Z</time>
      </trkpt>
      <trkpt lat="47.08827" lon="-1.4935">
        <ele>69</ele>
        <time>2021-09-05T08:53:19.000Z</time>
      </trkpt>
      <trkpt lat="47.0884" lon="-1.49353">
        <ele>69</ele>
        <time>2021-09-05T08:53:21.000Z</time>
      </trkpt>
      <trkpt lat="47.08855" lon="-1.49357">
        <ele>68</ele>
        <time>2021-09-05T08:53:23.000Z</time>
      </trkpt>
      <trkpt lat="47.08869" lon="-1.49361">
        <ele>68</ele>
        <time>2021-09-05T08:53:25.000Z</time>
      </trkpt>
      <trkpt lat="47.08884" lon="-1.49365">
        <ele>67</ele>
        <time>2021-09-05T08:53:27.000Z</time>
      </trkpt>
      <trkpt lat="47.08898" lon="-1.4937">
        <ele>67</ele>
        <time>2021-09-05T08:53:29.000Z</time>
      </trkpt>
      <trkpt lat="47.08912" lon="-1.49376">
        <ele>67</ele>
        <time>2021-09-05T08:53:31.000Z</time>
      </trkpt>
      <trkpt lat="47.08927" lon="-1.49383">
        <ele>66</ele>
        <time>2021-09-05T08:53:33.000Z</time>
      </trkpt>
      <trkpt lat="47.08941" lon="-1.49391">
        <ele>66</ele>
        <time>2021-09-05T08:53:35.000Z</time>
      </trkpt>
      <trkpt lat="47.08955" lon="-1.49399">
        <ele>66</ele>
        <time>2021-09-05T08:53:37.000Z</time>
      </trkpt>
      <trkpt lat="47.08969" lon="-1.49408">
        <ele>66</ele>
        <time>2021-09-05T08:53:39.000Z</time>
      </trkpt>
      <trkpt lat="47.08983" lon="-1.49416">
        <ele>65</ele>
        <time>2021-09-05T08:53:41.000Z</time>
      </trkpt>
      <trkpt lat="47.08998" lon="-1.49424">
        <ele>65</ele>
        <time>2021-09-05T08:53:43.000Z</time>
      </trkpt>
      <trkpt lat="47.09012" lon="-1.49429">
        <ele>65</ele>
        <time>2021-09-05T08:53:45.000Z</time>
      </trkpt>
      <trkpt lat="47.09027" lon="-1.49432">
        <ele>64</ele>
        <time>2021-09-05T08:53:47.000Z</time>
      </trkpt>
      <trkpt lat="47.09042" lon="-1.49434">
        <ele>64</ele>
        <time>2021-09-05T08:53:49.000Z</time>
      </trkpt>
      <trkpt lat="47.09057" lon="-1.49434">
        <ele>64</ele>
        <time>2021-09-05T08:53:51.000Z</time>
      </trkpt>
      <trkpt lat="47.09071" lon="-1.49435">
        <ele>64</ele>
        <time>2021-09-05T08:53:53.000Z</time>
      </trkpt>
      <trkpt lat="47.09086" lon="-1.49436">
        <ele>64</ele>
        <time>2021-09-05T08:53:55.000Z</time>
      </trkpt>
      <trkpt lat="47.09101" lon="-1.49437">
        <ele>64</ele>
        <time>2021-09-05T08:53:57.000Z</time>
      </trkpt>
      <trkpt lat="47.09116" lon="-1.49438">
        <ele>64</ele>
        <time>2021-09-05T08:53:59.000Z</time>
      </trkpt>
      <trkpt lat="47.09131" lon="-1.4944">
        <ele>64</ele>
        <time>2021-09-05T08:54:01.000Z</time>
      </trkpt>
      <trkpt lat="47.09146" lon="-1.4944">
        <ele>64</ele>
        <time>2021-09-05T08:54:03.000Z</time>
      </trkpt>
      <trkpt lat="47.0916" lon="-1.49437">
        <ele>64</ele>
        <time>2021-09-05T08:54:05.000Z</time>
      </trkpt>
      <trkpt lat="47.09175" lon="-1.49433">
        <ele>64</ele>
        <time>2021-09-05T08:54:07.000Z</time>
      </trkpt>
      <trkpt lat="47.09189" lon="-1.49438">
        <ele>64</ele>
        <time>2021-09-05T08:54:09.000Z</time>
      </trkpt>
      <trkpt lat="47.09202" lon="-1.49443">
        <ele>64</ele>
        <time>2021-09-05T08:54:11.000Z</time>
      </trkpt>
      <trkpt lat="47.09217" lon="-1.49443">
        <ele>63</ele>
        <time>2021-09-05T08:54:13.000Z</time>
      </trkpt>
      <trkpt lat="47.09231" lon="-1.49445">
        <ele>64</ele>
        <time>2021-09-05T08:54:15.000Z</time>
      </trkpt>
      <trkpt lat="47.09245" lon="-1.49447">
        <ele>63</ele>
        <time>2021-09-05T08:54:17.000Z</time>
      </trkpt>
      <trkpt lat="47.0926" lon="-1.49449">
        <ele>63</ele>
        <time>2021-09-05T08:54:19.000Z</time>
      </trkpt>
      <trkpt lat="47.09275" lon="-1.49449">
        <ele>63</ele>
        <time>2021-09-05T08:54:21.000Z</time>
      </trkpt>
      <trkpt lat="47.09289" lon="-1.49448">
        <ele>63</ele>
        <time>2021-09-05T08:54:23.000Z</time>
      </trkpt>
      <trkpt lat="47.09303" lon="-1.49446">
        <ele>63</ele>
        <time>2021-09-05T08:54:25.000Z</time>
      </trkpt>
      <trkpt lat="47.09317" lon="-1.49442">
        <ele>63</ele>
        <time>2021-09-05T08:54:27.000Z</time>
      </trkpt>
      <trkpt lat="47.09331" lon="-1.49438">
        <ele>64</ele>
        <time>2021-09-05T08:54:29.000Z</time>
      </trkpt>
      <trkpt lat="47.09345" lon="-1.49435">
        <ele>65</ele>
        <time>2021-09-05T08:54:31.000Z</time>
      </trkpt>
      <trkpt lat="47.09359" lon="-1.49431">
        <ele>65</ele>
        <time>2021-09-05T08:54:33.000Z</time>
      </trkpt>
      <trkpt lat="47.09373" lon="-1.49428">
        <ele>65</ele>
        <time>2021-09-05T08:54:35.000Z</time>
      </trkpt>
      <trkpt lat="47.09386" lon="-1.49424">
        <ele>65</ele>
        <time>2021-09-05T08:54:37.000Z</time>
      </trkpt>
      <trkpt lat="47.09405" lon="-1.49416">
        <ele>65</ele>
        <time>2021-09-05T08:54:40.000Z</time>
      </trkpt>
      <trkpt lat="47.09416" lon="-1.49409">
        <ele>66</ele>
        <time>2021-09-05T08:54:42.000Z</time>
      </trkpt>
      <trkpt lat="47.09428" lon="-1.49407">
        <ele>66</ele>
        <time>2021-09-05T08:54:44.000Z</time>
      </trkpt>
      <trkpt lat="47.09442" lon="-1.49407">
        <ele>66</ele>
        <time>2021-09-05T08:54:46.000Z</time>
      </trkpt>
      <trkpt lat="47.09463" lon="-1.49403">
        <ele>67</ele>
        <time>2021-09-05T08:54:49.000Z</time>
      </trkpt>
      <trkpt lat="47.09476" lon="-1.494">
        <ele>67</ele>
        <time>2021-09-05T08:54:51.000Z</time>
      </trkpt>
      <trkpt lat="47.09496" lon="-1.49395">
        <ele>67</ele>
        <time>2021-09-05T08:54:54.000Z</time>
      </trkpt>
      <trkpt lat="47.09514" lon="-1.4939">
        <ele>67</ele>
        <time>2021-09-05T08:54:57.000Z</time>
      </trkpt>
      <trkpt lat="47.09527" lon="-1.49386">
        <ele>68</ele>
        <time>2021-09-05T08:54:59.000Z</time>
      </trkpt>
      <trkpt lat="47.09539" lon="-1.49384">
        <ele>68</ele>
        <time>2021-09-05T08:55:01.000Z</time>
      </trkpt>
      <trkpt lat="47.09551" lon="-1.4938">
        <ele>68</ele>
        <time>2021-09-05T08:55:03.000Z</time>
      </trkpt>
      <trkpt lat="47.09563" lon="-1.49376">
        <ele>68</ele>
        <time>2021-09-05T08:55:05.000Z</time>
      </trkpt>
      <trkpt lat="47.09575" lon="-1.49373">
        <ele>68</ele>
        <time>2021-09-05T08:55:07.000Z</time>
      </trkpt>
      <trkpt lat="47.09587" lon="-1.49369">
        <ele>68</ele>
        <time>2021-09-05T08:55:09.000Z</time>
      </trkpt>
      <trkpt lat="47.09598" lon="-1.49367">
        <ele>68</ele>
        <time>2021-09-05T08:55:11.000Z</time>
      </trkpt>
      <trkpt lat="47.0961" lon="-1.49365">
        <ele>68</ele>
        <time>2021-09-05T08:55:13.000Z</time>
      </trkpt>
      <trkpt lat="47.09621" lon="-1.49362">
        <ele>68</ele>
        <time>2021-09-05T08:55:15.000Z</time>
      </trkpt>
      <trkpt lat="47.09633" lon="-1.49358">
        <ele>68</ele>
        <time>2021-09-05T08:55:17.000Z</time>
      </trkpt>
      <trkpt lat="47.09644" lon="-1.49352">
        <ele>68</ele>
        <time>2021-09-05T08:55:19.000Z</time>
      </trkpt>
      <trkpt lat="47.09654" lon="-1.49346">
        <ele>69</ele>
        <time>2021-09-05T08:55:21.000Z</time>
      </trkpt>
      <trkpt lat="47.09664" lon="-1.49337">
        <ele>69</ele>
        <time>2021-09-05T08:55:23.000Z</time>
      </trkpt>
      <trkpt lat="47.09673" lon="-1.49328">
        <ele>69</ele>
        <time>2021-09-05T08:55:25.000Z</time>
      </trkpt>
      <trkpt lat="47.09682" lon="-1.49318">
        <ele>69</ele>
        <time>2021-09-05T08:55:27.000Z</time>
      </trkpt>
      <trkpt lat="47.0969" lon="-1.49308">
        <ele>70</ele>
        <time>2021-09-05T08:55:29.000Z</time>
      </trkpt>
      <trkpt lat="47.09698" lon="-1.49299">
        <ele>71</ele>
        <time>2021-09-05T08:55:31.000Z</time>
      </trkpt>
      <trkpt lat="47.09707" lon="-1.49287">
        <ele>71</ele>
        <time>2021-09-05T08:55:34.000Z</time>
      </trkpt>
      <trkpt lat="47.09713" lon="-1.49298">
        <ele>72</ele>
        <time>2021-09-05T08:55:40.000Z</time>
      </trkpt>
      <trkpt lat="47.09711" lon="-1.49314">
        <ele>72</ele>
        <time>2021-09-05T08:55:42.000Z</time>
      </trkpt>
      <trkpt lat="47.09708" lon="-1.49331">
        <ele>71</ele>
        <time>2021-09-05T08:55:44.000Z</time>
      </trkpt>
      <trkpt lat="47.09706" lon="-1.4935">
        <ele>70</ele>
        <time>2021-09-05T08:55:46.000Z</time>
      </trkpt>
      <trkpt lat="47.09703" lon="-1.49368">
        <ele>70</ele>
        <time>2021-09-05T08:55:48.000Z</time>
      </trkpt>
      <trkpt lat="47.09701" lon="-1.49387">
        <ele>69</ele>
        <time>2021-09-05T08:55:50.000Z</time>
      </trkpt>
      <trkpt lat="47.09698" lon="-1.49406">
        <ele>69</ele>
        <time>2021-09-05T08:55:52.000Z</time>
      </trkpt>
      <trkpt lat="47.09695" lon="-1.49424">
        <ele>69</ele>
        <time>2021-09-05T08:55:54.000Z</time>
      </trkpt>
      <trkpt lat="47.09693" lon="-1.49442">
        <ele>69</ele>
        <time>2021-09-05T08:55:56.000Z</time>
      </trkpt>
      <trkpt lat="47.09692" lon="-1.4946">
        <ele>69</ele>
        <time>2021-09-05T08:55:58.000Z</time>
      </trkpt>
      <trkpt lat="47.097" lon="-1.49473">
        <ele>69</ele>
        <time>2021-09-05T08:56:00.000Z</time>
      </trkpt>
      <trkpt lat="47.09712" lon="-1.49477">
        <ele>69</ele>
        <time>2021-09-05T08:56:02.000Z</time>
      </trkpt>
      <trkpt lat="47.09724" lon="-1.49478">
        <ele>70</ele>
        <time>2021-09-05T08:56:04.000Z</time>
      </trkpt>
      <trkpt lat="47.09736" lon="-1.4948">
        <ele>70</ele>
        <time>2021-09-05T08:56:06.000Z</time>
      </trkpt>
      <trkpt lat="47.09748" lon="-1.49481">
        <ele>70</ele>
        <time>2021-09-05T08:56:08.000Z</time>
      </trkpt>
      <trkpt lat="47.09761" lon="-1.49481">
        <ele>71</ele>
        <time>2021-09-05T08:56:10.000Z</time>
      </trkpt>
      <trkpt lat="47.09773" lon="-1.4948">
        <ele>71</ele>
        <time>2021-09-05T08:56:12.000Z</time>
      </trkpt>
      <trkpt lat="47.09785" lon="-1.49478">
        <ele>71</ele>
        <time>2021-09-05T08:56:14.000Z</time>
      </trkpt>
      <trkpt lat="47.09797" lon="-1.49475">
        <ele>71</ele>
        <time>2021-09-05T08:56:16.000Z</time>
      </trkpt>
      <trkpt lat="47.09809" lon="-1.49472">
        <ele>71</ele>
        <time>2021-09-05T08:56:18.000Z</time>
      </trkpt>
      <trkpt lat="47.09821" lon="-1.49466">
        <ele>71</ele>
        <time>2021-09-05T08:56:20.000Z</time>
      </trkpt>
      <trkpt lat="47.09833" lon="-1.4946">
        <ele>71</ele>
        <time>2021-09-05T08:56:22.000Z</time>
      </trkpt>
      <trkpt lat="47.09844" lon="-1.49454">
        <ele>71</ele>
        <time>2021-09-05T08:56:24.000Z</time>
      </trkpt>
      <trkpt lat="47.09855" lon="-1.49448">
        <ele>70</ele>
        <time>2021-09-05T08:56:26.000Z</time>
      </trkpt>
      <trkpt lat="47.09866" lon="-1.4944">
        <ele>70</ele>
        <time>2021-09-05T08:56:28.000Z</time>
      </trkpt>
      <trkpt lat="47.09876" lon="-1.49431">
        <ele>70</ele>
        <time>2021-09-05T08:56:30.000Z</time>
      </trkpt>
      <trkpt lat="47.09886" lon="-1.4943">
        <ele>70</ele>
        <time>2021-09-05T08:56:32.000Z</time>
      </trkpt>
      <trkpt lat="47.09898" lon="-1.49437">
        <ele>70</ele>
        <time>2021-09-05T08:56:34.000Z</time>
      </trkpt>
      <trkpt lat="47.0991" lon="-1.49441">
        <ele>70</ele>
        <time>2021-09-05T08:56:36.000Z</time>
      </trkpt>
      <trkpt lat="47.09923" lon="-1.49438">
        <ele>70</ele>
        <time>2021-09-05T08:56:38.000Z</time>
      </trkpt>
      <trkpt lat="47.09935" lon="-1.49432">
        <ele>70</ele>
        <time>2021-09-05T08:56:40.000Z</time>
      </trkpt>
      <trkpt lat="47.09947" lon="-1.49425">
        <ele>70</ele>
        <time>2021-09-05T08:56:42.000Z</time>
      </trkpt>
      <trkpt lat="47.09959" lon="-1.49419">
        <ele>70</ele>
        <time>2021-09-05T08:56:44.000Z</time>
      </trkpt>
      <trkpt lat="47.0997" lon="-1.49411">
        <ele>70</ele>
        <time>2021-09-05T08:56:46.000Z</time>
      </trkpt>
      <trkpt lat="47.09981" lon="-1.49404">
        <ele>69</ele>
        <time>2021-09-05T08:56:48.000Z</time>
      </trkpt>
      <trkpt lat="47.09993" lon="-1.49397">
        <ele>69</ele>
        <time>2021-09-05T08:56:50.000Z</time>
      </trkpt>
      <trkpt lat="47.10006" lon="-1.49393">
        <ele>69</ele>
        <time>2021-09-05T08:56:52.000Z</time>
      </trkpt>
      <trkpt lat="47.10018" lon="-1.49393">
        <ele>69</ele>
        <time>2021-09-05T08:56:54.000Z</time>
      </trkpt>
      <trkpt lat="47.10031" lon="-1.49397">
        <ele>70</ele>
        <time>2021-09-05T08:56:56.000Z</time>
      </trkpt>
      <trkpt lat="47.10043" lon="-1.49401">
        <ele>70</ele>
        <time>2021-09-05T08:56:58.000Z</time>
      </trkpt>
      <trkpt lat="47.10056" lon="-1.49407">
        <ele>70</ele>
        <time>2021-09-05T08:57:00.000Z</time>
      </trkpt>
      <trkpt lat="47.10067" lon="-1.49417">
        <ele>70</ele>
        <time>2021-09-05T08:57:02.000Z</time>
      </trkpt>
      <trkpt lat="47.10078" lon="-1.49423">
        <ele>70</ele>
        <time>2021-09-05T08:57:04.000Z</time>
      </trkpt>
      <trkpt lat="47.1009" lon="-1.49418">
        <ele>69</ele>
        <time>2021-09-05T08:57:06.000Z</time>
      </trkpt>
      <trkpt lat="47.101" lon="-1.49425">
        <ele>69</ele>
        <time>2021-09-05T08:57:08.000Z</time>
      </trkpt>
      <trkpt lat="47.10108" lon="-1.4944">
        <ele>69</ele>
        <time>2021-09-05T08:57:10.000Z</time>
      </trkpt>
      <trkpt lat="47.10118" lon="-1.49453">
        <ele>69</ele>
        <time>2021-09-05T08:57:12.000Z</time>
      </trkpt>
      <trkpt lat="47.10128" lon="-1.49465">
        <ele>69</ele>
        <time>2021-09-05T08:57:14.000Z</time>
      </trkpt>
      <trkpt lat="47.10139" lon="-1.49476">
        <ele>68</ele>
        <time>2021-09-05T08:57:16.000Z</time>
      </trkpt>
      <trkpt lat="47.10151" lon="-1.49485">
        <ele>68</ele>
        <time>2021-09-05T08:57:18.000Z</time>
      </trkpt>
      <trkpt lat="47.10163" lon="-1.49493">
        <ele>67</ele>
        <time>2021-09-05T08:57:20.000Z</time>
      </trkpt>
      <trkpt lat="47.10175" lon="-1.495">
        <ele>67</ele>
        <time>2021-09-05T08:57:22.000Z</time>
      </trkpt>
      <trkpt lat="47.10188" lon="-1.49505">
        <ele>67</ele>
        <time>2021-09-05T08:57:24.000Z</time>
      </trkpt>
      <trkpt lat="47.102" lon="-1.49509">
        <ele>67</ele>
        <time>2021-09-05T08:57:26.000Z</time>
      </trkpt>
      <trkpt lat="47.10213" lon="-1.49512">
        <ele>67</ele>
        <time>2021-09-05T08:57:28.000Z</time>
      </trkpt>
      <trkpt lat="47.10227" lon="-1.49514">
        <ele>66</ele>
        <time>2021-09-05T08:57:30.000Z</time>
      </trkpt>
      <trkpt lat="47.1024" lon="-1.49515">
        <ele>66</ele>
        <time>2021-09-05T08:57:32.000Z</time>
      </trkpt>
      <trkpt lat="47.10253" lon="-1.49515">
        <ele>66</ele>
        <time>2021-09-05T08:57:34.000Z</time>
      </trkpt>
      <trkpt lat="47.10266" lon="-1.49515">
        <ele>66</ele>
        <time>2021-09-05T08:57:36.000Z</time>
      </trkpt>
      <trkpt lat="47.10279" lon="-1.49514">
        <ele>66</ele>
        <time>2021-09-05T08:57:38.000Z</time>
      </trkpt>
      <trkpt lat="47.10292" lon="-1.49512">
        <ele>66</ele>
        <time>2021-09-05T08:57:40.000Z</time>
      </trkpt>
      <trkpt lat="47.10305" lon="-1.4951">
        <ele>66</ele>
        <time>2021-09-05T08:57:42.000Z</time>
      </trkpt>
      <trkpt lat="47.10318" lon="-1.49509">
        <ele>66</ele>
        <time>2021-09-05T08:57:44.000Z</time>
      </trkpt>
      <trkpt lat="47.10332" lon="-1.49507">
        <ele>66</ele>
        <time>2021-09-05T08:57:46.000Z</time>
      </trkpt>
      <trkpt lat="47.10346" lon="-1.49506">
        <ele>66</ele>
        <time>2021-09-05T08:57:48.000Z</time>
      </trkpt>
      <trkpt lat="47.10359" lon="-1.49505">
        <ele>67</ele>
        <time>2021-09-05T08:57:50.000Z</time>
      </trkpt>
      <trkpt lat="47.10373" lon="-1.49504">
        <ele>67</ele>
        <time>2021-09-05T08:57:52.000Z</time>
      </trkpt>
      <trkpt lat="47.10387" lon="-1.49504">
        <ele>67</ele>
        <time>2021-09-05T08:57:54.000Z</time>
      </trkpt>
      <trkpt lat="47.10402" lon="-1.49505">
        <ele>67</ele>
        <time>2021-09-05T08:57:56.000Z</time>
      </trkpt>
      <trkpt lat="47.10416" lon="-1.49509">
        <ele>66</ele>
        <time>2021-09-05T08:57:58.000Z</time>
      </trkpt>
      <trkpt lat="47.1043" lon="-1.49514">
        <ele>66</ele>
        <time>2021-09-05T08:58:00.000Z</time>
      </trkpt>
      <trkpt lat="47.10444" lon="-1.49521">
        <ele>66</ele>
        <time>2021-09-05T08:58:02.000Z</time>
      </trkpt>
      <trkpt lat="47.10458" lon="-1.49527">
        <ele>66</ele>
        <time>2021-09-05T08:58:04.000Z</time>
      </trkpt>
      <trkpt lat="47.10472" lon="-1.49535">
        <ele>66</ele>
        <time>2021-09-05T08:58:06.000Z</time>
      </trkpt>
      <trkpt lat="47.10486" lon="-1.49541">
        <ele>66</ele>
        <time>2021-09-05T08:58:08.000Z</time>
      </trkpt>
      <trkpt lat="47.10501" lon="-1.49548">
        <ele>65</ele>
        <time>2021-09-05T08:58:10.000Z</time>
      </trkpt>
      <trkpt lat="47.10514" lon="-1.49554">
        <ele>65</ele>
        <time>2021-09-05T08:58:12.000Z</time>
      </trkpt>
      <trkpt lat="47.10528" lon="-1.49561">
        <ele>65</ele>
        <time>2021-09-05T08:58:14.000Z</time>
      </trkpt>
      <trkpt lat="47.10542" lon="-1.49567">
        <ele>65</ele>
        <time>2021-09-05T08:58:16.000Z</time>
      </trkpt>
      <trkpt lat="47.10556" lon="-1.49574">
        <ele>65</ele>
        <time>2021-09-05T08:58:18.000Z</time>
      </trkpt>
      <trkpt lat="47.10569" lon="-1.49581">
        <ele>65</ele>
        <time>2021-09-05T08:58:20.000Z</time>
      </trkpt>
      <trkpt lat="47.10583" lon="-1.49587">
        <ele>65</ele>
        <time>2021-09-05T08:58:22.000Z</time>
      </trkpt>
      <trkpt lat="47.10597" lon="-1.49593">
        <ele>65</ele>
        <time>2021-09-05T08:58:24.000Z</time>
      </trkpt>
      <trkpt lat="47.10611" lon="-1.496">
        <ele>65</ele>
        <time>2021-09-05T08:58:26.000Z</time>
      </trkpt>
      <trkpt lat="47.10625" lon="-1.49608">
        <ele>65</ele>
        <time>2021-09-05T08:58:28.000Z</time>
      </trkpt>
      <trkpt lat="47.10638" lon="-1.49616">
        <ele>65</ele>
        <time>2021-09-05T08:58:30.000Z</time>
      </trkpt>
      <trkpt lat="47.10652" lon="-1.49624">
        <ele>65</ele>
        <time>2021-09-05T08:58:32.000Z</time>
      </trkpt>
      <trkpt lat="47.10665" lon="-1.49633">
        <ele>64</ele>
        <time>2021-09-05T08:58:34.000Z</time>
      </trkpt>
      <trkpt lat="47.10678" lon="-1.49642">
        <ele>64</ele>
        <time>2021-09-05T08:58:36.000Z</time>
      </trkpt>
      <trkpt lat="47.10691" lon="-1.4965">
        <ele>64</ele>
        <time>2021-09-05T08:58:38.000Z</time>
      </trkpt>
      <trkpt lat="47.10704" lon="-1.49658">
        <ele>64</ele>
        <time>2021-09-05T08:58:40.000Z</time>
      </trkpt>
      <trkpt lat="47.10717" lon="-1.49667">
        <ele>64</ele>
        <time>2021-09-05T08:58:42.000Z</time>
      </trkpt>
      <trkpt lat="47.1073" lon="-1.49675">
        <ele>64</ele>
        <time>2021-09-05T08:58:44.000Z</time>
      </trkpt>
      <trkpt lat="47.10743" lon="-1.49684">
        <ele>64</ele>
        <time>2021-09-05T08:58:46.000Z</time>
      </trkpt>
      <trkpt lat="47.10756" lon="-1.49693">
        <ele>64</ele>
        <time>2021-09-05T08:58:48.000Z</time>
      </trkpt>
      <trkpt lat="47.10769" lon="-1.49701">
        <ele>64</ele>
        <time>2021-09-05T08:58:50.000Z</time>
      </trkpt>
      <trkpt lat="47.10781" lon="-1.49711">
        <ele>64</ele>
        <time>2021-09-05T08:58:52.000Z</time>
      </trkpt>
      <trkpt lat="47.10794" lon="-1.4972">
        <ele>64</ele>
        <time>2021-09-05T08:58:54.000Z</time>
      </trkpt>
      <trkpt lat="47.10807" lon="-1.49728">
        <ele>63</ele>
        <time>2021-09-05T08:58:56.000Z</time>
      </trkpt>
      <trkpt lat="47.10819" lon="-1.49738">
        <ele>63</ele>
        <time>2021-09-05T08:58:58.000Z</time>
      </trkpt>
      <trkpt lat="47.10831" lon="-1.49748">
        <ele>63</ele>
        <time>2021-09-05T08:59:00.000Z</time>
      </trkpt>
      <trkpt lat="47.10843" lon="-1.49757">
        <ele>63</ele>
        <time>2021-09-05T08:59:02.000Z</time>
      </trkpt>
      <trkpt lat="47.10855" lon="-1.49766">
        <ele>63</ele>
        <time>2021-09-05T08:59:04.000Z</time>
      </trkpt>
      <trkpt lat="47.10866" lon="-1.49776">
        <ele>63</ele>
        <time>2021-09-05T08:59:06.000Z</time>
      </trkpt>
      <trkpt lat="47.10878" lon="-1.49786">
        <ele>63</ele>
        <time>2021-09-05T08:59:08.000Z</time>
      </trkpt>
      <trkpt lat="47.10889" lon="-1.49794">
        <ele>63</ele>
        <time>2021-09-05T08:59:10.000Z</time>
      </trkpt>
      <trkpt lat="47.10901" lon="-1.49804">
        <ele>63</ele>
        <time>2021-09-05T08:59:12.000Z</time>
      </trkpt>
      <trkpt lat="47.10913" lon="-1.49813">
        <ele>63</ele>
        <time>2021-09-05T08:59:14.000Z</time>
      </trkpt>
      <trkpt lat="47.10924" lon="-1.49822">
        <ele>62</ele>
        <time>2021-09-05T08:59:16.000Z</time>
      </trkpt>
      <trkpt lat="47.10936" lon="-1.49831">
        <ele>62</ele>
        <time>2021-09-05T08:59:18.000Z</time>
      </trkpt>
      <trkpt lat="47.10948" lon="-1.4984">
        <ele>62</ele>
        <time>2021-09-05T08:59:20.000Z</time>
      </trkpt>
      <trkpt lat="47.10959" lon="-1.4985">
        <ele>63</ele>
        <time>2021-09-05T08:59:22.000Z</time>
      </trkpt>
      <trkpt lat="47.1097" lon="-1.49859">
        <ele>63</ele>
        <time>2021-09-05T08:59:24.000Z</time>
      </trkpt>
      <trkpt lat="47.10981" lon="-1.49868">
        <ele>63</ele>
        <time>2021-09-05T08:59:26.000Z</time>
      </trkpt>
      <trkpt lat="47.10992" lon="-1.49877">
        <ele>63</ele>
        <time>2021-09-05T08:59:28.000Z</time>
      </trkpt>
      <trkpt lat="47.11003" lon="-1.49885">
        <ele>63</ele>
        <time>2021-09-05T08:59:30.000Z</time>
      </trkpt>
      <trkpt lat="47.11013" lon="-1.49894">
        <ele>63</ele>
        <time>2021-09-05T08:59:32.000Z</time>
      </trkpt>
      <trkpt lat="47.11023" lon="-1.49902">
        <ele>63</ele>
        <time>2021-09-05T08:59:34.000Z</time>
      </trkpt>
      <trkpt lat="47.11033" lon="-1.49911">
        <ele>64</ele>
        <time>2021-09-05T08:59:36.000Z</time>
      </trkpt>
      <trkpt lat="47.11044" lon="-1.49919">
        <ele>64</ele>
        <time>2021-09-05T08:59:38.000Z</time>
      </trkpt>
      <trkpt lat="47.11054" lon="-1.49928">
        <ele>65</ele>
        <time>2021-09-05T08:59:40.000Z</time>
      </trkpt>
      <trkpt lat="47.11063" lon="-1.49937">
        <ele>65</ele>
        <time>2021-09-05T08:59:42.000Z</time>
      </trkpt>
      <trkpt lat="47.11073" lon="-1.49947">
        <ele>65</ele>
        <time>2021-09-05T08:59:44.000Z</time>
      </trkpt>
      <trkpt lat="47.11083" lon="-1.49956">
        <ele>66</ele>
        <time>2021-09-05T08:59:46.000Z</time>
      </trkpt>
      <trkpt lat="47.11093" lon="-1.49965">
        <ele>66</ele>
        <time>2021-09-05T08:59:48.000Z</time>
      </trkpt>
      <trkpt lat="47.11103" lon="-1.49974">
        <ele>66</ele>
        <time>2021-09-05T08:59:50.000Z</time>
      </trkpt>
      <trkpt lat="47.11113" lon="-1.49983">
        <ele>66</ele>
        <time>2021-09-05T08:59:52.000Z</time>
      </trkpt>
      <trkpt lat="47.11124" lon="-1.49991">
        <ele>67</ele>
        <time>2021-09-05T08:59:54.000Z</time>
      </trkpt>
      <trkpt lat="47.11135" lon="-1.49999">
        <ele>66</ele>
        <time>2021-09-05T08:59:56.000Z</time>
      </trkpt>
      <trkpt lat="47.11147" lon="-1.50007">
        <ele>66</ele>
        <time>2021-09-05T08:59:58.000Z</time>
      </trkpt>
      <trkpt lat="47.11159" lon="-1.50014">
        <ele>66</ele>
        <time>2021-09-05T09:00:00.000Z</time>
      </trkpt>
      <trkpt lat="47.11172" lon="-1.5002">
        <ele>66</ele>
        <time>2021-09-05T09:00:02.000Z</time>
      </trkpt>
      <trkpt lat="47.11184" lon="-1.50027">
        <ele>66</ele>
        <time>2021-09-05T09:00:04.000Z</time>
      </trkpt>
      <trkpt lat="47.11197" lon="-1.50033">
        <ele>67</ele>
        <time>2021-09-05T09:00:06.000Z</time>
      </trkpt>
      <trkpt lat="47.1121" lon="-1.50039">
        <ele>67</ele>
        <time>2021-09-05T09:00:08.000Z</time>
      </trkpt>
      <trkpt lat="47.11222" lon="-1.50046">
        <ele>67</ele>
        <time>2021-09-05T09:00:10.000Z</time>
      </trkpt>
      <trkpt lat="47.11234" lon="-1.50052">
        <ele>67</ele>
        <time>2021-09-05T09:00:12.000Z</time>
      </trkpt>
      <trkpt lat="47.11246" lon="-1.50058">
        <ele>68</ele>
        <time>2021-09-05T09:00:14.000Z</time>
      </trkpt>
      <trkpt lat="47.11258" lon="-1.50064">
        <ele>68</ele>
        <time>2021-09-05T09:00:16.000Z</time>
      </trkpt>
      <trkpt lat="47.1127" lon="-1.5007">
        <ele>68</ele>
        <time>2021-09-05T09:00:18.000Z</time>
      </trkpt>
      <trkpt lat="47.11282" lon="-1.50076">
        <ele>68</ele>
        <time>2021-09-05T09:00:20.000Z</time>
      </trkpt>
      <trkpt lat="47.11294" lon="-1.50082">
        <ele>68</ele>
        <time>2021-09-05T09:00:22.000Z</time>
      </trkpt>
      <trkpt lat="47.11306" lon="-1.50089">
        <ele>68</ele>
        <time>2021-09-05T09:00:24.000Z</time>
      </trkpt>
      <trkpt lat="47.11318" lon="-1.50095">
        <ele>68</ele>
        <time>2021-09-05T09:00:26.000Z</time>
      </trkpt>
      <trkpt lat="47.1133" lon="-1.50101">
        <ele>68</ele>
        <time>2021-09-05T09:00:28.000Z</time>
      </trkpt>
      <trkpt lat="47.11342" lon="-1.50108">
        <ele>69</ele>
        <time>2021-09-05T09:00:30.000Z</time>
      </trkpt>
      <trkpt lat="47.11355" lon="-1.50114">
        <ele>69</ele>
        <time>2021-09-05T09:00:32.000Z</time>
      </trkpt>
      <trkpt lat="47.11367" lon="-1.5012">
        <ele>69</ele>
        <time>2021-09-05T09:00:34.000Z</time>
      </trkpt>
      <trkpt lat="47.11379" lon="-1.50126">
        <ele>69</ele>
        <time>2021-09-05T09:00:36.000Z</time>
      </trkpt>
      <trkpt lat="47.11391" lon="-1.50133">
        <ele>70</ele>
        <time>2021-09-05T09:00:38.000Z</time>
      </trkpt>
      <trkpt lat="47.11404" lon="-1.50139">
        <ele>70</ele>
        <time>2021-09-05T09:00:40.000Z</time>
      </trkpt>
      <trkpt lat="47.11416" lon="-1.50146">
        <ele>69</ele>
        <time>2021-09-05T09:00:42.000Z</time>
      </trkpt>
      <trkpt lat="47.11429" lon="-1.50153">
        <ele>69</ele>
        <time>2021-09-05T09:00:44.000Z</time>
      </trkpt>
      <trkpt lat="47.11442" lon="-1.5016">
        <ele>70</ele>
        <time>2021-09-05T09:00:46.000Z</time>
      </trkpt>
      <trkpt lat="47.11454" lon="-1.50167">
        <ele>70</ele>
        <time>2021-09-05T09:00:48.000Z</time>
      </trkpt>
      <trkpt lat="47.11466" lon="-1.50174">
        <ele>70</ele>
        <time>2021-09-05T09:00:50.000Z</time>
      </trkpt>
      <trkpt lat="47.11478" lon="-1.50182">
        <ele>70</ele>
        <time>2021-09-05T09:00:52.000Z</time>
      </trkpt>
      <trkpt lat="47.11489" lon="-1.50192">
        <ele>70</ele>
        <time>2021-09-05T09:00:54.000Z</time>
      </trkpt>
      <trkpt lat="47.11501" lon="-1.50202">
        <ele>70</ele>
        <time>2021-09-05T09:00:56.000Z</time>
      </trkpt>
      <trkpt lat="47.11513" lon="-1.50212">
        <ele>69</ele>
        <time>2021-09-05T09:00:58.000Z</time>
      </trkpt>
      <trkpt lat="47.11525" lon="-1.50222">
        <ele>69</ele>
        <time>2021-09-05T09:01:00.000Z</time>
      </trkpt>
      <trkpt lat="47.11537" lon="-1.50233">
        <ele>69</ele>
        <time>2021-09-05T09:01:02.000Z</time>
      </trkpt>
      <trkpt lat="47.11548" lon="-1.50243">
        <ele>69</ele>
        <time>2021-09-05T09:01:04.000Z</time>
      </trkpt>
      <trkpt lat="47.1156" lon="-1.50254">
        <ele>69</ele>
        <time>2021-09-05T09:01:06.000Z</time>
      </trkpt>
      <trkpt lat="47.11572" lon="-1.50264">
        <ele>70</ele>
        <time>2021-09-05T09:01:08.000Z</time>
      </trkpt>
      <trkpt lat="47.11584" lon="-1.50275">
        <ele>70</ele>
        <time>2021-09-05T09:01:10.000Z</time>
      </trkpt>
      <trkpt lat="47.11596" lon="-1.50286">
        <ele>70</ele>
        <time>2021-09-05T09:01:12.000Z</time>
      </trkpt>
      <trkpt lat="47.11608" lon="-1.50297">
        <ele>69</ele>
        <time>2021-09-05T09:01:14.000Z</time>
      </trkpt>
      <trkpt lat="47.11619" lon="-1.50307">
        <ele>69</ele>
        <time>2021-09-05T09:01:16.000Z</time>
      </trkpt>
      <trkpt lat="47.11631" lon="-1.50319">
        <ele>69</ele>
        <time>2021-09-05T09:01:18.000Z</time>
      </trkpt>
      <trkpt lat="47.11643" lon="-1.5033">
        <ele>69</ele>
        <time>2021-09-05T09:01:20.000Z</time>
      </trkpt>
      <trkpt lat="47.11654" lon="-1.5034">
        <ele>69</ele>
        <time>2021-09-05T09:01:22.000Z</time>
      </trkpt>
      <trkpt lat="47.11666" lon="-1.50351">
        <ele>69</ele>
        <time>2021-09-05T09:01:24.000Z</time>
      </trkpt>
      <trkpt lat="47.11678" lon="-1.50361">
        <ele>69</ele>
        <time>2021-09-05T09:01:26.000Z</time>
      </trkpt>
      <trkpt lat="47.11689" lon="-1.50371">
        <ele>69</ele>
        <time>2021-09-05T09:01:28.000Z</time>
      </trkpt>
      <trkpt lat="47.117" lon="-1.50379">
        <ele>69</ele>
        <time>2021-09-05T09:01:30.000Z</time>
      </trkpt>
      <trkpt lat="47.11713" lon="-1.50387">
        <ele>69</ele>
        <time>2021-09-05T09:01:32.000Z</time>
      </trkpt>
      <trkpt lat="47.11725" lon="-1.50396">
        <ele>69</ele>
        <time>2021-09-05T09:01:34.000Z</time>
      </trkpt>
      <trkpt lat="47.11738" lon="-1.50404">
        <ele>69</ele>
        <time>2021-09-05T09:01:36.000Z</time>
      </trkpt>
      <trkpt lat="47.1175" lon="-1.50412">
        <ele>69</ele>
        <time>2021-09-05T09:01:38.000Z</time>
      </trkpt>
      <trkpt lat="47.11762" lon="-1.5042">
        <ele>69</ele>
        <time>2021-09-05T09:01:40.000Z</time>
      </trkpt>
      <trkpt lat="47.11775" lon="-1.50428">
        <ele>69</ele>
        <time>2021-09-05T09:01:42.000Z</time>
      </trkpt>
      <trkpt lat="47.11787" lon="-1.50436">
        <ele>69</ele>
        <time>2021-09-05T09:01:44.000Z</time>
      </trkpt>
      <trkpt lat="47.11799" lon="-1.50444">
        <ele>69</ele>
        <time>2021-09-05T09:01:46.000Z</time>
      </trkpt>
      <trkpt lat="47.11811" lon="-1.5045">
        <ele>69</ele>
        <time>2021-09-05T09:01:48.000Z</time>
      </trkpt>
      <trkpt lat="47.11823" lon="-1.50458">
        <ele>69</ele>
        <time>2021-09-05T09:01:50.000Z</time>
      </trkpt>
      <trkpt lat="47.11835" lon="-1.50463">
        <ele>70</ele>
        <time>2021-09-05T09:01:52.000Z</time>
      </trkpt>
      <trkpt lat="47.11847" lon="-1.50468">
        <ele>71</ele>
        <time>2021-09-05T09:01:54.000Z</time>
      </trkpt>
      <trkpt lat="47.11859" lon="-1.50472">
        <ele>71</ele>
        <time>2021-09-05T09:01:56.000Z</time>
      </trkpt>
      <trkpt lat="47.11871" lon="-1.50476">
        <ele>71</ele>
        <time>2021-09-05T09:01:58.000Z</time>
      </trkpt>
      <trkpt lat="47.11883" lon="-1.5048">
        <ele>71</ele>
        <time>2021-09-05T09:02:00.000Z</time>
      </trkpt>
      <trkpt lat="47.11895" lon="-1.50485">
        <ele>71</ele>
        <time>2021-09-05T09:02:02.000Z</time>
      </trkpt>
      <trkpt lat="47.11907" lon="-1.50491">
        <ele>71</ele>
        <time>2021-09-05T09:02:04.000Z</time>
      </trkpt>
      <trkpt lat="47.11918" lon="-1.50496">
        <ele>72</ele>
        <time>2021-09-05T09:02:06.000Z</time>
      </trkpt>
      <trkpt lat="47.11929" lon="-1.50504">
        <ele>72</ele>
        <time>2021-09-05T09:02:08.000Z</time>
      </trkpt>
      <trkpt lat="47.1194" lon="-1.50512">
        <ele>72</ele>
        <time>2021-09-05T09:02:10.000Z</time>
      </trkpt>
      <trkpt lat="47.1195" lon="-1.50521">
        <ele>72</ele>
        <time>2021-09-05T09:02:12.000Z</time>
      </trkpt>
      <trkpt lat="47.1196" lon="-1.50529">
        <ele>72</ele>
        <time>2021-09-05T09:02:14.000Z</time>
      </trkpt>
      <trkpt lat="47.1197" lon="-1.50538">
        <ele>72</ele>
        <time>2021-09-05T09:02:16.000Z</time>
      </trkpt>
      <trkpt lat="47.11979" lon="-1.50548">
        <ele>72</ele>
        <time>2021-09-05T09:02:18.000Z</time>
      </trkpt>
      <trkpt lat="47.11989" lon="-1.50558">
        <ele>72</ele>
        <time>2021-09-05T09:02:20.000Z</time>
      </trkpt>
      <trkpt lat="47.11999" lon="-1.50568">
        <ele>72</ele>
        <time>2021-09-05T09:02:22.000Z</time>
      </trkpt>
      <trkpt lat="47.12009" lon="-1.50576">
        <ele>72</ele>
        <time>2021-09-05T09:02:24.000Z</time>
      </trkpt>
      <trkpt lat="47.1202" lon="-1.50582">
        <ele>72</ele>
        <time>2021-09-05T09:02:26.000Z</time>
      </trkpt>
      <trkpt lat="47.12029" lon="-1.50591">
        <ele>72</ele>
        <time>2021-09-05T09:02:28.000Z</time>
      </trkpt>
      <trkpt lat="47.12037" lon="-1.50605">
        <ele>72</ele>
        <time>2021-09-05T09:02:30.000Z</time>
      </trkpt>
      <trkpt lat="47.12045" lon="-1.50617">
        <ele>72</ele>
        <time>2021-09-05T09:02:32.000Z</time>
      </trkpt>
      <trkpt lat="47.12055" lon="-1.50628">
        <ele>72</ele>
        <time>2021-09-05T09:02:34.000Z</time>
      </trkpt>
      <trkpt lat="47.12064" lon="-1.50639">
        <ele>73</ele>
        <time>2021-09-05T09:02:36.000Z</time>
      </trkpt>
      <trkpt lat="47.12073" lon="-1.5065">
        <ele>72</ele>
        <time>2021-09-05T09:02:38.000Z</time>
      </trkpt>
      <trkpt lat="47.12082" lon="-1.50661">
        <ele>73</ele>
        <time>2021-09-05T09:02:40.000Z</time>
      </trkpt>
      <trkpt lat="47.12092" lon="-1.50673">
        <ele>72</ele>
        <time>2021-09-05T09:02:42.000Z</time>
      </trkpt>
      <trkpt lat="47.12101" lon="-1.50684">
        <ele>72</ele>
        <time>2021-09-05T09:02:44.000Z</time>
      </trkpt>
      <trkpt lat="47.12111" lon="-1.50695">
        <ele>72</ele>
        <time>2021-09-05T09:02:46.000Z</time>
      </trkpt>
      <trkpt lat="47.1212" lon="-1.50706">
        <ele>72</ele>
        <time>2021-09-05T09:02:48.000Z</time>
      </trkpt>
      <trkpt lat="47.1213" lon="-1.50716">
        <ele>72</ele>
        <time>2021-09-05T09:02:50.000Z</time>
      </trkpt>
      <trkpt lat="47.1214" lon="-1.50726">
        <ele>72</ele>
        <time>2021-09-05T09:02:52.000Z</time>
      </trkpt>
      <trkpt lat="47.1215" lon="-1.50737">
        <ele>72</ele>
        <time>2021-09-05T09:02:54.000Z</time>
      </trkpt>
      <trkpt lat="47.1216" lon="-1.50748">
        <ele>72</ele>
        <time>2021-09-05T09:02:56.000Z</time>
      </trkpt>
      <trkpt lat="47.1217" lon="-1.50758">
        <ele>71</ele>
        <time>2021-09-05T09:02:58.000Z</time>
      </trkpt>
      <trkpt lat="47.1218" lon="-1.50768">
        <ele>72</ele>
        <time>2021-09-05T09:03:00.000Z</time>
      </trkpt>
      <trkpt lat="47.12189" lon="-1.50778">
        <ele>72</ele>
        <time>2021-09-05T09:03:02.000Z</time>
      </trkpt>
      <trkpt lat="47.12199" lon="-1.50789">
        <ele>72</ele>
        <time>2021-09-05T09:03:04.000Z</time>
      </trkpt>
      <trkpt lat="47.12209" lon="-1.50799">
        <ele>72</ele>
        <time>2021-09-05T09:03:06.000Z</time>
      </trkpt>
      <trkpt lat="47.12218" lon="-1.5081">
        <ele>72</ele>
        <time>2021-09-05T09:03:08.000Z</time>
      </trkpt>
      <trkpt lat="47.12228" lon="-1.5082">
        <ele>73</ele>
        <time>2021-09-05T09:03:10.000Z</time>
      </trkpt>
      <trkpt lat="47.12238" lon="-1.5083">
        <ele>73</ele>
        <time>2021-09-05T09:03:12.000Z</time>
      </trkpt>
      <trkpt lat="47.12247" lon="-1.5084">
        <ele>74</ele>
        <time>2021-09-05T09:03:14.000Z</time>
      </trkpt>
      <trkpt lat="47.12256" lon="-1.50852">
        <ele>74</ele>
        <time>2021-09-05T09:03:16.000Z</time>
      </trkpt>
      <trkpt lat="47.12264" lon="-1.50863">
        <ele>74</ele>
        <time>2021-09-05T09:03:18.000Z</time>
      </trkpt>
      <trkpt lat="47.12274" lon="-1.50877">
        <ele>74</ele>
        <time>2021-09-05T09:03:20.000Z</time>
      </trkpt>
      <trkpt lat="47.12284" lon="-1.50889">
        <ele>73</ele>
        <time>2021-09-05T09:03:22.000Z</time>
      </trkpt>
      <trkpt lat="47.12294" lon="-1.50902">
        <ele>72</ele>
        <time>2021-09-05T09:03:24.000Z</time>
      </trkpt>
      <trkpt lat="47.12304" lon="-1.50915">
        <ele>72</ele>
        <time>2021-09-05T09:03:26.000Z</time>
      </trkpt>
      <trkpt lat="47.12314" lon="-1.50928">
        <ele>71</ele>
        <time>2021-09-05T09:03:28.000Z</time>
      </trkpt>
      <trkpt lat="47.12324" lon="-1.50941">
        <ele>70</ele>
        <time>2021-09-05T09:03:30.000Z</time>
      </trkpt>
      <trkpt lat="47.12335" lon="-1.50955">
        <ele>70</ele>
        <time>2021-09-05T09:03:32.000Z</time>
      </trkpt>
      <trkpt lat="47.12346" lon="-1.50968">
        <ele>70</ele>
        <time>2021-09-05T09:03:34.000Z</time>
      </trkpt>
      <trkpt lat="47.12357" lon="-1.50981">
        <ele>70</ele>
        <time>2021-09-05T09:03:36.000Z</time>
      </trkpt>
      <trkpt lat="47.12367" lon="-1.50994">
        <ele>69</ele>
        <time>2021-09-05T09:03:38.000Z</time>
      </trkpt>
      <trkpt lat="47.12379" lon="-1.51008">
        <ele>69</ele>
        <time>2021-09-05T09:03:40.000Z</time>
      </trkpt>
      <trkpt lat="47.1239" lon="-1.51022">
        <ele>69</ele>
        <time>2021-09-05T09:03:42.000Z</time>
      </trkpt>
      <trkpt lat="47.12401" lon="-1.51035">
        <ele>68</ele>
        <time>2021-09-05T09:03:44.000Z</time>
      </trkpt>
      <trkpt lat="47.12413" lon="-1.51048">
        <ele>68</ele>
        <time>2021-09-05T09:03:46.000Z</time>
      </trkpt>
      <trkpt lat="47.12424" lon="-1.5106">
        <ele>68</ele>
        <time>2021-09-05T09:03:48.000Z</time>
      </trkpt>
      <trkpt lat="47.12437" lon="-1.51072">
        <ele>68</ele>
        <time>2021-09-05T09:03:50.000Z</time>
      </trkpt>
      <trkpt lat="47.12449" lon="-1.51082">
        <ele>68</ele>
        <time>2021-09-05T09:03:52.000Z</time>
      </trkpt>
      <trkpt lat="47.12463" lon="-1.51093">
        <ele>68</ele>
        <time>2021-09-05T09:03:54.000Z</time>
      </trkpt>
      <trkpt lat="47.12476" lon="-1.51103">
        <ele>69</ele>
        <time>2021-09-05T09:03:56.000Z</time>
      </trkpt>
      <trkpt lat="47.12489" lon="-1.51113">
        <ele>69</ele>
        <time>2021-09-05T09:03:58.000Z</time>
      </trkpt>
      <trkpt lat="47.12501" lon="-1.51123">
        <ele>70</ele>
        <time>2021-09-05T09:04:00.000Z</time>
      </trkpt>
      <trkpt lat="47.12513" lon="-1.51134">
        <ele>71</ele>
        <time>2021-09-05T09:04:02.000Z</time>
      </trkpt>
      <trkpt lat="47.12525" lon="-1.51143">
        <ele>71</ele>
        <time>2021-09-05T09:04:04.000Z</time>
      </trkpt>
      <trkpt lat="47.12537" lon="-1.51153">
        <ele>71</ele>
        <time>2021-09-05T09:04:06.000Z</time>
      </trkpt>
      <trkpt lat="47.12549" lon="-1.51162">
        <ele>71</ele>
        <time>2021-09-05T09:04:08.000Z</time>
      </trkpt>
      <trkpt lat="47.12561" lon="-1.51173">
        <ele>70</ele>
        <time>2021-09-05T09:04:10.000Z</time>
      </trkpt>
      <trkpt lat="47.12574" lon="-1.51184">
        <ele>70</ele>
        <time>2021-09-05T09:04:12.000Z</time>
      </trkpt>
      <trkpt lat="47.12587" lon="-1.51196">
        <ele>69</ele>
        <time>2021-09-05T09:04:14.000Z</time>
      </trkpt>
      <trkpt lat="47.126" lon="-1.51209">
        <ele>69</ele>
        <time>2021-09-05T09:04:16.000Z</time>
      </trkpt>
      <trkpt lat="47.12612" lon="-1.5122">
        <ele>70</ele>
        <time>2021-09-05T09:04:18.000Z</time>
      </trkpt>
      <trkpt lat="47.12624" lon="-1.51231">
        <ele>70</ele>
        <time>2021-09-05T09:04:20.000Z</time>
      </trkpt>
      <trkpt lat="47.12636" lon="-1.51242">
        <ele>70</ele>
        <time>2021-09-05T09:04:22.000Z</time>
      </trkpt>
      <trkpt lat="47.12647" lon="-1.51252">
        <ele>70</ele>
        <time>2021-09-05T09:04:24.000Z</time>
      </trkpt>
      <trkpt lat="47.12659" lon="-1.51263">
        <ele>70</ele>
        <time>2021-09-05T09:04:26.000Z</time>
      </trkpt>
      <trkpt lat="47.1267" lon="-1.51273">
        <ele>71</ele>
        <time>2021-09-05T09:04:28.000Z</time>
      </trkpt>
      <trkpt lat="47.12681" lon="-1.51283">
        <ele>71</ele>
        <time>2021-09-05T09:04:30.000Z</time>
      </trkpt>
      <trkpt lat="47.12692" lon="-1.51293">
        <ele>71</ele>
        <time>2021-09-05T09:04:32.000Z</time>
      </trkpt>
      <trkpt lat="47.12702" lon="-1.51302">
        <ele>72</ele>
        <time>2021-09-05T09:04:34.000Z</time>
      </trkpt>
      <trkpt lat="47.12713" lon="-1.51311">
        <ele>72</ele>
        <time>2021-09-05T09:04:36.000Z</time>
      </trkpt>
      <trkpt lat="47.12724" lon="-1.5132">
        <ele>73</ele>
        <time>2021-09-05T09:04:38.000Z</time>
      </trkpt>
      <trkpt lat="47.12735" lon="-1.5133">
        <ele>73</ele>
        <time>2021-09-05T09:04:40.000Z</time>
      </trkpt>
      <trkpt lat="47.12746" lon="-1.5134">
        <ele>73</ele>
        <time>2021-09-05T09:04:42.000Z</time>
      </trkpt>
      <trkpt lat="47.12756" lon="-1.51349">
        <ele>74</ele>
        <time>2021-09-05T09:04:44.000Z</time>
      </trkpt>
      <trkpt lat="47.12766" lon="-1.51358">
        <ele>74</ele>
        <time>2021-09-05T09:04:46.000Z</time>
      </trkpt>
      <trkpt lat="47.12776" lon="-1.51367">
        <ele>74</ele>
        <time>2021-09-05T09:04:48.000Z</time>
      </trkpt>
      <trkpt lat="47.12786" lon="-1.51374">
        <ele>74</ele>
        <time>2021-09-05T09:04:50.000Z</time>
      </trkpt>
      <trkpt lat="47.12796" lon="-1.51382">
        <ele>74</ele>
        <time>2021-09-05T09:04:52.000Z</time>
      </trkpt>
      <trkpt lat="47.12805" lon="-1.5139">
        <ele>75</ele>
        <time>2021-09-05T09:04:54.000Z</time>
      </trkpt>
      <trkpt lat="47.12815" lon="-1.51398">
        <ele>75</ele>
        <time>2021-09-05T09:04:56.000Z</time>
      </trkpt>
      <trkpt lat="47.12824" lon="-1.51406">
        <ele>75</ele>
        <time>2021-09-05T09:04:58.000Z</time>
      </trkpt>
      <trkpt lat="47.12834" lon="-1.51415">
        <ele>76</ele>
        <time>2021-09-05T09:05:00.000Z</time>
      </trkpt>
      <trkpt lat="47.12844" lon="-1.51424">
        <ele>76</ele>
        <time>2021-09-05T09:05:02.000Z</time>
      </trkpt>
      <trkpt lat="47.12853" lon="-1.51432">
        <ele>76</ele>
        <time>2021-09-05T09:05:04.000Z</time>
      </trkpt>
      <trkpt lat="47.12863" lon="-1.51441">
        <ele>76</ele>
        <time>2021-09-05T09:05:06.000Z</time>
      </trkpt>
      <trkpt lat="47.12873" lon="-1.5145">
        <ele>76</ele>
        <time>2021-09-05T09:05:08.000Z</time>
      </trkpt>
      <trkpt lat="47.12884" lon="-1.51459">
        <ele>76</ele>
        <time>2021-09-05T09:05:10.000Z</time>
      </trkpt>
      <trkpt lat="47.12894" lon="-1.51468">
        <ele>76</ele>
        <time>2021-09-05T09:05:12.000Z</time>
      </trkpt>
      <trkpt lat="47.12905" lon="-1.51477">
        <ele>76</ele>
        <time>2021-09-05T09:05:14.000Z</time>
      </trkpt>
      <trkpt lat="47.12915" lon="-1.51487">
        <ele>76</ele>
        <time>2021-09-05T09:05:16.000Z</time>
      </trkpt>
      <trkpt lat="47.12925" lon="-1.51496">
        <ele>76</ele>
        <time>2021-09-05T09:05:18.000Z</time>
      </trkpt>
      <trkpt lat="47.12936" lon="-1.51505">
        <ele>76</ele>
        <time>2021-09-05T09:05:20.000Z</time>
      </trkpt>
      <trkpt lat="47.12946" lon="-1.51514">
        <ele>76</ele>
        <time>2021-09-05T09:05:22.000Z</time>
      </trkpt>
      <trkpt lat="47.12956" lon="-1.51523">
        <ele>76</ele>
        <time>2021-09-05T09:05:24.000Z</time>
      </trkpt>
      <trkpt lat="47.12966" lon="-1.51532">
        <ele>76</ele>
        <time>2021-09-05T09:05:26.000Z</time>
      </trkpt>
      <trkpt lat="47.12976" lon="-1.51541">
        <ele>77</ele>
        <time>2021-09-05T09:05:28.000Z</time>
      </trkpt>
      <trkpt lat="47.12987" lon="-1.51549">
        <ele>77</ele>
        <time>2021-09-05T09:05:30.000Z</time>
      </trkpt>
      <trkpt lat="47.12998" lon="-1.51556">
        <ele>77</ele>
        <time>2021-09-05T09:05:32.000Z</time>
      </trkpt>
      <trkpt lat="47.1301" lon="-1.51562">
        <ele>77</ele>
        <time>2021-09-05T09:05:34.000Z</time>
      </trkpt>
      <trkpt lat="47.13022" lon="-1.51569">
        <ele>78</ele>
        <time>2021-09-05T09:05:36.000Z</time>
      </trkpt>
      <trkpt lat="47.13033" lon="-1.51573">
        <ele>78</ele>
        <time>2021-09-05T09:05:38.000Z</time>
      </trkpt>
      <trkpt lat="47.13045" lon="-1.51577">
        <ele>78</ele>
        <time>2021-09-05T09:05:40.000Z</time>
      </trkpt>
      <trkpt lat="47.13057" lon="-1.51579">
        <ele>78</ele>
        <time>2021-09-05T09:05:42.000Z</time>
      </trkpt>
      <trkpt lat="47.13069" lon="-1.51581">
        <ele>78</ele>
        <time>2021-09-05T09:05:44.000Z</time>
      </trkpt>
      <trkpt lat="47.13082" lon="-1.5158">
        <ele>78</ele>
        <time>2021-09-05T09:05:46.000Z</time>
      </trkpt>
      <trkpt lat="47.13094" lon="-1.51579">
        <ele>78</ele>
        <time>2021-09-05T09:05:48.000Z</time>
      </trkpt>
      <trkpt lat="47.13105" lon="-1.51576">
        <ele>78</ele>
        <time>2021-09-05T09:05:50.000Z</time>
      </trkpt>
      <trkpt lat="47.13118" lon="-1.51573">
        <ele>79</ele>
        <time>2021-09-05T09:05:52.000Z</time>
      </trkpt>
      <trkpt lat="47.1313" lon="-1.5157">
        <ele>79</ele>
        <time>2021-09-05T09:05:54.000Z</time>
      </trkpt>
      <trkpt lat="47.13142" lon="-1.51567">
        <ele>79</ele>
        <time>2021-09-05T09:05:56.000Z</time>
      </trkpt>
      <trkpt lat="47.13154" lon="-1.51563">
        <ele>79</ele>
        <time>2021-09-05T09:05:58.000Z</time>
      </trkpt>
      <trkpt lat="47.13166" lon="-1.51561">
        <ele>78</ele>
        <time>2021-09-05T09:06:00.000Z</time>
      </trkpt>
      <trkpt lat="47.13178" lon="-1.51558">
        <ele>78</ele>
        <time>2021-09-05T09:06:02.000Z</time>
      </trkpt>
      <trkpt lat="47.1319" lon="-1.51556">
        <ele>78</ele>
        <time>2021-09-05T09:06:04.000Z</time>
      </trkpt>
      <trkpt lat="47.13203" lon="-1.51555">
        <ele>77</ele>
        <time>2021-09-05T09:06:06.000Z</time>
      </trkpt>
      <trkpt lat="47.13215" lon="-1.51553">
        <ele>77</ele>
        <time>2021-09-05T09:06:08.000Z</time>
      </trkpt>
      <trkpt lat="47.13228" lon="-1.5155">
        <ele>77</ele>
        <time>2021-09-05T09:06:10.000Z</time>
      </trkpt>
      <trkpt lat="47.1324" lon="-1.51546">
        <ele>77</ele>
        <time>2021-09-05T09:06:12.000Z</time>
      </trkpt>
      <trkpt lat="47.13251" lon="-1.5154">
        <ele>77</ele>
        <time>2021-09-05T09:06:14.000Z</time>
      </trkpt>
      <trkpt lat="47.13262" lon="-1.51537">
        <ele>77</ele>
        <time>2021-09-05T09:06:16.000Z</time>
      </trkpt>
      <trkpt lat="47.13273" lon="-1.51545">
        <ele>77</ele>
        <time>2021-09-05T09:06:18.000Z</time>
      </trkpt>
      <trkpt lat="47.13278" lon="-1.51561">
        <ele>77</ele>
        <time>2021-09-05T09:06:20.000Z</time>
      </trkpt>
      <trkpt lat="47.13276" lon="-1.5158">
        <ele>76</ele>
        <time>2021-09-05T09:06:22.000Z</time>
      </trkpt>
      <trkpt lat="47.13274" lon="-1.51599">
        <ele>75</ele>
        <time>2021-09-05T09:06:24.000Z</time>
      </trkpt>
      <trkpt lat="47.13277" lon="-1.51619">
        <ele>75</ele>
        <time>2021-09-05T09:06:26.000Z</time>
      </trkpt>
      <trkpt lat="47.13281" lon="-1.5164">
        <ele>74</ele>
        <time>2021-09-05T09:06:28.000Z</time>
      </trkpt>
      <trkpt lat="47.13285" lon="-1.51663">
        <ele>73</ele>
        <time>2021-09-05T09:06:30.000Z</time>
      </trkpt>
      <trkpt lat="47.13289" lon="-1.51686">
        <ele>72</ele>
        <time>2021-09-05T09:06:32.000Z</time>
      </trkpt>
      <trkpt lat="47.13293" lon="-1.5171">
        <ele>72</ele>
        <time>2021-09-05T09:06:34.000Z</time>
      </trkpt>
      <trkpt lat="47.13297" lon="-1.51732">
        <ele>71</ele>
        <time>2021-09-05T09:06:36.000Z</time>
      </trkpt>
      <trkpt lat="47.13301" lon="-1.51754">
        <ele>71</ele>
        <time>2021-09-05T09:06:38.000Z</time>
      </trkpt>
      <trkpt lat="47.13306" lon="-1.51775">
        <ele>72</ele>
        <time>2021-09-05T09:06:40.000Z</time>
      </trkpt>
      <trkpt lat="47.13312" lon="-1.51794">
        <ele>72</ele>
        <time>2021-09-05T09:06:42.000Z</time>
      </trkpt>
      <trkpt lat="47.13319" lon="-1.51812">
        <ele>73</ele>
        <time>2021-09-05T09:06:44.000Z</time>
      </trkpt>
      <trkpt lat="47.13326" lon="-1.51827">
        <ele>73</ele>
        <time>2021-09-05T09:06:46.000Z</time>
      </trkpt>
      <trkpt lat="47.13333" lon="-1.51841">
        <ele>74</ele>
        <time>2021-09-05T09:06:48.000Z</time>
      </trkpt>
      <trkpt lat="47.13341" lon="-1.51853">
        <ele>74</ele>
        <time>2021-09-05T09:06:50.000Z</time>
      </trkpt>
      <trkpt lat="47.13351" lon="-1.51863">
        <ele>74</ele>
        <time>2021-09-05T09:06:52.000Z</time>
      </trkpt>
      <trkpt lat="47.13361" lon="-1.51868">
        <ele>75</ele>
        <time>2021-09-05T09:06:54.000Z</time>
      </trkpt>
      <trkpt lat="47.13373" lon="-1.51867">
        <ele>76</ele>
        <time>2021-09-05T09:06:56.000Z</time>
      </trkpt>
      <trkpt lat="47.13384" lon="-1.51869">
        <ele>77</ele>
        <time>2021-09-05T09:06:58.000Z</time>
      </trkpt>
      <trkpt lat="47.13394" lon="-1.51877">
        <ele>77</ele>
        <time>2021-09-05T09:07:00.000Z</time>
      </trkpt>
      <trkpt lat="47.13401" lon="-1.51891">
        <ele>77</ele>
        <time>2021-09-05T09:07:02.000Z</time>
      </trkpt>
      <trkpt lat="47.13405" lon="-1.51906">
        <ele>77</ele>
        <time>2021-09-05T09:07:04.000Z</time>
      </trkpt>
      <trkpt lat="47.13413" lon="-1.51919">
        <ele>77</ele>
        <time>2021-09-05T09:07:06.000Z</time>
      </trkpt>
      <trkpt lat="47.13424" lon="-1.51928">
        <ele>78</ele>
        <time>2021-09-05T09:07:08.000Z</time>
      </trkpt>
      <trkpt lat="47.13434" lon="-1.51938">
        <ele>78</ele>
        <time>2021-09-05T09:07:10.000Z</time>
      </trkpt>
      <trkpt lat="47.13444" lon="-1.51947">
        <ele>78</ele>
        <time>2021-09-05T09:07:12.000Z</time>
      </trkpt>
      <trkpt lat="47.13454" lon="-1.51956">
        <ele>79</ele>
        <time>2021-09-05T09:07:14.000Z</time>
      </trkpt>
      <trkpt lat="47.13465" lon="-1.51965">
        <ele>79</ele>
        <time>2021-09-05T09:07:16.000Z</time>
      </trkpt>
      <trkpt lat="47.13475" lon="-1.51974">
        <ele>80</ele>
        <time>2021-09-05T09:07:18.000Z</time>
      </trkpt>
      <trkpt lat="47.13485" lon="-1.51983">
        <ele>80</ele>
        <time>2021-09-05T09:07:20.000Z</time>
      </trkpt>
      <trkpt lat="47.13496" lon="-1.51992">
        <ele>80</ele>
        <time>2021-09-05T09:07:22.000Z</time>
      </trkpt>
      <trkpt lat="47.13506" lon="-1.52001">
        <ele>81</ele>
        <time>2021-09-05T09:07:24.000Z</time>
      </trkpt>
      <trkpt lat="47.13515" lon="-1.52011">
        <ele>81</ele>
        <time>2021-09-05T09:07:26.000Z</time>
      </trkpt>
      <trkpt lat="47.13526" lon="-1.52019">
        <ele>81</ele>
        <time>2021-09-05T09:07:28.000Z</time>
      </trkpt>
      <trkpt lat="47.13535" lon="-1.52028">
        <ele>81</ele>
        <time>2021-09-05T09:07:30.000Z</time>
      </trkpt>
      <trkpt lat="47.13544" lon="-1.52036">
        <ele>82</ele>
        <time>2021-09-05T09:07:32.000Z</time>
      </trkpt>
      <trkpt lat="47.13554" lon="-1.52045">
        <ele>82</ele>
        <time>2021-09-05T09:07:34.000Z</time>
      </trkpt>
      <trkpt lat="47.13565" lon="-1.52053">
        <ele>82</ele>
        <time>2021-09-05T09:07:36.000Z</time>
      </trkpt>
      <trkpt lat="47.13575" lon="-1.52061">
        <ele>82</ele>
        <time>2021-09-05T09:07:38.000Z</time>
      </trkpt>
      <trkpt lat="47.13585" lon="-1.5207">
        <ele>82</ele>
        <time>2021-09-05T09:07:40.000Z</time>
      </trkpt>
      <trkpt lat="47.13594" lon="-1.52079">
        <ele>82</ele>
        <time>2021-09-05T09:07:42.000Z</time>
      </trkpt>
      <trkpt lat="47.13605" lon="-1.52088">
        <ele>82</ele>
        <time>2021-09-05T09:07:44.000Z</time>
      </trkpt>
      <trkpt lat="47.13614" lon="-1.52097">
        <ele>83</ele>
        <time>2021-09-05T09:07:46.000Z</time>
      </trkpt>
      <trkpt lat="47.13628" lon="-1.52112">
        <ele>85</ele>
        <time>2021-09-05T09:07:49.000Z</time>
      </trkpt>
      <trkpt lat="47.13637" lon="-1.52122">
        <ele>87</ele>
        <time>2021-09-05T09:07:51.000Z</time>
      </trkpt>
      <trkpt lat="47.13648" lon="-1.5213">
        <ele>87</ele>
        <time>2021-09-05T09:07:53.000Z</time>
      </trkpt>
      <trkpt lat="47.13657" lon="-1.52139">
        <ele>88</ele>
        <time>2021-09-05T09:07:55.000Z</time>
      </trkpt>
      <trkpt lat="47.13666" lon="-1.5215">
        <ele>90</ele>
        <time>2021-09-05T09:07:57.000Z</time>
      </trkpt>
      <trkpt lat="47.13676" lon="-1.5216">
        <ele>92</ele>
        <time>2021-09-05T09:07:59.000Z</time>
      </trkpt>
      <trkpt lat="47.1369" lon="-1.52177">
        <ele>96</ele>
        <time>2021-09-05T09:08:02.000Z</time>
      </trkpt>
      <trkpt lat="47.13701" lon="-1.52187">
        <ele>98</ele>
        <time>2021-09-05T09:08:04.000Z</time>
      </trkpt>
      <trkpt lat="47.13713" lon="-1.52195">
        <ele>99</ele>
        <time>2021-09-05T09:08:06.000Z</time>
      </trkpt>
      <trkpt lat="47.1373" lon="-1.52206">
        <ele>98</ele>
        <time>2021-09-05T09:08:09.000Z</time>
      </trkpt>
      <trkpt lat="47.13742" lon="-1.52212">
        <ele>97</ele>
        <time>2021-09-05T09:08:11.000Z</time>
      </trkpt>
      <trkpt lat="47.13754" lon="-1.5222">
        <ele>94</ele>
        <time>2021-09-05T09:08:13.000Z</time>
      </trkpt>
      <trkpt lat="47.13771" lon="-1.52233">
        <ele>92</ele>
        <time>2021-09-05T09:08:16.000Z</time>
      </trkpt>
      <trkpt lat="47.13782" lon="-1.52242">
        <ele>90</ele>
        <time>2021-09-05T09:08:18.000Z</time>
      </trkpt>
      <trkpt lat="47.13793" lon="-1.52252">
        <ele>90</ele>
        <time>2021-09-05T09:08:20.000Z</time>
      </trkpt>
      <trkpt lat="47.13804" lon="-1.52263">
        <ele>89</ele>
        <time>2021-09-05T09:08:22.000Z</time>
      </trkpt>
      <trkpt lat="47.13815" lon="-1.52273">
        <ele>89</ele>
        <time>2021-09-05T09:08:24.000Z</time>
      </trkpt>
      <trkpt lat="47.13826" lon="-1.52282">
        <ele>88</ele>
        <time>2021-09-05T09:08:26.000Z</time>
      </trkpt>
      <trkpt lat="47.13837" lon="-1.52291">
        <ele>87</ele>
        <time>2021-09-05T09:08:28.000Z</time>
      </trkpt>
      <trkpt lat="47.13849" lon="-1.52299">
        <ele>86</ele>
        <time>2021-09-05T09:08:30.000Z</time>
      </trkpt>
      <trkpt lat="47.13859" lon="-1.52307">
        <ele>85</ele>
        <time>2021-09-05T09:08:32.000Z</time>
      </trkpt>
      <trkpt lat="47.13871" lon="-1.52309">
        <ele>85</ele>
        <time>2021-09-05T09:08:34.000Z</time>
      </trkpt>
      <trkpt lat="47.13882" lon="-1.52314">
        <ele>84</ele>
        <time>2021-09-05T09:08:36.000Z</time>
      </trkpt>
      <trkpt lat="47.13891" lon="-1.52329">
        <ele>84</ele>
        <time>2021-09-05T09:08:38.000Z</time>
      </trkpt>
      <trkpt lat="47.13902" lon="-1.5234">
        <ele>83</ele>
        <time>2021-09-05T09:08:40.000Z</time>
      </trkpt>
      <trkpt lat="47.13913" lon="-1.52351">
        <ele>83</ele>
        <time>2021-09-05T09:08:42.000Z</time>
      </trkpt>
      <trkpt lat="47.13924" lon="-1.52362">
        <ele>84</ele>
        <time>2021-09-05T09:08:44.000Z</time>
      </trkpt>
      <trkpt lat="47.13936" lon="-1.52372">
        <ele>84</ele>
        <time>2021-09-05T09:08:46.000Z</time>
      </trkpt>
      <trkpt lat="47.13947" lon="-1.52382">
        <ele>84</ele>
        <time>2021-09-05T09:08:48.000Z</time>
      </trkpt>
      <trkpt lat="47.13958" lon="-1.52392">
        <ele>84</ele>
        <time>2021-09-05T09:08:50.000Z</time>
      </trkpt>
      <trkpt lat="47.13969" lon="-1.52401">
        <ele>85</ele>
        <time>2021-09-05T09:08:52.000Z</time>
      </trkpt>
      <trkpt lat="47.1398" lon="-1.5241">
        <ele>85</ele>
        <time>2021-09-05T09:08:54.000Z</time>
      </trkpt>
      <trkpt lat="47.13991" lon="-1.52419">
        <ele>85</ele>
        <time>2021-09-05T09:08:56.000Z</time>
      </trkpt>
      <trkpt lat="47.14002" lon="-1.52429">
        <ele>85</ele>
        <time>2021-09-05T09:08:58.000Z</time>
      </trkpt>
      <trkpt lat="47.14013" lon="-1.52439">
        <ele>84</ele>
        <time>2021-09-05T09:09:00.000Z</time>
      </trkpt>
      <trkpt lat="47.14025" lon="-1.52448">
        <ele>84</ele>
        <time>2021-09-05T09:09:02.000Z</time>
      </trkpt>
      <trkpt lat="47.14036" lon="-1.52458">
        <ele>84</ele>
        <time>2021-09-05T09:09:04.000Z</time>
      </trkpt>
      <trkpt lat="47.14047" lon="-1.52467">
        <ele>84</ele>
        <time>2021-09-05T09:09:06.000Z</time>
      </trkpt>
      <trkpt lat="47.14058" lon="-1.52476">
        <ele>84</ele>
        <time>2021-09-05T09:09:08.000Z</time>
      </trkpt>
      <trkpt lat="47.14069" lon="-1.52485">
        <ele>84</ele>
        <time>2021-09-05T09:09:10.000Z</time>
      </trkpt>
      <trkpt lat="47.1408" lon="-1.52495">
        <ele>83</ele>
        <time>2021-09-05T09:09:12.000Z</time>
      </trkpt>
      <trkpt lat="47.1409" lon="-1.52504">
        <ele>83</ele>
        <time>2021-09-05T09:09:14.000Z</time>
      </trkpt>
      <trkpt lat="47.14101" lon="-1.52512">
        <ele>84</ele>
        <time>2021-09-05T09:09:16.000Z</time>
      </trkpt>
      <trkpt lat="47.14111" lon="-1.52522">
        <ele>84</ele>
        <time>2021-09-05T09:09:18.000Z</time>
      </trkpt>
      <trkpt lat="47.14122" lon="-1.52531">
        <ele>84</ele>
        <time>2021-09-05T09:09:20.000Z</time>
      </trkpt>
      <trkpt lat="47.14133" lon="-1.52539">
        <ele>84</ele>
        <time>2021-09-05T09:09:22.000Z</time>
      </trkpt>
      <trkpt lat="47.14143" lon="-1.52548">
        <ele>83</ele>
        <time>2021-09-05T09:09:24.000Z</time>
      </trkpt>
      <trkpt lat="47.14154" lon="-1.52557">
        <ele>84</ele>
        <time>2021-09-05T09:09:26.000Z</time>
      </trkpt>
      <trkpt lat="47.14165" lon="-1.52567">
        <ele>85</ele>
        <time>2021-09-05T09:09:28.000Z</time>
      </trkpt>
      <trkpt lat="47.14176" lon="-1.52577">
        <ele>86</ele>
        <time>2021-09-05T09:09:30.000Z</time>
      </trkpt>
      <trkpt lat="47.14187" lon="-1.52586">
        <ele>86</ele>
        <time>2021-09-05T09:09:32.000Z</time>
      </trkpt>
      <trkpt lat="47.14198" lon="-1.52594">
        <ele>86</ele>
        <time>2021-09-05T09:09:34.000Z</time>
      </trkpt>
      <trkpt lat="47.14209" lon="-1.52603">
        <ele>85</ele>
        <time>2021-09-05T09:09:36.000Z</time>
      </trkpt>
      <trkpt lat="47.1422" lon="-1.52613">
        <ele>84</ele>
        <time>2021-09-05T09:09:38.000Z</time>
      </trkpt>
      <trkpt lat="47.14231" lon="-1.52622">
        <ele>84</ele>
        <time>2021-09-05T09:09:40.000Z</time>
      </trkpt>
      <trkpt lat="47.14242" lon="-1.52631">
        <ele>83</ele>
        <time>2021-09-05T09:09:42.000Z</time>
      </trkpt>
      <trkpt lat="47.14253" lon="-1.5264">
        <ele>83</ele>
        <time>2021-09-05T09:09:44.000Z</time>
      </trkpt>
      <trkpt lat="47.14263" lon="-1.52649">
        <ele>83</ele>
        <time>2021-09-05T09:09:46.000Z</time>
      </trkpt>
      <trkpt lat="47.14274" lon="-1.52658">
        <ele>84</ele>
        <time>2021-09-05T09:09:48.000Z</time>
      </trkpt>
      <trkpt lat="47.14285" lon="-1.52668">
        <ele>84</ele>
        <time>2021-09-05T09:09:50.000Z</time>
      </trkpt>
      <trkpt lat="47.14295" lon="-1.52677">
        <ele>83</ele>
        <time>2021-09-05T09:09:52.000Z</time>
      </trkpt>
      <trkpt lat="47.14306" lon="-1.52685">
        <ele>84</ele>
        <time>2021-09-05T09:09:54.000Z</time>
      </trkpt>
      <trkpt lat="47.14317" lon="-1.52694">
        <ele>83</ele>
        <time>2021-09-05T09:09:56.000Z</time>
      </trkpt>
      <trkpt lat="47.14327" lon="-1.52705">
        <ele>83</ele>
        <time>2021-09-05T09:09:58.000Z</time>
      </trkpt>
      <trkpt lat="47.14338" lon="-1.52714">
        <ele>83</ele>
        <time>2021-09-05T09:10:00.000Z</time>
      </trkpt>
      <trkpt lat="47.14349" lon="-1.52723">
        <ele>83</ele>
        <time>2021-09-05T09:10:02.000Z</time>
      </trkpt>
      <trkpt lat="47.1436" lon="-1.52732">
        <ele>82</ele>
        <time>2021-09-05T09:10:04.000Z</time>
      </trkpt>
      <trkpt lat="47.14371" lon="-1.52741">
        <ele>82</ele>
        <time>2021-09-05T09:10:06.000Z</time>
      </trkpt>
      <trkpt lat="47.14382" lon="-1.5275">
        <ele>82</ele>
        <time>2021-09-05T09:10:08.000Z</time>
      </trkpt>
      <trkpt lat="47.14393" lon="-1.52758">
        <ele>82</ele>
        <time>2021-09-05T09:10:10.000Z</time>
      </trkpt>
      <trkpt lat="47.14404" lon="-1.52768">
        <ele>82</ele>
        <time>2021-09-05T09:10:12.000Z</time>
      </trkpt>
      <trkpt lat="47.14414" lon="-1.52778">
        <ele>83</ele>
        <time>2021-09-05T09:10:14.000Z</time>
      </trkpt>
      <trkpt lat="47.14425" lon="-1.52787">
        <ele>82</ele>
        <time>2021-09-05T09:10:16.000Z</time>
      </trkpt>
      <trkpt lat="47.14436" lon="-1.52796">
        <ele>82</ele>
        <time>2021-09-05T09:10:18.000Z</time>
      </trkpt>
      <trkpt lat="47.14447" lon="-1.52805">
        <ele>82</ele>
        <time>2021-09-05T09:10:20.000Z</time>
      </trkpt>
      <trkpt lat="47.14458" lon="-1.52814">
        <ele>81</ele>
        <time>2021-09-05T09:10:22.000Z</time>
      </trkpt>
      <trkpt lat="47.14469" lon="-1.52823">
        <ele>81</ele>
        <time>2021-09-05T09:10:24.000Z</time>
      </trkpt>
      <trkpt lat="47.14479" lon="-1.52832">
        <ele>82</ele>
        <time>2021-09-05T09:10:26.000Z</time>
      </trkpt>
      <trkpt lat="47.1449" lon="-1.52842">
        <ele>82</ele>
        <time>2021-09-05T09:10:28.000Z</time>
      </trkpt>
      <trkpt lat="47.14501" lon="-1.52851">
        <ele>82</ele>
        <time>2021-09-05T09:10:30.000Z</time>
      </trkpt>
      <trkpt lat="47.14512" lon="-1.52861">
        <ele>82</ele>
        <time>2021-09-05T09:10:32.000Z</time>
      </trkpt>
      <trkpt lat="47.14523" lon="-1.5287">
        <ele>81</ele>
        <time>2021-09-05T09:10:34.000Z</time>
      </trkpt>
      <trkpt lat="47.14534" lon="-1.52875">
        <ele>82</ele>
        <time>2021-09-05T09:10:36.000Z</time>
      </trkpt>
      <trkpt lat="47.14545" lon="-1.52869">
        <ele>82</ele>
        <time>2021-09-05T09:10:38.000Z</time>
      </trkpt>
      <trkpt lat="47.14554" lon="-1.52858">
        <ele>82</ele>
        <time>2021-09-05T09:10:40.000Z</time>
      </trkpt>
      <trkpt lat="47.14564" lon="-1.52848">
        <ele>82</ele>
        <time>2021-09-05T09:10:42.000Z</time>
      </trkpt>
      <trkpt lat="47.14573" lon="-1.52838">
        <ele>82</ele>
        <time>2021-09-05T09:10:44.000Z</time>
      </trkpt>
      <trkpt lat="47.14582" lon="-1.52828">
        <ele>81</ele>
        <time>2021-09-05T09:10:46.000Z</time>
      </trkpt>
      <trkpt lat="47.1459" lon="-1.52819">
        <ele>81</ele>
        <time>2021-09-05T09:10:48.000Z</time>
      </trkpt>
      <trkpt lat="47.14599" lon="-1.52811">
        <ele>81</ele>
        <time>2021-09-05T09:10:50.000Z</time>
      </trkpt>
      <trkpt lat="47.1461" lon="-1.52811">
        <ele>81</ele>
        <time>2021-09-05T09:10:52.000Z</time>
      </trkpt>
      <trkpt lat="47.14623" lon="-1.5281">
        <ele>82</ele>
        <time>2021-09-05T09:10:54.000Z</time>
      </trkpt>
      <trkpt lat="47.14635" lon="-1.52807">
        <ele>82</ele>
        <time>2021-09-05T09:10:56.000Z</time>
      </trkpt>
      <trkpt lat="47.14647" lon="-1.52805">
        <ele>81</ele>
        <time>2021-09-05T09:10:58.000Z</time>
      </trkpt>
      <trkpt lat="47.14659" lon="-1.52804">
        <ele>81</ele>
        <time>2021-09-05T09:11:00.000Z</time>
      </trkpt>
      <trkpt lat="47.14671" lon="-1.52802">
        <ele>82</ele>
        <time>2021-09-05T09:11:02.000Z</time>
      </trkpt>
      <trkpt lat="47.14683" lon="-1.52801">
        <ele>82</ele>
        <time>2021-09-05T09:11:04.000Z</time>
      </trkpt>
      <trkpt lat="47.14696" lon="-1.52802">
        <ele>82</ele>
        <time>2021-09-05T09:11:06.000Z</time>
      </trkpt>
      <trkpt lat="47.14708" lon="-1.528">
        <ele>81</ele>
        <time>2021-09-05T09:11:08.000Z</time>
      </trkpt>
      <trkpt lat="47.1472" lon="-1.528">
        <ele>82</ele>
        <time>2021-09-05T09:11:10.000Z</time>
      </trkpt>
      <trkpt lat="47.14732" lon="-1.528">
        <ele>82</ele>
        <time>2021-09-05T09:11:12.000Z</time>
      </trkpt>
      <trkpt lat="47.14744" lon="-1.528">
        <ele>83</ele>
        <time>2021-09-05T09:11:14.000Z</time>
      </trkpt>
      <trkpt lat="47.14756" lon="-1.52801">
        <ele>83</ele>
        <time>2021-09-05T09:11:16.000Z</time>
      </trkpt>
      <trkpt lat="47.14768" lon="-1.52802">
        <ele>83</ele>
        <time>2021-09-05T09:11:18.000Z</time>
      </trkpt>
      <trkpt lat="47.1478" lon="-1.52802">
        <ele>84</ele>
        <time>2021-09-05T09:11:20.000Z</time>
      </trkpt>
      <trkpt lat="47.14792" lon="-1.52798">
        <ele>83</ele>
        <time>2021-09-05T09:11:22.000Z</time>
      </trkpt>
      <trkpt lat="47.14802" lon="-1.52788">
        <ele>83</ele>
        <time>2021-09-05T09:11:24.000Z</time>
      </trkpt>
      <trkpt lat="47.14813" lon="-1.52779">
        <ele>83</ele>
        <time>2021-09-05T09:11:26.000Z</time>
      </trkpt>
      <trkpt lat="47.14825" lon="-1.52771">
        <ele>82</ele>
        <time>2021-09-05T09:11:28.000Z</time>
      </trkpt>
      <trkpt lat="47.14837" lon="-1.52764">
        <ele>82</ele>
        <time>2021-09-05T09:11:30.000Z</time>
      </trkpt>
      <trkpt lat="47.14848" lon="-1.52758">
        <ele>82</ele>
        <time>2021-09-05T09:11:32.000Z</time>
      </trkpt>
      <trkpt lat="47.14859" lon="-1.52751">
        <ele>82</ele>
        <time>2021-09-05T09:11:34.000Z</time>
      </trkpt>
      <trkpt lat="47.1487" lon="-1.52745">
        <ele>82</ele>
        <time>2021-09-05T09:11:36.000Z</time>
      </trkpt>
      <trkpt lat="47.14881" lon="-1.52738">
        <ele>81</ele>
        <time>2021-09-05T09:11:38.000Z</time>
      </trkpt>
      <trkpt lat="47.14892" lon="-1.52731">
        <ele>81</ele>
        <time>2021-09-05T09:11:40.000Z</time>
      </trkpt>
      <trkpt lat="47.14903" lon="-1.52726">
        <ele>81</ele>
        <time>2021-09-05T09:11:42.000Z</time>
      </trkpt>
      <trkpt lat="47.14914" lon="-1.52719">
        <ele>81</ele>
        <time>2021-09-05T09:11:44.000Z</time>
      </trkpt>
      <trkpt lat="47.14925" lon="-1.52712">
        <ele>81</ele>
        <time>2021-09-05T09:11:46.000Z</time>
      </trkpt>
      <trkpt lat="47.14937" lon="-1.52705">
        <ele>81</ele>
        <time>2021-09-05T09:11:48.000Z</time>
      </trkpt>
      <trkpt lat="47.14948" lon="-1.52697">
        <ele>81</ele>
        <time>2021-09-05T09:11:50.000Z</time>
      </trkpt>
      <trkpt lat="47.14959" lon="-1.52691">
        <ele>80</ele>
        <time>2021-09-05T09:11:52.000Z</time>
      </trkpt>
      <trkpt lat="47.14971" lon="-1.52684">
        <ele>80</ele>
        <time>2021-09-05T09:11:54.000Z</time>
      </trkpt>
      <trkpt lat="47.14983" lon="-1.52677">
        <ele>80</ele>
        <time>2021-09-05T09:11:56.000Z</time>
      </trkpt>
      <trkpt lat="47.14994" lon="-1.5267">
        <ele>79</ele>
        <time>2021-09-05T09:11:58.000Z</time>
      </trkpt>
      <trkpt lat="47.15004" lon="-1.52662">
        <ele>79</ele>
        <time>2021-09-05T09:12:00.000Z</time>
      </trkpt>
      <trkpt lat="47.15013" lon="-1.52652">
        <ele>79</ele>
        <time>2021-09-05T09:12:02.000Z</time>
      </trkpt>
      <trkpt lat="47.15021" lon="-1.52646">
        <ele>79</ele>
        <time>2021-09-05T09:12:04.000Z</time>
      </trkpt>
      <trkpt lat="47.15029" lon="-1.52657">
        <ele>79</ele>
        <time>2021-09-05T09:12:06.000Z</time>
      </trkpt>
      <trkpt lat="47.15031" lon="-1.52675">
        <ele>79</ele>
        <time>2021-09-05T09:12:08.000Z</time>
      </trkpt>
      <trkpt lat="47.15036" lon="-1.52691">
        <ele>78</ele>
        <time>2021-09-05T09:12:10.000Z</time>
      </trkpt>
      <trkpt lat="47.15041" lon="-1.52708">
        <ele>79</ele>
        <time>2021-09-05T09:12:12.000Z</time>
      </trkpt>
      <trkpt lat="47.15045" lon="-1.52725">
        <ele>79</ele>
        <time>2021-09-05T09:12:14.000Z</time>
      </trkpt>
      <trkpt lat="47.15048" lon="-1.52742">
        <ele>79</ele>
        <time>2021-09-05T09:12:16.000Z</time>
      </trkpt>
      <trkpt lat="47.15051" lon="-1.5276">
        <ele>79</ele>
        <time>2021-09-05T09:12:18.000Z</time>
      </trkpt>
      <trkpt lat="47.15054" lon="-1.52779">
        <ele>79</ele>
        <time>2021-09-05T09:12:20.000Z</time>
      </trkpt>
      <trkpt lat="47.15055" lon="-1.52797">
        <ele>79</ele>
        <time>2021-09-05T09:12:22.000Z</time>
      </trkpt>
      <trkpt lat="47.15057" lon="-1.52816">
        <ele>79</ele>
        <time>2021-09-05T09:12:24.000Z</time>
      </trkpt>
      <trkpt lat="47.1506" lon="-1.52834">
        <ele>79</ele>
        <time>2021-09-05T09:12:26.000Z</time>
      </trkpt>
      <trkpt lat="47.15062" lon="-1.52852">
        <ele>79</ele>
        <time>2021-09-05T09:12:28.000Z</time>
      </trkpt>
      <trkpt lat="47.15064" lon="-1.5287">
        <ele>79</ele>
        <time>2021-09-05T09:12:30.000Z</time>
      </trkpt>
      <trkpt lat="47.15068" lon="-1.52887">
        <ele>79</ele>
        <time>2021-09-05T09:12:32.000Z</time>
      </trkpt>
      <trkpt lat="47.15072" lon="-1.52904">
        <ele>79</ele>
        <time>2021-09-05T09:12:34.000Z</time>
      </trkpt>
      <trkpt lat="47.15075" lon="-1.52922">
        <ele>79</ele>
        <time>2021-09-05T09:12:36.000Z</time>
      </trkpt>
      <trkpt lat="47.15079" lon="-1.52939">
        <ele>79</ele>
        <time>2021-09-05T09:12:38.000Z</time>
      </trkpt>
      <trkpt lat="47.15082" lon="-1.52957">
        <ele>79</ele>
        <time>2021-09-05T09:12:40.000Z</time>
      </trkpt>
      <trkpt lat="47.15086" lon="-1.52975">
        <ele>79</ele>
        <time>2021-09-05T09:12:42.000Z</time>
      </trkpt>
      <trkpt lat="47.1509" lon="-1.52992">
        <ele>79</ele>
        <time>2021-09-05T09:12:44.000Z</time>
      </trkpt>
      <trkpt lat="47.15094" lon="-1.5301">
        <ele>79</ele>
        <time>2021-09-05T09:12:46.000Z</time>
      </trkpt>
      <trkpt lat="47.15097" lon="-1.53027">
        <ele>79</ele>
        <time>2021-09-05T09:12:48.000Z</time>
      </trkpt>
      <trkpt lat="47.151" lon="-1.53044">
        <ele>79</ele>
        <time>2021-09-05T09:12:50.000Z</time>
      </trkpt>
      <trkpt lat="47.15104" lon="-1.53061">
        <ele>79</ele>
        <time>2021-09-05T09:12:52.000Z</time>
      </trkpt>
      <trkpt lat="47.15108" lon="-1.53078">
        <ele>78</ele>
        <time>2021-09-05T09:12:54.000Z</time>
      </trkpt>
      <trkpt lat="47.15111" lon="-1.53095">
        <ele>78</ele>
        <time>2021-09-05T09:12:56.000Z</time>
      </trkpt>
      <trkpt lat="47.15114" lon="-1.53112">
        <ele>78</ele>
        <time>2021-09-05T09:12:58.000Z</time>
      </trkpt>
      <trkpt lat="47.15124" lon="-1.5312">
        <ele>78</ele>
        <time>2021-09-05T09:13:00.000Z</time>
      </trkpt>
      <trkpt lat="47.15137" lon="-1.53124">
        <ele>78</ele>
        <time>2021-09-05T09:13:02.000Z</time>
      </trkpt>
      <trkpt lat="47.15149" lon="-1.53127">
        <ele>78</ele>
        <time>2021-09-05T09:13:04.000Z</time>
      </trkpt>
      <trkpt lat="47.15162" lon="-1.53131">
        <ele>78</ele>
        <time>2021-09-05T09:13:06.000Z</time>
      </trkpt>
      <trkpt lat="47.15175" lon="-1.53134">
        <ele>77</ele>
        <time>2021-09-05T09:13:08.000Z</time>
      </trkpt>
      <trkpt lat="47.15188" lon="-1.53137">
        <ele>77</ele>
        <time>2021-09-05T09:13:10.000Z</time>
      </trkpt>
      <trkpt lat="47.15202" lon="-1.53139">
        <ele>77</ele>
        <time>2021-09-05T09:13:12.000Z</time>
      </trkpt>
      <trkpt lat="47.15215" lon="-1.53141">
        <ele>77</ele>
        <time>2021-09-05T09:13:14.000Z</time>
      </trkpt>
      <trkpt lat="47.15228" lon="-1.53141">
        <ele>77</ele>
        <time>2021-09-05T09:13:16.000Z</time>
      </trkpt>
      <trkpt lat="47.1524" lon="-1.5314">
        <ele>78</ele>
        <time>2021-09-05T09:13:18.000Z</time>
      </trkpt>
      <trkpt lat="47.15253" lon="-1.53139">
        <ele>78</ele>
        <time>2021-09-05T09:13:20.000Z</time>
      </trkpt>
      <trkpt lat="47.15266" lon="-1.53139">
        <ele>78</ele>
        <time>2021-09-05T09:13:22.000Z</time>
      </trkpt>
      <trkpt lat="47.15278" lon="-1.53139">
        <ele>78</ele>
        <time>2021-09-05T09:13:24.000Z</time>
      </trkpt>
      <trkpt lat="47.15291" lon="-1.53136">
        <ele>78</ele>
        <time>2021-09-05T09:13:26.000Z</time>
      </trkpt>
      <trkpt lat="47.15303" lon="-1.53133">
        <ele>77</ele>
        <time>2021-09-05T09:13:28.000Z</time>
      </trkpt>
      <trkpt lat="47.15315" lon="-1.53128">
        <ele>77</ele>
        <time>2021-09-05T09:13:30.000Z</time>
      </trkpt>
      <trkpt lat="47.15327" lon="-1.53123">
        <ele>77</ele>
        <time>2021-09-05T09:13:32.000Z</time>
      </trkpt>
      <trkpt lat="47.15339" lon="-1.53117">
        <ele>76</ele>
        <time>2021-09-05T09:13:34.000Z</time>
      </trkpt>
      <trkpt lat="47.15351" lon="-1.53113">
        <ele>76</ele>
        <time>2021-09-05T09:13:36.000Z</time>
      </trkpt>
      <trkpt lat="47.15363" lon="-1.53108">
        <ele>75</ele>
        <time>2021-09-05T09:13:38.000Z</time>
      </trkpt>
      <trkpt lat="47.15374" lon="-1.53099">
        <ele>75</ele>
        <time>2021-09-05T09:13:40.000Z</time>
      </trkpt>
      <trkpt lat="47.15384" lon="-1.53087">
        <ele>75</ele>
        <time>2021-09-05T09:13:42.000Z</time>
      </trkpt>
      <trkpt lat="47.15393" lon="-1.53073">
        <ele>75</ele>
        <time>2021-09-05T09:13:44.000Z</time>
      </trkpt>
      <trkpt lat="47.15403" lon="-1.53061">
        <ele>75</ele>
        <time>2021-09-05T09:13:46.000Z</time>
      </trkpt>
      <trkpt lat="47.15412" lon="-1.53049">
        <ele>74</ele>
        <time>2021-09-05T09:13:48.000Z</time>
      </trkpt>
      <trkpt lat="47.1542" lon="-1.53036">
        <ele>74</ele>
        <time>2021-09-05T09:13:50.000Z</time>
      </trkpt>
      <trkpt lat="47.15428" lon="-1.53024">
        <ele>73</ele>
        <time>2021-09-05T09:13:52.000Z</time>
      </trkpt>
      <trkpt lat="47.15435" lon="-1.53014">
        <ele>73</ele>
        <time>2021-09-05T09:13:54.000Z</time>
      </trkpt>
      <trkpt lat="47.15447" lon="-1.53014">
        <ele>74</ele>
        <time>2021-09-05T09:13:57.000Z</time>
      </trkpt>
      <trkpt lat="47.15454" lon="-1.53031">
        <ele>73</ele>
        <time>2021-09-05T09:13:59.000Z</time>
      </trkpt>
      <trkpt lat="47.1546" lon="-1.53047">
        <ele>73</ele>
        <time>2021-09-05T09:14:01.000Z</time>
      </trkpt>
      <trkpt lat="47.15469" lon="-1.53059">
        <ele>73</ele>
        <time>2021-09-05T09:14:03.000Z</time>
      </trkpt>
      <trkpt lat="47.15477" lon="-1.53074">
        <ele>73</ele>
        <time>2021-09-05T09:14:05.000Z</time>
      </trkpt>
      <trkpt lat="47.15485" lon="-1.53088">
        <ele>73</ele>
        <time>2021-09-05T09:14:07.000Z</time>
      </trkpt>
      <trkpt lat="47.15496" lon="-1.53098">
        <ele>73</ele>
        <time>2021-09-05T09:14:09.000Z</time>
      </trkpt>
      <trkpt lat="47.15509" lon="-1.53097">
        <ele>73</ele>
        <time>2021-09-05T09:14:11.000Z</time>
      </trkpt>
      <trkpt lat="47.15521" lon="-1.531">
        <ele>73</ele>
        <time>2021-09-05T09:14:13.000Z</time>
      </trkpt>
      <trkpt lat="47.15534" lon="-1.53105">
        <ele>72</ele>
        <time>2021-09-05T09:14:15.000Z</time>
      </trkpt>
      <trkpt lat="47.15546" lon="-1.53106">
        <ele>72</ele>
        <time>2021-09-05T09:14:17.000Z</time>
      </trkpt>
      <trkpt lat="47.1556" lon="-1.53108">
        <ele>72</ele>
        <time>2021-09-05T09:14:19.000Z</time>
      </trkpt>
      <trkpt lat="47.15573" lon="-1.53109">
        <ele>72</ele>
        <time>2021-09-05T09:14:21.000Z</time>
      </trkpt>
      <trkpt lat="47.15587" lon="-1.5311">
        <ele>71</ele>
        <time>2021-09-05T09:14:23.000Z</time>
      </trkpt>
      <trkpt lat="47.156" lon="-1.53111">
        <ele>71</ele>
        <time>2021-09-05T09:14:25.000Z</time>
      </trkpt>
      <trkpt lat="47.15613" lon="-1.53111">
        <ele>71</ele>
        <time>2021-09-05T09:14:27.000Z</time>
      </trkpt>
      <trkpt lat="47.15625" lon="-1.53103">
        <ele>71</ele>
        <time>2021-09-05T09:14:29.000Z</time>
      </trkpt>
      <trkpt lat="47.15635" lon="-1.5309">
        <ele>71</ele>
        <time>2021-09-05T09:14:31.000Z</time>
      </trkpt>
      <trkpt lat="47.15643" lon="-1.53075">
        <ele>71</ele>
        <time>2021-09-05T09:14:33.000Z</time>
      </trkpt>
      <trkpt lat="47.1565" lon="-1.53059">
        <ele>71</ele>
        <time>2021-09-05T09:14:35.000Z</time>
      </trkpt>
      <trkpt lat="47.15658" lon="-1.53044">
        <ele>70</ele>
        <time>2021-09-05T09:14:37.000Z</time>
      </trkpt>
      <trkpt lat="47.15665" lon="-1.53031">
        <ele>70</ele>
        <time>2021-09-05T09:14:39.000Z</time>
      </trkpt>
      <trkpt lat="47.15673" lon="-1.53019">
        <ele>71</ele>
        <time>2021-09-05T09:14:41.000Z</time>
      </trkpt>
      <trkpt lat="47.15682" lon="-1.53012">
        <ele>70</ele>
        <time>2021-09-05T09:14:44.000Z</time>
      </trkpt>
      <trkpt lat="47.15692" lon="-1.53021">
        <ele>70</ele>
        <time>2021-09-05T09:14:46.000Z</time>
      </trkpt>
      <trkpt lat="47.15701" lon="-1.53034">
        <ele>70</ele>
        <time>2021-09-05T09:14:48.000Z</time>
      </trkpt>
      <trkpt lat="47.15709" lon="-1.53047">
        <ele>70</ele>
        <time>2021-09-05T09:14:50.000Z</time>
      </trkpt>
      <trkpt lat="47.15718" lon="-1.53061">
        <ele>71</ele>
        <time>2021-09-05T09:14:52.000Z</time>
      </trkpt>
      <trkpt lat="47.15728" lon="-1.53073">
        <ele>71</ele>
        <time>2021-09-05T09:14:54.000Z</time>
      </trkpt>
      <trkpt lat="47.15736" lon="-1.53086">
        <ele>71</ele>
        <time>2021-09-05T09:14:56.000Z</time>
      </trkpt>
      <trkpt lat="47.15745" lon="-1.531">
        <ele>71</ele>
        <time>2021-09-05T09:14:58.000Z</time>
      </trkpt>
      <trkpt lat="47.15752" lon="-1.53115">
        <ele>71</ele>
        <time>2021-09-05T09:15:00.000Z</time>
      </trkpt>
      <trkpt lat="47.15759" lon="-1.53129">
        <ele>71</ele>
        <time>2021-09-05T09:15:02.000Z</time>
      </trkpt>
      <trkpt lat="47.15765" lon="-1.53143">
        <ele>71</ele>
        <time>2021-09-05T09:15:04.000Z</time>
      </trkpt>
      <trkpt lat="47.15771" lon="-1.53158">
        <ele>71</ele>
        <time>2021-09-05T09:15:06.000Z</time>
      </trkpt>
      <trkpt lat="47.15777" lon="-1.53173">
        <ele>71</ele>
        <time>2021-09-05T09:15:08.000Z</time>
      </trkpt>
      <trkpt lat="47.15781" lon="-1.53188">
        <ele>71</ele>
        <time>2021-09-05T09:15:10.000Z</time>
      </trkpt>
      <trkpt lat="47.15785" lon="-1.53203">
        <ele>72</ele>
        <time>2021-09-05T09:15:12.000Z</time>
      </trkpt>
      <trkpt lat="47.15789" lon="-1.53218">
        <ele>72</ele>
        <time>2021-09-05T09:15:14.000Z</time>
      </trkpt>
      <trkpt lat="47.15794" lon="-1.53231">
        <ele>73</ele>
        <time>2021-09-05T09:15:16.000Z</time>
      </trkpt>
      <trkpt lat="47.15804" lon="-1.53238">
        <ele>73</ele>
        <time>2021-09-05T09:15:18.000Z</time>
      </trkpt>
      <trkpt lat="47.15813" lon="-1.53244">
        <ele>73</ele>
        <time>2021-09-05T09:15:20.000Z</time>
      </trkpt>
      <trkpt lat="47.15822" lon="-1.53252">
        <ele>74</ele>
        <time>2021-09-05T09:15:22.000Z</time>
      </trkpt>
      <trkpt lat="47.1583" lon="-1.53262">
        <ele>74</ele>
        <time>2021-09-05T09:15:24.000Z</time>
      </trkpt>
      <trkpt lat="47.15837" lon="-1.53274">
        <ele>75</ele>
        <time>2021-09-05T09:15:26.000Z</time>
      </trkpt>
      <trkpt lat="47.15844" lon="-1.53286">
        <ele>75</ele>
        <time>2021-09-05T09:15:28.000Z</time>
      </trkpt>
      <trkpt lat="47.1585" lon="-1.53298">
        <ele>75</ele>
        <time>2021-09-05T09:15:30.000Z</time>
      </trkpt>
      <trkpt lat="47.15857" lon="-1.53311">
        <ele>76</ele>
        <time>2021-09-05T09:15:32.000Z</time>
      </trkpt>
      <trkpt lat="47.15864" lon="-1.53323">
        <ele>76</ele>
        <time>2021-09-05T09:15:34.000Z</time>
      </trkpt>
      <trkpt lat="47.15871" lon="-1.53334">
        <ele>77</ele>
        <time>2021-09-05T09:15:36.000Z</time>
      </trkpt>
      <trkpt lat="47.15878" lon="-1.53346">
        <ele>77</ele>
        <time>2021-09-05T09:15:38.000Z</time>
      </trkpt>
      <trkpt lat="47.15884" lon="-1.53358">
        <ele>77</ele>
        <time>2021-09-05T09:15:40.000Z</time>
      </trkpt>
      <trkpt lat="47.15891" lon="-1.5337">
        <ele>77</ele>
        <time>2021-09-05T09:15:42.000Z</time>
      </trkpt>
      <trkpt lat="47.15897" lon="-1.53382">
        <ele>78</ele>
        <time>2021-09-05T09:15:44.000Z</time>
      </trkpt>
      <trkpt lat="47.15903" lon="-1.53393">
        <ele>78</ele>
        <time>2021-09-05T09:15:46.000Z</time>
      </trkpt>
      <trkpt lat="47.1591" lon="-1.53404">
        <ele>78</ele>
        <time>2021-09-05T09:15:48.000Z</time>
      </trkpt>
      <trkpt lat="47.15916" lon="-1.53416">
        <ele>79</ele>
        <time>2021-09-05T09:15:50.000Z</time>
      </trkpt>
      <trkpt lat="47.15922" lon="-1.53427">
        <ele>79</ele>
        <time>2021-09-05T09:15:52.000Z</time>
      </trkpt>
      <trkpt lat="47.15928" lon="-1.53438">
        <ele>80</ele>
        <time>2021-09-05T09:15:54.000Z</time>
      </trkpt>
      <trkpt lat="47.15935" lon="-1.53448">
        <ele>80</ele>
        <time>2021-09-05T09:15:56.000Z</time>
      </trkpt>
      <trkpt lat="47.15942" lon="-1.53459">
        <ele>81</ele>
        <time>2021-09-05T09:15:58.000Z</time>
      </trkpt>
      <trkpt lat="47.15949" lon="-1.53468">
        <ele>81</ele>
        <time>2021-09-05T09:16:00.000Z</time>
      </trkpt>
      <trkpt lat="47.15957" lon="-1.53477">
        <ele>81</ele>
        <time>2021-09-05T09:16:02.000Z</time>
      </trkpt>
      <trkpt lat="47.15964" lon="-1.53486">
        <ele>82</ele>
        <time>2021-09-05T09:16:04.000Z</time>
      </trkpt>
      <trkpt lat="47.15973" lon="-1.53495">
        <ele>82</ele>
        <time>2021-09-05T09:16:06.000Z</time>
      </trkpt>
      <trkpt lat="47.15981" lon="-1.53503">
        <ele>82</ele>
        <time>2021-09-05T09:16:08.000Z</time>
      </trkpt>
      <trkpt lat="47.1599" lon="-1.53511">
        <ele>82</ele>
        <time>2021-09-05T09:16:10.000Z</time>
      </trkpt>
      <trkpt lat="47.15998" lon="-1.53519">
        <ele>82</ele>
        <time>2021-09-05T09:16:12.000Z</time>
      </trkpt>
      <trkpt lat="47.16007" lon="-1.53528">
        <ele>82</ele>
        <time>2021-09-05T09:16:14.000Z</time>
      </trkpt>
      <trkpt lat="47.16016" lon="-1.53537">
        <ele>82</ele>
        <time>2021-09-05T09:16:16.000Z</time>
      </trkpt>
      <trkpt lat="47.16025" lon="-1.53547">
        <ele>82</ele>
        <time>2021-09-05T09:16:18.000Z</time>
      </trkpt>
      <trkpt lat="47.16035" lon="-1.53556">
        <ele>81</ele>
        <time>2021-09-05T09:16:20.000Z</time>
      </trkpt>
      <trkpt lat="47.16044" lon="-1.53565">
        <ele>81</ele>
        <time>2021-09-05T09:16:22.000Z</time>
      </trkpt>
      <trkpt lat="47.16053" lon="-1.53574">
        <ele>81</ele>
        <time>2021-09-05T09:16:24.000Z</time>
      </trkpt>
      <trkpt lat="47.16062" lon="-1.53584">
        <ele>81</ele>
        <time>2021-09-05T09:16:26.000Z</time>
      </trkpt>
      <trkpt lat="47.16065" lon="-1.536">
        <ele>81</ele>
        <time>2021-09-05T09:16:28.000Z</time>
      </trkpt>
      <trkpt lat="47.16068" lon="-1.53617">
        <ele>81</ele>
        <time>2021-09-05T09:16:30.000Z</time>
      </trkpt>
      <trkpt lat="47.16072" lon="-1.53633">
        <ele>81</ele>
        <time>2021-09-05T09:16:32.000Z</time>
      </trkpt>
      <trkpt lat="47.16074" lon="-1.53649">
        <ele>80</ele>
        <time>2021-09-05T09:16:34.000Z</time>
      </trkpt>
      <trkpt lat="47.16076" lon="-1.53665">
        <ele>80</ele>
        <time>2021-09-05T09:16:36.000Z</time>
      </trkpt>
      <trkpt lat="47.16078" lon="-1.53682">
        <ele>81</ele>
        <time>2021-09-05T09:16:38.000Z</time>
      </trkpt>
      <trkpt lat="47.1608" lon="-1.53698">
        <ele>81</ele>
        <time>2021-09-05T09:16:40.000Z</time>
      </trkpt>
      <trkpt lat="47.16083" lon="-1.53714">
        <ele>81</ele>
        <time>2021-09-05T09:16:42.000Z</time>
      </trkpt>
      <trkpt lat="47.16087" lon="-1.5373">
        <ele>81</ele>
        <time>2021-09-05T09:16:44.000Z</time>
      </trkpt>
      <trkpt lat="47.16092" lon="-1.53745">
        <ele>82</ele>
        <time>2021-09-05T09:16:46.000Z</time>
      </trkpt>
      <trkpt lat="47.16098" lon="-1.53759">
        <ele>82</ele>
        <time>2021-09-05T09:16:48.000Z</time>
      </trkpt>
      <trkpt lat="47.16105" lon="-1.53772">
        <ele>82</ele>
        <time>2021-09-05T09:16:50.000Z</time>
      </trkpt>
      <trkpt lat="47.16111" lon="-1.53786">
        <ele>83</ele>
        <time>2021-09-05T09:16:52.000Z</time>
      </trkpt>
      <trkpt lat="47.16116" lon="-1.538">
        <ele>82</ele>
        <time>2021-09-05T09:16:54.000Z</time>
      </trkpt>
      <trkpt lat="47.16119" lon="-1.53816">
        <ele>83</ele>
        <time>2021-09-05T09:16:56.000Z</time>
      </trkpt>
      <trkpt lat="47.16121" lon="-1.53832">
        <ele>83</ele>
        <time>2021-09-05T09:16:58.000Z</time>
      </trkpt>
      <trkpt lat="47.16122" lon="-1.53849">
        <ele>83</ele>
        <time>2021-09-05T09:17:00.000Z</time>
      </trkpt>
      <trkpt lat="47.16126" lon="-1.53866">
        <ele>83</ele>
        <time>2021-09-05T09:17:02.000Z</time>
      </trkpt>
      <trkpt lat="47.16135" lon="-1.53878">
        <ele>83</ele>
        <time>2021-09-05T09:17:04.000Z</time>
      </trkpt>
      <trkpt lat="47.16144" lon="-1.5389">
        <ele>83</ele>
        <time>2021-09-05T09:17:06.000Z</time>
      </trkpt>
      <trkpt lat="47.16152" lon="-1.53903">
        <ele>83</ele>
        <time>2021-09-05T09:17:08.000Z</time>
      </trkpt>
      <trkpt lat="47.16161" lon="-1.53915">
        <ele>84</ele>
        <time>2021-09-05T09:17:10.000Z</time>
      </trkpt>
      <trkpt lat="47.1617" lon="-1.53926">
        <ele>84</ele>
        <time>2021-09-05T09:17:12.000Z</time>
      </trkpt>
      <trkpt lat="47.1618" lon="-1.53936">
        <ele>84</ele>
        <time>2021-09-05T09:17:14.000Z</time>
      </trkpt>
      <trkpt lat="47.16189" lon="-1.53947">
        <ele>84</ele>
        <time>2021-09-05T09:17:16.000Z</time>
      </trkpt>
      <trkpt lat="47.16198" lon="-1.53958">
        <ele>84</ele>
        <time>2021-09-05T09:17:18.000Z</time>
      </trkpt>
      <trkpt lat="47.16206" lon="-1.53969">
        <ele>84</ele>
        <time>2021-09-05T09:17:20.000Z</time>
      </trkpt>
      <trkpt lat="47.16213" lon="-1.53978">
        <ele>84</ele>
        <time>2021-09-05T09:17:22.000Z</time>
      </trkpt>
      <trkpt lat="47.16222" lon="-1.53986">
        <ele>85</ele>
        <time>2021-09-05T09:17:24.000Z</time>
      </trkpt>
      <trkpt lat="47.1623" lon="-1.53995">
        <ele>85</ele>
        <time>2021-09-05T09:17:26.000Z</time>
      </trkpt>
      <trkpt lat="47.1624" lon="-1.54003">
        <ele>85</ele>
        <time>2021-09-05T09:17:28.000Z</time>
      </trkpt>
      <trkpt lat="47.16251" lon="-1.5401">
        <ele>85</ele>
        <time>2021-09-05T09:17:30.000Z</time>
      </trkpt>
      <trkpt lat="47.16261" lon="-1.54018">
        <ele>85</ele>
        <time>2021-09-05T09:17:32.000Z</time>
      </trkpt>
      <trkpt lat="47.1627" lon="-1.54027">
        <ele>86</ele>
        <time>2021-09-05T09:17:34.000Z</time>
      </trkpt>
      <trkpt lat="47.1628" lon="-1.54035">
        <ele>86</ele>
        <time>2021-09-05T09:17:36.000Z</time>
      </trkpt>
      <trkpt lat="47.1629" lon="-1.54043">
        <ele>87</ele>
        <time>2021-09-05T09:17:38.000Z</time>
      </trkpt>
      <trkpt lat="47.163" lon="-1.54052">
        <ele>87</ele>
        <time>2021-09-05T09:17:40.000Z</time>
      </trkpt>
      <trkpt lat="47.16311" lon="-1.54061">
        <ele>87</ele>
        <time>2021-09-05T09:17:42.000Z</time>
      </trkpt>
      <trkpt lat="47.16321" lon="-1.5407">
        <ele>87</ele>
        <time>2021-09-05T09:17:44.000Z</time>
      </trkpt>
      <trkpt lat="47.16331" lon="-1.54079">
        <ele>87</ele>
        <time>2021-09-05T09:17:46.000Z</time>
      </trkpt>
      <trkpt lat="47.16342" lon="-1.54087">
        <ele>88</ele>
        <time>2021-09-05T09:17:48.000Z</time>
      </trkpt>
      <trkpt lat="47.16353" lon="-1.54096">
        <ele>87</ele>
        <time>2021-09-05T09:17:50.000Z</time>
      </trkpt>
      <trkpt lat="47.16363" lon="-1.54106">
        <ele>88</ele>
        <time>2021-09-05T09:17:52.000Z</time>
      </trkpt>
      <trkpt lat="47.16373" lon="-1.54115">
        <ele>88</ele>
        <time>2021-09-05T09:17:54.000Z</time>
      </trkpt>
      <trkpt lat="47.16384" lon="-1.54124">
        <ele>88</ele>
        <time>2021-09-05T09:17:56.000Z</time>
      </trkpt>
      <trkpt lat="47.16393" lon="-1.54135">
        <ele>88</ele>
        <time>2021-09-05T09:17:58.000Z</time>
      </trkpt>
      <trkpt lat="47.16401" lon="-1.54148">
        <ele>88</ele>
        <time>2021-09-05T09:18:00.000Z</time>
      </trkpt>
      <trkpt lat="47.16409" lon="-1.54161">
        <ele>88</ele>
        <time>2021-09-05T09:18:02.000Z</time>
      </trkpt>
      <trkpt lat="47.16417" lon="-1.54174">
        <ele>88</ele>
        <time>2021-09-05T09:18:04.000Z</time>
      </trkpt>
      <trkpt lat="47.16428" lon="-1.54179">
        <ele>88</ele>
        <time>2021-09-05T09:18:06.000Z</time>
      </trkpt>
      <trkpt lat="47.1644" lon="-1.5418">
        <ele>88</ele>
        <time>2021-09-05T09:18:08.000Z</time>
      </trkpt>
      <trkpt lat="47.16452" lon="-1.54183">
        <ele>88</ele>
        <time>2021-09-05T09:18:10.000Z</time>
      </trkpt>
      <trkpt lat="47.16464" lon="-1.54185">
        <ele>89</ele>
        <time>2021-09-05T09:18:12.000Z</time>
      </trkpt>
      <trkpt lat="47.16477" lon="-1.54187">
        <ele>89</ele>
        <time>2021-09-05T09:18:14.000Z</time>
      </trkpt>
      <trkpt lat="47.16488" lon="-1.5419">
        <ele>90</ele>
        <time>2021-09-05T09:18:16.000Z</time>
      </trkpt>
      <trkpt lat="47.16498" lon="-1.54192">
        <ele>90</ele>
        <time>2021-09-05T09:18:18.000Z</time>
      </trkpt>
      <trkpt lat="47.16505" lon="-1.54203">
        <ele>89</ele>
        <time>2021-09-05T09:18:20.000Z</time>
      </trkpt>
      <trkpt lat="47.16503" lon="-1.5422">
        <ele>89</ele>
        <time>2021-09-05T09:18:22.000Z</time>
      </trkpt>
      <trkpt lat="47.16503" lon="-1.54237">
        <ele>88</ele>
        <time>2021-09-05T09:18:25.000Z</time>
      </trkpt>
      <trkpt lat="47.16513" lon="-1.54245">
        <ele>89</ele>
        <time>2021-09-05T09:18:29.000Z</time>
      </trkpt>
      <trkpt lat="47.16525" lon="-1.54247">
        <ele>89</ele>
        <time>2021-09-05T09:18:31.000Z</time>
      </trkpt>
      <trkpt lat="47.16537" lon="-1.54248">
        <ele>89</ele>
        <time>2021-09-05T09:18:33.000Z</time>
      </trkpt>
      <trkpt lat="47.1655" lon="-1.54251">
        <ele>89</ele>
        <time>2021-09-05T09:18:35.000Z</time>
      </trkpt>
      <trkpt lat="47.16563" lon="-1.54254">
        <ele>89</ele>
        <time>2021-09-05T09:18:37.000Z</time>
      </trkpt>
      <trkpt lat="47.16576" lon="-1.54258">
        <ele>89</ele>
        <time>2021-09-05T09:18:39.000Z</time>
      </trkpt>
      <trkpt lat="47.16589" lon="-1.54257">
        <ele>89</ele>
        <time>2021-09-05T09:18:41.000Z</time>
      </trkpt>
      <trkpt lat="47.16601" lon="-1.54253">
        <ele>89</ele>
        <time>2021-09-05T09:18:43.000Z</time>
      </trkpt>
      <trkpt lat="47.16614" lon="-1.54256">
        <ele>89</ele>
        <time>2021-09-05T09:18:45.000Z</time>
      </trkpt>
      <trkpt lat="47.16626" lon="-1.54265">
        <ele>89</ele>
        <time>2021-09-05T09:18:47.000Z</time>
      </trkpt>
      <trkpt lat="47.16638" lon="-1.5427">
        <ele>90</ele>
        <time>2021-09-05T09:18:49.000Z</time>
      </trkpt>
      <trkpt lat="47.16651" lon="-1.54264">
        <ele>89</ele>
        <time>2021-09-05T09:18:51.000Z</time>
      </trkpt>
      <trkpt lat="47.16664" lon="-1.54263">
        <ele>89</ele>
        <time>2021-09-05T09:18:53.000Z</time>
      </trkpt>
      <trkpt lat="47.16677" lon="-1.54264">
        <ele>88</ele>
        <time>2021-09-05T09:18:55.000Z</time>
      </trkpt>
      <trkpt lat="47.16691" lon="-1.54265">
        <ele>88</ele>
        <time>2021-09-05T09:18:57.000Z</time>
      </trkpt>
      <trkpt lat="47.16704" lon="-1.54266">
        <ele>88</ele>
        <time>2021-09-05T09:18:59.000Z</time>
      </trkpt>
      <trkpt lat="47.16717" lon="-1.54267">
        <ele>88</ele>
        <time>2021-09-05T09:19:01.000Z</time>
      </trkpt>
      <trkpt lat="47.16729" lon="-1.54268">
        <ele>88</ele>
        <time>2021-09-05T09:19:03.000Z</time>
      </trkpt>
      <trkpt lat="47.16741" lon="-1.5427">
        <ele>88</ele>
        <time>2021-09-05T09:19:05.000Z</time>
      </trkpt>
      <trkpt lat="47.16753" lon="-1.5427">
        <ele>88</ele>
        <time>2021-09-05T09:19:07.000Z</time>
      </trkpt>
      <trkpt lat="47.16765" lon="-1.54272">
        <ele>88</ele>
        <time>2021-09-05T09:19:09.000Z</time>
      </trkpt>
      <trkpt lat="47.16777" lon="-1.54274">
        <ele>89</ele>
        <time>2021-09-05T09:19:11.000Z</time>
      </trkpt>
      <trkpt lat="47.16789" lon="-1.54275">
        <ele>88</ele>
        <time>2021-09-05T09:19:13.000Z</time>
      </trkpt>
      <trkpt lat="47.168" lon="-1.54278">
        <ele>90</ele>
        <time>2021-09-05T09:19:15.000Z</time>
      </trkpt>
      <trkpt lat="47.16811" lon="-1.5428">
        <ele>90</ele>
        <time>2021-09-05T09:19:17.000Z</time>
      </trkpt>
      <trkpt lat="47.16823" lon="-1.54281">
        <ele>90</ele>
        <time>2021-09-05T09:19:19.000Z</time>
      </trkpt>
      <trkpt lat="47.16832" lon="-1.54277">
        <ele>90</ele>
        <time>2021-09-05T09:19:22.000Z</time>
      </trkpt>
      <trkpt lat="47.16846" lon="-1.54276">
        <ele>90</ele>
        <time>2021-09-05T09:19:27.000Z</time>
      </trkpt>
      <trkpt lat="47.16859" lon="-1.54282">
        <ele>89</ele>
        <time>2021-09-05T09:19:29.000Z</time>
      </trkpt>
      <trkpt lat="47.1687" lon="-1.54287">
        <ele>88</ele>
        <time>2021-09-05T09:19:31.000Z</time>
      </trkpt>
      <trkpt lat="47.16883" lon="-1.54289">
        <ele>89</ele>
        <time>2021-09-05T09:19:33.000Z</time>
      </trkpt>
      <trkpt lat="47.16896" lon="-1.54291">
        <ele>90</ele>
        <time>2021-09-05T09:19:35.000Z</time>
      </trkpt>
      <trkpt lat="47.1691" lon="-1.54293">
        <ele>90</ele>
        <time>2021-09-05T09:19:37.000Z</time>
      </trkpt>
      <trkpt lat="47.16923" lon="-1.54295">
        <ele>90</ele>
        <time>2021-09-05T09:19:39.000Z</time>
      </trkpt>
      <trkpt lat="47.16936" lon="-1.54296">
        <ele>90</ele>
        <time>2021-09-05T09:19:41.000Z</time>
      </trkpt>
      <trkpt lat="47.16949" lon="-1.54297">
        <ele>90</ele>
        <time>2021-09-05T09:19:43.000Z</time>
      </trkpt>
      <trkpt lat="47.16963" lon="-1.54299">
        <ele>88</ele>
        <time>2021-09-05T09:19:45.000Z</time>
      </trkpt>
      <trkpt lat="47.16976" lon="-1.54301">
        <ele>88</ele>
        <time>2021-09-05T09:19:47.000Z</time>
      </trkpt>
      <trkpt lat="47.16988" lon="-1.54303">
        <ele>88</ele>
        <time>2021-09-05T09:19:49.000Z</time>
      </trkpt>
      <trkpt lat="47.17001" lon="-1.54304">
        <ele>87</ele>
        <time>2021-09-05T09:19:51.000Z</time>
      </trkpt>
      <trkpt lat="47.17014" lon="-1.54305">
        <ele>88</ele>
        <time>2021-09-05T09:19:53.000Z</time>
      </trkpt>
      <trkpt lat="47.17027" lon="-1.54307">
        <ele>88</ele>
        <time>2021-09-05T09:19:55.000Z</time>
      </trkpt>
      <trkpt lat="47.1704" lon="-1.54307">
        <ele>88</ele>
        <time>2021-09-05T09:19:57.000Z</time>
      </trkpt>
      <trkpt lat="47.17053" lon="-1.54309">
        <ele>88</ele>
        <time>2021-09-05T09:19:59.000Z</time>
      </trkpt>
      <trkpt lat="47.17065" lon="-1.54311">
        <ele>88</ele>
        <time>2021-09-05T09:20:01.000Z</time>
      </trkpt>
      <trkpt lat="47.17078" lon="-1.54313">
        <ele>88</ele>
        <time>2021-09-05T09:20:03.000Z</time>
      </trkpt>
      <trkpt lat="47.1709" lon="-1.54315">
        <ele>88</ele>
        <time>2021-09-05T09:20:05.000Z</time>
      </trkpt>
      <trkpt lat="47.17103" lon="-1.54316">
        <ele>88</ele>
        <time>2021-09-05T09:20:07.000Z</time>
      </trkpt>
      <trkpt lat="47.17115" lon="-1.54317">
        <ele>88</ele>
        <time>2021-09-05T09:20:09.000Z</time>
      </trkpt>
      <trkpt lat="47.17127" lon="-1.54318">
        <ele>88</ele>
        <time>2021-09-05T09:20:11.000Z</time>
      </trkpt>
      <trkpt lat="47.17139" lon="-1.54318">
        <ele>88</ele>
        <time>2021-09-05T09:20:13.000Z</time>
      </trkpt>
      <trkpt lat="47.17151" lon="-1.54318">
        <ele>89</ele>
        <time>2021-09-05T09:20:15.000Z</time>
      </trkpt>
      <trkpt lat="47.17162" lon="-1.54322">
        <ele>89</ele>
        <time>2021-09-05T09:20:17.000Z</time>
      </trkpt>
      <trkpt lat="47.17176" lon="-1.54326">
        <ele>88</ele>
        <time>2021-09-05T09:20:19.000Z</time>
      </trkpt>
      <trkpt lat="47.17188" lon="-1.54328">
        <ele>88</ele>
        <time>2021-09-05T09:20:21.000Z</time>
      </trkpt>
      <trkpt lat="47.17201" lon="-1.54329">
        <ele>88</ele>
        <time>2021-09-05T09:20:23.000Z</time>
      </trkpt>
      <trkpt lat="47.17215" lon="-1.54331">
        <ele>87</ele>
        <time>2021-09-05T09:20:25.000Z</time>
      </trkpt>
      <trkpt lat="47.17228" lon="-1.54332">
        <ele>86</ele>
        <time>2021-09-05T09:20:27.000Z</time>
      </trkpt>
      <trkpt lat="47.1724" lon="-1.54334">
        <ele>86</ele>
        <time>2021-09-05T09:20:29.000Z</time>
      </trkpt>
      <trkpt lat="47.17253" lon="-1.54335">
        <ele>86</ele>
        <time>2021-09-05T09:20:31.000Z</time>
      </trkpt>
      <trkpt lat="47.17266" lon="-1.54336">
        <ele>86</ele>
        <time>2021-09-05T09:20:33.000Z</time>
      </trkpt>
      <trkpt lat="47.17278" lon="-1.54336">
        <ele>86</ele>
        <time>2021-09-05T09:20:35.000Z</time>
      </trkpt>
      <trkpt lat="47.1729" lon="-1.54338">
        <ele>85</ele>
        <time>2021-09-05T09:20:37.000Z</time>
      </trkpt>
      <trkpt lat="47.17303" lon="-1.54339">
        <ele>85</ele>
        <time>2021-09-05T09:20:39.000Z</time>
      </trkpt>
      <trkpt lat="47.17315" lon="-1.54341">
        <ele>86</ele>
        <time>2021-09-05T09:20:41.000Z</time>
      </trkpt>
      <trkpt lat="47.17328" lon="-1.54343">
        <ele>86</ele>
        <time>2021-09-05T09:20:43.000Z</time>
      </trkpt>
      <trkpt lat="47.17341" lon="-1.54344">
        <ele>86</ele>
        <time>2021-09-05T09:20:45.000Z</time>
      </trkpt>
      <trkpt lat="47.17353" lon="-1.54346">
        <ele>86</ele>
        <time>2021-09-05T09:20:47.000Z</time>
      </trkpt>
      <trkpt lat="47.17366" lon="-1.54348">
        <ele>86</ele>
        <time>2021-09-05T09:20:49.000Z</time>
      </trkpt>
      <trkpt lat="47.17379" lon="-1.5435">
        <ele>86</ele>
        <time>2021-09-05T09:20:51.000Z</time>
      </trkpt>
      <trkpt lat="47.17392" lon="-1.54352">
        <ele>85</ele>
        <time>2021-09-05T09:20:53.000Z</time>
      </trkpt>
      <trkpt lat="47.17405" lon="-1.54354">
        <ele>85</ele>
        <time>2021-09-05T09:20:55.000Z</time>
      </trkpt>
      <trkpt lat="47.17418" lon="-1.54355">
        <ele>85</ele>
        <time>2021-09-05T09:20:57.000Z</time>
      </trkpt>
      <trkpt lat="47.17431" lon="-1.54356">
        <ele>85</ele>
        <time>2021-09-05T09:20:59.000Z</time>
      </trkpt>
      <trkpt lat="47.17443" lon="-1.54358">
        <ele>85</ele>
        <time>2021-09-05T09:21:01.000Z</time>
      </trkpt>
      <trkpt lat="47.17455" lon="-1.54359">
        <ele>84</ele>
        <time>2021-09-05T09:21:03.000Z</time>
      </trkpt>
      <trkpt lat="47.17465" lon="-1.5436">
        <ele>84</ele>
        <time>2021-09-05T09:21:05.000Z</time>
      </trkpt>
      <trkpt lat="47.17475" lon="-1.54362">
        <ele>85</ele>
        <time>2021-09-05T09:21:07.000Z</time>
      </trkpt>
      <trkpt lat="47.17487" lon="-1.54363">
        <ele>85</ele>
        <time>2021-09-05T09:21:09.000Z</time>
      </trkpt>
      <trkpt lat="47.175" lon="-1.54364">
        <ele>85</ele>
        <time>2021-09-05T09:21:11.000Z</time>
      </trkpt>
      <trkpt lat="47.17513" lon="-1.54365">
        <ele>85</ele>
        <time>2021-09-05T09:21:13.000Z</time>
      </trkpt>
      <trkpt lat="47.17525" lon="-1.54367">
        <ele>85</ele>
        <time>2021-09-05T09:21:15.000Z</time>
      </trkpt>
      <trkpt lat="47.17538" lon="-1.54369">
        <ele>85</ele>
        <time>2021-09-05T09:21:17.000Z</time>
      </trkpt>
      <trkpt lat="47.1755" lon="-1.5437">
        <ele>85</ele>
        <time>2021-09-05T09:21:19.000Z</time>
      </trkpt>
      <trkpt lat="47.17562" lon="-1.54371">
        <ele>86</ele>
        <time>2021-09-05T09:21:21.000Z</time>
      </trkpt>
      <trkpt lat="47.17573" lon="-1.54372">
        <ele>86</ele>
        <time>2021-09-05T09:21:23.000Z</time>
      </trkpt>
      <trkpt lat="47.17586" lon="-1.54372">
        <ele>86</ele>
        <time>2021-09-05T09:21:25.000Z</time>
      </trkpt>
      <trkpt lat="47.17597" lon="-1.5437">
        <ele>85</ele>
        <time>2021-09-05T09:21:27.000Z</time>
      </trkpt>
      <trkpt lat="47.17609" lon="-1.54371">
        <ele>85</ele>
        <time>2021-09-05T09:21:29.000Z</time>
      </trkpt>
      <trkpt lat="47.17622" lon="-1.54376">
        <ele>84</ele>
        <time>2021-09-05T09:21:31.000Z</time>
      </trkpt>
      <trkpt lat="47.17634" lon="-1.5438">
        <ele>83</ele>
        <time>2021-09-05T09:21:33.000Z</time>
      </trkpt>
      <trkpt lat="47.17646" lon="-1.54381">
        <ele>83</ele>
        <time>2021-09-05T09:21:35.000Z</time>
      </trkpt>
      <trkpt lat="47.17658" lon="-1.54382">
        <ele>82</ele>
        <time>2021-09-05T09:21:37.000Z</time>
      </trkpt>
      <trkpt lat="47.17668" lon="-1.54383">
        <ele>82</ele>
        <time>2021-09-05T09:21:39.000Z</time>
      </trkpt>
      <trkpt lat="47.17679" lon="-1.54385">
        <ele>82</ele>
        <time>2021-09-05T09:21:41.000Z</time>
      </trkpt>
      <trkpt lat="47.17691" lon="-1.54387">
        <ele>82</ele>
        <time>2021-09-05T09:21:43.000Z</time>
      </trkpt>
      <trkpt lat="47.17703" lon="-1.54391">
        <ele>81</ele>
        <time>2021-09-05T09:21:45.000Z</time>
      </trkpt>
      <trkpt lat="47.17715" lon="-1.54394">
        <ele>81</ele>
        <time>2021-09-05T09:21:47.000Z</time>
      </trkpt>
      <trkpt lat="47.17728" lon="-1.54398">
        <ele>81</ele>
        <time>2021-09-05T09:21:49.000Z</time>
      </trkpt>
      <trkpt lat="47.17741" lon="-1.54401">
        <ele>81</ele>
        <time>2021-09-05T09:21:51.000Z</time>
      </trkpt>
      <trkpt lat="47.17753" lon="-1.54405">
        <ele>81</ele>
        <time>2021-09-05T09:21:53.000Z</time>
      </trkpt>
      <trkpt lat="47.17766" lon="-1.54408">
        <ele>82</ele>
        <time>2021-09-05T09:21:55.000Z</time>
      </trkpt>
      <trkpt lat="47.17779" lon="-1.54412">
        <ele>82</ele>
        <time>2021-09-05T09:21:57.000Z</time>
      </trkpt>
      <trkpt lat="47.17798" lon="-1.54418">
        <ele>82</ele>
        <time>2021-09-05T09:22:00.000Z</time>
      </trkpt>
      <trkpt lat="47.17811" lon="-1.54422">
        <ele>82</ele>
        <time>2021-09-05T09:22:02.000Z</time>
      </trkpt>
      <trkpt lat="47.17824" lon="-1.54426">
        <ele>82</ele>
        <time>2021-09-05T09:22:04.000Z</time>
      </trkpt>
      <trkpt lat="47.17837" lon="-1.54429">
        <ele>82</ele>
        <time>2021-09-05T09:22:06.000Z</time>
      </trkpt>
      <trkpt lat="47.17856" lon="-1.54434">
        <ele>81</ele>
        <time>2021-09-05T09:22:09.000Z</time>
      </trkpt>
      <trkpt lat="47.17868" lon="-1.54437">
        <ele>81</ele>
        <time>2021-09-05T09:22:11.000Z</time>
      </trkpt>
      <trkpt lat="47.1788" lon="-1.5444">
        <ele>81</ele>
        <time>2021-09-05T09:22:13.000Z</time>
      </trkpt>
      <trkpt lat="47.17899" lon="-1.54446">
        <ele>81</ele>
        <time>2021-09-05T09:22:16.000Z</time>
      </trkpt>
      <trkpt lat="47.17911" lon="-1.54449">
        <ele>81</ele>
        <time>2021-09-05T09:22:18.000Z</time>
      </trkpt>
      <trkpt lat="47.17923" lon="-1.54453">
        <ele>81</ele>
        <time>2021-09-05T09:22:20.000Z</time>
      </trkpt>
      <trkpt lat="47.17935" lon="-1.54457">
        <ele>81</ele>
        <time>2021-09-05T09:22:22.000Z</time>
      </trkpt>
      <trkpt lat="47.17948" lon="-1.5446">
        <ele>80</ele>
        <time>2021-09-05T09:22:24.000Z</time>
      </trkpt>
      <trkpt lat="47.1796" lon="-1.54463">
        <ele>80</ele>
        <time>2021-09-05T09:22:26.000Z</time>
      </trkpt>
      <trkpt lat="47.17972" lon="-1.54468">
        <ele>80</ele>
        <time>2021-09-05T09:22:28.000Z</time>
      </trkpt>
      <trkpt lat="47.17984" lon="-1.54472">
        <ele>80</ele>
        <time>2021-09-05T09:22:30.000Z</time>
      </trkpt>
      <trkpt lat="47.17997" lon="-1.54475">
        <ele>81</ele>
        <time>2021-09-05T09:22:32.000Z</time>
      </trkpt>
      <trkpt lat="47.18009" lon="-1.54479">
        <ele>81</ele>
        <time>2021-09-05T09:22:34.000Z</time>
      </trkpt>
      <trkpt lat="47.18022" lon="-1.54483">
        <ele>81</ele>
        <time>2021-09-05T09:22:36.000Z</time>
      </trkpt>
      <trkpt lat="47.18034" lon="-1.54486">
        <ele>81</ele>
        <time>2021-09-05T09:22:38.000Z</time>
      </trkpt>
      <trkpt lat="47.18047" lon="-1.5449">
        <ele>81</ele>
        <time>2021-09-05T09:22:40.000Z</time>
      </trkpt>
      <trkpt lat="47.1806" lon="-1.54494">
        <ele>81</ele>
        <time>2021-09-05T09:22:42.000Z</time>
      </trkpt>
      <trkpt lat="47.18072" lon="-1.54497">
        <ele>81</ele>
        <time>2021-09-05T09:22:44.000Z</time>
      </trkpt>
      <trkpt lat="47.18085" lon="-1.545">
        <ele>81</ele>
        <time>2021-09-05T09:22:46.000Z</time>
      </trkpt>
      <trkpt lat="47.18097" lon="-1.54505">
        <ele>83</ele>
        <time>2021-09-05T09:22:48.000Z</time>
      </trkpt>
      <trkpt lat="47.1811" lon="-1.54509">
        <ele>83</ele>
        <time>2021-09-05T09:22:50.000Z</time>
      </trkpt>
      <trkpt lat="47.18122" lon="-1.54512">
        <ele>82</ele>
        <time>2021-09-05T09:22:52.000Z</time>
      </trkpt>
      <trkpt lat="47.18135" lon="-1.54516">
        <ele>82</ele>
        <time>2021-09-05T09:22:54.000Z</time>
      </trkpt>
      <trkpt lat="47.18148" lon="-1.5452">
        <ele>82</ele>
        <time>2021-09-05T09:22:56.000Z</time>
      </trkpt>
      <trkpt lat="47.1816" lon="-1.54524">
        <ele>82</ele>
        <time>2021-09-05T09:22:58.000Z</time>
      </trkpt>
      <trkpt lat="47.18172" lon="-1.54528">
        <ele>82</ele>
        <time>2021-09-05T09:23:00.000Z</time>
      </trkpt>
      <trkpt lat="47.18184" lon="-1.54531">
        <ele>82</ele>
        <time>2021-09-05T09:23:02.000Z</time>
      </trkpt>
      <trkpt lat="47.18196" lon="-1.54534">
        <ele>82</ele>
        <time>2021-09-05T09:23:04.000Z</time>
      </trkpt>
      <trkpt lat="47.18209" lon="-1.54538">
        <ele>82</ele>
        <time>2021-09-05T09:23:06.000Z</time>
      </trkpt>
      <trkpt lat="47.18222" lon="-1.54541">
        <ele>81</ele>
        <time>2021-09-05T09:23:08.000Z</time>
      </trkpt>
      <trkpt lat="47.18233" lon="-1.54545">
        <ele>81</ele>
        <time>2021-09-05T09:23:10.000Z</time>
      </trkpt>
      <trkpt lat="47.18246" lon="-1.54549">
        <ele>81</ele>
        <time>2021-09-05T09:23:12.000Z</time>
      </trkpt>
      <trkpt lat="47.18258" lon="-1.54553">
        <ele>81</ele>
        <time>2021-09-05T09:23:14.000Z</time>
      </trkpt>
      <trkpt lat="47.18271" lon="-1.54557">
        <ele>80</ele>
        <time>2021-09-05T09:23:16.000Z</time>
      </trkpt>
      <trkpt lat="47.18283" lon="-1.5456">
        <ele>80</ele>
        <time>2021-09-05T09:23:18.000Z</time>
      </trkpt>
      <trkpt lat="47.18296" lon="-1.54563">
        <ele>81</ele>
        <time>2021-09-05T09:23:20.000Z</time>
      </trkpt>
      <trkpt lat="47.18309" lon="-1.54566">
        <ele>81</ele>
        <time>2021-09-05T09:23:22.000Z</time>
      </trkpt>
      <trkpt lat="47.18321" lon="-1.54569">
        <ele>82</ele>
        <time>2021-09-05T09:23:24.000Z</time>
      </trkpt>
      <trkpt lat="47.18332" lon="-1.54574">
        <ele>82</ele>
        <time>2021-09-05T09:23:26.000Z</time>
      </trkpt>
      <trkpt lat="47.18346" lon="-1.54577">
        <ele>81</ele>
        <time>2021-09-05T09:23:28.000Z</time>
      </trkpt>
      <trkpt lat="47.18358" lon="-1.54581">
        <ele>81</ele>
        <time>2021-09-05T09:23:30.000Z</time>
      </trkpt>
      <trkpt lat="47.1837" lon="-1.54584">
        <ele>81</ele>
        <time>2021-09-05T09:23:32.000Z</time>
      </trkpt>
      <trkpt lat="47.18382" lon="-1.54587">
        <ele>80</ele>
        <time>2021-09-05T09:23:34.000Z</time>
      </trkpt>
      <trkpt lat="47.18393" lon="-1.5459">
        <ele>81</ele>
        <time>2021-09-05T09:23:36.000Z</time>
      </trkpt>
      <trkpt lat="47.18405" lon="-1.54594">
        <ele>81</ele>
        <time>2021-09-05T09:23:38.000Z</time>
      </trkpt>
      <trkpt lat="47.18418" lon="-1.54598">
        <ele>80</ele>
        <time>2021-09-05T09:23:40.000Z</time>
      </trkpt>
      <trkpt lat="47.18431" lon="-1.546">
        <ele>79</ele>
        <time>2021-09-05T09:23:42.000Z</time>
      </trkpt>
      <trkpt lat="47.18445" lon="-1.54603">
        <ele>78</ele>
        <time>2021-09-05T09:23:44.000Z</time>
      </trkpt>
      <trkpt lat="47.18458" lon="-1.54607">
        <ele>78</ele>
        <time>2021-09-05T09:23:46.000Z</time>
      </trkpt>
      <trkpt lat="47.18471" lon="-1.54611">
        <ele>78</ele>
        <time>2021-09-05T09:23:48.000Z</time>
      </trkpt>
      <trkpt lat="47.18484" lon="-1.54615">
        <ele>77</ele>
        <time>2021-09-05T09:23:50.000Z</time>
      </trkpt>
      <trkpt lat="47.18498" lon="-1.54618">
        <ele>76</ele>
        <time>2021-09-05T09:23:52.000Z</time>
      </trkpt>
      <trkpt lat="47.18511" lon="-1.54622">
        <ele>76</ele>
        <time>2021-09-05T09:23:54.000Z</time>
      </trkpt>
      <trkpt lat="47.18525" lon="-1.54626">
        <ele>76</ele>
        <time>2021-09-05T09:23:56.000Z</time>
      </trkpt>
      <trkpt lat="47.18539" lon="-1.54629">
        <ele>76</ele>
        <time>2021-09-05T09:23:58.000Z</time>
      </trkpt>
      <trkpt lat="47.18552" lon="-1.54633">
        <ele>76</ele>
        <time>2021-09-05T09:24:00.000Z</time>
      </trkpt>
      <trkpt lat="47.18567" lon="-1.54637">
        <ele>75</ele>
        <time>2021-09-05T09:24:02.000Z</time>
      </trkpt>
      <trkpt lat="47.18581" lon="-1.5464">
        <ele>74</ele>
        <time>2021-09-05T09:24:04.000Z</time>
      </trkpt>
      <trkpt lat="47.18595" lon="-1.54645">
        <ele>74</ele>
        <time>2021-09-05T09:24:06.000Z</time>
      </trkpt>
      <trkpt lat="47.18609" lon="-1.54649">
        <ele>74</ele>
        <time>2021-09-05T09:24:08.000Z</time>
      </trkpt>
      <trkpt lat="47.18623" lon="-1.54652">
        <ele>74</ele>
        <time>2021-09-05T09:24:10.000Z</time>
      </trkpt>
      <trkpt lat="47.18638" lon="-1.54656">
        <ele>73</ele>
        <time>2021-09-05T09:24:12.000Z</time>
      </trkpt>
      <trkpt lat="47.18652" lon="-1.5466">
        <ele>73</ele>
        <time>2021-09-05T09:24:14.000Z</time>
      </trkpt>
      <trkpt lat="47.18666" lon="-1.54663">
        <ele>72</ele>
        <time>2021-09-05T09:24:16.000Z</time>
      </trkpt>
      <trkpt lat="47.1868" lon="-1.54667">
        <ele>72</ele>
        <time>2021-09-05T09:24:18.000Z</time>
      </trkpt>
      <trkpt lat="47.18695" lon="-1.54671">
        <ele>72</ele>
        <time>2021-09-05T09:24:20.000Z</time>
      </trkpt>
      <trkpt lat="47.18709" lon="-1.54675">
        <ele>71</ele>
        <time>2021-09-05T09:24:22.000Z</time>
      </trkpt>
      <trkpt lat="47.18723" lon="-1.54678">
        <ele>71</ele>
        <time>2021-09-05T09:24:24.000Z</time>
      </trkpt>
      <trkpt lat="47.18738" lon="-1.54682">
        <ele>69</ele>
        <time>2021-09-05T09:24:26.000Z</time>
      </trkpt>
      <trkpt lat="47.18753" lon="-1.54686">
        <ele>69</ele>
        <time>2021-09-05T09:24:28.000Z</time>
      </trkpt>
      <trkpt lat="47.18767" lon="-1.5469">
        <ele>69</ele>
        <time>2021-09-05T09:24:30.000Z</time>
      </trkpt>
      <trkpt lat="47.18782" lon="-1.54694">
        <ele>69</ele>
        <time>2021-09-05T09:24:32.000Z</time>
      </trkpt>
      <trkpt lat="47.18796" lon="-1.54699">
        <ele>69</ele>
        <time>2021-09-05T09:24:34.000Z</time>
      </trkpt>
      <trkpt lat="47.1881" lon="-1.54698">
        <ele>68</ele>
        <time>2021-09-05T09:24:36.000Z</time>
      </trkpt>
      <trkpt lat="47.18814" lon="-1.54715">
        <ele>68</ele>
        <time>2021-09-05T09:24:38.000Z</time>
      </trkpt>
      <trkpt lat="47.18809" lon="-1.54734">
        <ele>67</ele>
        <time>2021-09-05T09:24:40.000Z</time>
      </trkpt>
      <trkpt lat="47.18807" lon="-1.54753">
        <ele>67</ele>
        <time>2021-09-05T09:24:42.000Z</time>
      </trkpt>
      <trkpt lat="47.18806" lon="-1.54774">
        <ele>67</ele>
        <time>2021-09-05T09:24:44.000Z</time>
      </trkpt>
      <trkpt lat="47.18807" lon="-1.54794">
        <ele>67</ele>
        <time>2021-09-05T09:24:46.000Z</time>
      </trkpt>
      <trkpt lat="47.18808" lon="-1.54813">
        <ele>67</ele>
        <time>2021-09-05T09:24:48.000Z</time>
      </trkpt>
      <trkpt lat="47.18809" lon="-1.54831">
        <ele>67</ele>
        <time>2021-09-05T09:24:50.000Z</time>
      </trkpt>
      <trkpt lat="47.18811" lon="-1.5485">
        <ele>65</ele>
        <time>2021-09-05T09:24:52.000Z</time>
      </trkpt>
      <trkpt lat="47.18812" lon="-1.54868">
        <ele>65</ele>
        <time>2021-09-05T09:24:54.000Z</time>
      </trkpt>
      <trkpt lat="47.18815" lon="-1.54886">
        <ele>65</ele>
        <time>2021-09-05T09:24:56.000Z</time>
      </trkpt>
      <trkpt lat="47.18818" lon="-1.54903">
        <ele>66</ele>
        <time>2021-09-05T09:24:58.000Z</time>
      </trkpt>
      <trkpt lat="47.1882" lon="-1.54921">
        <ele>66</ele>
        <time>2021-09-05T09:25:00.000Z</time>
      </trkpt>
      <trkpt lat="47.18824" lon="-1.54936">
        <ele>67</ele>
        <time>2021-09-05T09:25:02.000Z</time>
      </trkpt>
      <trkpt lat="47.18828" lon="-1.54952">
        <ele>67</ele>
        <time>2021-09-05T09:25:04.000Z</time>
      </trkpt>
      <trkpt lat="47.18832" lon="-1.54968">
        <ele>67</ele>
        <time>2021-09-05T09:25:06.000Z</time>
      </trkpt>
      <trkpt lat="47.18837" lon="-1.54984">
        <ele>67</ele>
        <time>2021-09-05T09:25:08.000Z</time>
      </trkpt>
      <trkpt lat="47.18841" lon="-1.55001">
        <ele>68</ele>
        <time>2021-09-05T09:25:10.000Z</time>
      </trkpt>
      <trkpt lat="47.18845" lon="-1.55018">
        <ele>68</ele>
        <time>2021-09-05T09:25:12.000Z</time>
      </trkpt>
      <trkpt lat="47.18849" lon="-1.55034">
        <ele>68</ele>
        <time>2021-09-05T09:25:14.000Z</time>
      </trkpt>
      <trkpt lat="47.18854" lon="-1.55051">
        <ele>69</ele>
        <time>2021-09-05T09:25:16.000Z</time>
      </trkpt>
      <trkpt lat="47.18858" lon="-1.55067">
        <ele>69</ele>
        <time>2021-09-05T09:25:18.000Z</time>
      </trkpt>
      <trkpt lat="47.18863" lon="-1.55081">
        <ele>68</ele>
        <time>2021-09-05T09:25:20.000Z</time>
      </trkpt>
      <trkpt lat="47.18866" lon="-1.55096">
        <ele>68</ele>
        <time>2021-09-05T09:25:23.000Z</time>
      </trkpt>
      <trkpt lat="47.18873" lon="-1.55106">
        <ele>67</ele>
        <time>2021-09-05T09:25:30.000Z</time>
      </trkpt>
      <trkpt lat="47.18881" lon="-1.55117">
        <ele>66</ele>
        <time>2021-09-05T09:25:32.000Z</time>
      </trkpt>
      <trkpt lat="47.18887" lon="-1.55133">
        <ele>65</ele>
        <time>2021-09-05T09:25:34.000Z</time>
      </trkpt>
      <trkpt lat="47.18895" lon="-1.55146">
        <ele>65</ele>
        <time>2021-09-05T09:25:36.000Z</time>
      </trkpt>
      <trkpt lat="47.18903" lon="-1.5516">
        <ele>66</ele>
        <time>2021-09-05T09:25:38.000Z</time>
      </trkpt>
      <trkpt lat="47.18911" lon="-1.55174">
        <ele>65</ele>
        <time>2021-09-05T09:25:40.000Z</time>
      </trkpt>
      <trkpt lat="47.18917" lon="-1.55188">
        <ele>64</ele>
        <time>2021-09-05T09:25:43.000Z</time>
      </trkpt>
      <trkpt lat="47.18925" lon="-1.55201">
        <ele>63</ele>
        <time>2021-09-05T09:25:46.000Z</time>
      </trkpt>
      <trkpt lat="47.18932" lon="-1.55212">
        <ele>63</ele>
        <time>2021-09-05T09:25:48.000Z</time>
      </trkpt>
      <trkpt lat="47.18929" lon="-1.55226">
        <ele>62</ele>
        <time>2021-09-05T09:25:50.000Z</time>
      </trkpt>
      <trkpt lat="47.18922" lon="-1.5524">
        <ele>62</ele>
        <time>2021-09-05T09:25:52.000Z</time>
      </trkpt>
      <trkpt lat="47.18921" lon="-1.55261">
        <ele>61</ele>
        <time>2021-09-05T09:25:54.000Z</time>
      </trkpt>
      <trkpt lat="47.1892" lon="-1.55282">
        <ele>61</ele>
        <time>2021-09-05T09:25:56.000Z</time>
      </trkpt>
      <trkpt lat="47.18919" lon="-1.55302">
        <ele>61</ele>
        <time>2021-09-05T09:25:58.000Z</time>
      </trkpt>
      <trkpt lat="47.18919" lon="-1.55322">
        <ele>60</ele>
        <time>2021-09-05T09:26:00.000Z</time>
      </trkpt>
      <trkpt lat="47.18919" lon="-1.5534">
        <ele>59</ele>
        <time>2021-09-05T09:26:02.000Z</time>
      </trkpt>
      <trkpt lat="47.18919" lon="-1.55357">
        <ele>58</ele>
        <time>2021-09-05T09:26:04.000Z</time>
      </trkpt>
      <trkpt lat="47.18919" lon="-1.55374">
        <ele>58</ele>
        <time>2021-09-05T09:26:06.000Z</time>
      </trkpt>
      <trkpt lat="47.18919" lon="-1.55393">
        <ele>58</ele>
        <time>2021-09-05T09:26:08.000Z</time>
      </trkpt>
      <trkpt lat="47.1892" lon="-1.55411">
        <ele>58</ele>
        <time>2021-09-05T09:26:10.000Z</time>
      </trkpt>
      <trkpt lat="47.1892" lon="-1.5543">
        <ele>58</ele>
        <time>2021-09-05T09:26:12.000Z</time>
      </trkpt>
      <trkpt lat="47.1892" lon="-1.55448">
        <ele>58</ele>
        <time>2021-09-05T09:26:14.000Z</time>
      </trkpt>
      <trkpt lat="47.1892" lon="-1.55466">
        <ele>58</ele>
        <time>2021-09-05T09:26:16.000Z</time>
      </trkpt>
      <trkpt lat="47.1892" lon="-1.55484">
        <ele>58</ele>
        <time>2021-09-05T09:26:18.000Z</time>
      </trkpt>
      <trkpt lat="47.18921" lon="-1.55501">
        <ele>58</ele>
        <time>2021-09-05T09:26:20.000Z</time>
      </trkpt>
      <trkpt lat="47.18922" lon="-1.55518">
        <ele>57</ele>
        <time>2021-09-05T09:26:22.000Z</time>
      </trkpt>
      <trkpt lat="47.18923" lon="-1.55536">
        <ele>57</ele>
        <time>2021-09-05T09:26:24.000Z</time>
      </trkpt>
      <trkpt lat="47.18923" lon="-1.55553">
        <ele>57</ele>
        <time>2021-09-05T09:26:26.000Z</time>
      </trkpt>
      <trkpt lat="47.18924" lon="-1.5557">
        <ele>57</ele>
        <time>2021-09-05T09:26:28.000Z</time>
      </trkpt>
      <trkpt lat="47.18924" lon="-1.55586">
        <ele>57</ele>
        <time>2021-09-05T09:26:30.000Z</time>
      </trkpt>
      <trkpt lat="47.18924" lon="-1.55603">
        <ele>57</ele>
        <time>2021-09-05T09:26:32.000Z</time>
      </trkpt>
      <trkpt lat="47.18924" lon="-1.5562">
        <ele>57</ele>
        <time>2021-09-05T09:26:34.000Z</time>
      </trkpt>
      <trkpt lat="47.18923" lon="-1.55636">
        <ele>57</ele>
        <time>2021-09-05T09:26:36.000Z</time>
      </trkpt>
      <trkpt lat="47.18923" lon="-1.55653">
        <ele>58</ele>
        <time>2021-09-05T09:26:38.000Z</time>
      </trkpt>
      <trkpt lat="47.18922" lon="-1.55669">
        <ele>58</ele>
        <time>2021-09-05T09:26:40.000Z</time>
      </trkpt>
      <trkpt lat="47.18922" lon="-1.55686">
        <ele>58</ele>
        <time>2021-09-05T09:26:42.000Z</time>
      </trkpt>
      <trkpt lat="47.18921" lon="-1.55703">
        <ele>58</ele>
        <time>2021-09-05T09:26:44.000Z</time>
      </trkpt>
      <trkpt lat="47.18921" lon="-1.55719">
        <ele>59</ele>
        <time>2021-09-05T09:26:46.000Z</time>
      </trkpt>
      <trkpt lat="47.1892" lon="-1.55736">
        <ele>59</ele>
        <time>2021-09-05T09:26:48.000Z</time>
      </trkpt>
      <trkpt lat="47.18919" lon="-1.55754">
        <ele>60</ele>
        <time>2021-09-05T09:26:50.000Z</time>
      </trkpt>
      <trkpt lat="47.18919" lon="-1.55771">
        <ele>60</ele>
        <time>2021-09-05T09:26:52.000Z</time>
      </trkpt>
      <trkpt lat="47.18918" lon="-1.55788">
        <ele>60</ele>
        <time>2021-09-05T09:26:54.000Z</time>
      </trkpt>
      <trkpt lat="47.18917" lon="-1.55805">
        <ele>60</ele>
        <time>2021-09-05T09:26:56.000Z</time>
      </trkpt>
      <trkpt lat="47.18916" lon="-1.55821">
        <ele>60</ele>
        <time>2021-09-05T09:26:58.000Z</time>
      </trkpt>
      <trkpt lat="47.18915" lon="-1.55838">
        <ele>60</ele>
        <time>2021-09-05T09:27:00.000Z</time>
      </trkpt>
      <trkpt lat="47.18913" lon="-1.55855">
        <ele>60</ele>
        <time>2021-09-05T09:27:02.000Z</time>
      </trkpt>
      <trkpt lat="47.18912" lon="-1.55872">
        <ele>61</ele>
        <time>2021-09-05T09:27:04.000Z</time>
      </trkpt>
      <trkpt lat="47.18911" lon="-1.5589">
        <ele>61</ele>
        <time>2021-09-05T09:27:06.000Z</time>
      </trkpt>
      <trkpt lat="47.18909" lon="-1.55906">
        <ele>61</ele>
        <time>2021-09-05T09:27:08.000Z</time>
      </trkpt>
      <trkpt lat="47.18908" lon="-1.55924">
        <ele>61</ele>
        <time>2021-09-05T09:27:10.000Z</time>
      </trkpt>
      <trkpt lat="47.18907" lon="-1.55941">
        <ele>61</ele>
        <time>2021-09-05T09:27:12.000Z</time>
      </trkpt>
      <trkpt lat="47.18907" lon="-1.55958">
        <ele>62</ele>
        <time>2021-09-05T09:27:14.000Z</time>
      </trkpt>
      <trkpt lat="47.18907" lon="-1.55975">
        <ele>62</ele>
        <time>2021-09-05T09:27:16.000Z</time>
      </trkpt>
      <trkpt lat="47.18906" lon="-1.55993">
        <ele>62</ele>
        <time>2021-09-05T09:27:18.000Z</time>
      </trkpt>
      <trkpt lat="47.18905" lon="-1.5601">
        <ele>62</ele>
        <time>2021-09-05T09:27:20.000Z</time>
      </trkpt>
      <trkpt lat="47.18903" lon="-1.56027">
        <ele>62</ele>
        <time>2021-09-05T09:27:22.000Z</time>
      </trkpt>
      <trkpt lat="47.189" lon="-1.56045">
        <ele>62</ele>
        <time>2021-09-05T09:27:24.000Z</time>
      </trkpt>
      <trkpt lat="47.18898" lon="-1.56061">
        <ele>62</ele>
        <time>2021-09-05T09:27:26.000Z</time>
      </trkpt>
      <trkpt lat="47.18895" lon="-1.56079">
        <ele>63</ele>
        <time>2021-09-05T09:27:28.000Z</time>
      </trkpt>
      <trkpt lat="47.18893" lon="-1.56096">
        <ele>63</ele>
        <time>2021-09-05T09:27:30.000Z</time>
      </trkpt>
      <trkpt lat="47.18889" lon="-1.56112">
        <ele>63</ele>
        <time>2021-09-05T09:27:32.000Z</time>
      </trkpt>
      <trkpt lat="47.18885" lon="-1.56128">
        <ele>64</ele>
        <time>2021-09-05T09:27:34.000Z</time>
      </trkpt>
      <trkpt lat="47.18882" lon="-1.56144">
        <ele>64</ele>
        <time>2021-09-05T09:27:36.000Z</time>
      </trkpt>
      <trkpt lat="47.18881" lon="-1.56161">
        <ele>64</ele>
        <time>2021-09-05T09:27:38.000Z</time>
      </trkpt>
      <trkpt lat="47.1888" lon="-1.56178">
        <ele>64</ele>
        <time>2021-09-05T09:27:40.000Z</time>
      </trkpt>
      <trkpt lat="47.18877" lon="-1.56195">
        <ele>63</ele>
        <time>2021-09-05T09:27:42.000Z</time>
      </trkpt>
      <trkpt lat="47.18871" lon="-1.56212">
        <ele>63</ele>
        <time>2021-09-05T09:27:44.000Z</time>
      </trkpt>
      <trkpt lat="47.18866" lon="-1.56228">
        <ele>64</ele>
        <time>2021-09-05T09:27:46.000Z</time>
      </trkpt>
      <trkpt lat="47.18861" lon="-1.56244">
        <ele>64</ele>
        <time>2021-09-05T09:27:48.000Z</time>
      </trkpt>
      <trkpt lat="47.18856" lon="-1.56259">
        <ele>65</ele>
        <time>2021-09-05T09:27:50.000Z</time>
      </trkpt>
      <trkpt lat="47.1885" lon="-1.56275">
        <ele>65</ele>
        <time>2021-09-05T09:27:52.000Z</time>
      </trkpt>
      <trkpt lat="47.18845" lon="-1.5629">
        <ele>65</ele>
        <time>2021-09-05T09:27:54.000Z</time>
      </trkpt>
      <trkpt lat="47.18839" lon="-1.56305">
        <ele>65</ele>
        <time>2021-09-05T09:27:56.000Z</time>
      </trkpt>
      <trkpt lat="47.18832" lon="-1.56319">
        <ele>65</ele>
        <time>2021-09-05T09:27:58.000Z</time>
      </trkpt>
      <trkpt lat="47.18825" lon="-1.56333">
        <ele>65</ele>
        <time>2021-09-05T09:28:00.000Z</time>
      </trkpt>
      <trkpt lat="47.18817" lon="-1.56346">
        <ele>65</ele>
        <time>2021-09-05T09:28:02.000Z</time>
      </trkpt>
      <trkpt lat="47.18805" lon="-1.56352">
        <ele>65</ele>
        <time>2021-09-05T09:28:04.000Z</time>
      </trkpt>
      <trkpt lat="47.18793" lon="-1.56351">
        <ele>65</ele>
        <time>2021-09-05T09:28:06.000Z</time>
      </trkpt>
      <trkpt lat="47.18782" lon="-1.5635">
        <ele>65</ele>
        <time>2021-09-05T09:28:08.000Z</time>
      </trkpt>
      <trkpt lat="47.18771" lon="-1.56349">
        <ele>66</ele>
        <time>2021-09-05T09:28:10.000Z</time>
      </trkpt>
      <trkpt lat="47.18759" lon="-1.56348">
        <ele>66</ele>
        <time>2021-09-05T09:28:12.000Z</time>
      </trkpt>
      <trkpt lat="47.18748" lon="-1.56348">
        <ele>66</ele>
        <time>2021-09-05T09:28:14.000Z</time>
      </trkpt>
      <trkpt lat="47.18738" lon="-1.56347">
        <ele>66</ele>
        <time>2021-09-05T09:28:16.000Z</time>
      </trkpt>
      <trkpt lat="47.18727" lon="-1.56348">
        <ele>66</ele>
        <time>2021-09-05T09:28:18.000Z</time>
      </trkpt>
      <trkpt lat="47.18716" lon="-1.56349">
        <ele>66</ele>
        <time>2021-09-05T09:28:20.000Z</time>
      </trkpt>
      <trkpt lat="47.18706" lon="-1.5635">
        <ele>67</ele>
        <time>2021-09-05T09:28:22.000Z</time>
      </trkpt>
      <trkpt lat="47.18697" lon="-1.56351">
        <ele>67</ele>
        <time>2021-09-05T09:28:24.000Z</time>
      </trkpt>
      <trkpt lat="47.18686" lon="-1.5635">
        <ele>68</ele>
        <time>2021-09-05T09:28:26.000Z</time>
      </trkpt>
      <trkpt lat="47.18676" lon="-1.56346">
        <ele>68</ele>
        <time>2021-09-05T09:28:28.000Z</time>
      </trkpt>
      <trkpt lat="47.18666" lon="-1.56342">
        <ele>69</ele>
        <time>2021-09-05T09:28:30.000Z</time>
      </trkpt>
      <trkpt lat="47.18655" lon="-1.56338">
        <ele>69</ele>
        <time>2021-09-05T09:28:32.000Z</time>
      </trkpt>
      <trkpt lat="47.18645" lon="-1.56334">
        <ele>69</ele>
        <time>2021-09-05T09:28:34.000Z</time>
      </trkpt>
      <trkpt lat="47.18635" lon="-1.56329">
        <ele>70</ele>
        <time>2021-09-05T09:28:36.000Z</time>
      </trkpt>
      <trkpt lat="47.18625" lon="-1.56324">
        <ele>70</ele>
        <time>2021-09-05T09:28:38.000Z</time>
      </trkpt>
      <trkpt lat="47.18615" lon="-1.56319">
        <ele>71</ele>
        <time>2021-09-05T09:28:40.000Z</time>
      </trkpt>
      <trkpt lat="47.18606" lon="-1.56313">
        <ele>72</ele>
        <time>2021-09-05T09:28:42.000Z</time>
      </trkpt>
      <trkpt lat="47.18599" lon="-1.56303">
        <ele>72</ele>
        <time>2021-09-05T09:28:44.000Z</time>
      </trkpt>
      <trkpt lat="47.18592" lon="-1.56293">
        <ele>72</ele>
        <time>2021-09-05T09:28:46.000Z</time>
      </trkpt>
      <trkpt lat="47.18583" lon="-1.56282">
        <ele>72</ele>
        <time>2021-09-05T09:28:49.000Z</time>
      </trkpt>
      <trkpt lat="47.18574" lon="-1.56291">
        <ele>71</ele>
        <time>2021-09-05T09:28:52.000Z</time>
      </trkpt>
      <trkpt lat="47.18569" lon="-1.56305">
        <ele>71</ele>
        <time>2021-09-05T09:28:54.000Z</time>
      </trkpt>
      <trkpt lat="47.18565" lon="-1.5632">
        <ele>71</ele>
        <time>2021-09-05T09:28:56.000Z</time>
      </trkpt>
      <trkpt lat="47.1856" lon="-1.56336">
        <ele>71</ele>
        <time>2021-09-05T09:28:58.000Z</time>
      </trkpt>
      <trkpt lat="47.18556" lon="-1.5635">
        <ele>70</ele>
        <time>2021-09-05T09:29:00.000Z</time>
      </trkpt>
      <trkpt lat="47.18551" lon="-1.56364">
        <ele>70</ele>
        <time>2021-09-05T09:29:02.000Z</time>
      </trkpt>
      <trkpt lat="47.18546" lon="-1.56377">
        <ele>70</ele>
        <time>2021-09-05T09:29:04.000Z</time>
      </trkpt>
      <trkpt lat="47.18537" lon="-1.56383">
        <ele>70</ele>
        <time>2021-09-05T09:29:06.000Z</time>
      </trkpt>
      <trkpt lat="47.18526" lon="-1.5638">
        <ele>71</ele>
        <time>2021-09-05T09:29:08.000Z</time>
      </trkpt>
      <trkpt lat="47.18515" lon="-1.56374">
        <ele>72</ele>
        <time>2021-09-05T09:29:10.000Z</time>
      </trkpt>
      <trkpt lat="47.18505" lon="-1.5637">
        <ele>72</ele>
        <time>2021-09-05T09:29:12.000Z</time>
      </trkpt>
      <trkpt lat="47.18494" lon="-1.56366">
        <ele>72</ele>
        <time>2021-09-05T09:29:14.000Z</time>
      </trkpt>
      <trkpt lat="47.18484" lon="-1.5636">
        <ele>73</ele>
        <time>2021-09-05T09:29:16.000Z</time>
      </trkpt>
      <trkpt lat="47.18474" lon="-1.56356">
        <ele>73</ele>
        <time>2021-09-05T09:29:18.000Z</time>
      </trkpt>
      <trkpt lat="47.18463" lon="-1.56352">
        <ele>73</ele>
        <time>2021-09-05T09:29:20.000Z</time>
      </trkpt>
      <trkpt lat="47.18453" lon="-1.56348">
        <ele>73</ele>
        <time>2021-09-05T09:29:22.000Z</time>
      </trkpt>
      <trkpt lat="47.18443" lon="-1.56348">
        <ele>73</ele>
        <time>2021-09-05T09:29:24.000Z</time>
      </trkpt>
      <trkpt lat="47.18434" lon="-1.56354">
        <ele>73</ele>
        <time>2021-09-05T09:29:26.000Z</time>
      </trkpt>
      <trkpt lat="47.18431" lon="-1.56369">
        <ele>72</ele>
        <time>2021-09-05T09:29:28.000Z</time>
      </trkpt>
      <trkpt lat="47.1843" lon="-1.56384">
        <ele>72</ele>
        <time>2021-09-05T09:29:30.000Z</time>
      </trkpt>
      <trkpt lat="47.18427" lon="-1.564">
        <ele>71</ele>
        <time>2021-09-05T09:29:32.000Z</time>
      </trkpt>
      <trkpt lat="47.18423" lon="-1.56416">
        <ele>70</ele>
        <time>2021-09-05T09:29:34.000Z</time>
      </trkpt>
      <trkpt lat="47.1842" lon="-1.56433">
        <ele>70</ele>
        <time>2021-09-05T09:29:36.000Z</time>
      </trkpt>
      <trkpt lat="47.18417" lon="-1.56451">
        <ele>70</ele>
        <time>2021-09-05T09:29:38.000Z</time>
      </trkpt>
      <trkpt lat="47.18414" lon="-1.56468">
        <ele>70</ele>
        <time>2021-09-05T09:29:40.000Z</time>
      </trkpt>
      <trkpt lat="47.18411" lon="-1.56485">
        <ele>70</ele>
        <time>2021-09-05T09:29:42.000Z</time>
      </trkpt>
      <trkpt lat="47.18407" lon="-1.56502">
        <ele>70</ele>
        <time>2021-09-05T09:29:44.000Z</time>
      </trkpt>
      <trkpt lat="47.18404" lon="-1.5652">
        <ele>70</ele>
        <time>2021-09-05T09:29:46.000Z</time>
      </trkpt>
      <trkpt lat="47.18401" lon="-1.56538">
        <ele>70</ele>
        <time>2021-09-05T09:29:48.000Z</time>
      </trkpt>
      <trkpt lat="47.18398" lon="-1.56555">
        <ele>69</ele>
        <time>2021-09-05T09:29:50.000Z</time>
      </trkpt>
      <trkpt lat="47.18395" lon="-1.56574">
        <ele>69</ele>
        <time>2021-09-05T09:29:52.000Z</time>
      </trkpt>
      <trkpt lat="47.18393" lon="-1.56593">
        <ele>70</ele>
        <time>2021-09-05T09:29:54.000Z</time>
      </trkpt>
      <trkpt lat="47.1839" lon="-1.56612">
        <ele>70</ele>
        <time>2021-09-05T09:29:56.000Z</time>
      </trkpt>
      <trkpt lat="47.18387" lon="-1.56631">
        <ele>69</ele>
        <time>2021-09-05T09:29:58.000Z</time>
      </trkpt>
      <trkpt lat="47.18383" lon="-1.56649">
        <ele>69</ele>
        <time>2021-09-05T09:30:00.000Z</time>
      </trkpt>
      <trkpt lat="47.1838" lon="-1.56668">
        <ele>69</ele>
        <time>2021-09-05T09:30:02.000Z</time>
      </trkpt>
      <trkpt lat="47.18377" lon="-1.56686">
        <ele>69</ele>
        <time>2021-09-05T09:30:04.000Z</time>
      </trkpt>
      <trkpt lat="47.18375" lon="-1.56704">
        <ele>69</ele>
        <time>2021-09-05T09:30:06.000Z</time>
      </trkpt>
      <trkpt lat="47.18371" lon="-1.56723">
        <ele>69</ele>
        <time>2021-09-05T09:30:08.000Z</time>
      </trkpt>
      <trkpt lat="47.18369" lon="-1.5674">
        <ele>69</ele>
        <time>2021-09-05T09:30:10.000Z</time>
      </trkpt>
      <trkpt lat="47.18366" lon="-1.56758">
        <ele>69</ele>
        <time>2021-09-05T09:30:12.000Z</time>
      </trkpt>
      <trkpt lat="47.18364" lon="-1.56775">
        <ele>69</ele>
        <time>2021-09-05T09:30:14.000Z</time>
      </trkpt>
      <trkpt lat="47.18362" lon="-1.56793">
        <ele>69</ele>
        <time>2021-09-05T09:30:16.000Z</time>
      </trkpt>
      <trkpt lat="47.18358" lon="-1.5681">
        <ele>69</ele>
        <time>2021-09-05T09:30:18.000Z</time>
      </trkpt>
      <trkpt lat="47.18355" lon="-1.56828">
        <ele>69</ele>
        <time>2021-09-05T09:30:20.000Z</time>
      </trkpt>
      <trkpt lat="47.18352" lon="-1.56845">
        <ele>69</ele>
        <time>2021-09-05T09:30:22.000Z</time>
      </trkpt>
      <trkpt lat="47.1835" lon="-1.56863">
        <ele>69</ele>
        <time>2021-09-05T09:30:24.000Z</time>
      </trkpt>
      <trkpt lat="47.18347" lon="-1.56881">
        <ele>69</ele>
        <time>2021-09-05T09:30:26.000Z</time>
      </trkpt>
      <trkpt lat="47.18344" lon="-1.56899">
        <ele>69</ele>
        <time>2021-09-05T09:30:28.000Z</time>
      </trkpt>
      <trkpt lat="47.18342" lon="-1.56917">
        <ele>69</ele>
        <time>2021-09-05T09:30:30.000Z</time>
      </trkpt>
      <trkpt lat="47.18341" lon="-1.56934">
        <ele>69</ele>
        <time>2021-09-05T09:30:32.000Z</time>
      </trkpt>
      <trkpt lat="47.18341" lon="-1.56952">
        <ele>69</ele>
        <time>2021-09-05T09:30:34.000Z</time>
      </trkpt>
      <trkpt lat="47.18343" lon="-1.56969">
        <ele>69</ele>
        <time>2021-09-05T09:30:36.000Z</time>
      </trkpt>
      <trkpt lat="47.18343" lon="-1.56986">
        <ele>69</ele>
        <time>2021-09-05T09:30:38.000Z</time>
      </trkpt>
      <trkpt lat="47.18341" lon="-1.57005">
        <ele>70</ele>
        <time>2021-09-05T09:30:40.000Z</time>
      </trkpt>
      <trkpt lat="47.18338" lon="-1.57023">
        <ele>70</ele>
        <time>2021-09-05T09:30:42.000Z</time>
      </trkpt>
      <trkpt lat="47.18335" lon="-1.57041">
        <ele>70</ele>
        <time>2021-09-05T09:30:44.000Z</time>
      </trkpt>
      <trkpt lat="47.18332" lon="-1.57058">
        <ele>70</ele>
        <time>2021-09-05T09:30:46.000Z</time>
      </trkpt>
      <trkpt lat="47.1833" lon="-1.57075">
        <ele>70</ele>
        <time>2021-09-05T09:30:48.000Z</time>
      </trkpt>
      <trkpt lat="47.18326" lon="-1.57094">
        <ele>70</ele>
        <time>2021-09-05T09:30:50.000Z</time>
      </trkpt>
      <trkpt lat="47.18324" lon="-1.57112">
        <ele>69</ele>
        <time>2021-09-05T09:30:52.000Z</time>
      </trkpt>
      <trkpt lat="47.18321" lon="-1.57129">
        <ele>69</ele>
        <time>2021-09-05T09:30:54.000Z</time>
      </trkpt>
      <trkpt lat="47.18318" lon="-1.57146">
        <ele>69</ele>
        <time>2021-09-05T09:30:56.000Z</time>
      </trkpt>
      <trkpt lat="47.18314" lon="-1.57163">
        <ele>69</ele>
        <time>2021-09-05T09:30:58.000Z</time>
      </trkpt>
      <trkpt lat="47.18311" lon="-1.57178">
        <ele>69</ele>
        <time>2021-09-05T09:31:00.000Z</time>
      </trkpt>
      <trkpt lat="47.18308" lon="-1.57194">
        <ele>69</ele>
        <time>2021-09-05T09:31:02.000Z</time>
      </trkpt>
      <trkpt lat="47.18305" lon="-1.57209">
        <ele>69</ele>
        <time>2021-09-05T09:31:04.000Z</time>
      </trkpt>
      <trkpt lat="47.18296" lon="-1.57217">
        <ele>69</ele>
        <time>2021-09-05T09:31:06.000Z</time>
      </trkpt>
      <trkpt lat="47.18285" lon="-1.57216">
        <ele>69</ele>
        <time>2021-09-05T09:31:08.000Z</time>
      </trkpt>
      <trkpt lat="47.18273" lon="-1.57215">
        <ele>70</ele>
        <time>2021-09-05T09:31:10.000Z</time>
      </trkpt>
      <trkpt lat="47.18262" lon="-1.57214">
        <ele>70</ele>
        <time>2021-09-05T09:31:12.000Z</time>
      </trkpt>
      <trkpt lat="47.1825" lon="-1.57213">
        <ele>70</ele>
        <time>2021-09-05T09:31:14.000Z</time>
      </trkpt>
      <trkpt lat="47.18238" lon="-1.57212">
        <ele>70</ele>
        <time>2021-09-05T09:31:16.000Z</time>
      </trkpt>
      <trkpt lat="47.18226" lon="-1.57211">
        <ele>70</ele>
        <time>2021-09-05T09:31:18.000Z</time>
      </trkpt>
      <trkpt lat="47.18217" lon="-1.5721">
        <ele>70</ele>
        <time>2021-09-05T09:31:20.000Z</time>
      </trkpt>
      <trkpt lat="47.18211" lon="-1.57222">
        <ele>71</ele>
        <time>2021-09-05T09:31:24.000Z</time>
      </trkpt>
      <trkpt lat="47.18211" lon="-1.57236">
        <ele>71</ele>
        <time>2021-09-05T09:31:26.000Z</time>
      </trkpt>
      <trkpt lat="47.1821" lon="-1.57253">
        <ele>71</ele>
        <time>2021-09-05T09:31:28.000Z</time>
      </trkpt>
      <trkpt lat="47.18208" lon="-1.57271">
        <ele>70</ele>
        <time>2021-09-05T09:31:30.000Z</time>
      </trkpt>
      <trkpt lat="47.18206" lon="-1.57288">
        <ele>69</ele>
        <time>2021-09-05T09:31:32.000Z</time>
      </trkpt>
      <trkpt lat="47.18205" lon="-1.57305">
        <ele>68</ele>
        <time>2021-09-05T09:31:34.000Z</time>
      </trkpt>
      <trkpt lat="47.18205" lon="-1.57321">
        <ele>68</ele>
        <time>2021-09-05T09:31:36.000Z</time>
      </trkpt>
      <trkpt lat="47.18205" lon="-1.57338">
        <ele>67</ele>
        <time>2021-09-05T09:31:38.000Z</time>
      </trkpt>
      <trkpt lat="47.18206" lon="-1.57354">
        <ele>67</ele>
        <time>2021-09-05T09:31:40.000Z</time>
      </trkpt>
      <trkpt lat="47.18206" lon="-1.57372">
        <ele>67</ele>
        <time>2021-09-05T09:31:42.000Z</time>
      </trkpt>
      <trkpt lat="47.18206" lon="-1.57391">
        <ele>67</ele>
        <time>2021-09-05T09:31:44.000Z</time>
      </trkpt>
      <trkpt lat="47.18207" lon="-1.5741">
        <ele>66</ele>
        <time>2021-09-05T09:31:46.000Z</time>
      </trkpt>
      <trkpt lat="47.18207" lon="-1.5743">
        <ele>66</ele>
        <time>2021-09-05T09:31:48.000Z</time>
      </trkpt>
      <trkpt lat="47.18208" lon="-1.5745">
        <ele>66</ele>
        <time>2021-09-05T09:31:50.000Z</time>
      </trkpt>
      <trkpt lat="47.18208" lon="-1.57469">
        <ele>66</ele>
        <time>2021-09-05T09:31:52.000Z</time>
      </trkpt>
      <trkpt lat="47.18208" lon="-1.57487">
        <ele>66</ele>
        <time>2021-09-05T09:31:54.000Z</time>
      </trkpt>
      <trkpt lat="47.18207" lon="-1.57504">
        <ele>66</ele>
        <time>2021-09-05T09:31:56.000Z</time>
      </trkpt>
      <trkpt lat="47.18204" lon="-1.57519">
        <ele>66</ele>
        <time>2021-09-05T09:31:58.000Z</time>
      </trkpt>
      <trkpt lat="47.18201" lon="-1.57534">
        <ele>66</ele>
        <time>2021-09-05T09:32:00.000Z</time>
      </trkpt>
      <trkpt lat="47.18199" lon="-1.57549">
        <ele>66</ele>
        <time>2021-09-05T09:32:02.000Z</time>
      </trkpt>
      <trkpt lat="47.18198" lon="-1.57563">
        <ele>66</ele>
        <time>2021-09-05T09:32:04.000Z</time>
      </trkpt>
      <trkpt lat="47.18196" lon="-1.5758">
        <ele>67</ele>
        <time>2021-09-05T09:32:07.000Z</time>
      </trkpt>
      <trkpt lat="47.18199" lon="-1.57593">
        <ele>69</ele>
        <time>2021-09-05T09:32:10.000Z</time>
      </trkpt>
      <trkpt lat="47.18201" lon="-1.57609">
        <ele>69</ele>
        <time>2021-09-05T09:32:13.000Z</time>
      </trkpt>
      <trkpt lat="47.18199" lon="-1.57622">
        <ele>70</ele>
        <time>2021-09-05T09:32:15.000Z</time>
      </trkpt>
      <trkpt lat="47.18198" lon="-1.57638">
        <ele>70</ele>
        <time>2021-09-05T09:32:17.000Z</time>
      </trkpt>
      <trkpt lat="47.18196" lon="-1.57654">
        <ele>70</ele>
        <time>2021-09-05T09:32:19.000Z</time>
      </trkpt>
      <trkpt lat="47.18195" lon="-1.57671">
        <ele>70</ele>
        <time>2021-09-05T09:32:21.000Z</time>
      </trkpt>
      <trkpt lat="47.18194" lon="-1.57686">
        <ele>70</ele>
        <time>2021-09-05T09:32:23.000Z</time>
      </trkpt>
      <trkpt lat="47.18193" lon="-1.57702">
        <ele>70</ele>
        <time>2021-09-05T09:32:25.000Z</time>
      </trkpt>
      <trkpt lat="47.18191" lon="-1.57718">
        <ele>70</ele>
        <time>2021-09-05T09:32:27.000Z</time>
      </trkpt>
      <trkpt lat="47.18188" lon="-1.57733">
        <ele>70</ele>
        <time>2021-09-05T09:32:29.000Z</time>
      </trkpt>
      <trkpt lat="47.18185" lon="-1.57748">
        <ele>71</ele>
        <time>2021-09-05T09:32:31.000Z</time>
      </trkpt>
      <trkpt lat="47.18181" lon="-1.57762">
        <ele>71</ele>
        <time>2021-09-05T09:32:33.000Z</time>
      </trkpt>
      <trkpt lat="47.18177" lon="-1.57777">
        <ele>71</ele>
        <time>2021-09-05T09:32:35.000Z</time>
      </trkpt>
      <trkpt lat="47.18173" lon="-1.57792">
        <ele>71</ele>
        <time>2021-09-05T09:32:37.000Z</time>
      </trkpt>
      <trkpt lat="47.1817" lon="-1.57807">
        <ele>72</ele>
        <time>2021-09-05T09:32:39.000Z</time>
      </trkpt>
      <trkpt lat="47.18167" lon="-1.57822">
        <ele>72</ele>
        <time>2021-09-05T09:32:41.000Z</time>
      </trkpt>
      <trkpt lat="47.18164" lon="-1.57838">
        <ele>72</ele>
        <time>2021-09-05T09:32:43.000Z</time>
      </trkpt>
      <trkpt lat="47.18162" lon="-1.57853">
        <ele>72</ele>
        <time>2021-09-05T09:32:45.000Z</time>
      </trkpt>
      <trkpt lat="47.1816" lon="-1.57867">
        <ele>72</ele>
        <time>2021-09-05T09:32:47.000Z</time>
      </trkpt>
      <trkpt lat="47.18157" lon="-1.57881">
        <ele>72</ele>
        <time>2021-09-05T09:32:49.000Z</time>
      </trkpt>
      <trkpt lat="47.18155" lon="-1.57896">
        <ele>72</ele>
        <time>2021-09-05T09:32:52.000Z</time>
      </trkpt>
      <trkpt lat="47.18155" lon="-1.5791">
        <ele>72</ele>
        <time>2021-09-05T09:32:54.000Z</time>
      </trkpt>
      <trkpt lat="47.18156" lon="-1.57925">
        <ele>72</ele>
        <time>2021-09-05T09:32:56.000Z</time>
      </trkpt>
      <trkpt lat="47.18156" lon="-1.57942">
        <ele>72</ele>
        <time>2021-09-05T09:32:58.000Z</time>
      </trkpt>
      <trkpt lat="47.18149" lon="-1.57955">
        <ele>72</ele>
        <time>2021-09-05T09:33:00.000Z</time>
      </trkpt>
      <trkpt lat="47.1814" lon="-1.57964">
        <ele>72</ele>
        <time>2021-09-05T09:33:02.000Z</time>
      </trkpt>
      <trkpt lat="47.18136" lon="-1.57977">
        <ele>72</ele>
        <time>2021-09-05T09:33:04.000Z</time>
      </trkpt>
      <trkpt lat="47.18133" lon="-1.5799">
        <ele>72</ele>
        <time>2021-09-05T09:33:07.000Z</time>
      </trkpt>
      <trkpt lat="47.1813" lon="-1.58004">
        <ele>71</ele>
        <time>2021-09-05T09:33:09.000Z</time>
      </trkpt>
      <trkpt lat="47.18128" lon="-1.58022">
        <ele>71</ele>
        <time>2021-09-05T09:33:11.000Z</time>
      </trkpt>
      <trkpt lat="47.18125" lon="-1.58041">
        <ele>71</ele>
        <time>2021-09-05T09:33:13.000Z</time>
      </trkpt>
      <trkpt lat="47.18121" lon="-1.5806">
        <ele>70</ele>
        <time>2021-09-05T09:33:15.000Z</time>
      </trkpt>
      <trkpt lat="47.18118" lon="-1.58078">
        <ele>70</ele>
        <time>2021-09-05T09:33:17.000Z</time>
      </trkpt>
      <trkpt lat="47.18114" lon="-1.58097">
        <ele>69</ele>
        <time>2021-09-05T09:33:19.000Z</time>
      </trkpt>
      <trkpt lat="47.18111" lon="-1.58117">
        <ele>69</ele>
        <time>2021-09-05T09:33:21.000Z</time>
      </trkpt>
      <trkpt lat="47.18107" lon="-1.58136">
        <ele>68</ele>
        <time>2021-09-05T09:33:23.000Z</time>
      </trkpt>
      <trkpt lat="47.18104" lon="-1.58155">
        <ele>68</ele>
        <time>2021-09-05T09:33:25.000Z</time>
      </trkpt>
      <trkpt lat="47.181" lon="-1.58174">
        <ele>68</ele>
        <time>2021-09-05T09:33:27.000Z</time>
      </trkpt>
      <trkpt lat="47.18096" lon="-1.58193">
        <ele>68</ele>
        <time>2021-09-05T09:33:29.000Z</time>
      </trkpt>
      <trkpt lat="47.18092" lon="-1.58212">
        <ele>68</ele>
        <time>2021-09-05T09:33:31.000Z</time>
      </trkpt>
      <trkpt lat="47.18089" lon="-1.58232">
        <ele>68</ele>
        <time>2021-09-05T09:33:33.000Z</time>
      </trkpt>
      <trkpt lat="47.18087" lon="-1.58252">
        <ele>68</ele>
        <time>2021-09-05T09:33:35.000Z</time>
      </trkpt>
      <trkpt lat="47.18087" lon="-1.58273">
        <ele>67</ele>
        <time>2021-09-05T09:33:37.000Z</time>
      </trkpt>
      <trkpt lat="47.18086" lon="-1.58295">
        <ele>67</ele>
        <time>2021-09-05T09:33:39.000Z</time>
      </trkpt>
      <trkpt lat="47.18086" lon="-1.58317">
        <ele>67</ele>
        <time>2021-09-05T09:33:41.000Z</time>
      </trkpt>
      <trkpt lat="47.18089" lon="-1.58339">
        <ele>67</ele>
        <time>2021-09-05T09:33:43.000Z</time>
      </trkpt>
      <trkpt lat="47.18093" lon="-1.58359">
        <ele>67</ele>
        <time>2021-09-05T09:33:45.000Z</time>
      </trkpt>
      <trkpt lat="47.18099" lon="-1.58379">
        <ele>66</ele>
        <time>2021-09-05T09:33:47.000Z</time>
      </trkpt>
      <trkpt lat="47.18105" lon="-1.58397">
        <ele>66</ele>
        <time>2021-09-05T09:33:49.000Z</time>
      </trkpt>
      <trkpt lat="47.18112" lon="-1.58413">
        <ele>66</ele>
        <time>2021-09-05T09:33:51.000Z</time>
      </trkpt>
      <trkpt lat="47.18117" lon="-1.58426">
        <ele>66</ele>
        <time>2021-09-05T09:33:53.000Z</time>
      </trkpt>
      <trkpt lat="47.18122" lon="-1.5844">
        <ele>66</ele>
        <time>2021-09-05T09:33:55.000Z</time>
      </trkpt>
      <trkpt lat="47.18119" lon="-1.58453">
        <ele>66</ele>
        <time>2021-09-05T09:33:57.000Z</time>
      </trkpt>
      <trkpt lat="47.18115" lon="-1.58469">
        <ele>66</ele>
        <time>2021-09-05T09:33:59.000Z</time>
      </trkpt>
      <trkpt lat="47.18113" lon="-1.58488">
        <ele>66</ele>
        <time>2021-09-05T09:34:01.000Z</time>
      </trkpt>
      <trkpt lat="47.18112" lon="-1.58507">
        <ele>66</ele>
        <time>2021-09-05T09:34:03.000Z</time>
      </trkpt>
      <trkpt lat="47.1811" lon="-1.58525">
        <ele>66</ele>
        <time>2021-09-05T09:34:05.000Z</time>
      </trkpt>
      <trkpt lat="47.18111" lon="-1.58542">
        <ele>66</ele>
        <time>2021-09-05T09:34:07.000Z</time>
      </trkpt>
      <trkpt lat="47.18118" lon="-1.58555">
        <ele>67</ele>
        <time>2021-09-05T09:34:09.000Z</time>
      </trkpt>
      <trkpt lat="47.1813" lon="-1.58561">
        <ele>66</ele>
        <time>2021-09-05T09:34:11.000Z</time>
      </trkpt>
      <trkpt lat="47.18142" lon="-1.58567">
        <ele>67</ele>
        <time>2021-09-05T09:34:13.000Z</time>
      </trkpt>
      <trkpt lat="47.18155" lon="-1.58572">
        <ele>67</ele>
        <time>2021-09-05T09:34:15.000Z</time>
      </trkpt>
      <trkpt lat="47.18166" lon="-1.58578">
        <ele>68</ele>
        <time>2021-09-05T09:34:17.000Z</time>
      </trkpt>
      <trkpt lat="47.18178" lon="-1.58584">
        <ele>68</ele>
        <time>2021-09-05T09:34:19.000Z</time>
      </trkpt>
      <trkpt lat="47.1819" lon="-1.58589">
        <ele>69</ele>
        <time>2021-09-05T09:34:21.000Z</time>
      </trkpt>
      <trkpt lat="47.18201" lon="-1.58594">
        <ele>69</ele>
        <time>2021-09-05T09:34:23.000Z</time>
      </trkpt>
      <trkpt lat="47.18213" lon="-1.586">
        <ele>69</ele>
        <time>2021-09-05T09:34:25.000Z</time>
      </trkpt>
      <trkpt lat="47.18224" lon="-1.58605">
        <ele>70</ele>
        <time>2021-09-05T09:34:27.000Z</time>
      </trkpt>
      <trkpt lat="47.18235" lon="-1.5861">
        <ele>70</ele>
        <time>2021-09-05T09:34:29.000Z</time>
      </trkpt>
      <trkpt lat="47.18245" lon="-1.58617">
        <ele>70</ele>
        <time>2021-09-05T09:34:31.000Z</time>
      </trkpt>
      <trkpt lat="47.18247" lon="-1.58633">
        <ele>70</ele>
        <time>2021-09-05T09:34:33.000Z</time>
      </trkpt>
      <trkpt lat="47.18245" lon="-1.58651">
        <ele>70</ele>
        <time>2021-09-05T09:34:35.000Z</time>
      </trkpt>
      <trkpt lat="47.18245" lon="-1.58669">
        <ele>69</ele>
        <time>2021-09-05T09:34:37.000Z</time>
      </trkpt>
      <trkpt lat="47.18245" lon="-1.58687">
        <ele>69</ele>
        <time>2021-09-05T09:34:39.000Z</time>
      </trkpt>
      <trkpt lat="47.18244" lon="-1.58705">
        <ele>68</ele>
        <time>2021-09-05T09:34:41.000Z</time>
      </trkpt>
      <trkpt lat="47.18244" lon="-1.58723">
        <ele>68</ele>
        <time>2021-09-05T09:34:43.000Z</time>
      </trkpt>
      <trkpt lat="47.18245" lon="-1.58741">
        <ele>68</ele>
        <time>2021-09-05T09:34:45.000Z</time>
      </trkpt>
      <trkpt lat="47.18245" lon="-1.58759">
        <ele>67</ele>
        <time>2021-09-05T09:34:47.000Z</time>
      </trkpt>
      <trkpt lat="47.18246" lon="-1.58777">
        <ele>67</ele>
        <time>2021-09-05T09:34:49.000Z</time>
      </trkpt>
      <trkpt lat="47.18249" lon="-1.58794">
        <ele>67</ele>
        <time>2021-09-05T09:34:51.000Z</time>
      </trkpt>
      <trkpt lat="47.18255" lon="-1.58809">
        <ele>67</ele>
        <time>2021-09-05T09:34:53.000Z</time>
      </trkpt>
      <trkpt lat="47.18262" lon="-1.58823">
        <ele>67</ele>
        <time>2021-09-05T09:34:55.000Z</time>
      </trkpt>
      <trkpt lat="47.18268" lon="-1.58838">
        <ele>67</ele>
        <time>2021-09-05T09:34:57.000Z</time>
      </trkpt>
      <trkpt lat="47.18273" lon="-1.58852">
        <ele>67</ele>
        <time>2021-09-05T09:34:59.000Z</time>
      </trkpt>
      <trkpt lat="47.18276" lon="-1.58867">
        <ele>67</ele>
        <time>2021-09-05T09:35:01.000Z</time>
      </trkpt>
      <trkpt lat="47.1828" lon="-1.5888">
        <ele>67</ele>
        <time>2021-09-05T09:35:03.000Z</time>
      </trkpt>
      <trkpt lat="47.18287" lon="-1.5889">
        <ele>67</ele>
        <time>2021-09-05T09:35:05.000Z</time>
      </trkpt>
      <trkpt lat="47.18297" lon="-1.5889">
        <ele>66</ele>
        <time>2021-09-05T09:35:07.000Z</time>
      </trkpt>
      <trkpt lat="47.1831" lon="-1.58888">
        <ele>66</ele>
        <time>2021-09-05T09:35:10.000Z</time>
      </trkpt>
      <trkpt lat="47.18318" lon="-1.58896">
        <ele>66</ele>
        <time>2021-09-05T09:35:14.000Z</time>
      </trkpt>
      <trkpt lat="47.18308" lon="-1.58901">
        <ele>60</ele>
        <time>2021-09-05T10:49:37.300Z</time>
      </trkpt>
      <trkpt lat="47.18315" lon="-1.58894">
        <ele>73</ele>
        <time>2021-09-05T11:19:25.000Z</time>
      </trkpt>
      <trkpt lat="47.1832" lon="-1.58907">
        <ele>72</ele>
        <time>2021-09-05T11:19:36.000Z</time>
      </trkpt>
      <trkpt lat="47.1832" lon="-1.58921">
        <ele>72</ele>
        <time>2021-09-05T11:19:38.000Z</time>
      </trkpt>
      <trkpt lat="47.18323" lon="-1.58939">
        <ele>72</ele>
        <time>2021-09-05T11:19:41.000Z</time>
      </trkpt>
      <trkpt lat="47.18331" lon="-1.58954">
        <ele>71</ele>
        <time>2021-09-05T11:19:44.000Z</time>
      </trkpt>
      <trkpt lat="47.18338" lon="-1.58962">
        <ele>70</ele>
        <time>2021-09-05T11:19:46.000Z</time>
      </trkpt>
      <trkpt lat="47.18346" lon="-1.58972">
        <ele>70</ele>
        <time>2021-09-05T11:19:48.000Z</time>
      </trkpt>
      <trkpt lat="47.18355" lon="-1.58984">
        <ele>69</ele>
        <time>2021-09-05T11:19:51.000Z</time>
      </trkpt>
      <trkpt lat="47.18352" lon="-1.59003">
        <ele>68</ele>
        <time>2021-09-05T11:19:54.000Z</time>
      </trkpt>
      <trkpt lat="47.18344" lon="-1.59015">
        <ele>68</ele>
        <time>2021-09-05T11:19:56.000Z</time>
      </trkpt>
      <trkpt lat="47.18336" lon="-1.59027">
        <ele>68</ele>
        <time>2021-09-05T11:19:58.000Z</time>
      </trkpt>
      <trkpt lat="47.1833" lon="-1.59043">
        <ele>68</ele>
        <time>2021-09-05T11:20:00.000Z</time>
      </trkpt>
      <trkpt lat="47.18324" lon="-1.59059">
        <ele>68</ele>
        <time>2021-09-05T11:20:02.000Z</time>
      </trkpt>
      <trkpt lat="47.18318" lon="-1.59075">
        <ele>68</ele>
        <time>2021-09-05T11:20:04.000Z</time>
      </trkpt>
      <trkpt lat="47.18312" lon="-1.59091">
        <ele>68</ele>
        <time>2021-09-05T11:20:06.000Z</time>
      </trkpt>
      <trkpt lat="47.18306" lon="-1.59108">
        <ele>68</ele>
        <time>2021-09-05T11:20:08.000Z</time>
      </trkpt>
      <trkpt lat="47.18299" lon="-1.59124">
        <ele>69</ele>
        <time>2021-09-05T11:20:10.000Z</time>
      </trkpt>
      <trkpt lat="47.18294" lon="-1.59141">
        <ele>69</ele>
        <time>2021-09-05T11:20:12.000Z</time>
      </trkpt>
      <trkpt lat="47.18288" lon="-1.59157">
        <ele>69</ele>
        <time>2021-09-05T11:20:14.000Z</time>
      </trkpt>
      <trkpt lat="47.18284" lon="-1.59172">
        <ele>69</ele>
        <time>2021-09-05T11:20:16.000Z</time>
      </trkpt>
      <trkpt lat="47.18279" lon="-1.59187">
        <ele>70</ele>
        <time>2021-09-05T11:20:18.000Z</time>
      </trkpt>
      <trkpt lat="47.18276" lon="-1.59202">
        <ele>70</ele>
        <time>2021-09-05T11:20:20.000Z</time>
      </trkpt>
      <trkpt lat="47.18268" lon="-1.59216">
        <ele>70</ele>
        <time>2021-09-05T11:20:22.000Z</time>
      </trkpt>
      <trkpt lat="47.18257" lon="-1.59224">
        <ele>70</ele>
        <time>2021-09-05T11:20:24.000Z</time>
      </trkpt>
      <trkpt lat="47.18247" lon="-1.59235">
        <ele>70</ele>
        <time>2021-09-05T11:20:26.000Z</time>
      </trkpt>
      <trkpt lat="47.18237" lon="-1.59246">
        <ele>70</ele>
        <time>2021-09-05T11:20:28.000Z</time>
      </trkpt>
      <trkpt lat="47.18226" lon="-1.59257">
        <ele>71</ele>
        <time>2021-09-05T11:20:30.000Z</time>
      </trkpt>
      <trkpt lat="47.18216" lon="-1.59267">
        <ele>71</ele>
        <time>2021-09-05T11:20:32.000Z</time>
      </trkpt>
      <trkpt lat="47.18205" lon="-1.59278">
        <ele>71</ele>
        <time>2021-09-05T11:20:34.000Z</time>
      </trkpt>
      <trkpt lat="47.18195" lon="-1.59289">
        <ele>71</ele>
        <time>2021-09-05T11:20:36.000Z</time>
      </trkpt>
      <trkpt lat="47.18185" lon="-1.593">
        <ele>71</ele>
        <time>2021-09-05T11:20:38.000Z</time>
      </trkpt>
      <trkpt lat="47.18174" lon="-1.59311">
        <ele>71</ele>
        <time>2021-09-05T11:20:40.000Z</time>
      </trkpt>
      <trkpt lat="47.18164" lon="-1.59322">
        <ele>71</ele>
        <time>2021-09-05T11:20:42.000Z</time>
      </trkpt>
      <trkpt lat="47.18153" lon="-1.59332">
        <ele>70</ele>
        <time>2021-09-05T11:20:44.000Z</time>
      </trkpt>
      <trkpt lat="47.18142" lon="-1.59342">
        <ele>70</ele>
        <time>2021-09-05T11:20:46.000Z</time>
      </trkpt>
      <trkpt lat="47.18131" lon="-1.59353">
        <ele>70</ele>
        <time>2021-09-05T11:20:48.000Z</time>
      </trkpt>
      <trkpt lat="47.18121" lon="-1.59363">
        <ele>70</ele>
        <time>2021-09-05T11:20:50.000Z</time>
      </trkpt>
      <trkpt lat="47.1811" lon="-1.59374">
        <ele>70</ele>
        <time>2021-09-05T11:20:52.000Z</time>
      </trkpt>
      <trkpt lat="47.181" lon="-1.59384">
        <ele>70</ele>
        <time>2021-09-05T11:20:54.000Z</time>
      </trkpt>
      <trkpt lat="47.18089" lon="-1.59394">
        <ele>71</ele>
        <time>2021-09-05T11:20:56.000Z</time>
      </trkpt>
      <trkpt lat="47.18079" lon="-1.59405">
        <ele>71</ele>
        <time>2021-09-05T11:20:58.000Z</time>
      </trkpt>
      <trkpt lat="47.18069" lon="-1.59417">
        <ele>71</ele>
        <time>2021-09-05T11:21:00.000Z</time>
      </trkpt>
      <trkpt lat="47.1806" lon="-1.5943">
        <ele>71</ele>
        <time>2021-09-05T11:21:02.000Z</time>
      </trkpt>
      <trkpt lat="47.1805" lon="-1.59442">
        <ele>71</ele>
        <time>2021-09-05T11:21:04.000Z</time>
      </trkpt>
      <trkpt lat="47.18042" lon="-1.59457">
        <ele>71</ele>
        <time>2021-09-05T11:21:06.000Z</time>
      </trkpt>
      <trkpt lat="47.18036" lon="-1.59473">
        <ele>71</ele>
        <time>2021-09-05T11:21:08.000Z</time>
      </trkpt>
      <trkpt lat="47.18032" lon="-1.59491">
        <ele>70</ele>
        <time>2021-09-05T11:21:10.000Z</time>
      </trkpt>
      <trkpt lat="47.18027" lon="-1.59509">
        <ele>70</ele>
        <time>2021-09-05T11:21:12.000Z</time>
      </trkpt>
      <trkpt lat="47.18023" lon="-1.59526">
        <ele>71</ele>
        <time>2021-09-05T11:21:14.000Z</time>
      </trkpt>
      <trkpt lat="47.18018" lon="-1.59544">
        <ele>71</ele>
        <time>2021-09-05T11:21:16.000Z</time>
      </trkpt>
      <trkpt lat="47.18013" lon="-1.59561">
        <ele>70</ele>
        <time>2021-09-05T11:21:18.000Z</time>
      </trkpt>
      <trkpt lat="47.18009" lon="-1.59579">
        <ele>70</ele>
        <time>2021-09-05T11:21:20.000Z</time>
      </trkpt>
      <trkpt lat="47.18005" lon="-1.59597">
        <ele>70</ele>
        <time>2021-09-05T11:21:22.000Z</time>
      </trkpt>
      <trkpt lat="47.18" lon="-1.59614">
        <ele>69</ele>
        <time>2021-09-05T11:21:24.000Z</time>
      </trkpt>
      <trkpt lat="47.17995" lon="-1.59631">
        <ele>69</ele>
        <time>2021-09-05T11:21:26.000Z</time>
      </trkpt>
      <trkpt lat="47.1799" lon="-1.59649">
        <ele>69</ele>
        <time>2021-09-05T11:21:28.000Z</time>
      </trkpt>
      <trkpt lat="47.17986" lon="-1.59667">
        <ele>69</ele>
        <time>2021-09-05T11:21:30.000Z</time>
      </trkpt>
      <trkpt lat="47.17982" lon="-1.59685">
        <ele>68</ele>
        <time>2021-09-05T11:21:32.000Z</time>
      </trkpt>
      <trkpt lat="47.17978" lon="-1.59704">
        <ele>68</ele>
        <time>2021-09-05T11:21:34.000Z</time>
      </trkpt>
      <trkpt lat="47.17972" lon="-1.59722">
        <ele>68</ele>
        <time>2021-09-05T11:21:36.000Z</time>
      </trkpt>
      <trkpt lat="47.17966" lon="-1.59741">
        <ele>67</ele>
        <time>2021-09-05T11:21:38.000Z</time>
      </trkpt>
      <trkpt lat="47.17961" lon="-1.5976">
        <ele>66</ele>
        <time>2021-09-05T11:21:40.000Z</time>
      </trkpt>
      <trkpt lat="47.17955" lon="-1.59782">
        <ele>66</ele>
        <time>2021-09-05T11:21:42.000Z</time>
      </trkpt>
      <trkpt lat="47.17951" lon="-1.59805">
        <ele>65</ele>
        <time>2021-09-05T11:21:44.000Z</time>
      </trkpt>
      <trkpt lat="47.17947" lon="-1.5983">
        <ele>64</ele>
        <time>2021-09-05T11:21:46.000Z</time>
      </trkpt>
      <trkpt lat="47.17944" lon="-1.59856">
        <ele>63</ele>
        <time>2021-09-05T11:21:48.000Z</time>
      </trkpt>
      <trkpt lat="47.17942" lon="-1.59869">
        <ele>63</ele>
        <time>2021-09-05T11:21:49.000Z</time>
      </trkpt>
      <trkpt lat="47.17939" lon="-1.59882">
        <ele>62</ele>
        <time>2021-09-05T11:21:50.000Z</time>
      </trkpt>
      <trkpt lat="47.17934" lon="-1.59894">
        <ele>62</ele>
        <time>2021-09-05T11:21:51.000Z</time>
      </trkpt>
      <trkpt lat="47.17931" lon="-1.59907">
        <ele>61</ele>
        <time>2021-09-05T11:21:52.000Z</time>
      </trkpt>
      <trkpt lat="47.17929" lon="-1.5992">
        <ele>61</ele>
        <time>2021-09-05T11:21:53.000Z</time>
      </trkpt>
      <trkpt lat="47.17925" lon="-1.59933">
        <ele>60</ele>
        <time>2021-09-05T11:21:54.000Z</time>
      </trkpt>
      <trkpt lat="47.17918" lon="-1.59942">
        <ele>60</ele>
        <time>2021-09-05T11:21:55.000Z</time>
      </trkpt>
      <trkpt lat="47.17909" lon="-1.59945">
        <ele>59</ele>
        <time>2021-09-05T11:21:56.000Z</time>
      </trkpt>
      <trkpt lat="47.179" lon="-1.59946">
        <ele>60</ele>
        <time>2021-09-05T11:21:57.000Z</time>
      </trkpt>
      <trkpt lat="47.17885" lon="-1.59953">
        <ele>59</ele>
        <time>2021-09-05T11:21:59.000Z</time>
      </trkpt>
      <trkpt lat="47.17874" lon="-1.59968">
        <ele>59</ele>
        <time>2021-09-05T11:22:01.000Z</time>
      </trkpt>
      <trkpt lat="47.17865" lon="-1.59984">
        <ele>59</ele>
        <time>2021-09-05T11:22:03.000Z</time>
      </trkpt>
      <trkpt lat="47.17856" lon="-1.6">
        <ele>59</ele>
        <time>2021-09-05T11:22:05.000Z</time>
      </trkpt>
      <trkpt lat="47.17847" lon="-1.60016">
        <ele>59</ele>
        <time>2021-09-05T11:22:07.000Z</time>
      </trkpt>
      <trkpt lat="47.17838" lon="-1.60031">
        <ele>60</ele>
        <time>2021-09-05T11:22:09.000Z</time>
      </trkpt>
      <trkpt lat="47.1783" lon="-1.60047">
        <ele>60</ele>
        <time>2021-09-05T11:22:11.000Z</time>
      </trkpt>
      <trkpt lat="47.17822" lon="-1.60061">
        <ele>60</ele>
        <time>2021-09-05T11:22:13.000Z</time>
      </trkpt>
      <trkpt lat="47.17813" lon="-1.60075">
        <ele>61</ele>
        <time>2021-09-05T11:22:15.000Z</time>
      </trkpt>
      <trkpt lat="47.17806" lon="-1.60088">
        <ele>62</ele>
        <time>2021-09-05T11:22:17.000Z</time>
      </trkpt>
      <trkpt lat="47.17798" lon="-1.60101">
        <ele>62</ele>
        <time>2021-09-05T11:22:19.000Z</time>
      </trkpt>
      <trkpt lat="47.1779" lon="-1.60114">
        <ele>62</ele>
        <time>2021-09-05T11:22:21.000Z</time>
      </trkpt>
      <trkpt lat="47.17783" lon="-1.60127">
        <ele>63</ele>
        <time>2021-09-05T11:22:23.000Z</time>
      </trkpt>
      <trkpt lat="47.17775" lon="-1.6014">
        <ele>64</ele>
        <time>2021-09-05T11:22:25.000Z</time>
      </trkpt>
      <trkpt lat="47.17768" lon="-1.60154">
        <ele>64</ele>
        <time>2021-09-05T11:22:27.000Z</time>
      </trkpt>
      <trkpt lat="47.17761" lon="-1.60168">
        <ele>64</ele>
        <time>2021-09-05T11:22:29.000Z</time>
      </trkpt>
      <trkpt lat="47.17755" lon="-1.60182">
        <ele>65</ele>
        <time>2021-09-05T11:22:31.000Z</time>
      </trkpt>
      <trkpt lat="47.1775" lon="-1.60198">
        <ele>65</ele>
        <time>2021-09-05T11:22:33.000Z</time>
      </trkpt>
      <trkpt lat="47.17746" lon="-1.60215">
        <ele>66</ele>
        <time>2021-09-05T11:22:35.000Z</time>
      </trkpt>
      <trkpt lat="47.17742" lon="-1.60231">
        <ele>66</ele>
        <time>2021-09-05T11:22:37.000Z</time>
      </trkpt>
      <trkpt lat="47.17739" lon="-1.60248">
        <ele>67</ele>
        <time>2021-09-05T11:22:39.000Z</time>
      </trkpt>
      <trkpt lat="47.17734" lon="-1.60264">
        <ele>67</ele>
        <time>2021-09-05T11:22:41.000Z</time>
      </trkpt>
      <trkpt lat="47.17727" lon="-1.60278">
        <ele>67</ele>
        <time>2021-09-05T11:22:43.000Z</time>
      </trkpt>
      <trkpt lat="47.17718" lon="-1.60289">
        <ele>67</ele>
        <time>2021-09-05T11:22:45.000Z</time>
      </trkpt>
      <trkpt lat="47.1771" lon="-1.60301">
        <ele>67</ele>
        <time>2021-09-05T11:22:47.000Z</time>
      </trkpt>
      <trkpt lat="47.17702" lon="-1.60312">
        <ele>67</ele>
        <time>2021-09-05T11:22:49.000Z</time>
      </trkpt>
      <trkpt lat="47.17694" lon="-1.60323">
        <ele>67</ele>
        <time>2021-09-05T11:22:51.000Z</time>
      </trkpt>
      <trkpt lat="47.17686" lon="-1.60334">
        <ele>67</ele>
        <time>2021-09-05T11:22:53.000Z</time>
      </trkpt>
      <trkpt lat="47.17677" lon="-1.60346">
        <ele>68</ele>
        <time>2021-09-05T11:22:55.000Z</time>
      </trkpt>
      <trkpt lat="47.17669" lon="-1.60357">
        <ele>68</ele>
        <time>2021-09-05T11:22:57.000Z</time>
      </trkpt>
      <trkpt lat="47.1766" lon="-1.60369">
        <ele>68</ele>
        <time>2021-09-05T11:22:59.000Z</time>
      </trkpt>
      <trkpt lat="47.17652" lon="-1.60382">
        <ele>68</ele>
        <time>2021-09-05T11:23:01.000Z</time>
      </trkpt>
      <trkpt lat="47.17644" lon="-1.60396">
        <ele>67</ele>
        <time>2021-09-05T11:23:03.000Z</time>
      </trkpt>
      <trkpt lat="47.17635" lon="-1.6041">
        <ele>66</ele>
        <time>2021-09-05T11:23:05.000Z</time>
      </trkpt>
      <trkpt lat="47.17626" lon="-1.60426">
        <ele>65</ele>
        <time>2021-09-05T11:23:07.000Z</time>
      </trkpt>
      <trkpt lat="47.17616" lon="-1.6044">
        <ele>65</ele>
        <time>2021-09-05T11:23:09.000Z</time>
      </trkpt>
      <trkpt lat="47.17606" lon="-1.60455">
        <ele>65</ele>
        <time>2021-09-05T11:23:11.000Z</time>
      </trkpt>
      <trkpt lat="47.17597" lon="-1.6047">
        <ele>65</ele>
        <time>2021-09-05T11:23:13.000Z</time>
      </trkpt>
      <trkpt lat="47.17588" lon="-1.60485">
        <ele>65</ele>
        <time>2021-09-05T11:23:15.000Z</time>
      </trkpt>
      <trkpt lat="47.17578" lon="-1.60501">
        <ele>65</ele>
        <time>2021-09-05T11:23:17.000Z</time>
      </trkpt>
      <trkpt lat="47.17568" lon="-1.60517">
        <ele>64</ele>
        <time>2021-09-05T11:23:19.000Z</time>
      </trkpt>
      <trkpt lat="47.17559" lon="-1.60532">
        <ele>64</ele>
        <time>2021-09-05T11:23:21.000Z</time>
      </trkpt>
      <trkpt lat="47.1755" lon="-1.60547">
        <ele>64</ele>
        <time>2021-09-05T11:23:23.000Z</time>
      </trkpt>
      <trkpt lat="47.1754" lon="-1.60562">
        <ele>64</ele>
        <time>2021-09-05T11:23:25.000Z</time>
      </trkpt>
      <trkpt lat="47.17531" lon="-1.60578">
        <ele>65</ele>
        <time>2021-09-05T11:23:27.000Z</time>
      </trkpt>
      <trkpt lat="47.17522" lon="-1.60592">
        <ele>65</ele>
        <time>2021-09-05T11:23:29.000Z</time>
      </trkpt>
      <trkpt lat="47.17513" lon="-1.60608">
        <ele>64</ele>
        <time>2021-09-05T11:23:31.000Z</time>
      </trkpt>
      <trkpt lat="47.17504" lon="-1.60623">
        <ele>64</ele>
        <time>2021-09-05T11:23:33.000Z</time>
      </trkpt>
      <trkpt lat="47.17494" lon="-1.60638">
        <ele>64</ele>
        <time>2021-09-05T11:23:35.000Z</time>
      </trkpt>
      <trkpt lat="47.17485" lon="-1.60653">
        <ele>64</ele>
        <time>2021-09-05T11:23:37.000Z</time>
      </trkpt>
      <trkpt lat="47.17475" lon="-1.6067">
        <ele>64</ele>
        <time>2021-09-05T11:23:39.000Z</time>
      </trkpt>
      <trkpt lat="47.17465" lon="-1.60686">
        <ele>63</ele>
        <time>2021-09-05T11:23:41.000Z</time>
      </trkpt>
      <trkpt lat="47.17456" lon="-1.60702">
        <ele>63</ele>
        <time>2021-09-05T11:23:43.000Z</time>
      </trkpt>
      <trkpt lat="47.17446" lon="-1.60718">
        <ele>63</ele>
        <time>2021-09-05T11:23:45.000Z</time>
      </trkpt>
      <trkpt lat="47.17436" lon="-1.60735">
        <ele>62</ele>
        <time>2021-09-05T11:23:47.000Z</time>
      </trkpt>
      <trkpt lat="47.17427" lon="-1.60753">
        <ele>62</ele>
        <time>2021-09-05T11:23:49.000Z</time>
      </trkpt>
      <trkpt lat="47.17419" lon="-1.60772">
        <ele>61</ele>
        <time>2021-09-05T11:23:51.000Z</time>
      </trkpt>
      <trkpt lat="47.17412" lon="-1.60793">
        <ele>60</ele>
        <time>2021-09-05T11:23:53.000Z</time>
      </trkpt>
      <trkpt lat="47.17404" lon="-1.60824">
        <ele>60</ele>
        <time>2021-09-05T11:23:56.000Z</time>
      </trkpt>
      <trkpt lat="47.17399" lon="-1.60848">
        <ele>59</ele>
        <time>2021-09-05T11:23:58.000Z</time>
      </trkpt>
      <trkpt lat="47.17396" lon="-1.60871">
        <ele>59</ele>
        <time>2021-09-05T11:24:00.000Z</time>
      </trkpt>
      <trkpt lat="47.17395" lon="-1.60895">
        <ele>58</ele>
        <time>2021-09-05T11:24:02.000Z</time>
      </trkpt>
      <trkpt lat="47.17395" lon="-1.60919">
        <ele>59</ele>
        <time>2021-09-05T11:24:04.000Z</time>
      </trkpt>
      <trkpt lat="47.17397" lon="-1.60943">
        <ele>59</ele>
        <time>2021-09-05T11:24:06.000Z</time>
      </trkpt>
      <trkpt lat="47.17403" lon="-1.60966">
        <ele>58</ele>
        <time>2021-09-05T11:24:08.000Z</time>
      </trkpt>
      <trkpt lat="47.17415" lon="-1.60994">
        <ele>58</ele>
        <time>2021-09-05T11:24:11.000Z</time>
      </trkpt>
      <trkpt lat="47.1742" lon="-1.61015">
        <ele>58</ele>
        <time>2021-09-05T11:24:13.000Z</time>
      </trkpt>
      <trkpt lat="47.17421" lon="-1.61036">
        <ele>57</ele>
        <time>2021-09-05T11:24:15.000Z</time>
      </trkpt>
      <trkpt lat="47.17425" lon="-1.61054">
        <ele>57</ele>
        <time>2021-09-05T11:24:17.000Z</time>
      </trkpt>
      <trkpt lat="47.17432" lon="-1.61071">
        <ele>57</ele>
        <time>2021-09-05T11:24:19.000Z</time>
      </trkpt>
      <trkpt lat="47.17439" lon="-1.61088">
        <ele>58</ele>
        <time>2021-09-05T11:24:21.000Z</time>
      </trkpt>
      <trkpt lat="47.17446" lon="-1.61104">
        <ele>59</ele>
        <time>2021-09-05T11:24:23.000Z</time>
      </trkpt>
      <trkpt lat="47.17452" lon="-1.61121">
        <ele>59</ele>
        <time>2021-09-05T11:24:25.000Z</time>
      </trkpt>
      <trkpt lat="47.17459" lon="-1.61137">
        <ele>59</ele>
        <time>2021-09-05T11:24:27.000Z</time>
      </trkpt>
      <trkpt lat="47.17466" lon="-1.61153">
        <ele>60</ele>
        <time>2021-09-05T11:24:29.000Z</time>
      </trkpt>
      <trkpt lat="47.17472" lon="-1.61168">
        <ele>60</ele>
        <time>2021-09-05T11:24:31.000Z</time>
      </trkpt>
      <trkpt lat="47.17479" lon="-1.61185">
        <ele>60</ele>
        <time>2021-09-05T11:24:33.000Z</time>
      </trkpt>
      <trkpt lat="47.17485" lon="-1.61201">
        <ele>60</ele>
        <time>2021-09-05T11:24:35.000Z</time>
      </trkpt>
      <trkpt lat="47.17492" lon="-1.61217">
        <ele>60</ele>
        <time>2021-09-05T11:24:37.000Z</time>
      </trkpt>
      <trkpt lat="47.17499" lon="-1.61232">
        <ele>60</ele>
        <time>2021-09-05T11:24:39.000Z</time>
      </trkpt>
      <trkpt lat="47.17506" lon="-1.61247">
        <ele>60</ele>
        <time>2021-09-05T11:24:41.000Z</time>
      </trkpt>
      <trkpt lat="47.17514" lon="-1.61262">
        <ele>60</ele>
        <time>2021-09-05T11:24:43.000Z</time>
      </trkpt>
      <trkpt lat="47.17527" lon="-1.61282">
        <ele>60</ele>
        <time>2021-09-05T11:24:46.000Z</time>
      </trkpt>
      <trkpt lat="47.17538" lon="-1.61291">
        <ele>60</ele>
        <time>2021-09-05T11:24:48.000Z</time>
      </trkpt>
      <trkpt lat="47.1755" lon="-1.61298">
        <ele>60</ele>
        <time>2021-09-05T11:24:50.000Z</time>
      </trkpt>
      <trkpt lat="47.17559" lon="-1.61309">
        <ele>60</ele>
        <time>2021-09-05T11:24:52.000Z</time>
      </trkpt>
      <trkpt lat="47.17561" lon="-1.61327">
        <ele>59</ele>
        <time>2021-09-05T11:24:54.000Z</time>
      </trkpt>
      <trkpt lat="47.17556" lon="-1.61345">
        <ele>60</ele>
        <time>2021-09-05T11:24:56.000Z</time>
      </trkpt>
      <trkpt lat="47.17544" lon="-1.61357">
        <ele>60</ele>
        <time>2021-09-05T11:24:58.000Z</time>
      </trkpt>
      <trkpt lat="47.17533" lon="-1.61369">
        <ele>61</ele>
        <time>2021-09-05T11:25:00.000Z</time>
      </trkpt>
      <trkpt lat="47.17527" lon="-1.61387">
        <ele>61</ele>
        <time>2021-09-05T11:25:02.000Z</time>
      </trkpt>
      <trkpt lat="47.17522" lon="-1.61406">
        <ele>61</ele>
        <time>2021-09-05T11:25:04.000Z</time>
      </trkpt>
      <trkpt lat="47.17518" lon="-1.61423">
        <ele>62</ele>
        <time>2021-09-05T11:25:06.000Z</time>
      </trkpt>
      <trkpt lat="47.17515" lon="-1.6144">
        <ele>63</ele>
        <time>2021-09-05T11:25:08.000Z</time>
      </trkpt>
      <trkpt lat="47.17508" lon="-1.61455">
        <ele>64</ele>
        <time>2021-09-05T11:25:10.000Z</time>
      </trkpt>
      <trkpt lat="47.17497" lon="-1.61465">
        <ele>64</ele>
        <time>2021-09-05T11:25:12.000Z</time>
      </trkpt>
      <trkpt lat="47.17483" lon="-1.6147">
        <ele>64</ele>
        <time>2021-09-05T11:25:14.000Z</time>
      </trkpt>
      <trkpt lat="47.17471" lon="-1.61475">
        <ele>65</ele>
        <time>2021-09-05T11:25:16.000Z</time>
      </trkpt>
      <trkpt lat="47.17458" lon="-1.61481">
        <ele>66</ele>
        <time>2021-09-05T11:25:18.000Z</time>
      </trkpt>
      <trkpt lat="47.17446" lon="-1.61487">
        <ele>67</ele>
        <time>2021-09-05T11:25:20.000Z</time>
      </trkpt>
      <trkpt lat="47.17434" lon="-1.61494">
        <ele>67</ele>
        <time>2021-09-05T11:25:22.000Z</time>
      </trkpt>
      <trkpt lat="47.17422" lon="-1.61501">
        <ele>67</ele>
        <time>2021-09-05T11:25:24.000Z</time>
      </trkpt>
      <trkpt lat="47.17411" lon="-1.61509">
        <ele>67</ele>
        <time>2021-09-05T11:25:26.000Z</time>
      </trkpt>
      <trkpt lat="47.174" lon="-1.61517">
        <ele>67</ele>
        <time>2021-09-05T11:25:28.000Z</time>
      </trkpt>
      <trkpt lat="47.1739" lon="-1.61526">
        <ele>68</ele>
        <time>2021-09-05T11:25:30.000Z</time>
      </trkpt>
      <trkpt lat="47.1738" lon="-1.61535">
        <ele>68</ele>
        <time>2021-09-05T11:25:32.000Z</time>
      </trkpt>
      <trkpt lat="47.1737" lon="-1.61545">
        <ele>69</ele>
        <time>2021-09-05T11:25:34.000Z</time>
      </trkpt>
      <trkpt lat="47.1736" lon="-1.61555">
        <ele>70</ele>
        <time>2021-09-05T11:25:36.000Z</time>
      </trkpt>
      <trkpt lat="47.17352" lon="-1.61565">
        <ele>71</ele>
        <time>2021-09-05T11:25:38.000Z</time>
      </trkpt>
      <trkpt lat="47.17343" lon="-1.61576">
        <ele>71</ele>
        <time>2021-09-05T11:25:40.000Z</time>
      </trkpt>
      <trkpt lat="47.17334" lon="-1.61586">
        <ele>71</ele>
        <time>2021-09-05T11:25:42.000Z</time>
      </trkpt>
      <trkpt lat="47.17325" lon="-1.61598">
        <ele>71</ele>
        <time>2021-09-05T11:25:44.000Z</time>
      </trkpt>
      <trkpt lat="47.17316" lon="-1.6161">
        <ele>71</ele>
        <time>2021-09-05T11:25:46.000Z</time>
      </trkpt>
      <trkpt lat="47.17308" lon="-1.61624">
        <ele>70</ele>
        <time>2021-09-05T11:25:48.000Z</time>
      </trkpt>
      <trkpt lat="47.17299" lon="-1.61636">
        <ele>70</ele>
        <time>2021-09-05T11:25:50.000Z</time>
      </trkpt>
      <trkpt lat="47.17292" lon="-1.6165">
        <ele>70</ele>
        <time>2021-09-05T11:25:52.000Z</time>
      </trkpt>
      <trkpt lat="47.17286" lon="-1.61663">
        <ele>71</ele>
        <time>2021-09-05T11:25:54.000Z</time>
      </trkpt>
      <trkpt lat="47.17278" lon="-1.61678">
        <ele>71</ele>
        <time>2021-09-05T11:25:56.000Z</time>
      </trkpt>
      <trkpt lat="47.17271" lon="-1.61693">
        <ele>70</ele>
        <time>2021-09-05T11:25:58.000Z</time>
      </trkpt>
      <trkpt lat="47.17263" lon="-1.61707">
        <ele>70</ele>
        <time>2021-09-05T11:26:00.000Z</time>
      </trkpt>
      <trkpt lat="47.17256" lon="-1.61722">
        <ele>70</ele>
        <time>2021-09-05T11:26:02.000Z</time>
      </trkpt>
      <trkpt lat="47.1725" lon="-1.61737">
        <ele>71</ele>
        <time>2021-09-05T11:26:04.000Z</time>
      </trkpt>
      <trkpt lat="47.17245" lon="-1.61755">
        <ele>70</ele>
        <time>2021-09-05T11:26:06.000Z</time>
      </trkpt>
      <trkpt lat="47.17241" lon="-1.61773">
        <ele>70</ele>
        <time>2021-09-05T11:26:08.000Z</time>
      </trkpt>
      <trkpt lat="47.17232" lon="-1.61786">
        <ele>70</ele>
        <time>2021-09-05T11:26:10.000Z</time>
      </trkpt>
      <trkpt lat="47.1722" lon="-1.61796">
        <ele>70</ele>
        <time>2021-09-05T11:26:12.000Z</time>
      </trkpt>
      <trkpt lat="47.17209" lon="-1.61806">
        <ele>69</ele>
        <time>2021-09-05T11:26:14.000Z</time>
      </trkpt>
      <trkpt lat="47.17198" lon="-1.61816">
        <ele>69</ele>
        <time>2021-09-05T11:26:16.000Z</time>
      </trkpt>
      <trkpt lat="47.17187" lon="-1.61826">
        <ele>70</ele>
        <time>2021-09-05T11:26:18.000Z</time>
      </trkpt>
      <trkpt lat="47.17177" lon="-1.61836">
        <ele>70</ele>
        <time>2021-09-05T11:26:20.000Z</time>
      </trkpt>
      <trkpt lat="47.17166" lon="-1.61846">
        <ele>69</ele>
        <time>2021-09-05T11:26:22.000Z</time>
      </trkpt>
      <trkpt lat="47.17156" lon="-1.61855">
        <ele>70</ele>
        <time>2021-09-05T11:26:24.000Z</time>
      </trkpt>
      <trkpt lat="47.17145" lon="-1.61865">
        <ele>70</ele>
        <time>2021-09-05T11:26:26.000Z</time>
      </trkpt>
      <trkpt lat="47.17134" lon="-1.61876">
        <ele>70</ele>
        <time>2021-09-05T11:26:28.000Z</time>
      </trkpt>
      <trkpt lat="47.17124" lon="-1.61886">
        <ele>70</ele>
        <time>2021-09-05T11:26:30.000Z</time>
      </trkpt>
      <trkpt lat="47.17113" lon="-1.61896">
        <ele>70</ele>
        <time>2021-09-05T11:26:32.000Z</time>
      </trkpt>
      <trkpt lat="47.17103" lon="-1.61907">
        <ele>70</ele>
        <time>2021-09-05T11:26:34.000Z</time>
      </trkpt>
      <trkpt lat="47.17092" lon="-1.61917">
        <ele>70</ele>
        <time>2021-09-05T11:26:36.000Z</time>
      </trkpt>
      <trkpt lat="47.17082" lon="-1.61927">
        <ele>70</ele>
        <time>2021-09-05T11:26:38.000Z</time>
      </trkpt>
      <trkpt lat="47.17073" lon="-1.61936">
        <ele>70</ele>
        <time>2021-09-05T11:26:40.000Z</time>
      </trkpt>
      <trkpt lat="47.17064" lon="-1.61947">
        <ele>70</ele>
        <time>2021-09-05T11:26:42.000Z</time>
      </trkpt>
      <trkpt lat="47.17054" lon="-1.61958">
        <ele>70</ele>
        <time>2021-09-05T11:26:44.000Z</time>
      </trkpt>
      <trkpt lat="47.17046" lon="-1.61971">
        <ele>70</ele>
        <time>2021-09-05T11:26:46.000Z</time>
      </trkpt>
      <trkpt lat="47.17037" lon="-1.61984">
        <ele>70</ele>
        <time>2021-09-05T11:26:48.000Z</time>
      </trkpt>
      <trkpt lat="47.17028" lon="-1.61996">
        <ele>70</ele>
        <time>2021-09-05T11:26:50.000Z</time>
      </trkpt>
      <trkpt lat="47.17019" lon="-1.62009">
        <ele>70</ele>
        <time>2021-09-05T11:26:52.000Z</time>
      </trkpt>
      <trkpt lat="47.1701" lon="-1.62023">
        <ele>70</ele>
        <time>2021-09-05T11:26:54.000Z</time>
      </trkpt>
      <trkpt lat="47.17001" lon="-1.62037">
        <ele>69</ele>
        <time>2021-09-05T11:26:56.000Z</time>
      </trkpt>
      <trkpt lat="47.16993" lon="-1.62052">
        <ele>69</ele>
        <time>2021-09-05T11:26:58.000Z</time>
      </trkpt>
      <trkpt lat="47.16985" lon="-1.62067">
        <ele>69</ele>
        <time>2021-09-05T11:27:00.000Z</time>
      </trkpt>
      <trkpt lat="47.16976" lon="-1.62082">
        <ele>69</ele>
        <time>2021-09-05T11:27:02.000Z</time>
      </trkpt>
      <trkpt lat="47.16967" lon="-1.62097">
        <ele>69</ele>
        <time>2021-09-05T11:27:04.000Z</time>
      </trkpt>
      <trkpt lat="47.16959" lon="-1.62112">
        <ele>69</ele>
        <time>2021-09-05T11:27:06.000Z</time>
      </trkpt>
      <trkpt lat="47.16951" lon="-1.62127">
        <ele>70</ele>
        <time>2021-09-05T11:27:08.000Z</time>
      </trkpt>
      <trkpt lat="47.16943" lon="-1.62142">
        <ele>70</ele>
        <time>2021-09-05T11:27:10.000Z</time>
      </trkpt>
      <trkpt lat="47.16936" lon="-1.62157">
        <ele>69</ele>
        <time>2021-09-05T11:27:12.000Z</time>
      </trkpt>
      <trkpt lat="47.16929" lon="-1.62173">
        <ele>69</ele>
        <time>2021-09-05T11:27:14.000Z</time>
      </trkpt>
      <trkpt lat="47.16922" lon="-1.62189">
        <ele>70</ele>
        <time>2021-09-05T11:27:16.000Z</time>
      </trkpt>
      <trkpt lat="47.16914" lon="-1.62204">
        <ele>69</ele>
        <time>2021-09-05T11:27:18.000Z</time>
      </trkpt>
      <trkpt lat="47.16905" lon="-1.62217">
        <ele>70</ele>
        <time>2021-09-05T11:27:20.000Z</time>
      </trkpt>
      <trkpt lat="47.16895" lon="-1.62229">
        <ele>70</ele>
        <time>2021-09-05T11:27:22.000Z</time>
      </trkpt>
      <trkpt lat="47.16885" lon="-1.62241">
        <ele>70</ele>
        <time>2021-09-05T11:27:24.000Z</time>
      </trkpt>
      <trkpt lat="47.16875" lon="-1.62254">
        <ele>70</ele>
        <time>2021-09-05T11:27:26.000Z</time>
      </trkpt>
      <trkpt lat="47.16865" lon="-1.62265">
        <ele>70</ele>
        <time>2021-09-05T11:27:28.000Z</time>
      </trkpt>
      <trkpt lat="47.16855" lon="-1.62278">
        <ele>70</ele>
        <time>2021-09-05T11:27:30.000Z</time>
      </trkpt>
      <trkpt lat="47.16845" lon="-1.62289">
        <ele>70</ele>
        <time>2021-09-05T11:27:32.000Z</time>
      </trkpt>
      <trkpt lat="47.16834" lon="-1.62301">
        <ele>70</ele>
        <time>2021-09-05T11:27:34.000Z</time>
      </trkpt>
      <trkpt lat="47.16824" lon="-1.62312">
        <ele>70</ele>
        <time>2021-09-05T11:27:36.000Z</time>
      </trkpt>
      <trkpt lat="47.16813" lon="-1.62321">
        <ele>71</ele>
        <time>2021-09-05T11:27:38.000Z</time>
      </trkpt>
      <trkpt lat="47.16801" lon="-1.62328">
        <ele>70</ele>
        <time>2021-09-05T11:27:40.000Z</time>
      </trkpt>
      <trkpt lat="47.1679" lon="-1.62336">
        <ele>70</ele>
        <time>2021-09-05T11:27:42.000Z</time>
      </trkpt>
      <trkpt lat="47.16777" lon="-1.62341">
        <ele>70</ele>
        <time>2021-09-05T11:27:44.000Z</time>
      </trkpt>
      <trkpt lat="47.16765" lon="-1.62349">
        <ele>70</ele>
        <time>2021-09-05T11:27:46.000Z</time>
      </trkpt>
      <trkpt lat="47.16753" lon="-1.62358">
        <ele>69</ele>
        <time>2021-09-05T11:27:48.000Z</time>
      </trkpt>
      <trkpt lat="47.16743" lon="-1.6237">
        <ele>68</ele>
        <time>2021-09-05T11:27:50.000Z</time>
      </trkpt>
      <trkpt lat="47.16735" lon="-1.62385">
        <ele>68</ele>
        <time>2021-09-05T11:27:52.000Z</time>
      </trkpt>
      <trkpt lat="47.1673" lon="-1.62402">
        <ele>69</ele>
        <time>2021-09-05T11:27:54.000Z</time>
      </trkpt>
      <trkpt lat="47.16728" lon="-1.6242">
        <ele>69</ele>
        <time>2021-09-05T11:27:56.000Z</time>
      </trkpt>
      <trkpt lat="47.16725" lon="-1.62439">
        <ele>69</ele>
        <time>2021-09-05T11:27:58.000Z</time>
      </trkpt>
      <trkpt lat="47.16721" lon="-1.62456">
        <ele>68</ele>
        <time>2021-09-05T11:28:00.000Z</time>
      </trkpt>
      <trkpt lat="47.16715" lon="-1.62474">
        <ele>68</ele>
        <time>2021-09-05T11:28:02.000Z</time>
      </trkpt>
      <trkpt lat="47.16714" lon="-1.62491">
        <ele>68</ele>
        <time>2021-09-05T11:28:04.000Z</time>
      </trkpt>
      <trkpt lat="47.16724" lon="-1.625">
        <ele>68</ele>
        <time>2021-09-05T11:28:06.000Z</time>
      </trkpt>
      <trkpt lat="47.16737" lon="-1.62504">
        <ele>69</ele>
        <time>2021-09-05T11:28:08.000Z</time>
      </trkpt>
      <trkpt lat="47.1675" lon="-1.6251">
        <ele>69</ele>
        <time>2021-09-05T11:28:10.000Z</time>
      </trkpt>
      <trkpt lat="47.16761" lon="-1.62517">
        <ele>69</ele>
        <time>2021-09-05T11:28:12.000Z</time>
      </trkpt>
      <trkpt lat="47.16772" lon="-1.62523">
        <ele>69</ele>
        <time>2021-09-05T11:28:14.000Z</time>
      </trkpt>
      <trkpt lat="47.16783" lon="-1.6253">
        <ele>70</ele>
        <time>2021-09-05T11:28:16.000Z</time>
      </trkpt>
      <trkpt lat="47.16793" lon="-1.62537">
        <ele>70</ele>
        <time>2021-09-05T11:28:18.000Z</time>
      </trkpt>
      <trkpt lat="47.16804" lon="-1.62544">
        <ele>70</ele>
        <time>2021-09-05T11:28:20.000Z</time>
      </trkpt>
      <trkpt lat="47.16814" lon="-1.62553">
        <ele>70</ele>
        <time>2021-09-05T11:28:22.000Z</time>
      </trkpt>
      <trkpt lat="47.16823" lon="-1.62564">
        <ele>70</ele>
        <time>2021-09-05T11:28:24.000Z</time>
      </trkpt>
      <trkpt lat="47.1683" lon="-1.62578">
        <ele>70</ele>
        <time>2021-09-05T11:28:26.000Z</time>
      </trkpt>
      <trkpt lat="47.16831" lon="-1.62594">
        <ele>71</ele>
        <time>2021-09-05T11:28:28.000Z</time>
      </trkpt>
      <trkpt lat="47.16821" lon="-1.62608">
        <ele>71</ele>
        <time>2021-09-05T11:28:30.000Z</time>
      </trkpt>
      <trkpt lat="47.16811" lon="-1.6262">
        <ele>71</ele>
        <time>2021-09-05T11:28:32.000Z</time>
      </trkpt>
      <trkpt lat="47.16803" lon="-1.62633">
        <ele>71</ele>
        <time>2021-09-05T11:28:34.000Z</time>
      </trkpt>
      <trkpt lat="47.16796" lon="-1.62645">
        <ele>72</ele>
        <time>2021-09-05T11:28:36.000Z</time>
      </trkpt>
      <trkpt lat="47.16789" lon="-1.62656">
        <ele>72</ele>
        <time>2021-09-05T11:28:38.000Z</time>
      </trkpt>
      <trkpt lat="47.16779" lon="-1.62658">
        <ele>72</ele>
        <time>2021-09-05T11:28:41.000Z</time>
      </trkpt>
    </trkseg>
  </trk>
</gpx>